<<back to data home page
Ready for hot weather this Summer?? Stay in touch!! - DONATE ANY AMOUNT BY CLICKING THIS LINK!!!


    Month/Day/Year       Maximum   Minimum    Rel    Dew       Rainfall  Seasonal  Soil     Soil      Baro       Wind    Wind        Peak    Peak Speed Evap     Leaf     Net
    and                  Air Temp  Air Temp   Hum    Point     Inches    Rainfall  Temp     Moisture  Pressure   Speed   Direction   Speed   Direction   Pan     Wetness  Radiation
    Local Time           Deg F     Deg F      %      Deg F               Inches    Deg F    dS/m      mbar       MPH     comp  deg   MPH     comp  deg  Inches   mV       W_m2
----------------------------------------------------------------------------------------------------------------------------------------------------------------------------------
   07/23/2019 02:40      73.0      72.5       57     56.6      0.00      0.00      80.6     0.50      1015.8     0.9       E    80   3.0      NE    46   9.88    266      -37.9
   07/23/2019 02:30      73.0      72.7       57     56.8      0.00      0.00      80.6     0.50      1015.8     0.9     ESE   110   3.6     ENE    72   9.88    266      -40.0
   07/23/2019 02:20      73.7      72.9       56     56.5      0.00      0.00      80.7     0.50      1015.7     1.2      SE   130   2.0       E   101   9.88    266      -44.5
   07/23/2019 02:10      73.8      73.2       54     55.9      0.00      0.00      80.7     0.50      1015.8     0.6     ESE   103   2.5     ENE    74   9.88    266      -41.1
   07/23/2019 02:00      73.7      73.4       52     54.8      0.00      0.00      80.7     0.50      1015.8     0.5       E    95   2.0     ESE   113   9.89    266      -36.1
   07/23/2019 01:50      73.8      73.1       49     53.3      0.00      0.00      80.7     0.50      1015.8     0.5     ESE   106   1.7      NE    44   9.89    266      -34.8
   07/23/2019 01:40      73.4      73.0       48     52.5      0.00      0.00      80.7     0.50      1015.7     0.2     ESE   116   2.0       E    91   9.89    266      -35.0
   07/23/2019 01:30      73.4      72.8       49     52.6      0.00      0.00      80.8     0.50      1015.7     0.0     SSE   166   0.6     SSW   196   9.89    266      -36.8
   07/23/2019 01:20      73.2      72.8       49     52.7      0.00      0.00      80.7     0.50      1015.7     0.1      NE    45   0.8      NE    45   9.89    266      -36.6
   07/23/2019 01:10      73.0      72.4       49     52.5      0.00      0.00      80.8     0.50      1015.6     0.4      SE   144   1.4      SE   138   9.90    266      -39.6
   07/23/2019 01:00      72.7      72.4       50     52.7      0.00      0.00      80.8     0.50      1015.7     0.5     SSE   166   1.3       S   190   9.90    266      -38.7
   07/23/2019 00:50      72.6      71.8       54     54.3      0.00      0.00      80.8     0.50      1015.7     0.2     SSW   198   1.1     SSW   192   9.90    266      -42.4
   07/23/2019 00:40      73.0      72.0       54     54.6      0.00      0.00      80.8     0.50      1015.6     0.0      SE   138   0.7      SE   137   9.91    266      -47.4
   07/23/2019 00:30      73.3      72.7       53     54.9      0.00      0.00      80.8     0.50      1015.5     0.0       N     0   0.0     SSE   166   9.91    266      -49.9
   07/23/2019 00:20      73.8      72.9       52     54.8      0.00      0.00      80.8     0.50      1015.4     0.1       E    90   0.8       E    97   9.91    266      -50.0
   07/23/2019 00:10      74.1      73.2       51     54.6      0.00      0.00      80.8     0.50      1015.5     1.0       S   177   2.1     SSW   207   9.91    266      -51.5
   07/23/2019 00:00      74.3      73.2       51     54.6      0.00      0.00      80.8     0.50      1015.5     0.5     SSE   153   1.5     SSW   196   9.92    266      -53.6
   07/22/2019 23:50      74.3      73.7       51     54.8      0.00      0.00      80.8     0.50      1015.6     0.2       S   175   0.9       S   171   9.92    266      -53.6
   07/22/2019 23:40      74.2      73.7       51     54.9      0.00      0.00      80.8     0.50      1015.5     0.4       S   172   1.3     SSW   193   9.92    266      -54.1
   07/22/2019 23:30      75.1      74.0       50     54.7      0.00      0.00      80.8     0.50      1015.5     0.0     ESE   119   0.7     ENE    71   9.93    266      -55.1
   07/22/2019 23:20      75.4      74.8       49     54.9      0.00      0.00      80.8     0.50      1015.5     0.1     ESE   122   0.9     SSE   147   9.93    266      -54.4
   07/22/2019 23:10      75.3      74.2       49     54.3      0.00      0.00      80.8     0.51      1015.6     1.2       S   172   2.9       S   180   9.93    266      -55.9
   07/22/2019 23:00      74.9      74.3       46     52.5      0.00      0.00      80.8     0.51      1015.5     1.0       S   170   2.2       S   181   9.94    266      -56.0
   07/22/2019 22:50      74.6      73.7       43     50.5      0.00      0.00      80.8     0.50      1015.6     1.0       S   169   2.0       S   176   9.94    265      -54.9
   07/22/2019 22:40      74.3      73.5       43     50.2      0.00      0.00      80.8     0.51      1015.7     0.5       S   173   1.5     SSW   192   9.94    265      -55.2
   07/22/2019 22:30      74.9      74.0       43     50.3      0.00      0.00      80.8     0.50      1015.7     0.5     SSE   167   1.4     SSE   167   9.95    266      -57.7
   07/22/2019 22:20      75.4      74.6       41     49.8      0.00      0.00      80.9     0.51      1015.7     0.5     SSE   147   1.3      SE   140   9.95    265      -58.5
   07/22/2019 22:10      76.2      75.1       40     49.5      0.00      0.00      80.8     0.50      1015.7     0.7       S   174   1.5      SE   144   9.95    265      -59.4
   07/22/2019 22:00      76.5      76.0       39     49.6      0.00      0.00      80.8     0.51      1015.7     1.3       S   184   2.4       S   190   9.96    265      -58.2
   07/22/2019 21:50      76.5      75.7       39     49.6      0.00      0.00      80.8     0.50      1015.8     0.8     SSW   193   1.8     SSW   199   9.96    265      -57.0
   07/22/2019 21:40      77.2      75.9       39     49.5      0.00      0.00      80.8     0.50      1015.8     0.5       S   184   1.6     SSW   208   9.96    265      -59.4
   07/22/2019 21:30      77.9      76.9       37     49.4      0.00      0.00      80.7     0.50      1015.7     0.2     SSE   163   0.9     SSE   157   9.97    264      -63.4
   07/22/2019 21:20      78.4      77.7       37     49.5      0.00      0.00      80.8     0.50      1015.6     0.2      SE   136   0.8     SSE   149   9.97    264      -65.5
   07/22/2019 21:10      78.5      77.8       38     50.4      0.00      0.00      80.8     0.50      1015.4     0.3      NE    41   2.8       N     4   9.98    265      -65.6
   07/22/2019 21:00      79.5      78.4       38     51.3      0.00      0.00      80.7     0.50      1015.4     0.0     ESE   102   0.2     ESE   102   9.98    264      -66.8
   07/22/2019 20:50      79.8      79.3       38     51.4      0.00      0.00      80.7     0.50      1015.3     0.0       E    79   0.9     ENE    75   9.98    264      -66.9
   07/22/2019 20:40      80.2      79.6       38     51.7      0.00      0.00      80.7     0.50      1015.3     0.6       E    92   2.7     ESE   109   9.99    264      -66.0
   07/22/2019 20:30      81.1      80.0       37     51.8      0.00      0.00      80.6     0.50      1015.2     1.5       E    97   3.2      SE   135   9.99    264      -68.2
   07/22/2019 20:20      81.9      80.8       35     50.7      0.00      0.00      80.6     0.50      1015.0     1.2     ESE   104   2.3     ESE   102  10.00    264      -70.8
   07/22/2019 20:10      82.2      81.3       34     51.0      0.00      0.00      80.6     0.50      1015.0     0.7     ESE   104   1.7       E   100  10.00    264      -72.0
   07/22/2019 20:00      82.9      81.8       35     51.6      0.00      0.00      80.6     0.50      1015.0     1.8      SE   133   3.9     ESE   123  10.01    264      -69.5
   07/22/2019 19:50      83.3      82.6       36     53.4      0.00      0.00      80.5     0.50      1014.9     1.8      SE   145   3.9       S   180  10.01    264      -65.3
   07/22/2019 19:40      84.2      82.9       35     53.1      0.00      0.00      80.5     0.50      1014.8     2.3     SSE   165   5.0       S   187  10.02    264      -56.3
   07/22/2019 19:30      85.1      83.9       34     53.0      0.00      0.00      80.5     0.50      1014.6     3.0       S   170   5.3     SSW   193  10.03    264      -43.2
   07/22/2019 19:20      86.2      84.8       33     53.3      0.00      0.00      80.4     0.50      1014.6     3.2       S   172   5.7       S   178  10.03    264      -28.1
   07/22/2019 19:10      87.1      86.0       32     53.1      0.00      0.00      80.4     0.50      1014.5     3.1       S   174   5.0       S   184  10.04    264       -9.2
   07/22/2019 19:00      88.2      86.8       31     53.0      0.00      0.00      80.4     0.50      1014.4     2.9     SSE   166   5.3      SE   136  10.05    264       10.1
   07/22/2019 18:50      88.9      87.9       29     52.3      0.00      0.00      80.2     0.50      1014.3     3.4     SSE   157   5.4     SSE   156  10.05    264       31.4
   07/22/2019 18:40      90.0      88.6       28     51.5      0.00      0.00      80.3     0.50      1014.3     3.6     SSE   162   6.9      SE   139  10.06    264       53.7
   07/22/2019 18:30      90.9      89.8       26     51.3      0.00      0.00      80.2     0.50      1014.2     4.0     SSE   159   7.0      SE   146  10.07    264       77.5
   07/22/2019 18:20      91.1      90.5       27     51.8      0.00      0.00      80.2     0.50      1014.1     3.5     SSE   162   5.1     SSW   196  10.08    264      101.1
   07/22/2019 18:10      91.1      90.6       29     54.0      0.00      0.00      80.1     0.50      1014.0     3.6       S   173   6.3     SSW   209  10.08    264      125.0
   07/22/2019 18:00      91.3      90.7       30     55.0      0.00      0.00      80.1     0.50      1014.0     3.4       S   177   5.8     SSW   202  10.09    264      149.8
   07/22/2019 17:50      91.5      90.9       31     55.9      0.00      0.00      80.1     0.50      1014.0     3.6       S   173   6.2     SSW   201  10.10    264      175.4
   07/22/2019 17:40      91.9      90.9       32     57.0      0.00      0.00      80.0     0.50      1013.9     4.2       S   169   7.0     SSE   168  10.10    264      200.4
   07/22/2019 17:30      92.2      91.5       32     57.8      0.00      0.00      80.0     0.50      1014.0     4.3     SSE   164   7.6      SE   138  10.11    264      225.6
   07/22/2019 17:20      92.3      91.5       32     58.1      0.00      0.00      80.0     0.50      1014.0     4.6     SSE   169   7.2     SSW   205  10.12    264      249.9
   07/22/2019 17:10      92.6      91.3       32     58.0      0.00      0.00      79.8     0.50      1014.0     5.1       S   179   9.3     SSW   202  10.12    264      274.8
   07/22/2019 17:00      93.3      92.0       31     57.8      0.00      0.00      79.8     0.50      1013.9     4.9     SSW   192   8.6     SSW   194  10.13    264      296.9
   07/22/2019 16:50      94.2      93.1       30     57.6      0.00      0.00      79.8     0.50      1013.9     5.0       S   185   8.0     SSW   206  10.13    264      316.7
   07/22/2019 16:40      95.9      93.4       30     58.4      0.00      0.00      79.8     0.50      1013.8     4.3       S   173   8.0       S   183  10.14    264      337.5
   07/22/2019 16:30      96.6      95.2       30     59.6      0.00      0.00      79.7     0.50      1013.7     3.2     ESE   105   7.1     ESE   114  10.14    264      361.2
   07/22/2019 16:20      99.6      96.1       28     58.8      0.00      0.00      79.7     0.50      1013.6     3.8     ENE    78   8.0     ENE    77  10.15    264      375.5
   07/22/2019 16:10      99.4      98.3       22     53.8      0.00      0.00      79.6     0.50      1013.6     1.3     NNE    33   3.4       E    82  10.15    264      390.5
   07/22/2019 16:00      99.5      98.4       21     52.1      0.00      0.00      79.6     0.50      1013.7     2.2      NE    44   5.4      NE    46  10.16    263      417.8
   07/22/2019 15:50      99.1      97.4       21     50.9      0.00      0.00      79.5     0.50      1013.8     2.2      NE    39   5.4     NNE    16  10.16    264      451.6
   07/22/2019 15:40      99.0      97.9       21     51.8      0.00      0.00      79.5     0.50      1013.9     1.9      NE    48   4.1     ENE    73  10.16    263      483.2
   07/22/2019 15:30      98.4      96.6       21     51.5      0.00      0.00      79.5     0.50      1013.9     1.5      NE    46   4.2      SE   133  10.17    263      427.9
   07/22/2019 15:20      98.1      95.9       22     51.3      0.00      0.00      79.3     0.50      1013.9     1.5     ENE    68   3.3      NE    50  10.17    263      505.7
   07/22/2019 15:10      96.0      94.0       24     52.2      0.00      0.00      79.4     0.50      1014.1     1.1      NE    34   4.0     NNE    12  10.18    264      509.8
   07/22/2019 15:00      94.4      92.7       26     53.6      0.00      0.00      79.3     0.50      1014.2     1.8     NNE    18   3.9       N   353  10.18    264      527.6
   07/22/2019 14:50      94.6      92.5       27     54.1      0.00      0.00      79.3     0.50      1014.5     3.2       W   279   5.6      NW   307  10.19    264      537.2
   07/22/2019 14:40      94.6      92.5       28     55.2      0.00      0.00      79.2     0.50      1014.7     1.3     WNW   299   5.1      NW   309  10.19    264      462.5
   07/22/2019 14:30      92.7      91.5       29     54.9      0.00      0.00      79.2     0.50      1014.8     1.4      NW   306   3.7     SSW   204  10.19    264      338.1
   07/22/2019 14:20      92.4      91.3       29     55.3      0.00      0.00      79.2     0.50      1014.9     2.4     SSW   191   4.7      SW   230  10.20    264      613.1
   07/22/2019 14:10      92.7      91.0       31     56.7      0.00      0.00      79.1     0.50      1015.0     2.0      NE    43   4.3      NE    46  10.20    264      585.1
   07/22/2019 14:00      91.4      90.8       32     57.2      0.00      0.00      78.9     0.50      1015.0     2.0      NE    37   4.3     NNW   343  10.21    264      553.2
   07/22/2019 13:50      91.3      88.9       34     57.5      0.00      0.00      79.0     0.50      1015.1     1.5     NNE    32   4.4     ESE   104  10.21    264      611.6
   07/22/2019 13:40      90.0      88.9       34     57.3      0.00      0.00      78.8     0.50      1015.3     2.2     ESE   105   4.7     ESE   116  10.21    264      618.9
   07/22/2019 13:30      90.0      89.0       34     57.7      0.00      0.00      78.8     0.50      1015.5     2.6      NE    48   4.7     NNE    20  10.22    264      615.5
   07/22/2019 13:20      90.0      88.9       36     58.9      0.00      0.00      78.8     0.50      1015.6     2.7     NNE    33   6.2      NE    44  10.22    264      619.7
   07/22/2019 13:10      89.2      88.2       38     59.6      0.00      0.00      78.8     0.50      1015.7     2.5      NE    44   5.4     NNE    29  10.22    264      609.6
   07/22/2019 13:00      89.0      87.8       38     59.8      0.00      0.00      78.9     0.50      1015.7     2.0      NE    55   4.0     NNE    21  10.22    264      602.4
   07/22/2019 12:50      88.2      87.2       39     59.9      0.00      0.00      78.8     0.50      1015.8     2.0      NE    38   4.9     ENE    61  10.22    264      622.2
   07/22/2019 12:40      87.8      86.8       40     60.0      0.00      0.00      78.8     0.50      1016.0     1.9     NNE    21   5.4      NE    44  10.22    264      640.6
   07/22/2019 12:30      87.1      85.5       40     59.5      0.00      0.00      78.8     0.50      1016.1     2.4      NE    46   5.8      NE    41  10.23    264      614.3
   07/22/2019 12:20      86.0      85.0       40     58.6      0.00      0.00      78.7     0.50      1016.1     2.9     NNE    32   6.2     NNE    26  10.23    265      598.1
   07/22/2019 12:10      85.7      84.9       40     58.3      0.00      0.00      78.7     0.50      1016.1     2.4     NNE    22   4.9       N     4  10.24    264      602.9
   07/22/2019 12:00      85.1      83.0       42     58.6      0.00      0.00      78.7     0.50      1016.1     2.1     NNE    19   4.2      NE    42  10.26    264      601.7
   07/22/2019 11:50      83.0      81.7       45     58.9      0.00      0.00      78.7     0.50      1016.0     1.6     ENE    74   4.1      NE    50  10.26    264      598.6
   07/22/2019 11:40      82.4      81.5       45     58.7      0.00      0.00      78.8     0.50      1016.0     2.2     NNE    31   4.6     NNW   345   9.00    265      443.6
   07/22/2019 11:30      82.2      81.3       46     58.9      0.00      0.00      78.8     0.50      1016.1     2.4       N     8   6.1       N     1   9.00    264      557.7
   07/22/2019 11:20      81.5      80.3       48     58.9      0.00      0.00      78.8     0.50      1016.1     2.0      NE    43   3.7     ENE    63   9.00    265      571.7
   07/22/2019 11:10      80.6      79.3       48     58.3      0.00      0.00      78.8     0.50      1016.2     2.0     NNE    32   4.4     NNW   344   9.00    265      556.4
   07/22/2019 11:00      79.8      79.0       49     58.4      0.00      0.00      78.8     0.50      1016.3     1.7     ENE    59   3.9     ESE   110   9.00    265      549.2
   07/22/2019 10:50      79.4      77.3       51     58.4      0.00      0.00      78.8     0.50      1016.3     1.3     NNE    27   3.4       N     5   9.00    265      559.7
   07/22/2019 10:40      77.9      76.9       52     58.5      0.00      0.00      78.8     0.50      1016.2     1.7       N   355   4.3     NNW   329   9.01    266      446.0
   07/22/2019 10:30      77.3      75.9       53     58.1      0.00      0.00      78.8     0.50      1016.3     1.7      NE    36   4.3     ESE   114   9.01    265      515.0
   07/22/2019 10:20      76.7      74.9       55     58.9      0.00      0.00      78.9     0.51      1016.3     1.5     NNE    31   3.4     NNE    33   9.01    266      510.2
   07/22/2019 10:10      75.3      73.7       58     58.8      0.00      0.00      78.9     0.51      1016.3     1.4       E    99   3.9     ESE   115   9.01    266      450.4
   07/22/2019 10:00      74.2      73.2       60     58.8      0.00      0.00      78.8     0.51      1016.3     1.5     ENE    78   3.2      SE   134   9.01    266      259.5
   07/22/2019 09:50      73.7      73.0       61     58.9      0.00      0.00      78.9     0.51      1016.3     1.3     NNE    11   3.2     NNE    33   9.01    266      220.3
   07/22/2019 09:40      73.4      72.1       62     58.8      0.00      0.00      79.0     0.51      1016.2     1.4     NNE    32   3.2      NE    43   9.01    267      303.1
   07/22/2019 09:30      72.6      71.8       63     58.7      0.00      0.00      78.9     0.51      1016.0     1.2      NE    54   4.0       E    87   9.01    267      204.0
   07/22/2019 09:20      72.3      70.8       64     58.7      0.00      0.00      79.0     0.51      1016.0     0.5      NE    52   2.2      SE   133   9.01    267      217.5
   07/22/2019 09:10      71.0      69.9       66     58.2      0.00      0.00      79.0     0.51      1016.0     1.2     ENE    62   3.1       E    87   9.01    268      182.2
   07/22/2019 09:00      70.1      69.4       66     58.0      0.00      0.00      79.0     0.51      1015.8     0.8     NNE    20   3.1       N   354   9.01    268      126.8
   07/22/2019 08:50      69.7      68.7       66     57.6      0.00      0.00      79.1     0.51      1015.9     1.0     ENE    56   2.7      NE    40   9.01    268      154.6
   07/22/2019 08:40      69.1      68.4       68     57.5      0.00      0.00      79.1     0.51      1015.8     1.3      NE    49   2.5       N     4   9.01    268       83.8
   07/22/2019 08:30      69.0      68.3       69     58.0      0.00      0.00      79.2     0.51      1015.7     1.0     ENE    68   3.0       E    98   9.01    268       59.1
   07/22/2019 08:20      68.8      68.2       69     57.8      0.00      0.00      79.2     0.51      1015.5     1.5      NE    51   4.3       E    94   9.01    268       80.1
   07/22/2019 08:10      68.5      67.5       70     57.7      0.00      0.00      79.2     0.51      1015.3     0.5     ENE    62   2.3     NNE    29   9.01    269       76.0
   07/22/2019 08:00      67.7      67.3       71     57.6      0.00      0.00      79.2     0.51      1015.3     1.1       E    96   2.8     ESE   108   9.01    269       57.4
   07/22/2019 07:50      67.6      66.9       71     57.7      0.00      0.00      79.3     0.51      1015.1     0.8     ENE    77   2.3       E    85   9.01    269       46.0
   07/22/2019 07:40      67.3      66.8       72     57.8      0.00      0.00      79.3     0.51      1015.0     0.6     ESE   112   1.8     SSE   152   9.01    269       41.9
   07/22/2019 07:30      66.9      66.2       73     57.7      0.00      0.00      79.3     0.51      1014.9     0.2       S   169   1.2     SSE   148   9.01    269       42.7
   07/22/2019 07:20      66.5      65.7       74     57.5      0.00      0.00      79.4     0.51      1014.8     0.5      SE   130   1.6      SE   129   9.01    270       23.6
   07/22/2019 07:10      66.1      65.5       74     57.4      0.00      0.00      79.5     0.51      1014.7     0.3     SSE   152   0.8      SE   131   9.01    270       -3.2
   07/22/2019 07:00      65.8      65.2       75     57.4      0.00      0.00      79.4     0.51      1014.7     0.3      SW   215   1.1     SSW   206   9.01    270      -20.1
   07/22/2019 06:50      65.4      64.8       76     57.3      0.00      0.00      79.5     0.51      1014.6     0.5      NW   314   1.9      NW   311   9.01    270      -25.9
   07/22/2019 06:40      65.0      64.2       77     57.3      0.00      0.00      79.5     0.51      1014.7     0.8      NW   308   1.5     WNW   301   9.01    270      -23.7
   07/22/2019 06:30      64.3      63.2       80     57.5      0.00      0.00      79.6     0.51      1014.7     0.0     NNW   338   1.0       N   351   9.01    271      -20.9
   07/22/2019 06:20      63.3      62.3       82     57.2      0.00      0.00      79.5     0.51      1014.8     0.0     SSW   194   0.2     SSW   194   9.01    271      -19.2
   07/22/2019 06:10      62.4      61.5       83     56.9      0.00      0.00      79.6     0.51      1014.7     0.7     SSW   196   1.1     SSW   210   9.01    271      -23.9
   07/22/2019 06:00      61.7      61.1       84     56.4      0.00      0.00      79.7     0.51      1014.6     0.2     SSE   167   1.1      SE   140   9.01    271      -28.5
   07/22/2019 05:50      61.6      60.9       83     56.1      0.00      0.00      79.7     0.51      1014.4     0.0     SSE   149   0.7      SE   143   9.01    271      -35.6
   07/22/2019 05:40      61.6      61.0       83     56.1      0.00      0.00      79.7     0.51      1014.4     1.0       S   174   1.4      SW   218   9.01    271      -43.0
   07/22/2019 05:30      61.6      61.3       84     56.7      0.00      0.00      79.8     0.51      1014.4     0.3     SSW   201   1.3     SSW   196   9.01    268      -47.0
   07/22/2019 05:20      61.6      61.0       84     56.4      0.00      0.00      79.8     0.51      1014.4     0.1     SSE   169   0.5     SSE   158   9.02    267      -50.6
   07/22/2019 05:10      61.8      61.3       83     56.4      0.00      0.00      79.8     0.51      1014.5     0.0      SE   135   0.8       S   172   9.02    270      -53.1
   07/22/2019 05:00      62.2      61.3       83     56.3      0.00      0.00      79.8     0.51      1014.5     0.7     SSE   161   1.3      SE   145   9.02    269      -54.4
   07/22/2019 04:50      62.0      61.4       82     56.3      0.00      0.00      79.9     0.51      1014.4     0.5     SSE   151   1.1       S   177   9.02    270      -54.8
   07/22/2019 04:40      62.1      61.6       83     56.5      0.00      0.00      79.9     0.51      1014.4     1.3      SW   221   2.1     SSW   196   9.02    271      -53.3
   07/22/2019 04:30      62.0      61.4       82     56.2      0.00      0.00      79.9     0.51      1014.5     0.4      SE   146   1.2      SE   135   9.02    271      -55.6
   07/22/2019 04:20      62.1      61.7       82     56.5      0.00      0.00      79.9     0.51      1014.4     0.3     SSE   152   0.9     SSE   155   9.02    271      -56.0
   07/22/2019 04:10      62.5      61.8       81     56.3      0.00      0.00      80.0     0.51      1014.5     0.5     SSE   158   1.5       S   188   9.02    271      -57.2
   07/22/2019 04:00      62.6      62.1       81     56.3      0.00      0.00      80.0     0.51      1014.6     0.9     SSW   192   1.7     SSW   209   9.02    271      -56.1
   07/22/2019 03:50      63.2      62.2       79     56.1      0.00      0.00      80.0     0.51      1014.7     0.0     SSE   161   0.5      SE   146   9.02    271      -57.9
   07/22/2019 03:40      63.2      62.4       81     56.8      0.00      0.00      80.0     0.51      1014.7     1.1     SSW   213   1.8      SW   220   9.02    271      -56.3
   07/22/2019 03:30      63.0      62.4       80     56.5      0.00      0.00      80.1     0.51      1014.7     0.0       N     0   0.0       S   181   9.02    271      -57.9
   07/22/2019 03:20      63.2      62.5       80     56.4      0.00      0.00      80.1     0.51      1014.7     0.0     SSE   163   0.6     SSE   161   9.02    271      -59.0
   07/22/2019 03:10      63.3      62.7       79     56.3      0.00      0.00      80.0     0.51      1014.6     0.3     SSE   158   0.9       S   176   9.03    271      -59.4
   07/22/2019 03:00      63.3      63.0       79     56.6      0.00      0.00      80.1     0.51      1014.6     0.5       S   177   1.1       S   190   9.03    271      -59.8
   07/22/2019 02:50      63.3      63.0       79     56.4      0.00      0.00      80.1     0.51      1014.6     0.2     SSE   161   0.7     SSE   163   9.03    271      -61.0
   07/22/2019 02:40      63.3      62.7       78     56.0      0.00      0.00      80.1     0.51      1014.5     0.5       S   170   0.9       S   175   9.03    270      -61.8
   07/22/2019 02:30      64.2      63.1       76     56.0      0.00      0.00      80.1     0.51      1014.5     0.3     SSE   162   1.1     SSE   151   9.03    270      -62.6
   07/22/2019 02:20      64.9      63.9       76     56.6      0.00      0.00      80.2     0.51      1014.6     0.0     SSE   155   0.7     SSE   148   9.03    270      -62.3
   07/22/2019 02:10      65.4      64.6       75     56.9      0.00      0.00      80.2     0.51      1014.7     0.0      SE   129   0.5      SE   129   9.03    269      -63.8
   07/22/2019 02:00      65.5      64.9       75     57.2      0.00      0.00      80.2     0.51      1014.7     0.2     ESE   117   1.0     ESE   108   9.03    270      -65.2
   07/22/2019 01:50      65.7      65.2       75     57.3      0.00      0.00      80.3     0.51      1014.7     0.7      SE   124   1.9     ESE   109   9.03    269      -65.9
   07/22/2019 01:40      66.0      65.3       75     57.3      0.00      0.00      80.2     0.51      1014.7     0.9     ESE   112   2.0     ESE   102   9.03    269      -66.3
   07/22/2019 01:30      65.8      65.4       74     57.2      0.00      0.00      80.3     0.51      1014.7     1.1     ESE   117   2.1       E    85   9.03    269      -66.4
   07/22/2019 01:20      66.1      65.5       74     57.2      0.00      0.00      80.3     0.51      1014.7     0.4      SE   128   1.3     SSE   157   9.04    269      -66.4
   07/22/2019 01:10      66.6      65.7       73     57.1      0.00      0.00      80.3     0.51      1014.7     0.4      SE   140   1.2      SE   133   9.04    268      -66.2
   07/22/2019 01:00      66.9      66.3       72     57.1      0.00      0.00      80.3     0.51      1014.7     0.0     ENE    76   0.6     ENE    71   9.04    268      -66.8
   07/22/2019 00:50      67.4      66.6       71     57.2      0.00      0.00      80.3     0.51      1014.7     0.4      SE   125   1.7     ESE   123   9.04    268      -69.0
   07/22/2019 00:40      67.5      67.1       70     57.1      0.00      0.00      80.3     0.51      1014.7     0.5     ESE   103   2.0     ESE   107   9.04    268      -69.6
   07/22/2019 00:30      67.8      67.2       69     56.8      0.00      0.00      80.3     0.51      1014.6     0.7     ESE   112   2.1       E    87   9.04    268      -70.2
   07/22/2019 00:20      68.0      67.5       68     56.8      0.00      0.00      80.3     0.51      1014.6     1.3     ESE   109   3.7       E    81   9.04    268      -70.4
   07/22/2019 00:10      68.5      67.7       67     56.7      0.00      0.00      80.4     0.51      1014.5     1.2     ESE   113   3.0     ENE    56   9.04    268      -70.8
   07/22/2019 00:00      69.0      68.2       66     56.6      0.00      0.00      80.4     0.51      1014.4     1.1     ESE   114   2.2     ESE   114   9.05    267      -71.2
   07/21/2019 23:50      69.6      68.8       64     56.6      0.00      0.00      80.4     0.51      1014.3     0.7       E    90   2.3     ESE   112   9.05    267      -71.5
   07/21/2019 23:40      70.0      69.4       63     56.6      0.00      0.00      80.4     0.51      1014.3     0.8     ENE    64   2.3     ESE   107   9.05    267      -72.1
   07/21/2019 23:30      70.2      69.7       62     56.2      0.00      0.00      80.4     0.51      1014.4     1.3      NE    56   2.7     ENE    65   9.05    267      -71.9
   07/21/2019 23:20      70.7      70.0       61     56.1      0.00      0.00      80.4     0.51      1014.3     0.8     ENE    73   2.0      NE    54   9.05    266      -72.0
   07/21/2019 23:10      71.3      70.5       60     56.1      0.00      0.00      80.4     0.51      1014.1     1.1     ENE    61   2.7     ENE    71   9.05    266      -72.9
   07/21/2019 23:00      72.1      71.0       58     56.1      0.00      0.00      80.4     0.51      1014.1     0.8       E   100   2.8     ENE    76   9.05    266      -73.2
   07/21/2019 22:50      72.4      71.7       57     56.1      0.00      0.00      80.4     0.51      1014.1     1.2     ENE    64   2.9     NNE    24   9.06    266      -73.0
   07/21/2019 22:40      72.8      72.1       56     55.6      0.00      0.00      80.4     0.51      1014.0     1.4       E    84   3.5       E    85   9.06    266      -73.3
   07/21/2019 22:30      73.2      72.6       54     55.3      0.00      0.00      80.4     0.51      1013.9     1.0       E    91   3.3     ENE    68   9.06    266      -73.3
   07/21/2019 22:20      73.8      72.9       53     55.2      0.00      0.00      80.3     0.51      1013.9     0.3     ESE   109   2.0       E    90   9.06    266      -72.9
   07/21/2019 22:10      73.8      73.4       52     55.0      0.00      0.00      80.4     0.51      1013.8     0.5     ESE   107   1.7       E    99   9.07    266      -73.5
   07/21/2019 22:00      74.0      73.5       51     54.2      0.00      0.00      80.3     0.51      1013.6     0.8     ESE   114   2.9     ENE    74   9.07    266      -73.9
   07/21/2019 21:50      73.9      73.3       44     50.0      0.00      0.00      80.3     0.51      1013.5     0.4      SE   126   1.8     ESE   123   9.07    266      -73.0
   07/21/2019 21:40      75.2      73.5       36     46.1      0.00      0.00      80.3     0.51      1013.4     0.7     SSE   157   1.8      SE   132   9.07    264      -72.9
   07/21/2019 21:30      77.3      75.0       34     45.6      0.00      0.00      80.3     0.51      1013.3     0.5      SW   215   1.2     SSW   204   9.07    264      -72.9
   07/21/2019 21:20      78.2      77.1       32     45.1      0.00      0.00      80.3     0.51      1013.1     0.3     SSW   209   1.5     SSW   207   9.08    264      -76.5
   07/21/2019 21:10      78.4      77.7       30     44.2      0.00      0.00      80.3     0.51      1013.0     1.6     SSW   201   2.8     WSW   242   9.08    264      -77.5
   07/21/2019 21:00      78.8      78.1       29     43.2      0.00      0.00      80.3     0.51      1012.9     1.1      SW   214   3.4     WSW   241   9.08    264      -79.6
   07/21/2019 20:50      79.3      78.7       30     45.0      0.00      0.00      80.2     0.51      1012.7     1.1     SSW   207   3.6      SW   223   9.09    264      -81.2
   07/21/2019 20:40      79.7      78.9       35     48.8      0.00      0.00      80.2     0.51      1012.6     2.5     SSW   211   4.2       S   170   9.09    264      -82.4
   07/21/2019 20:30      80.7      79.4       38     51.6      0.00      0.00      80.2     0.51      1012.5     2.8     SSW   199   5.2      SW   222   9.09    264      -83.0
   07/21/2019 20:20      81.3      80.3       36     51.6      0.00      0.00      80.1     0.51      1012.4     2.9      SW   233   5.5     WSW   239   9.09    264      -83.0
   07/21/2019 20:10      82.1      81.0       35     51.5      0.00      0.00      80.1     0.51      1012.4     3.3     WSW   239   6.6     WSW   238   9.10    264      -82.5
   07/21/2019 20:00      82.9      81.7       35     51.5      0.00      0.00      80.1     0.51      1012.3     2.8      SW   230   5.5     SSW   207   9.10    264      -80.2
   07/21/2019 19:50      84.3      82.5       34     51.6      0.00      0.00      80.0     0.51      1012.3     3.5      SW   220   5.5     SSW   195   9.11    264      -77.7
   07/21/2019 19:40      85.4      84.0       32     51.7      0.00      0.00      80.0     0.51      1012.2     3.1      SW   236   5.3     WSW   257   9.11    264      -66.5
   07/21/2019 19:30      86.5      85.1       32     52.2      0.00      0.00      80.0     0.51      1012.2     3.1      SW   231   5.5     WSW   243   9.12    264      -51.2
   07/21/2019 19:20      86.5      86.1       32     52.7      0.00      0.00      79.9     0.51      1012.0     2.8      SW   233   4.8      SW   235   9.12    264      -35.4
   07/21/2019 19:10      87.0      86.1       32     53.1      0.00      0.00      79.9     0.51      1012.0     3.7      SW   221   6.5      SW   225   9.12    264      -15.3
   07/21/2019 19:00      88.3      86.8       32     53.8      0.00      0.00      79.9     0.51      1012.0     4.8      SW   236   7.4     WSW   251   9.13    264        6.3
   07/21/2019 18:50      88.7      87.9       32     54.8      0.00      0.00      79.8     0.51      1012.0     4.5     WSW   254   8.2       W   275   9.13    264       30.7
   07/21/2019 18:40      89.0      87.9       33     55.2      0.00      0.00      79.8     0.51      1011.9     4.8     WSW   242   8.4     WSW   256   9.14    264       54.8
   07/21/2019 18:30      89.7      88.6       32     55.2      0.00      0.00      79.8     0.51      1011.9     4.5      SW   230   7.6      SW   230   9.14    264       78.5
   07/21/2019 18:20      90.3      89.5       31     55.5      0.00      0.00      79.7     0.51      1011.9     4.0     WSW   245   6.8     WSW   237   9.15    264      102.8
   07/21/2019 18:10      90.9      89.8       31     55.7      0.00      0.00      79.7     0.51      1011.9     4.5     WSW   249   8.3     WSW   247   9.15    264      128.7
   07/21/2019 18:00      91.3      90.1       31     56.0      0.00      0.00      79.6     0.51      1011.9     5.4       W   264   9.0       W   271   9.16    264      154.6
   07/21/2019 17:50      91.7      91.1       31     56.6      0.00      0.00      79.6     0.51      1012.0     4.9     WSW   253   9.1     WSW   255   9.16    264      180.0
   07/21/2019 17:40      92.7      91.4       31     56.9      0.00      0.00      79.5     0.51      1012.0     4.8     WSW   240   8.7     WSW   237   9.17    264      205.0
   07/21/2019 17:30      93.8      91.7       31     57.2      0.00      0.00      79.5     0.51      1012.0     5.2       W   268   9.3     WSW   239   9.17    264      230.0
   07/21/2019 17:20      94.3      93.3       30     57.7      0.00      0.00      79.5     0.51      1012.0     3.2     WNW   294   7.8     WNW   290   9.18    264      252.1
   07/21/2019 17:10      93.6      92.9       31     57.7      0.00      0.00      79.4     0.51      1011.9     3.4     WNW   286   7.5       W   273   9.18    264      277.2
   07/21/2019 17:00      93.6      92.9       30     57.5      0.00      0.00      79.4     0.51      1012.0     4.5       W   268   9.1     WNW   299   9.19    264      300.7
   07/21/2019 16:50      94.3      93.4       30     57.6      0.00      0.00      79.3     0.51      1012.0     3.6     WSW   238   7.4      SW   227   9.19    264      323.6
   07/21/2019 16:40      94.9      93.6       30     57.6      0.00      0.00      79.3     0.51      1012.1     3.7       W   271   9.0       W   259   9.20    264      345.9
   07/21/2019 16:30      95.1      94.1       29     57.3      0.00      0.00      79.2     0.51      1012.1     4.0     WSW   246   7.4       W   266   9.20    264      367.5
   07/21/2019 16:20      94.6      93.6       29     57.2      0.00      0.00      79.2     0.51      1012.1     3.9       S   177   7.9      SW   227   9.21    264      389.7
   07/21/2019 16:10      96.3      94.1       29     57.4      0.00      0.00      79.1     0.51      1012.2     3.3       S   169   6.1       S   189   9.21    264      406.4
   07/21/2019 16:00      96.3      95.4       26     55.8      0.00      0.00      79.0     0.51      1012.2     1.9       E    93   5.0      SE   142   9.21    264      423.4
   07/21/2019 15:50      96.4      95.4       26     55.8      0.00      0.00      79.0     0.51      1012.2     2.2      NE    54   5.1     NNE    23   9.22    264      440.6
   07/21/2019 15:40      96.1      94.7       27     56.3      0.00      0.00      78.8     0.51      1012.3     2.4      NE    52   5.3     ENE    62   9.22    264      460.4
   07/21/2019 15:30      94.9      94.4       26     55.0      0.00      0.00      78.7     0.51      1012.3     2.3       E    99   5.4     ENE    74   9.22    264      481.8
   07/21/2019 15:20      95.4      94.0       26     54.7      0.00      0.00      78.8     0.51      1012.4     3.1       E    86   5.6     ENE    77   9.23    264      498.7
   07/21/2019 15:10      95.7      94.4       26     54.7      0.00      0.00      78.7     0.51      1012.4     3.2     ENE    71   6.4       E    83   9.23    264      513.2
   07/21/2019 15:00      95.1      92.9       27     54.9      0.00      0.00      78.7     0.51      1012.4     3.2       E    91   7.2       E    86   9.23    264      527.6
   07/21/2019 14:50      95.0      93.8       27     55.1      0.00      0.00      78.7     0.51      1012.6     2.5       E    90   5.5      SE   128   9.23    264      539.7
   07/21/2019 14:40      94.7      93.0       27     54.6      0.00      0.00      78.6     0.51      1012.7     2.0      NE    38   4.9       N    11   9.24    264      551.4
   07/21/2019 14:30      94.0      93.0       27     54.2      0.00      0.00      78.5     0.51      1012.9     2.2       N   357   4.5     NNE    28   9.24    264      562.9
   07/21/2019 14:20      93.8      92.2       27     54.5      0.00      0.00      78.5     0.51      1012.9     2.5      NE    45   5.7     ENE    72   9.24    264      577.0
   07/21/2019 14:10      93.2      92.1       28     54.9      0.00      0.00      78.3     0.51      1013.0     2.4       E   100   5.1      NE    36   9.24    264      588.0
   07/21/2019 14:00      93.5      92.1       28     55.0      0.00      0.00      78.4     0.51      1013.1     2.6       E    96   5.7      SE   129   9.24    264      593.0
   07/21/2019 13:50      93.2      92.4       28     54.5      0.00      0.00      78.4     0.51      1013.2     2.0       N     7   3.9     NNE    24   9.25    264      598.1
   07/21/2019 13:40      93.1      92.1       28     54.9      0.00      0.00      78.3     0.51      1013.2     1.7     ENE    77   4.8       E    87   9.25    264      604.8
   07/21/2019 13:30      92.9      90.9       30     55.6      0.00      0.00      78.2     0.51      1013.3     2.2     NNW   329   5.1     NNW   340   9.25    263      608.0
   07/21/2019 13:20      91.8      90.6       32     57.0      0.00      0.00      78.1     0.51      1013.4     1.8     NNE    23   3.9      NE    46   9.25    264      608.7
   07/21/2019 13:10      92.0      90.8       33     57.9      0.00      0.00      78.1     0.50      1013.3     2.5     NNE    27   5.5      NE    52   9.25    264      605.2
   07/21/2019 13:00      91.5      89.8       31     55.4      0.00      0.00      78.0     0.50      1013.4     2.1     NNW   336   4.1       W   275   9.25    264      604.2
   07/21/2019 12:50      90.2      89.4       31     54.6      0.00      0.00      78.1     0.51      1013.6     2.1     WNW   293   3.9     WNW   283   9.25    264      618.9
   07/21/2019 12:40      89.6      88.3       31     54.5      0.00      0.00      78.1     0.51      1013.7     1.6     NNE    16   4.0      NE    53   9.25    264      639.0
   07/21/2019 12:30      89.0      88.0       31     54.1      0.00      0.00      77.9     0.51      1013.8     2.3      NE    35   5.1      SE   125   9.25    263      642.5
   07/21/2019 12:20      89.0      87.9       31     54.0      0.00      0.00      78.0     0.51      1013.8     1.6     NNW   340   4.9       N     1   9.26    264      421.3
   07/21/2019 12:10      88.5      87.2       31     53.6      0.00      0.00      78.0     0.51      1013.9     2.2       E    98   4.4       E    83   9.26    263      640.5
   07/21/2019 12:00      88.3      86.7       31     52.9      0.00      0.00      78.0     0.51      1013.9     1.5       E    93   4.7       E    80   9.26    263      594.1
   07/21/2019 11:50      87.1      86.5       31     52.4      0.00      0.00      77.8     0.51      1014.0     1.7     NNE    17   3.5     ENE    61   9.26    263      615.0
   07/21/2019 11:40      86.8      85.7       32     52.9      0.00      0.00      78.0     0.51      1014.0     1.4     NNE    11   4.7     NNE    32   9.26    264      594.5
   07/21/2019 11:30      86.4      85.1       33     53.3      0.00      0.00      78.0     0.51      1014.1     1.7     NNE    28   4.0       E    85   9.26    264      579.7
   07/21/2019 11:20      85.4      84.0       34     53.0      0.00      0.00      77.9     0.51      1014.2     1.8      NE    46   4.2       N     0   9.26    264      566.7
   07/21/2019 11:10      84.8      83.5       34     52.9      0.00      0.00      78.0     0.51      1014.2     1.9       N     8   4.0       N     9   9.26    264      555.1
   07/21/2019 11:00      83.7      81.8       35     52.4      0.00      0.00      78.0     0.51      1014.3     1.2       N   355   3.4      NE    50   9.26    264      541.8
   07/21/2019 10:50      82.0      80.9       38     53.1      0.00      0.00      78.0     0.51      1014.4     1.6      NE    40   4.0     ENE    57   9.27    264      528.9
   07/21/2019 10:40      81.5      80.8       40     54.4      0.00      0.00      78.1     0.51      1014.5     1.5      NW   308   3.0     NNW   335   9.27    264      515.4
   07/21/2019 10:30      80.9      78.9       42     54.8      0.00      0.00      78.0     0.51      1014.6     0.9     NNW   345   2.9     NNE    12   9.26    264      500.3
   07/21/2019 10:20      79.5      77.7       45     55.1      0.00      0.00      78.0     0.51      1014.6     1.4       N     6   4.6       N    11   9.27    264      482.5
   07/21/2019 10:10      78.2      77.2       45     54.9      0.00      0.00      78.1     0.51      1014.6     1.5       N   357   4.2       N     1   9.27    264      464.8
   07/21/2019 10:00      77.5      76.0       47     54.9      0.00      0.00      78.1     0.51      1014.6     1.3     NNE    24   3.2     NNE    27   9.27    265      446.9
   07/21/2019 09:50      76.1      74.6       50     55.7      0.00      0.00      78.2     0.51      1014.6     1.6     NNE    17   3.6       N    10   9.27    265      428.8
   07/21/2019 09:40      75.0      74.4       51     55.5      0.00      0.00      78.2     0.52      1014.5     1.7      NE    50   3.6      NE    51   9.27    265      409.6
   07/21/2019 09:30      74.5      73.2       53     55.6      0.00      0.00      78.3     0.52      1014.6     1.6       E    86   5.1       E    95   9.27    266      391.3
   07/21/2019 09:20      73.4      72.2       55     55.8      0.00      0.00      78.3     0.52      1014.7     1.4       N     0   3.3     NNE    25   9.27    266      372.4
   07/21/2019 09:10      72.5      70.6       59     56.3      0.00      0.00      78.3     0.52      1014.8     1.2     NNE    24   2.9     ENE    70   9.27    266      359.5
   07/21/2019 09:00      70.6      68.7       63     56.3      0.00      0.00      78.3     0.52      1014.8     1.0     NNE    14   2.8       N   354   9.27    267      357.0
   07/21/2019 08:50      68.9      68.3       65     56.3      0.00      0.00      78.3     0.52      1014.8     1.5     NNE    26   3.3     NNE    29   9.27    269      337.9
   07/21/2019 08:40      68.5      67.2       66     56.3      0.00      0.00      78.4     0.52      1014.7     1.2     ENE    68   2.7       E    89   9.27    269      -25.1
   07/21/2019 08:30      67.6      66.8       68     56.3      0.00      0.00      78.5     0.52      1014.8     1.5       N   358   3.5     NNW   342   9.27    270      -16.1
   07/21/2019 08:20      67.0      66.2       69     56.2      0.00      0.00      78.5     0.52      1014.8     0.6       N   358   2.2     NNE    17   9.27    270      -32.2
   07/21/2019 08:10      66.3      65.6       70     55.9      0.00      0.00      78.5     0.52      1014.6     0.9       N     2   3.3       N     2   9.27    270      -30.3
   07/21/2019 08:00      65.8      64.9       71     55.9      0.00      0.00      78.6     0.52      1014.5     0.7      SE   145   2.1      SE   126   9.27    270       -6.8
   07/21/2019 07:50      65.4      64.3       73     56.0      0.00      0.00      78.6     0.52      1014.5     0.7     ENE    70   1.8     ENE    57   9.27    271      -29.8
   07/21/2019 07:40      64.5      63.7       74     55.8      0.00      0.00      78.6     0.52      1014.4     0.2       N   355   1.6       N     9   9.27    271      -20.2
   07/21/2019 07:30      63.9      63.3       75     55.6      0.00      0.00      78.7     0.52      1014.3     0.1     ESE   121   1.2      SE   126   9.27    271      -10.2
   07/21/2019 07:20      63.5      62.7       77     55.6      0.00      0.00      78.7     0.52      1014.3     0.0     ESE   120   0.7      SE   132   9.27    271       -5.6
   07/21/2019 07:10      62.8      61.9       78     55.4      0.00      0.00      78.7     0.52      1014.2     1.0      SE   129   1.7      SE   137   9.27    271       -7.3
   07/21/2019 07:00      61.9      60.7       81     55.4      0.00      0.00      78.8     0.52      1014.3     0.9      SE   139   1.4      SE   141   9.27    271       -9.7
   07/21/2019 06:50      61.0      59.7       84     55.5      0.00      0.00      78.8     0.52      1014.3     0.6      SE   141   1.3     SSE   152   9.27    272      -11.4
   07/21/2019 06:40      59.9      58.7       87     55.3      0.00      0.00      78.8     0.52      1014.2     0.7     SSE   163   1.2       S   181   9.28    272      -15.5
   07/21/2019 06:30      59.0      58.4       87     54.9      0.00      0.00      78.9     0.52      1014.1     0.5     SSE   151   1.2      SE   137   9.28    268      -20.6
   07/21/2019 06:20      58.6      57.8       87     54.4      0.00      0.00      78.9     0.52      1014.1     0.3     SSE   156   0.9       S   170   9.28    271      -19.7
   07/21/2019 06:10      58.6      58.0       87     54.7      0.00      0.00      78.9     0.52      1014.0     0.0     SSE   160   0.5     SSE   160   9.28    259      -23.4
   07/21/2019 06:00      58.7      58.0       87     54.5      0.00      0.00      79.0     0.52      1014.1     0.0       S   175   0.6       S   174   9.28    256      -27.4
   07/21/2019 05:50      58.8      58.1       87     54.5      0.00      0.00      79.0     0.52      1014.1     0.3     SSE   157   0.8     SSE   156   9.28    258      -30.6
   07/21/2019 05:40      58.8      58.4       87     54.6      0.00      0.00      79.0     0.52      1014.0     0.4     SSW   195   1.1       S   188   9.28    252      -32.0
   07/21/2019 05:30      59.0      58.3       87     54.5      0.00      0.00      79.1     0.52      1013.9     0.1       S   173   0.7       S   173   9.28    252      -33.9
   07/21/2019 05:20      59.4      58.8       87     55.0      0.00      0.00      79.1     0.52      1013.8     0.0     SSE   153   0.6     SSE   153   9.28    246      -35.8
   07/21/2019 05:10      59.2      58.8       87     54.9      0.00      0.00      79.1     0.52      1013.8     0.0       S   181   0.8       S   181   9.28    244      -37.7
   07/21/2019 05:00      59.1      58.3       86     54.6      0.00      0.00      79.1     0.52      1013.6     0.6       S   190   1.2      SW   215   9.28    249      -40.0
   07/21/2019 04:50      59.2      58.4       86     54.6      0.00      0.00      79.2     0.52      1013.6     0.5     SSE   153   1.3      SE   142   9.28    249      -42.6
   07/21/2019 04:40      59.2      58.8       86     55.0      0.00      0.00      79.2     0.52      1013.5     0.5       S   176   1.3       S   186   9.28    248      -44.1
   07/21/2019 04:30      59.1      58.5       86     54.5      0.00      0.00      79.3     0.52      1013.4     0.4       S   169   1.7      SE   144   9.28    245      -48.7
   07/21/2019 04:20      59.5      58.6       85     54.4      0.00      0.00      79.3     0.52      1013.5     0.4     SSE   155   1.8      SE   146   9.28    255      -50.2
   07/21/2019 04:10      59.8      59.2       85     55.1      0.00      0.00      79.3     0.52      1013.4     0.5     SSE   150   1.2      SE   139   9.28    257      -49.9
   07/21/2019 04:00      60.1      59.2       84     54.7      0.00      0.00      79.3     0.52      1013.4     0.9       S   180   1.7     SSW   200   9.28    259      -52.6
   07/21/2019 03:50      60.3      59.8       84     55.3      0.00      0.00      79.3     0.52      1013.5     0.6     SSW   193   1.8     SSW   203   9.28    261      -52.7
   07/21/2019 03:40      60.6      59.8       84     55.2      0.00      0.00      79.4     0.52      1013.5     0.4     SSE   168   0.7       S   173   9.28    263      -54.4
   07/21/2019 03:30      61.0      60.2       83     55.3      0.00      0.00      79.5     0.52      1013.6     0.2       S   176   0.8       S   178   9.29    266      -55.1
   07/21/2019 03:20      61.1      60.6       83     55.6      0.00      0.00      79.4     0.52      1013.7     0.0     SSE   165   0.0     SSE   165   9.29    269      -56.6
   07/21/2019 03:10      61.3      60.8       82     55.5      0.00      0.00      79.5     0.52      1013.7     0.0       S   179   0.5       S   179   9.29    270      -59.0
   07/21/2019 03:00      61.6      61.0       81     55.3      0.00      0.00      79.5     0.52      1013.8     0.0       N     0   0.0      SE   129   9.29    271      -60.6
   07/21/2019 02:50      62.2      61.3       79     55.1      0.00      0.00      79.5     0.52      1014.0     0.1      SE   130   1.3     ESE   122   9.29    271      -62.6
   07/21/2019 02:40      62.7      61.9       78     55.2      0.00      0.00      79.5     0.52      1014.0     0.2      SE   144   1.2       E    86   9.29    271      -64.5
   07/21/2019 02:30      62.9      62.4       77     55.2      0.00      0.00      79.6     0.52      1014.1     0.4     ESE   116   1.5      SE   128   9.29    270      -65.9
   07/21/2019 02:20      63.0      62.7       76     55.2      0.00      0.00      79.6     0.52      1014.1     0.5     ESE   114   2.0     ESE   115   9.29    270      -67.0
   07/21/2019 02:10      63.2      62.6       76     55.0      0.00      0.00      79.6     0.52      1014.0     1.0     ESE   119   2.3       E    86   9.29    270      -66.5
   07/21/2019 02:00      63.5      62.9       75     55.1      0.00      0.00      79.6     0.52      1014.1     0.7     ESE   123   1.5      SE   135   9.29    269      -66.8
   07/21/2019 01:50      63.6      63.2       74     55.0      0.00      0.00      79.6     0.52      1014.1     1.0     ESE   117   2.0       E    85   9.29    269      -66.1
   07/21/2019 01:40      63.5      63.0       74     54.8      0.00      0.00      79.7     0.52      1014.1     1.0     ESE   123   1.8      SE   144   9.29    269      -65.3
   07/21/2019 01:30      63.5      62.9       73     54.4      0.00      0.00      79.6     0.52      1014.0     0.2      SE   124   1.3      SE   124   9.30    269      -64.3
   07/21/2019 01:20      63.3      62.9       73     54.2      0.00      0.00      79.7     0.52      1014.0     0.2     ESE   124   1.1      SE   127   9.30    269      -65.1
   07/21/2019 01:10      63.5      62.9       72     53.9      0.00      0.00      79.7     0.52      1014.0     0.2      SE   126   1.5     SSE   167   9.30    269      -65.2
   07/21/2019 01:00      63.6      63.1       71     53.7      0.00      0.00      79.8     0.52      1014.0     0.1     ESE   107   1.4      SE   134   9.30    269      -64.2
   07/21/2019 00:50      64.4      63.4       70     53.8      0.00      0.00      79.7     0.52      1013.9     0.1     SSE   165   0.6     SSE   153   9.30    269      -64.3
   07/21/2019 00:40      64.9      64.0       69     53.9      0.00      0.00      79.8     0.52      1013.8     0.0       S   179   0.6       S   177   9.30    269      -64.0
   07/21/2019 00:30      65.0      64.6       68     54.1      0.00      0.00      79.8     0.52      1013.8     0.0       N     0   0.0     SSW   193   9.30    269      -65.1
   07/21/2019 00:20      65.3      64.6       68     53.9      0.00      0.00      79.8     0.52      1013.7     0.1       S   180   0.9     SSW   196   9.31    269      -66.5
   07/21/2019 00:10      65.5      64.8       67     54.0      0.00      0.00      79.8     0.52      1013.7     0.6      SE   124   2.5     ENE    72   9.31    269      -67.6
   07/21/2019 00:00      65.5      65.2       68     54.3      0.00      0.00      79.8     0.52      1013.6     0.2      SE   127   2.0      SE   143   9.31    268      -67.3
   07/20/2019 23:50      65.7      65.2       68     54.4      0.00      0.00      79.8     0.52      1013.6     0.4      SE   131   1.3     ESE   116   9.31    268      -66.7
   07/20/2019 23:40      65.7      65.2       68     54.6      0.00      0.00      79.8     0.52      1013.6     0.0       S   185   0.5      SW   217   9.31    268      -65.8
   07/20/2019 23:30      66.3      65.2       67     54.2      0.00      0.00      79.8     0.52      1013.6     0.4       S   187   1.1     SSW   195   9.31    268      -66.2
   07/20/2019 23:20      66.6      65.8       65     54.4      0.00      0.00      79.8     0.52      1013.6     0.4      SE   144   1.0      SE   137   9.31    268      -66.9
   07/20/2019 23:10      66.7      66.3       65     54.5      0.00      0.00      79.8     0.52      1013.6     0.2       S   190   1.0     SSW   193   9.31    268      -66.5
   07/20/2019 23:00      67.7      66.5       64     54.3      0.00      0.00      79.8     0.52      1013.6     0.3       S   170   0.9       S   171   9.31    268      -67.3
   07/20/2019 22:50      68.3      67.3       62     54.3      0.00      0.00      79.8     0.52      1013.5     0.3     ENE    68   1.1     ENE    67   9.31    267      -70.5
   07/20/2019 22:40      68.7      67.9       61     54.3      0.00      0.00      79.8     0.52      1013.4     0.3     ESE   106   1.0       E    82   9.32    267      -73.0
   07/20/2019 22:30      69.1      68.4       60     54.4      0.00      0.00      79.9     0.52      1013.4     1.1     SSW   209   3.4     WSW   242   9.32    267      -74.1
   07/20/2019 22:20      69.4      68.9       60     54.6      0.00      0.00      79.8     0.52      1013.4     3.0     WSW   246   4.9       W   271   9.32    267      -74.3
   07/20/2019 22:10      69.7      68.9       60     54.5      0.00      0.00      79.8     0.52      1013.3     1.2      SW   216   3.9      SW   229   9.32    267      -74.9
   07/20/2019 22:00      70.0      69.2       59     54.6      0.00      0.00      79.9     0.52      1013.2     2.0      SW   216   4.0     WSW   238   9.32    267      -75.3
   07/20/2019 21:50      70.6      69.7       58     54.7      0.00      0.00      79.8     0.52      1013.1     2.0     SSW   214   3.8      SW   228   9.33    267      -75.9
   07/20/2019 21:40      70.8      70.2       58     54.7      0.00      0.00      79.8     0.52      1013.1     2.5     SSW   210   4.7       S   188   9.33    267      -76.0
   07/20/2019 21:30      71.5      70.5       57     54.8      0.00      0.00      79.8     0.52      1012.9     2.0     SSW   208   3.7      SW   217   9.33    267      -76.5
   07/20/2019 21:20      72.0      71.2       56     55.0      0.00      0.00      79.8     0.52      1012.8     2.6     WSW   237   4.8       W   265   9.33    266      -77.3
   07/20/2019 21:10      72.5      71.6       56     55.2      0.00      0.00      79.8     0.52      1012.6     2.9     WSW   237   5.0      SW   229   9.33    266      -78.1
   07/20/2019 21:00      73.0      72.2       55     55.4      0.00      0.00      79.8     0.52      1012.5     2.1      SW   229   5.9     WSW   251   9.34    266      -78.8
   07/20/2019 20:50      73.5      72.7       54     55.6      0.00      0.00      79.8     0.52      1012.3     2.1      SW   228   3.5     WSW   258   9.34    266      -79.0
   07/20/2019 20:40      74.4      73.2       53     55.6      0.00      0.00      79.8     0.52      1012.3     2.2      SW   215   4.4     SSW   192   9.34    266      -79.5
   07/20/2019 20:30      74.6      74.1       52     55.6      0.00      0.00      79.7     0.52      1012.2     3.1     WSW   237   4.9       W   263   9.35    266      -80.1
   07/20/2019 20:20      75.2      74.4       51     55.6      0.00      0.00      79.7     0.52      1012.1     2.6      SW   231   5.2      SW   233   9.35    266      -80.1
   07/20/2019 20:10      76.0      74.9       50     55.7      0.00      0.00      79.7     0.52      1012.1     2.3      SW   220   4.4      SW   218   9.35    266      -79.3
   07/20/2019 20:00      76.5      75.7       50     55.7      0.00      0.00      79.7     0.52      1012.0     2.6      SW   230   5.5     SSW   204   9.35    266      -76.7
   07/20/2019 19:50      77.5      76.2       48     55.7      0.00      0.00      79.7     0.52      1012.0     4.0      SW   235   6.6      SW   231   9.36    266      -73.1
   07/20/2019 19:40      78.0      77.2       47     55.8      0.00      0.00      79.7     0.52      1012.0     4.2     WSW   240   6.4     WSW   255   9.36    266      -60.4
   07/20/2019 19:30      78.7      77.7       46     55.9      0.00      0.00      79.6     0.52      1011.9     3.6      SW   230   6.4     SSW   202   9.36    266      -45.8
   07/20/2019 19:20      79.3      78.3       45     55.9      0.00      0.00      79.6     0.52      1011.9     3.6      SW   227   5.7      SW   235   9.37    266      -29.2
   07/20/2019 19:10      79.9      78.9       44     56.0      0.00      0.00      79.5     0.52      1011.8     4.3     WSW   240   8.0      SW   215   9.37    266       -9.2
   07/20/2019 19:00      80.7      79.4       44     56.0      0.00      0.00      79.5     0.52      1011.8     4.5      SW   233   6.9     WSW   249   9.38    266       13.2
   07/20/2019 18:50      81.0      80.3       43     56.0      0.00      0.00      79.5     0.52      1011.8     4.2     WSW   251   7.0     WSW   238   9.38    265       35.8
   07/20/2019 18:40      81.9      80.7       42     56.2      0.00      0.00      79.5     0.52      1011.8     4.3     WSW   240   8.1       W   267   9.39    265       59.0
   07/20/2019 18:30      82.3      81.7       42     56.4      0.00      0.00      79.5     0.52      1011.7     3.6     WNW   285   7.1       W   263   9.39    265       82.0
   07/20/2019 18:20      84.3      82.0       41     56.5      0.00      0.00      79.4     0.52      1011.7     4.3     WSW   253   8.4     SSW   203   9.39    265      106.5
   07/20/2019 18:10      84.3      83.2       40     56.9      0.00      0.00      79.4     0.52      1011.6     3.4       W   275   7.3     WSW   254   9.40    264      130.9
   07/20/2019 18:00      84.9      83.5       40     57.1      0.00      0.00      79.3     0.52      1011.7     3.4     WNW   293   7.4     WSW   248   9.40    264      155.5
   07/20/2019 17:50      85.1      84.5       39     57.4      0.00      0.00      79.3     0.52      1011.7     3.3      NW   312   7.1      NW   309   9.41    264      179.2
   07/20/2019 17:40      86.0      84.5       39     57.4      0.00      0.00      79.3     0.52      1011.8     4.2       W   276   7.0     WNW   290   9.41    264      204.7
   07/20/2019 17:30      87.1      85.6       33     53.2      0.00      0.00      79.3     0.52      1011.8     4.7     WNW   298   9.0     WNW   301   9.42    264      225.6
   07/20/2019 17:20      88.0      86.7       26     47.9      0.00      0.00      79.2     0.52      1011.7     4.4     WNW   289   8.5     WSW   249   9.42    263      246.4
   07/20/2019 17:10      88.0      86.7       25     47.6      0.00      0.00      79.2     0.52      1011.7     2.6     NNE    25   5.8      NE    56   9.43    264      267.8
   07/20/2019 17:00      87.8      86.7       25     47.1      0.00      0.00      79.1     0.52      1011.8     1.9      NE    42   4.9       E   100   9.43    264      294.0
   07/20/2019 16:50      87.0      85.7       28     49.5      0.00      0.00      79.1     0.52      1011.9     2.7      SE   139   7.8     SSW   192   9.43    264      322.8
   07/20/2019 16:40      87.0      85.7       28     49.2      0.00      0.00      79.1     0.52      1011.9     3.0      SE   136   6.9      SE   127   9.43    264      347.0
   07/20/2019 16:30      86.7      85.6       28     49.7      0.00      0.00      79.0     0.52      1012.1     2.1     SSE   160   4.9      SE   135   9.44    264      368.9
   07/20/2019 16:20      86.6      85.0       29     49.9      0.00      0.00      79.0     0.52      1012.2     3.7       S   170   7.2     SSW   210   9.44    264      393.2
   07/20/2019 16:10      86.5      85.7       30     51.0      0.00      0.00      79.0     0.52      1012.2     3.0     SSW   193   7.9       S   187   9.45    264      413.6
   07/20/2019 16:00      87.3      86.0       28     49.9      0.00      0.00      78.9     0.52      1012.3     3.3       S   170   7.4       S   184   9.45    264      433.3
   07/20/2019 15:50      87.8      87.0       22     43.7      0.00      0.00      78.9     0.52      1012.3     2.4       E    81   7.1       E    90   9.45    263      448.5
   07/20/2019 15:40      87.9      86.2       21     41.9      0.00      0.00      78.8     0.52      1012.4     2.4       E    92   5.2       E    82   9.46    264      469.1
   07/20/2019 15:30      87.2      86.2       22     43.4      0.00      0.00      78.8     0.52      1012.4     3.5       E    86   6.6     ESE   123   9.46    264      487.0
   07/20/2019 15:20      87.0      86.3       20     41.5      0.00      0.00      78.7     0.52      1012.5     3.0     ENE    70   5.6       E    89   9.46    264      502.6
   07/20/2019 15:10      86.7      85.6       21     41.7      0.00      0.00      78.7     0.52      1012.6     3.2     ENE    69   5.9       E    85   9.47    264      520.0
   07/20/2019 15:00      86.2      85.0       27     47.3      0.00      0.00      78.5     0.52      1012.7     3.6      NE    56   6.2       N     4   9.47    264      536.7
   07/20/2019 14:50      86.0      85.6       28     49.1      0.00      0.00      78.5     0.52      1012.8     2.9      NE    55   6.2     ENE    75   9.47    264      549.5
   07/20/2019 14:40      86.1      85.4       27     47.5      0.00      0.00      78.6     0.52      1012.9     3.2     ENE    70   5.8      NE    38   9.48    264      563.0
   07/20/2019 14:30      85.9      83.3       27     46.3      0.00      0.00      78.5     0.52      1013.0     3.4     ENE    73   7.8      SE   133   9.48    264      577.4
   07/20/2019 14:20      85.5      84.1       32     51.9      0.00      0.00      78.3     0.52      1013.1     3.5     ENE    64   7.7     ENE    68   9.48    264      583.7
   07/20/2019 14:10      85.4      84.6       33     53.1      0.00      0.00      78.3     0.52      1013.1     2.8     ENE    73   6.2       E    84   9.49    264      593.8
   07/20/2019 14:00      85.1      83.9       35     53.9      0.00      0.00      78.4     0.52      1013.3     2.5     ENE    70   6.9      SE   127   9.49    264      602.0
   07/20/2019 13:50      85.6      84.5       36     54.9      0.00      0.00      78.3     0.52      1013.4     2.6      NE    46   5.5      NE    53   9.49    264      607.4
   07/20/2019 13:40      84.8      83.7       36     54.8      0.00      0.00      78.3     0.52      1013.4     2.5     NNE    24   5.3       E    85   9.49    264      612.7
   07/20/2019 13:30      84.8      83.0       38     55.0      0.00      0.00      78.3     0.52      1013.5     2.4       N   358   6.6       N     4   9.49    264      618.2
   07/20/2019 13:20      84.0      81.9       38     54.8      0.00      0.00      78.2     0.52      1013.6     1.9      NE    43   5.5      NE    39   9.50    264      625.5
   07/20/2019 13:10      83.0      81.9       39     55.0      0.00      0.00      78.2     0.52      1013.7     1.7     ESE   108   5.2     ESE   102   9.50    264      628.9
   07/20/2019 13:00      83.8      82.3       39     55.7      0.00      0.00      78.2     0.52      1013.8     2.0      NE    53   5.3     ENE    58   9.50    264      626.0
   07/20/2019 12:50      82.4      81.6       41     55.8      0.00      0.00      78.1     0.52      1014.0     1.6     NNW   345   4.6       N   354   9.50    264      624.5
   07/20/2019 12:40      82.0      79.9       42     55.8      0.00      0.00      78.1     0.52      1014.0     2.0     ENE    77   5.1      NE    47   9.50    264      625.1
   07/20/2019 12:30      80.6      79.7       43     56.0      0.00      0.00      78.1     0.52      1014.1     2.2       S   177   6.9      SE   135   9.50    265      622.9
   07/20/2019 12:20      79.8      77.7       46     56.0      0.00      0.00      78.0     0.52      1014.3     2.3       N     4   6.3     NNW   345   9.50    265      618.7
   07/20/2019 12:10      79.0      77.8       46     56.1      0.00      0.00      78.0     0.52      1014.5     2.3     ESE   114   5.2     SSE   166   9.50    264      614.4
   07/20/2019 12:00      78.7      77.7       47     56.1      0.00      0.00      78.0     0.52      1014.6     1.5       S   182   3.3     ESE   108   9.51    265      607.6
   07/20/2019 11:50      78.4      77.6       48     56.5      0.00      0.00      78.0     0.52      1014.7     2.3       E    87   4.8       E    99   9.51    265      602.0
   07/20/2019 11:40      77.8      76.5       50     56.7      0.00      0.00      78.0     0.52      1014.7     2.2     NNW   344   4.5       N   354   9.51    264      590.8
   07/20/2019 11:30      77.0      75.6       51     56.7      0.00      0.00      78.0     0.52      1014.8     2.0      NE    40   5.4     ESE   111   9.51    265      580.4
   07/20/2019 11:20      76.0      75.2       52     56.6      0.00      0.00      78.0     0.52      1014.9     1.5     NNW   345   3.5       N   349   9.51    265      566.5
   07/20/2019 11:10      75.8      74.5       52     56.4      0.00      0.00      78.0     0.52      1015.1     1.8      NE    44   4.4      NE    45   9.51    265      557.4
   07/20/2019 11:00      74.9      73.3       54     56.3      0.00      0.00      78.0     0.52      1015.1     2.3       N   359   5.7     NNW   336   9.51    265      544.2
   07/20/2019 10:50      74.4      73.5       54     56.3      0.00      0.00      78.0     0.52      1015.2     2.4       N     2   6.4       N     4   9.52    265      532.0
   07/20/2019 10:40      74.0      72.3       56     56.4      0.00      0.00      78.0     0.52      1015.2     2.0      NE    44   4.6     NNW   341   9.52    266      516.8
   07/20/2019 10:30      72.8      72.2       57     56.3      0.00      0.00      78.0     0.52      1015.3     2.0     NNE    29   6.2     NNE    21   9.52    266      500.6
   07/20/2019 10:20      72.4      71.3       58     56.3      0.00      0.00      78.0     0.52      1015.3     2.1      NE    36   4.1     NNE    27   9.52    266      482.4
   07/20/2019 10:10      71.9      70.8       58     56.0      0.00      0.00      78.1     0.52      1015.4     2.2      SE   127   4.8     SSE   164   9.52    266      465.1
   07/20/2019 10:00      71.4      70.0       60     55.9      0.00      0.00      78.1     0.52      1015.4     1.9      SE   136   5.8      SE   137   9.52    266      449.6
   07/20/2019 09:50      71.1      69.9       60     55.8      0.00      0.00      78.1     0.52      1015.4     1.9      SE   131   3.9      SE   142   9.52    266      424.2
   07/20/2019 09:40      70.0      67.2       64     55.8      0.00      0.00      78.1     0.53      1015.5     1.5       E    85   3.7       E    97   9.52    266      416.2
   07/20/2019 09:30      67.6      66.7       66     55.3      0.00      0.00      78.2     0.53      1015.5     2.4      SW   225   4.1     SSW   207   9.52    267      251.3
   07/20/2019 09:20      67.6      66.9       65     55.4      0.00      0.00      78.2     0.53      1015.5     1.2     SSW   194   3.5       E    95   9.52    267      220.8
   07/20/2019 09:10      67.5      66.3       67     55.5      0.00      0.00      78.2     0.53      1015.5     1.2     ENE    64   3.4      NE    48   9.52    268      213.6
   07/20/2019 09:00      66.8      66.1       67     55.4      0.00      0.00      78.3     0.53      1015.5     1.9     SSE   163   3.5     SSW   201   9.52    268      216.2
   07/20/2019 08:50      66.7      65.8       69     55.7      0.00      0.00      78.3     0.53      1015.6     0.7       N   356   2.2     NNW   346   9.52    268      252.9
   07/20/2019 08:40      66.3      65.6       69     55.6      0.00      0.00      78.3     0.53      1015.6     1.0       N   352   3.2     NNW   343   9.52    268      129.4
   07/20/2019 08:30      65.8      64.8       72     56.0      0.00      0.00      78.3     0.53      1015.6     0.6     NNW   348   2.8      NW   322   9.52    269      148.1
   07/20/2019 08:20      65.0      64.4       74     56.2      0.00      0.00      78.3     0.53      1015.7     0.9       W   269   2.4       W   269   9.53    269      105.4
   07/20/2019 08:10      64.6      64.0       75     56.3      0.00      0.00      78.3     0.53      1015.7     0.3     ENE    71   1.3      SE   138   9.53    270       76.5
   07/20/2019 08:00      64.1      63.4       77     56.5      0.00      0.00      78.4     0.53      1015.6     0.4     ENE    59   1.4      NE    56   9.53    270       49.7
   07/20/2019 07:50      63.7      63.0       79     56.5      0.00      0.00      78.4     0.53      1015.6     0.4      SE   146   1.8       S   189   9.53    270       32.8
   07/20/2019 07:40      63.2      62.7       80     56.5      0.00      0.00      78.4     0.53      1015.6     0.8     WSW   242   1.8     WSW   255   9.53    270       19.1
   07/20/2019 07:30      63.0      62.5       80     56.5      0.00      0.00      78.4     0.53      1015.5     0.8       S   188   2.6     SSW   210   9.53    271       14.5
   07/20/2019 07:20      62.8      62.4       81     56.5      0.00      0.00      78.5     0.53      1015.4     1.2     SSW   198   2.2      SW   228   9.53    271       10.9
   07/20/2019 07:10      62.6      62.2       81     56.5      0.00      0.00      78.6     0.53      1015.4     0.4       S   190   1.3       S   177   9.53    271        3.9
   07/20/2019 07:00      62.4      61.9       82     56.6      0.00      0.00      78.6     0.53      1015.4     0.5      SW   218   1.4     WSW   245   9.53    271        1.3
   07/20/2019 06:50      62.2      61.7       82     56.5      0.00      0.00      78.5     0.53      1015.4     0.6     SSW   195   1.8     SSW   213   9.53    271       -0.6
   07/20/2019 06:40      62.1      61.7       83     56.6      0.00      0.00      78.6     0.53      1015.3     0.9     WSW   242   2.7      SW   216   9.53    271       -3.9
   07/20/2019 06:30      61.9      61.6       83     56.5      0.00      0.00      78.6     0.53      1015.3     0.0     SSW   201   0.6     WSW   242   9.53    271       -6.5
   07/20/2019 06:20      61.7      61.3       84     56.5      0.00      0.00      78.7     0.53      1015.3     1.5       S   174   3.5     SSE   162   9.53    271       -8.6
   07/20/2019 06:10      61.7      61.2       84     56.6      0.00      0.00      78.7     0.53      1015.2     0.4      SE   127   1.7      SE   131   9.53    271       -9.8
   07/20/2019 06:00      61.5      61.1       85     56.6      0.00      0.00      78.7     0.53      1015.2     1.2      SE   139   3.5     SSE   165   9.53    271      -10.4
   07/20/2019 05:50      61.4      60.9       85     56.5      0.00      0.00      78.8     0.53      1015.1     0.2      SE   144   1.4     ESE   113   9.53    271      -10.8
   07/20/2019 05:40      61.4      60.9       84     56.4      0.00      0.00      78.8     0.53      1015.0     1.4      SE   130   3.0      SE   143   9.53    271      -11.2
   07/20/2019 05:30      61.3      61.0       84     56.3      0.00      0.00      78.8     0.53      1015.0     1.1     ESE   108   3.5       E    93   9.53    271      -11.2
   07/20/2019 05:20      61.6      61.0       84     56.1      0.00      0.00      78.9     0.53      1015.0     1.8      SE   135   3.7     ESE   108   9.53    271      -11.2
   07/20/2019 05:10      61.6      61.1       83     56.1      0.00      0.00      78.9     0.53      1014.9     1.9     SSE   151   5.0      SE   136   9.53    271      -11.1
   07/20/2019 05:00      61.4      61.0       83     56.0      0.00      0.00      79.0     0.53      1014.8     1.0     ESE   103   2.6     ENE    71   9.53    271      -10.8
   07/20/2019 04:50      61.4      61.0       83     55.9      0.00      0.00      79.0     0.53      1014.8     1.6     ESE   105   3.6      SE   139   9.53    271      -10.9
   07/20/2019 04:40      61.4      60.9       83     55.8      0.00      0.00      79.0     0.53      1014.7     0.3     ESE   106   1.5     ENE    68   9.53    271      -11.2
   07/20/2019 04:30      61.3      60.8       83     55.7      0.00      0.00      79.0     0.53      1014.7     0.9       S   183   2.0       S   172   9.53    271      -11.2
   07/20/2019 04:20      61.1      60.6       83     55.8      0.00      0.00      79.0     0.53      1014.7     0.7       S   175   1.9     SSW   202   9.53    271      -12.8
   07/20/2019 04:10      60.8      60.3       84     55.7      0.00      0.00      79.1     0.53      1014.8     1.3       S   176   2.8       S   184   9.53    271      -12.7
   07/20/2019 04:00      60.6      60.0       85     55.8      0.00      0.00      79.1     0.53      1014.8     1.8       S   190   3.5      SW   216   9.53    271      -14.0
   07/20/2019 03:50      60.2      59.4       86     55.5      0.00      0.00      79.2     0.53      1014.8     1.6     SSW   194   2.7       S   186   9.54    271      -11.9
   07/20/2019 03:40      59.7      58.6       86     54.9      0.00      0.00      79.2     0.53      1014.8     1.4     SSW   200   2.1       S   184   9.54    271      -20.9
   07/20/2019 03:30      59.1      58.5       84     54.0      0.00      0.00      79.2     0.53      1014.9     0.3     SSW   195   1.2     SSW   198   9.54    272      -30.7
   07/20/2019 03:20      59.4      58.8       84     54.3      0.00      0.00      79.3     0.53      1014.9     0.1     SSE   164   1.4       S   174   9.54    256      -59.4
   07/20/2019 03:10      59.7      59.1       83     54.3      0.00      0.00      79.3     0.53      1014.8     1.0       S   169   2.5       S   184   9.54    270      -61.9
   07/20/2019 03:00      59.8      59.4       82     54.0      0.00      0.00      79.3     0.53      1014.9     1.3       S   174   2.8     SSW   193   9.54    271      -60.5
   07/20/2019 02:50      59.8      59.4       83     54.5      0.00      0.00      79.3     0.53      1014.8     1.5     SSW   211   2.2     SSW   211   9.54    271      -54.5
   07/20/2019 02:40      60.6      59.5       84     55.0      0.00      0.00      79.4     0.53      1014.8     0.3      SE   141   1.4       S   190   9.54    260      -52.6
   07/20/2019 02:30      60.8      60.3       85     55.8      0.00      0.00      79.4     0.53      1014.8     0.0     ESE   106   0.8     ESE   108   9.54    253      -53.4
   07/20/2019 02:20      61.1      60.4       83     55.5      0.00      0.00      79.4     0.53      1014.8     0.0     ESE   117   0.5     ESE   120   9.54    255      -57.6
   07/20/2019 02:10      61.4      60.9       83     55.8      0.00      0.00      79.4     0.53      1014.7     0.0       E    94   0.8       E    89   9.54    260      -59.6
   07/20/2019 02:00      61.7      61.1       82     55.8      0.00      0.00      79.4     0.53      1014.6     0.2     ESE   123   1.1      SE   130   9.54    269      -61.7
   07/20/2019 01:50      61.8      61.3       81     55.7      0.00      0.00      79.5     0.53      1014.6     0.3     ESE   117   1.3     SSE   156   9.54    271      -62.6
   07/20/2019 01:40      61.7      61.3       81     55.4      0.00      0.00      79.5     0.53      1014.6     0.2     ESE   108   1.3       E   101   9.55    271      -63.0
   07/20/2019 01:30      61.9      61.3       79     55.2      0.00      0.00      79.5     0.53      1014.6     0.0       E    99   0.4     ESE   112   9.55    271      -63.0
   07/20/2019 01:20      62.3      61.7       80     55.5      0.00      0.00      79.5     0.53      1014.6     0.1     ESE   115   1.1      SE   141   9.55    271      -62.5
   07/20/2019 01:10      62.5      61.9       79     55.7      0.00      0.00      79.5     0.53      1014.6     0.0     SSW   202   0.2     SSW   202   9.55    271      -62.2
   07/20/2019 01:00      62.8      62.2       78     55.5      0.00      0.00      79.6     0.53      1014.6     0.0       S   174   0.3       S   174   9.55    270      -63.1
   07/20/2019 00:50      63.2      62.6       77     55.6      0.00      0.00      79.6     0.53      1014.6     0.0       S   175   0.4       S   175   9.55    270      -63.7
   07/20/2019 00:40      63.2      62.7       77     55.6      0.00      0.00      79.6     0.53      1014.5     0.0     ESE   102   0.9      SE   127   9.55    270      -65.3
   07/20/2019 00:30      63.0      62.6       77     55.4      0.00      0.00      79.6     0.53      1014.5     0.0      SE   135   0.4      SE   125   9.55    270      -64.8
   07/20/2019 00:20      63.1      62.7       76     55.1      0.00      0.00      79.6     0.53      1014.5     0.0     ESE   117   1.0       E    97   9.55    270      -65.6
   07/20/2019 00:10      63.5      63.0       76     55.3      0.00      0.00      79.6     0.53      1014.4     0.2       S   185   1.4     ESE   103   9.55    270      -65.7
   07/20/2019 00:00      63.3      62.9       76     55.3      0.00      0.00      79.7     0.53      1014.4     0.5     SSW   199   0.9      SW   221   9.56    269      -66.2
   07/19/2019 23:50      64.0      62.9       73     54.5      0.00      0.00      79.7     0.53      1014.4     0.1     SSE   156   0.6     SSE   153   9.56    269      -68.4
   07/19/2019 23:40      65.3      63.7       70     54.8      0.00      0.00      79.7     0.53      1014.3     1.1       S   182   2.1      SW   236   9.56    269      -68.1
   07/19/2019 23:30      65.5      65.0       70     55.3      0.00      0.00      79.7     0.53      1014.3     1.8      SW   230   2.2     WSW   241   9.56    268      -68.6
   07/19/2019 23:20      66.1      65.2       70     55.3      0.00      0.00      79.7     0.53      1014.3     0.5     SSW   194   1.4     SSW   209   9.56    268      -70.5
   07/19/2019 23:10      66.1      65.6       69     55.5      0.00      0.00      79.7     0.53      1014.4     0.7     WNW   288   2.6       N     7   9.56    268      -73.1
   07/19/2019 23:00      66.4      65.6       69     55.4      0.00      0.00      79.7     0.53      1014.2     0.5       E    80   1.6      NE    54   9.56    268      -73.9
   07/19/2019 22:50      66.7      66.1       68     55.5      0.00      0.00      79.7     0.53      1014.2     1.5     SSW   199   3.4     SSW   197   9.56    268      -74.4
   07/19/2019 22:40      66.9      66.3       68     55.5      0.00      0.00      79.8     0.53      1014.2     1.6     SSW   202   4.5     SSW   196   9.57    268      -73.8
   07/19/2019 22:30      67.4      66.7       67     55.5      0.00      0.00      79.8     0.53      1014.2     0.8      SW   235   3.1     WSW   251   9.57    268      -74.4
   07/19/2019 22:20      67.7      67.0       66     55.7      0.00      0.00      79.7     0.53      1014.2     0.6      SW   224   1.7     SSE   165   9.57    268      -76.0
   07/19/2019 22:10      68.0      67.3       66     55.6      0.00      0.00      79.7     0.53      1014.1     0.7     SSW   210   3.6       S   188   9.57    268      -76.0
   07/19/2019 22:00      68.2      67.6       65     55.6      0.00      0.00      79.7     0.53      1014.0     1.3      SW   226   3.4     WSW   245   9.57    268      -75.5
   07/19/2019 21:50      68.6      67.9       64     55.7      0.00      0.00      79.7     0.53      1013.9     2.0     WSW   239   3.8      SW   233   9.57    267      -75.6
   07/19/2019 21:40      69.0      68.3       64     55.8      0.00      0.00      79.8     0.53      1013.8     1.9      SW   234   3.8       W   271   9.58    267      -75.7
   07/19/2019 21:30      69.3      68.6       63     55.8      0.00      0.00      79.7     0.53      1013.6     1.3      SW   219   3.5      SW   225   9.58    267      -76.6
   07/19/2019 21:20      69.6      69.0       62     55.8      0.00      0.00      79.7     0.53      1013.5     2.2     SSW   213   4.9      SW   222   9.58    267      -77.9
   07/19/2019 21:10      70.1      69.3       61     55.8      0.00      0.00      79.7     0.53      1013.3     2.6     SSW   207   5.6      SW   217   9.58    267      -78.4
   07/19/2019 21:00      70.7      69.8       61     55.9      0.00      0.00      79.7     0.53      1013.2     2.9      SW   232   5.3     WSW   243   9.58    267      -79.0
   07/19/2019 20:50      71.5      70.4       59     56.0      0.00      0.00      79.7     0.53      1013.1     2.4      SW   229   4.5      SW   230   9.59    267      -79.5
   07/19/2019 20:40      71.8      71.0       59     56.2      0.00      0.00      79.7     0.53      1013.0     2.8      SW   235   4.2     SSE   162   9.59    266      -79.8
   07/19/2019 20:30      72.5      71.6       57     56.0      0.00      0.00      79.7     0.53      1013.0     2.6     WSW   240   4.7     WSW   254   9.59    266      -80.4
   07/19/2019 20:20      73.5      72.4       56     56.0      0.00      0.00      79.7     0.53      1012.8     2.9     WNW   283   5.6     WNW   290   9.59    266      -80.7
   07/19/2019 20:10      74.0      73.2       54     56.1      0.00      0.00      79.6     0.53      1012.7     2.0     WNW   282   4.3     WSW   254   9.60    266      -79.7
   07/19/2019 20:00      74.6      73.8       53     56.1      0.00      0.00      79.7     0.53      1012.7     2.7     WNW   287   4.7      NW   306   9.60    266      -76.8
   07/19/2019 19:50      74.9      74.1       53     56.1      0.00      0.00      79.7     0.53      1012.6     3.1      SW   233   5.5     WSW   258   9.60    266      -72.7
   07/19/2019 19:40      75.9      74.7       51     56.1      0.00      0.00      79.6     0.53      1012.5     3.7      SW   230   6.5     WSW   248   9.61    266      -58.8
   07/19/2019 19:30      77.7      75.7       49     56.0      0.00      0.00      79.6     0.53      1012.5     5.0     WSW   237   7.1     WSW   255   9.61    266      -44.7
   07/19/2019 19:20      77.7      77.2       48     56.0      0.00      0.00      79.6     0.53      1012.5     3.8       W   267   7.5     WSW   255   9.61    265      -28.5
   07/19/2019 19:10      79.6      77.4       46     55.8      0.00      0.00      79.6     0.53      1012.5     3.9     WSW   242   7.5      SW   225   9.61    265      -10.0
   07/19/2019 19:00      80.0      78.8       30     45.0      0.00      0.00      79.6     0.53      1012.5     3.3      SW   222   6.8      SW   216   9.62    264        9.3
   07/19/2019 18:50      80.2      79.4       24     39.6      0.00      0.00      79.5     0.53      1012.4     3.4     SSW   194   6.5     SSE   165   9.62    264       30.0
   07/19/2019 18:40      80.7      79.8       25     40.8      0.00      0.00      79.5     0.53      1012.3     3.6       S   178   6.2     SSW   206   9.63    264       51.3
   07/19/2019 18:30      81.0      80.3       25     41.2      0.00      0.00      79.5     0.53      1012.3     3.9     SSW   198   6.0       S   190   9.63    264       76.7
   07/19/2019 18:20      81.2      80.3       25     41.6      0.00      0.00      79.4     0.53      1012.3     3.7       S   186   6.1     SSW   201   9.64    264      103.6
   07/19/2019 18:10      81.7      80.8       28     45.0      0.00      0.00      79.5     0.53      1012.3     4.6     SSW   203   6.8      SW   224   9.64    264      130.5
   07/19/2019 18:00      81.9      81.2       30     47.3      0.00      0.00      79.3     0.53      1012.3     3.8       S   173   6.3       S   177   9.65    264      156.6
   07/19/2019 17:50      82.3      81.1       31     47.6      0.00      0.00      79.4     0.53      1012.3     5.3     SSW   200   7.3     SSE   162   9.65    264      183.2
   07/19/2019 17:40      82.8      81.8       30     47.9      0.00      0.00      79.3     0.53      1012.3     4.5     SSW   201   7.6     SSW   204   9.66    264      207.2
   07/19/2019 17:30      83.3      82.5       30     48.1      0.00      0.00      79.3     0.53      1012.3     4.6     SSW   208   8.7     SSW   206   9.66    264      232.0
   07/19/2019 17:20      85.4      82.9       28     47.7      0.00      0.00      79.3     0.53      1012.3     4.0     SSW   192   7.8      SW   220   9.67    264      256.4
   07/19/2019 17:10      85.2      83.7       29     48.4      0.00      0.00      79.3     0.53      1012.4     2.2     SSW   192   4.9       S   180   9.67    264      282.5
   07/19/2019 17:00      84.8      83.3       30     49.3      0.00      0.00      79.3     0.53      1012.4     3.1     SSE   156   7.6      SE   132   9.67    264      302.8
   07/19/2019 16:50      84.0      82.9       28     46.7      0.00      0.00      79.3     0.53      1012.5     3.0     ESE   118   7.0     SSE   152   9.68    264      331.2
   07/19/2019 16:40      83.8      82.9       29     47.4      0.00      0.00      79.2     0.53      1012.5     3.7       E    94   7.1      SE   125   9.68    264      356.7
   07/19/2019 16:30      83.8      82.9       30     49.0      0.00      0.00      79.2     0.53      1012.5     3.0       E    94   5.8       E    85   9.68    264      377.7
   07/19/2019 16:20      84.4      82.6       32     50.5      0.00      0.00      79.1     0.53      1012.6     4.1       E    91   9.3     ENE    63   9.69    264      403.1
   07/19/2019 16:10      84.5      83.4       34     52.1      0.00      0.00      79.1     0.53      1012.7     3.8      SE   134   7.3      SE   136   9.69    264      424.7
   07/19/2019 16:00      84.6      83.3       31     50.1      0.00      0.00      79.0     0.53      1012.9     3.4      SE   133   6.4       S   184   9.69    264      443.4
   07/19/2019 15:50      83.6      82.4       31     49.4      0.00      0.00      78.9     0.53      1012.9     3.7       E    91   6.8     ENE    57   9.70    264      462.2
   07/19/2019 15:40      83.4      82.7       32     50.0      0.00      0.00      79.0     0.53      1013.0     3.5       E    95   6.4       S   178   9.70    264      482.3
   07/19/2019 15:30      83.6      82.2       32     50.4      0.00      0.00      79.0     0.53      1013.1     4.4       E    97   8.9     ENE    59   9.71    264      499.6
   07/19/2019 15:20      83.8      82.4       34     52.0      0.00      0.00      78.9     0.53      1013.1     2.8     ESE   123   5.1     SSE   148   9.71    264      516.1
   07/19/2019 15:10      84.2      82.6       34     52.4      0.00      0.00      78.9     0.53      1013.2     3.3       E    90   6.4       S   175   9.71    264      532.9
   07/19/2019 15:00      83.2      82.2       34     51.5      0.00      0.00      78.9     0.53      1013.2     3.0     ESE   108   7.4     ENE    60   9.72    264      549.6
   07/19/2019 14:50      82.9      82.1       35     51.8      0.00      0.00      78.8     0.53      1013.3     4.1      SE   128   7.0     ENE    74   9.72    264      563.7
   07/19/2019 14:40      83.5      82.2       35     52.6      0.00      0.00      78.8     0.53      1013.3     4.0     SSE   148   8.3      SE   135   9.72    264      576.0
   07/19/2019 14:30      83.0      81.7       37     53.1      0.00      0.00      78.8     0.53      1013.3     3.2     ESE   112   6.7     ESE   118   9.72    265      589.9
   07/19/2019 14:20      82.9      81.6       37     53.1      0.00      0.00      78.7     0.53      1013.3     4.6     ESE   117  10.7      SE   136   9.73    265      601.5
   07/19/2019 14:10      82.9      81.4       37     53.4      0.00      0.00      78.6     0.53      1013.4     4.7      SE   134   8.3      SE   142   9.73    265      607.1
   07/19/2019 14:00      83.7      81.8       37     54.2      0.00      0.00      78.6     0.53      1013.4     3.7      SE   133   9.6      SE   128   9.73    264      613.5
   07/19/2019 13:50      83.6      82.9       39     55.8      0.00      0.00      78.6     0.53      1013.5     2.8       E    91   6.4       S   172   9.74    264      614.6
   07/19/2019 13:40      83.2      81.7       41     56.5      0.00      0.00      78.5     0.53      1013.6     2.5      NE    54   7.1       E    91   9.74    264      619.5
   07/19/2019 13:30      83.7      81.5       41     56.4      0.00      0.00      78.5     0.53      1013.7     3.5     ENE    57   6.9     ENE    70   9.74    264      621.4
   07/19/2019 13:20      83.7      82.6       40     56.3      0.00      0.00      78.5     0.53      1013.8     3.0      NE    40   6.9      NE    37   9.74    264      626.0
   07/19/2019 13:10      83.4      81.6       40     55.8      0.00      0.00      78.5     0.53      1013.9     2.3      NE    50   6.2     ENE    63   9.74    264      628.6
   07/19/2019 13:00      81.9      79.7       41     54.6      0.00      0.00      78.5     0.53      1014.0     2.2      SE   133   6.9      SE   128   9.74    264      634.4
   07/19/2019 12:50      82.0      80.7       39     54.3      0.00      0.00      78.5     0.53      1014.1     2.5     ENE    62   6.1     SSE   148   9.75    264      632.6
   07/19/2019 12:40      81.3      80.2       40     54.0      0.00      0.00      78.5     0.53      1014.3     2.3       E    92   6.4       E    93   9.75    264      632.8
   07/19/2019 12:30      81.0      79.9       40     54.2      0.00      0.00      78.5     0.53      1014.4     2.1     NNW   337   4.5     NNE    27   9.75    264      627.7
   07/19/2019 12:20      80.3      79.5       42     54.6      0.00      0.00      78.5     0.53      1014.6     2.0     NNE    17   4.7      SE   126   9.75    264      623.0
   07/19/2019 12:10      79.6      78.5       44     55.4      0.00      0.00      78.5     0.53      1014.7     1.8       N   355   4.0       N     0   9.75    265      617.8
   07/19/2019 12:00      79.0      77.3       45     55.2      0.00      0.00      78.4     0.53      1014.8     1.5       S   174   3.5     NNW   342   9.75    264      615.2
   07/19/2019 11:50      78.7      77.6       46     55.5      0.00      0.00      78.5     0.53      1014.9     1.8     NNE    27   4.3     SSE   165   9.75    264      610.4
   07/19/2019 11:40      77.6      76.0       48     55.4      0.00      0.00      78.4     0.54      1014.9     2.2       N     5   4.8      NE    47   9.75    265      607.0
   07/19/2019 11:30      76.0      74.5       50     55.3      0.00      0.00      78.5     0.54      1014.9     1.4       N   355   3.8     ENE    71   9.75    264      597.3
   07/19/2019 11:20      75.1      73.8       51     55.3      0.00      0.00      78.4     0.54      1015.0     2.3       N     5   5.8     NNE    13   9.75    265      556.8
   07/19/2019 11:10      74.9      73.2       52     55.4      0.00      0.00      78.5     0.54      1015.1     1.5     NNW   344   3.8     NNE    16   9.76    266      458.2
   07/19/2019 11:00      73.9      72.9       53     55.0      0.00      0.00      78.5     0.54      1015.1     1.8       N    11   4.0     NNW   336   9.76    266      486.4
   07/19/2019 10:50      73.5      72.3       53     54.9      0.00      0.00      78.5     0.54      1015.2     1.6      NE    53   4.8      NE    50   9.76    266      563.0
   07/19/2019 10:40      72.9      71.1       55     55.0      0.00      0.00      78.6     0.54      1015.2     1.5      NE    42   3.7      NE    43   9.76    264      552.8
   07/19/2019 10:30      71.0      68.8       58     54.3      0.00      0.00      78.6     0.54      1015.2     1.6      SW   226   4.3       S   180   9.76    266      526.5
   07/19/2019 10:20      70.0      68.8       59     54.2      0.00      0.00      78.7     0.54      1015.2     1.6       S   183   4.1      SE   130   9.76    266      427.3
   07/19/2019 10:10      69.1      67.8       62     54.6      0.00      0.00      78.7     0.54      1015.2     1.6      NW   311   4.0     NNW   335   9.76    266      322.4
   07/19/2019 10:00      68.3      66.4       63     54.6      0.00      0.00      78.7     0.54      1015.1     1.0       W   259   3.0     NNE    19   9.76    266      423.9
   07/19/2019 09:50      66.6      65.7       66     54.4      0.00      0.00      78.8     0.54      1015.2     1.3     SSE   154   3.7       E    83   9.76    268      231.6
   07/19/2019 09:40      66.4      65.6       66     54.6      0.00      0.00      78.8     0.54      1015.2     1.4     ESE   101   3.7     SSE   150   9.76    268      152.1
   07/19/2019 09:30      65.7      64.9       68     54.4      0.00      0.00      78.8     0.54      1015.2     1.3      SE   132   2.7      SE   129   9.76    268      186.9
   07/19/2019 09:20      65.2      64.6       69     54.4      0.00      0.00      78.8     0.54      1015.3     1.2       E    88   2.6     ENE    73   9.76    268       74.1
   07/19/2019 09:10      64.9      64.3       70     54.5      0.00      0.00      78.8     0.54      1015.4     0.5       N     1   1.6     NNE    13   9.77    269       38.7
   07/19/2019 09:00      65.2      64.6       69     54.6      0.00      0.00      78.9     0.54      1015.4     1.5     NNW   336   3.7       N   349   9.77    269       69.5
   07/19/2019 08:50      65.2      64.1       71     55.1      0.00      0.00      78.9     0.54      1015.4     1.4     NNW   343   4.1       N    10   9.77    269      199.4
   07/19/2019 08:40      64.3      63.3       74     55.3      0.00      0.00      79.0     0.54      1015.5     0.8       S   186   2.9      SE   141   9.77    269      127.0
   07/19/2019 08:30      63.5      62.4       76     55.4      0.00      0.00      79.0     0.54      1015.5     0.0     SSE   166   1.2      SE   132   9.77    269       53.9
   07/19/2019 08:20      62.7      62.3       77     55.3      0.00      0.00      79.1     0.54      1015.4     1.4     ESE   110   3.8       E    99   9.77    270       57.6
   07/19/2019 08:10      62.5      61.9       78     55.4      0.00      0.00      79.1     0.54      1015.4     0.7      SE   136   2.2     ENE    58   9.77    270       54.2
   07/19/2019 08:00      62.4      61.9       79     55.6      0.00      0.00      79.1     0.54      1015.4     1.7     ESE   110   3.5     ESE   122   9.77    270       37.4
   07/19/2019 07:50      62.2      61.6       80     55.8      0.00      0.00      79.2     0.54      1015.4     0.6      SE   145   2.1       E    90   9.77    270       27.3
   07/19/2019 07:40      61.9      61.3       82     56.1      0.00      0.00      79.2     0.54      1015.2     1.2     SSE   151   3.1     ESE   120   9.77    270       27.1
   07/19/2019 07:30      62.0      61.3       83     56.3      0.00      0.00      79.3     0.54      1015.1     1.7       S   175   3.0      SE   138   9.77    271       21.3
   07/19/2019 07:20      61.9      61.2       84     56.5      0.00      0.00      79.3     0.54      1015.0     0.4     ESE   113   1.7      SE   134   9.77    271       15.8
   07/19/2019 07:10      61.5      61.0       84     56.2      0.00      0.00      79.4     0.54      1014.9     0.5      SE   128   2.4       E    94   9.77    271       13.8
   07/19/2019 07:00      61.2      60.8       84     56.2      0.00      0.00      79.4     0.54      1014.8     1.2       S   173   2.5      SE   145   9.77    271        9.4
   07/19/2019 06:50      61.0      60.6       84     56.1      0.00      0.00      79.5     0.55      1014.8     0.7       S   172   1.9     SSW   194   9.77    271        5.4
   07/19/2019 06:40      60.9      60.5       85     55.9      0.00      0.00      79.5     0.55      1014.8     1.0       S   174   2.2     SSE   166   9.77    271        2.4
   07/19/2019 06:30      60.8      60.3       85     55.9      0.00      0.00      79.5     0.55      1014.6     0.9      SE   144   2.5     SSE   147   9.77    271       -0.8
   07/19/2019 06:20      60.6      60.1       85     55.9      0.00      0.00      79.6     0.55      1014.6     1.3      SE   136   4.2     SSW   201   9.77    271       -5.0
   07/19/2019 06:10      60.5      60.0       86     56.1      0.00      0.00      79.6     0.55      1014.6     0.6       E    96   2.4      SE   126   9.77    271       -6.5
   07/19/2019 06:00      60.4      59.9       86     56.0      0.00      0.00      79.6     0.55      1014.6     1.8     ESE   106   3.7      SE   141   9.77    271       -7.4
   07/19/2019 05:50      60.3      59.9       86     55.8      0.00      0.00      79.7     0.55      1014.6     1.1     ESE   124   3.3       E    96   9.77    271       -7.6
   07/19/2019 05:40      60.1      59.6       85     55.3      0.00      0.00      79.7     0.55      1014.6     1.4     ESE   117   2.7     ESE   116   9.78    271       -8.2
   07/19/2019 05:30      59.8      59.1       85     54.8      0.00      0.00      79.8     0.55      1014.4     1.0     ESE   108   1.9      SE   128   9.78    271       -7.6
   07/19/2019 05:20      59.3      58.3       86     54.5      0.00      0.00      79.8     0.55      1014.4     0.5      SE   129   1.8       E    89   9.78    271       -6.9
   07/19/2019 05:10      58.4      57.5       86     53.7      0.00      0.00      79.9     0.55      1014.4     0.1      SE   139   0.8      SE   142   9.78    271       -6.7
   07/19/2019 05:00      58.0      57.5       86     53.6      0.00      0.00      79.9     0.55      1014.4     0.0       N     0   0.0     SSW   195   9.78    271      -14.9
   07/19/2019 04:50      57.9      57.5       87     53.8      0.00      0.00      80.0     0.55      1014.4     0.6     SSW   211   1.8      SW   215   9.78    263      -26.4
   07/19/2019 04:40      58.4      57.7       86     54.0      0.00      0.00      80.0     0.55      1014.3     0.0     SSE   153   0.3     SSE   156   9.78    256      -28.2
   07/19/2019 04:30      58.8      58.1       86     54.3      0.00      0.00      80.0     0.55      1014.3     0.1       S   173   0.8       S   174   9.78    260      -28.7
   07/19/2019 04:20      58.8      58.4       86     54.4      0.00      0.00      80.1     0.55      1014.3     0.0       E    95   0.7       E    98   9.78    263      -32.0
   07/19/2019 04:10      58.6      57.7       86     54.0      0.00      0.00      80.1     0.55      1014.3     0.4      SE   139   1.7      SE   128   9.78    260      -34.4
   07/19/2019 04:00      58.4      57.6       86     53.6      0.00      0.00      80.1     0.55      1014.2     0.4     SSE   149   1.2      SE   145   9.78    263      -35.7
   07/19/2019 03:50      58.3      57.7       86     53.7      0.00      0.00      80.2     0.55      1014.2     0.3     SSE   166   1.1       S   182   9.78    263      -36.9
   07/19/2019 03:40      58.6      57.7       85     53.7      0.00      0.00      80.2     0.55      1014.2     0.3     SSE   164   0.9       S   174   9.78    261      -38.0
   07/19/2019 03:30      58.6      58.0       86     54.0      0.00      0.00      80.2     0.55      1014.2     0.4       S   172   1.2       S   174   9.78    262      -40.1
   07/19/2019 03:20      58.3      57.9       85     53.7      0.00      0.00      80.3     0.55      1014.2     0.0     ESE   107   0.5     ESE   105   9.79    261      -43.5
   07/19/2019 03:10      58.4      57.9       85     53.6      0.00      0.00      80.4     0.55      1014.1     0.2       S   177   0.9      SE   144   9.79    267      -45.9
   07/19/2019 03:00      58.6      57.9       84     53.3      0.00      0.00      80.4     0.55      1014.1     0.5     SSE   162   1.3      SE   144   9.79    266      -49.0
   07/19/2019 02:50      59.3      58.3       84     53.8      0.00      0.00      80.4     0.55      1014.1     0.1       S   172   0.8     SSE   167   9.79    267      -50.1
   07/19/2019 02:40      59.4      58.9       83     54.1      0.00      0.00      80.4     0.55      1014.1     0.0       S   169   0.7     SSE   161   9.79    268      -54.0
   07/19/2019 02:30      59.4      58.9       83     53.9      0.00      0.00      80.5     0.55      1014.1     0.3       S   176   1.0     SSE   168   9.79    269      -56.2
   07/19/2019 02:20      59.6      59.1       82     53.9      0.00      0.00      80.6     0.55      1014.2     0.0       S   174   0.5       S   176   9.79    270      -59.8
   07/19/2019 02:10      59.6      59.2       81     53.7      0.00      0.00      80.6     0.55      1014.2     0.4       S   180   1.2       S   186   9.79    270      -63.4
   07/19/2019 02:00      59.8      59.2       80     53.4      0.00      0.00      80.6     0.55      1014.2     0.0      SE   145   0.7     SSE   160   9.79    270      -65.7
   07/19/2019 01:50      60.3      59.5       79     53.5      0.00      0.00      80.7     0.55      1014.2     0.1      SE   133   0.8       E    86   9.79    270      -67.1
   07/19/2019 01:40      60.8      60.0       78     53.6      0.00      0.00      80.7     0.55      1014.2     0.0       N     0   0.0       S   174   9.79    270      -69.8
   07/19/2019 01:30      61.0      60.5       78     53.6      0.00      0.00      80.7     0.55      1014.3     0.0      SE   143   0.6     ESE   118   9.80    270      -72.5
   07/19/2019 01:20      60.9      60.3       78     53.5      0.00      0.00      80.8     0.55      1014.3     0.5     ESE   117   1.5     ESE   122   9.80    270      -71.5
   07/19/2019 01:10      61.0      60.4       78     53.5      0.00      0.00      80.8     0.55      1014.2     0.0       E    86   0.5       E    85   9.80    270      -70.4
   07/19/2019 01:00      61.3      60.8       76     53.5      0.00      0.00      80.8     0.55      1014.3     0.0       E    86   0.5       E    83   9.80    270      -70.0
   07/19/2019 00:50      61.9      61.0       75     53.3      0.00      0.00      80.9     0.55      1014.3     0.2     ESE   117   1.1       E   100   9.80    269      -71.4
   07/19/2019 00:40      61.9      61.4       75     53.7      0.00      0.00      80.9     0.55      1014.3     0.0      SE   135   0.6      SE   146   9.80    269      -71.5
   07/19/2019 00:30      62.1      61.6       74     53.6      0.00      0.00      80.9     0.55      1014.3     0.0      SE   132   0.3      SE   132   9.80    269      -72.7
   07/19/2019 00:20      62.5      61.8       73     53.4      0.00      0.00      80.9     0.55      1014.3     0.3     ESE   120   1.0      SE   138   9.80    269      -73.2
   07/19/2019 00:10      62.9      62.2       72     53.4      0.00      0.00      80.9     0.55      1014.3     0.1     ESE   122   0.9      SE   129   9.81    269      -73.7
   07/19/2019 00:00      62.9      62.4       71     53.2      0.00      0.00      81.0     0.55      1014.3     0.7      SE   128   1.2      SE   141   9.81    269      -74.6
   07/18/2019 23:50      63.6      62.7       70     52.9      0.00      0.00      81.1     0.55      1014.3     0.4     ESE   120   1.2     ESE   114   9.81    269      -74.8
   07/18/2019 23:40      64.3      63.3       68     53.0      0.00      0.00      81.0     0.55      1014.3     0.7      SE   132   1.5      SE   127   9.81    268      -76.1
   07/18/2019 23:30      64.3      63.7       68     53.1      0.00      0.00      81.1     0.55      1014.3     0.8      SE   124   1.9       E    79   9.81    268      -76.2
   07/18/2019 23:20      65.0      64.0       67     53.1      0.00      0.00      81.1     0.55      1014.3     0.4     ESE   111   1.9     ENE    72   9.81    268      -75.8
   07/18/2019 23:10      65.2      64.7       67     53.7      0.00      0.00      81.1     0.55      1014.2     0.4      NE    56   2.0      NE    42   9.81    268      -75.5
   07/18/2019 23:00      65.8      64.9       67     53.9      0.00      0.00      81.2     0.56      1014.2     0.1       E    97   0.9       E    91   9.81    268      -75.2
   07/18/2019 22:50      66.4      65.4       65     53.8      0.00      0.00      81.2     0.56      1014.2     0.3     ESE   102   1.6       E    91   9.82    267      -76.2
   07/18/2019 22:40      66.4      66.1       64     53.8      0.00      0.00      81.2     0.56      1014.2     1.0     ENE    59   2.2      NE    40   9.82    267      -77.2
   07/18/2019 22:30      66.6      66.0       63     53.4      0.00      0.00      81.1     0.56      1014.1     0.4     ENE    75   1.4     ESE   107   9.82    267      -76.1
   07/18/2019 22:20      67.4      66.2       62     53.3      0.00      0.00      81.2     0.56      1014.1     0.2       E    97   1.7     ENE    70   9.82    267      -74.8
   07/18/2019 22:10      68.0      67.0       61     53.6      0.00      0.00      81.2     0.56      1014.0     0.2       S   186   1.1     SSW   195   9.82    267      -76.1
   07/18/2019 22:00      68.8      67.8       60     53.8      0.00      0.00      81.2     0.56      1013.9     0.2       E    95   1.2     SSW   197   9.83    267      -77.7
   07/18/2019 21:50      69.1      68.5       59     54.0      0.00      0.00      81.2     0.56      1013.8     0.3      SE   129   2.0     SSW   208   9.83    266      -79.1
   07/18/2019 21:40      69.4      68.8       58     53.8      0.00      0.00      81.3     0.56      1013.8     0.3      SE   129   2.3     SSW   195   9.83    266      -79.4
   07/18/2019 21:30      69.5      69.1       57     53.5      0.00      0.00      81.3     0.56      1013.6     0.4     SSE   148   1.4       S   185   9.83    266      -80.0
   07/18/2019 21:20      70.0      69.3       56     53.4      0.00      0.00      81.3     0.56      1013.5     1.3       S   174   2.8     SSE   149   9.83    266      -80.2
   07/18/2019 21:10      70.6      69.8       55     53.1      0.00      0.00      81.3     0.56      1013.4     1.6       S   186   3.1       S   182   9.84    266      -79.8
   07/18/2019 21:00      71.1      70.2       54     53.0      0.00      0.00      81.3     0.56      1013.3     3.0       S   180   5.7       S   179   9.84    266      -80.0
   07/18/2019 20:50      71.8      70.7       52     52.9      0.00      0.00      81.4     0.56      1013.1     3.8       S   181   5.8       S   180   9.84    266      -80.9
   07/18/2019 20:40      72.6      71.6       49     52.0      0.00      0.00      81.4     0.56      1013.0     2.5       S   183   5.4       S   190   9.85    266      -81.8
   07/18/2019 20:30      73.4      72.4       47     51.4      0.00      0.00      81.4     0.56      1012.8     2.8       S   175   6.0       S   182   9.85    265      -83.3
   07/18/2019 20:20      74.1      73.2       45     50.7      0.00      0.00      81.4     0.56      1012.7     3.1       S   170   4.8     SSW   198   9.85    265      -83.7
   07/18/2019 20:10      74.9      73.8       43     50.1      0.00      0.00      81.4     0.56      1012.6     2.7       S   176   4.6       S   170   9.86    265      -82.8
   07/18/2019 20:00      75.6      74.4       41     49.7      0.00      0.00      81.4     0.56      1012.6     3.0       S   175   5.0     SSE   154   9.86    264      -79.9
   07/18/2019 19:50      76.5      75.3       37     47.9      0.00      0.00      81.5     0.56      1012.4     2.5       S   169   5.0     SSW   211   9.87    264      -77.2
   07/18/2019 19:40      77.5      76.3       32     45.0      0.00      0.00      81.4     0.56      1012.4     2.7     SSE   165   5.1       S   169   9.87    264      -68.3
   07/18/2019 19:30      78.2      77.2       29     43.3      0.00      0.00      81.4     0.56      1012.3     3.6       S   175   6.6     SSW   194   9.87    264      -52.3
   07/18/2019 19:20      79.1      77.8       28     42.5      0.00      0.00      81.4     0.56      1012.3     4.2       S   181   6.5       S   184   9.88    264      -36.0
   07/18/2019 19:10      79.9      78.9       29     44.5      0.00      0.00      81.4     0.56      1012.3     3.7       S   174   6.7       S   183   9.88    264      -16.5
   07/18/2019 19:00      80.7      79.6       28     44.3      0.00      0.00      81.4     0.56      1012.3     3.6       S   181   6.0       S   189   9.89    264        5.8
   07/18/2019 18:50      81.1      80.3       29     45.1      0.00      0.00      81.4     0.56      1012.3     3.6       S   185   6.6     SSW   212   9.89    264       29.9
   07/18/2019 18:40      82.3      80.8       27     44.9      0.00      0.00      81.5     0.56      1012.3     3.5       S   187   7.2      SW   220   9.90    264       55.0
   07/18/2019 18:30      83.2      82.1       27     44.7      0.00      0.00      81.4     0.56      1012.3     3.9       S   171   6.6     SSW   194   9.90    263       79.6
   07/18/2019 18:20      83.3      82.6       24     42.6      0.00      0.00      81.4     0.56      1012.4     3.7     SSE   161   7.0      SE   136   9.91    264      106.8
   07/18/2019 18:10      83.8      82.7       25     43.4      0.00      0.00      81.4     0.56      1012.4     5.4       S   175   9.9     SSW   199   9.92    264      133.6
   07/18/2019 18:00      84.8      83.6       27     46.3      0.00      0.00      81.4     0.56      1012.4     4.9       S   174   8.2     SSE   166   9.93    264      161.7
   07/18/2019 17:50      85.1      84.2       30     49.4      0.00      0.00      81.4     0.56      1012.4     4.3     SSE   167   8.1     SSW   208   9.93    264      188.7
   07/18/2019 17:40      86.0      84.9       31     51.0      0.00      0.00      81.4     0.56      1012.4     4.7       S   174   8.1       S   185   9.94    264      212.2
   07/18/2019 17:30      86.0      84.8       31     51.1      0.00      0.00      81.4     0.56      1012.5     4.2       S   184   7.4     SSW   194   9.94    264      240.6
   07/18/2019 17:20      86.5      85.4       30     51.0      0.00      0.00      81.4     0.56      1012.5     4.9     SSW   193   7.3     SSW   205   9.95    264      263.3
   07/18/2019 17:10      87.1      86.1       30     51.1      0.00      0.00      81.3     0.56      1012.6     4.2     SSW   196   7.4      SW   221   9.96    264      290.2
   07/18/2019 17:00      87.1      86.1       30     51.1      0.00      0.00      81.4     0.56      1012.6     4.2       S   175   8.2       S   182   9.96    264      314.2
   07/18/2019 16:50      87.1      86.4       30     51.6      0.00      0.00      81.4     0.56      1012.7     4.2     SSE   160   7.7     SSE   153   9.96    264      339.9
   07/18/2019 16:40      87.4      86.5       30     52.2      0.00      0.00      81.4     0.56      1012.8     4.7       S   179   7.8     SSW   210   9.97    264      363.0
   07/18/2019 16:30      87.9      86.0       30     52.1      0.00      0.00      81.4     0.56      1012.9     4.9       S   191   8.4       S   173   9.98    264      385.8
   07/18/2019 16:20      88.3      87.3       30     52.3      0.00      0.00      81.4     0.57      1012.9     5.2       S   178   9.2       S   185   9.98    264      407.2
   07/18/2019 16:10      88.4      87.0       30     52.6      0.00      0.00      81.4     0.57      1013.0     3.6       S   169   8.5     SSE   162   9.99    264      429.6
   07/18/2019 16:00      87.9      87.1       31     52.7      0.00      0.00      81.3     0.57      1013.1     3.9     SSE   150   8.3     SSW   202   9.99    264      450.8
   07/18/2019 15:50      88.6      87.0       30     52.3      0.00      0.00      81.3     0.57      1013.1     3.2      SE   132   7.9      SE   139  10.00    264      468.1
   07/18/2019 15:40      87.9      86.8       31     52.7      0.00      0.00      81.3     0.57      1013.2     3.5      SE   135   6.5       S   177  10.01    264      488.0
   07/18/2019 15:30      88.7      87.8       30     52.8      0.00      0.00      81.3     0.57      1013.4     2.9     ESE   104   5.5     SSE   149  10.01    264      506.3
   07/18/2019 15:20      87.9      87.5       31     53.2      0.00      0.00      81.3     0.57      1013.5     2.7       E    90   6.1     ESE   108  10.01    264      522.7
   07/18/2019 15:10      88.3      87.1       31     53.5      0.00      0.00      81.3     0.57      1013.6     3.0       E    87   8.0     ESE   118  10.02    264      542.8
   07/18/2019 15:00      88.3      86.7       32     54.0      0.00      0.00      81.2     0.57      1013.7     2.9     ENE    63   5.6       E    80  10.02    264      557.9
   07/18/2019 14:50      87.2      86.2       32     53.5      0.00      0.00      81.2     0.57      1013.8     3.2     ESE   112   6.5       S   184  10.03    264      578.7
   07/18/2019 14:40      87.1      85.9       32     53.4      0.00      0.00      81.3     0.58      1013.9     4.0     ESE   119   8.9      SE   140  10.03    264      593.8
   07/18/2019 14:30      87.5      86.7       34     55.0      0.00      0.00      81.2     0.58      1014.0     2.6      SE   138   6.6     ENE    72  10.03    265      607.4
   07/18/2019 14:20      87.2      86.2       34     55.0      0.00      0.00      81.3     0.58      1014.1     3.1      SE   139   6.4       S   183  10.04    266      626.1
   07/18/2019 14:10      87.3      86.2       36     56.9      0.00      0.00      81.2     0.58      1014.3     3.3       S   171   7.3      SW   225  10.04    265      657.1
   07/18/2019 14:00      86.8      84.8       39     58.0      0.00      0.00      81.3     0.58      1014.4     3.0       E    82   6.0       E    89  10.05    266      681.9
   07/18/2019 13:50      87.0      84.6       39     58.3      0.00      0.00      81.2     0.58      1014.5     3.7     ENE    68  10.2      SE   124  10.05    266      714.6
   07/18/2019 13:40      85.9      85.2       40     58.6      0.00      0.00      80.9     0.57      1014.5     3.6      NE    50   6.5     ENE    62  10.06    280      749.9
   07/18/2019 13:30      86.2      85.1       40     58.7      0.00      0.00      80.5     0.35      1014.6     3.3      NE    50   7.0       E    95  10.08    341      646.5
   07/18/2019 13:20      86.1      85.1       41     59.0      0.00      0.00      80.3     0.34      1014.7     3.0       E    81   6.8       E    79  10.10    265      627.1
   07/18/2019 13:10      85.4      84.6       42     59.3      0.00      0.00      80.4     0.34      1014.7     2.7       E    82   5.3       E    82   9.40    265      627.5
   07/18/2019 13:00      86.0      84.0       42     59.4      0.00      0.00      80.2     0.34      1014.9     2.9     ENE    66   5.9      NE    47   8.03    265      622.7
   07/18/2019 12:50      86.0      83.0       43     59.4      0.00      0.00      80.4     0.34      1015.0     2.2      NE    38   5.3     NNE    22   8.04    265      623.6
   07/18/2019 12:40      83.0      82.2       45     58.9      0.00      0.00      80.3     0.34      1015.0     3.2       E    86   7.3      NE    39   8.04    265      624.7
   07/18/2019 12:30      84.0      82.9       44     59.4      0.00      0.00      80.3     0.34      1015.0     3.2      NE    41   7.3      NE    38   8.04    264      614.1
   07/18/2019 12:20      84.0      82.1       46     59.8      0.00      0.00      80.3     0.34      1015.1     2.2     NNE    12   5.7     NNW   335   8.04    266      610.6
   07/18/2019 12:10      82.6      81.6       47     60.0      0.00      0.00      80.3     0.34      1015.1     2.4      NE    35   5.6      NE    53   8.04    266      606.5
   07/18/2019 12:00      82.0      81.1       48     60.2      0.00      0.00      80.3     0.34      1015.3     2.8     NNE    30   6.0      NE    43   8.04    266      600.4
   07/18/2019 11:50      82.0      80.0       49     60.1      0.00      0.00      80.3     0.34      1015.4     2.5      NE    54   6.9       N   352   8.04    265      597.4
   07/18/2019 11:40      81.0      79.9       50     60.2      0.00      0.00      80.3     0.34      1015.5     2.8     NNE    30   6.7     NNE    19   8.04    266      589.4
   07/18/2019 11:30      80.4      79.6       51     60.2      0.00      0.00      80.3     0.34      1015.6     2.3     ENE    67   4.9      NE    45   8.05    266      579.8
   07/18/2019 11:20      80.3      78.4       52     60.3      0.00      0.00      80.3     0.34      1015.7     1.8     NNE    29   5.0      SE   135   8.05    266      566.1
   07/18/2019 11:10      79.3      77.1       54     60.4      0.00      0.00      80.2     0.34      1015.7     2.2      NE    40   5.1     ESE   119   8.05    265      553.3
   07/18/2019 11:00      78.1      77.2       55     60.3      0.00      0.00      80.3     0.34      1015.8     2.6     ENE    57   5.7      NE    55   8.05    266      537.8
   07/18/2019 10:50      77.9      76.9       55     60.2      0.00      0.00      80.3     0.34      1016.0     2.1     ENE    59   4.1     ESE   115   8.05    266      527.0
   07/18/2019 10:40      78.3      76.3       56     60.5      0.00      0.00      80.3     0.34      1016.0     1.9       E    94   4.1      SE   126   8.05    266      512.7
   07/18/2019 10:30      76.6      75.7       58     60.2      0.00      0.00      80.3     0.34      1016.0     2.6      NE    54   5.7       E    87   8.05    266      497.0
   07/18/2019 10:20      76.2      74.2       59     59.9      0.00      0.00      80.4     0.34      1016.1     2.4     WSW   259   4.7       S   175   8.05    266      474.9
   07/18/2019 10:10      75.7      74.5       59     59.8      0.00      0.00      80.3     0.34      1016.1     1.7     NNE    31   3.9     NNE    15   8.05    266      453.0
   07/18/2019 10:00      75.3      74.3       59     59.6      0.00      0.00      80.4     0.34      1016.2     1.7     NNE    23   4.6      NE    34   8.05    266      432.7
   07/18/2019 09:50      74.5      73.2       61     59.3      0.00      0.00      80.4     0.34      1016.2     1.7     NNE    21   4.9      NE    44   8.05    266      414.5
   07/18/2019 09:40      73.7      71.8       62     59.1      0.00      0.00      80.4     0.34      1016.1     1.7     NNE    29   3.9     ENE    60   8.05    266      401.3
   07/18/2019 09:30      72.6      71.7       63     58.8      0.00      0.00      80.5     0.34      1016.1     1.9      NE    42   3.9      NE    49   8.05    266      374.9
   07/18/2019 09:20      72.4      71.4       63     58.8      0.00      0.00      80.5     0.34      1016.2     1.9     ENE    65   4.5      NE    40   8.05    266      362.0
   07/18/2019 09:10      71.8      69.9       65     58.6      0.00      0.00      80.5     0.34      1016.1     1.6     NNE    33   3.5     NNE    26   8.05    266      347.4
   07/18/2019 09:00      70.0      68.4       68     58.2      0.00      0.00      80.5     0.34      1016.2     1.2     NNE    32   3.3       E    94   8.05    268      331.1
   07/18/2019 08:50      69.4      68.6       68     58.2      0.00      0.00      80.6     0.34      1016.2     2.2       E    93   4.4       E    84   8.05    269      229.5
   07/18/2019 08:40      68.9      68.1       70     58.2      0.00      0.00      80.6     0.34      1016.2     1.3       N   358   2.8     NNW   344   8.05    269       18.6
   07/18/2019 08:30      68.4      68.0       70     58.1      0.00      0.00      80.6     0.34      1016.2     1.4      NE    36   3.8     ENE    64   8.05    269       12.4
   07/18/2019 08:20      68.4      67.7       70     58.0      0.00      0.00      80.6     0.34      1016.1     0.9       E    88   2.5     ENE    67   8.05    269       10.9
   07/18/2019 08:10      68.2      67.4       71     57.8      0.00      0.00      80.7     0.34      1016.1     1.5       E    88   3.3     ESE   114   8.05    270       11.0
   07/18/2019 08:00      68.0      67.1       71     58.0      0.00      0.00      80.7     0.34      1016.0     0.9     ENE    66   4.3     ESE   104   8.05    269       33.8
   07/18/2019 07:50      67.4      66.9       72     57.8      0.00      0.00      80.8     0.34      1015.9     1.1     ENE    61   3.4      NE    42   8.05    270       33.6
   07/18/2019 07:40      67.2      66.3       73     57.8      0.00      0.00      80.7     0.34      1015.9     0.7     NNE    24   1.8     NNE    11   8.05    270       14.7
   07/18/2019 07:30      66.6      66.1       74     57.7      0.00      0.00      80.8     0.34      1015.8     0.9       N     4   2.6     ENE    59   8.05    270        3.5
   07/18/2019 07:20      66.3      65.9       74     57.6      0.00      0.00      80.8     0.34      1015.8     0.7       E    98   2.2      NE    48   8.06    271      -10.7
   07/18/2019 07:10      66.3      65.8       74     57.7      0.00      0.00      80.8     0.34      1015.8     1.0     ENE    72   4.3     ENE    78   8.06    271       -3.9
   07/18/2019 07:00      66.1      65.4       75     57.7      0.00      0.00      80.8     0.34      1015.8     0.7     ENE    70   2.6     ENE    61   8.06    271        0.5
   07/18/2019 06:50      65.7      65.3       76     57.7      0.00      0.00      80.9     0.34      1015.8     1.8       E    93   3.4       E    99   8.06    271      -16.8
   07/18/2019 06:40      65.8      65.3       78     58.4      0.00      0.00      80.9     0.34      1015.8     1.2       E   100   2.9     SSE   166   8.06    271        1.3
   07/18/2019 06:30      65.6      65.3       79     58.7      0.00      0.00      80.9     0.34      1015.8     0.6     ESE   107   1.9     ESE   118   8.06    271       -1.3
   07/18/2019 06:20      65.6      65.2       79     58.8      0.00      0.00      81.0     0.34      1015.8     0.0     SSE   147   0.6     SSE   147   8.06    271       -7.9
   07/18/2019 06:10      65.4      64.9       80     58.9      0.00      0.00      81.0     0.34      1015.8     0.3      NE    50   1.0     ENE    76   8.06    271      -10.7
   07/18/2019 06:00      65.2      64.9       81     58.9      0.00      0.00      81.0     0.34      1015.7     0.1     ENE    74   1.0     ENE    68   8.06    271      -12.9
   07/18/2019 05:50      65.2      64.6       81     58.9      0.00      0.00      81.0     0.34      1015.8     0.5       S   178   1.6     SSW   192   8.06    271      -16.4
   07/18/2019 05:40      64.9      64.5       81     58.8      0.00      0.00      81.1     0.34      1015.7     1.3       S   190   2.4     SSW   207   8.06    272      -14.6
   07/18/2019 05:30      64.8      64.3       82     58.8      0.00      0.00      81.1     0.34      1015.6     0.2       S   173   1.3       S   182   8.06    271      -14.8
   07/18/2019 05:20      64.6      64.0       83     58.9      0.00      0.00      81.1     0.35      1015.6     0.9       S   182   2.5     SSW   196   8.06    272      -13.1
   07/18/2019 05:10      64.3      63.6       83     58.7      0.00      0.00      81.1     0.35      1015.7     2.1     SSW   194   3.2     SSW   210   8.06    272      -12.8
   07/18/2019 05:00      64.0      63.5       84     58.7      0.00      0.00      81.2     0.35      1015.7     2.0     SSW   204   2.7     SSW   206   8.07    272      -12.7
   07/18/2019 04:50      63.6      63.1       85     58.7      0.00      0.00      81.2     0.34      1015.7     2.2     SSW   198   3.8      SW   219   8.07    272      -12.2
   07/18/2019 04:40      63.4      62.8       86     58.7      0.00      0.00      81.2     0.35      1015.6     2.2     SSW   198   4.1     SSW   203   8.07    272      -11.9
   07/18/2019 04:30      63.1      62.5       87     58.7      0.00      0.00      81.2     0.35      1015.6     2.8     SSW   199   4.3       S   188   8.07    272      -11.7
   07/18/2019 04:20      63.0      62.3       87     58.5      0.00      0.00      81.3     0.35      1015.6     2.7       S   184   4.3     SSW   208   8.07    272      -11.5
   07/18/2019 04:10      63.1      62.7       86     58.5      0.00      0.00      81.3     0.35      1015.6     3.0       S   174   5.6       S   185   8.07    272      -11.8
   07/18/2019 04:00      63.6      62.9       85     58.6      0.00      0.00      81.3     0.35      1015.7     2.6      SE   144   6.2       S   183   8.07    272      -11.9
   07/18/2019 03:50      63.9      63.3       85     58.9      0.00      0.00      81.4     0.35      1015.6     2.2     ESE   108   4.0     ENE    65   8.07    272      -11.7
   07/18/2019 03:40      64.1      63.6       85     59.3      0.00      0.00      81.4     0.35      1015.6     1.5       E    98   3.8     ENE    72   8.07    272      -11.8
   07/18/2019 03:30      64.2      63.7       85     59.4      0.00      0.00      81.4     0.35      1015.6     1.3       E    83   3.2     ESE   104   8.07    272      -11.8
   07/18/2019 03:20      64.4      63.8       85     59.4      0.00      0.00      81.4     0.35      1015.6     1.5       E    87   3.2      SE   126   8.07    272      -11.6
   07/18/2019 03:10      64.6      64.1       84     59.5      0.00      0.00      81.5     0.35      1015.6     1.5       E    87   4.6     ENE    63   8.07    272      -11.5
   07/18/2019 03:00      64.6      64.2       84     59.3      0.00      0.00      81.5     0.35      1015.6     0.9       E    89   2.7      NE    45   8.07    272      -11.6
   07/18/2019 02:50      64.6      64.2       84     59.5      0.00      0.00      81.5     0.35      1015.6     1.2     ENE    71   2.7     SSE   153   8.07    272      -11.2
   07/18/2019 02:40      64.6      64.1       83     59.2      0.00      0.00      81.6     0.35      1015.7     1.1     ENE    72   2.6     ESE   110   8.07    272      -11.2
   07/18/2019 02:30      64.3      63.6       82     58.4      0.00      0.00      81.6     0.35      1015.7     0.8     ESE   103   2.9     ENE    69   8.07    272      -14.3
   07/18/2019 02:20      63.9      63.5       83     58.5      0.00      0.00      81.6     0.35      1015.7     0.2     ENE    77   1.0     ENE    74   8.07    272      -27.1
   07/18/2019 02:10      63.9      63.5       85     58.9      0.00      0.00      81.6     0.35      1015.9     0.6     ESE   110   1.6     ESE   109   8.07    271      -33.8
   07/18/2019 02:00      64.0      63.4       84     58.7      0.00      0.00      81.7     0.35      1015.8     0.7     ESE   121   1.6      SE   134   8.07    254      -61.2
   07/18/2019 01:50      64.3      63.6       83     58.7      0.00      0.00      81.7     0.35      1015.8     0.5     ESE   113   1.5       E    90   8.08    251      -64.2
   07/18/2019 01:40      64.4      64.0       83     58.8      0.00      0.00      81.7     0.35      1015.8     0.5     ENE    75   1.9     SSE   168   8.08    253      -64.5
   07/18/2019 01:30      64.6      64.1       82     58.8      0.00      0.00      81.8     0.35      1015.7     0.3     ENE    77   2.2     ENE    64   8.08    256      -65.4
   07/18/2019 01:20      65.2      64.3       81     58.8      0.00      0.00      81.8     0.35      1015.8     0.2       E    84   1.4      NE    43   8.08    257      -66.8
   07/18/2019 01:10      65.6      64.9       81     58.9      0.00      0.00      81.8     0.35      1015.8     0.5     ENE    61   1.6     NNE    33   8.08    267      -66.9
   07/18/2019 01:00      65.6      65.1       80     59.0      0.00      0.00      81.8     0.35      1015.8     0.8      NE    55   2.4      NE    52   8.08    269      -66.9
   07/18/2019 00:50      66.0      65.3       79     59.0      0.00      0.00      81.8     0.35      1015.8     1.2      NE    50   3.5     ENE    57   8.08    271      -67.6
   07/18/2019 00:40      66.1      65.5       79     59.0      0.00      0.00      81.8     0.35      1015.8     0.9      NE    47   2.1     NNE    15   8.08    271      -67.9
   07/18/2019 00:30      66.3      65.7       78     58.8      0.00      0.00      81.9     0.35      1015.8     0.9      NE    55   2.3     ENE    57   8.08    271      -67.9
   07/18/2019 00:20      66.7      66.0       77     58.8      0.00      0.00      81.9     0.35      1015.7     1.5     ENE    65   3.0     ENE    67   8.08    271      -68.1
   07/18/2019 00:10      66.9      66.4       76     58.7      0.00      0.00      81.9     0.35      1015.6     1.4     ENE    66   2.8     ENE    66   8.08    271      -68.5
   07/18/2019 00:00      67.0      66.4       75     58.5      0.00      0.00      81.8     0.35      1015.5     1.2      NE    55   2.8     ENE    73   8.08    271      -68.0
   07/17/2019 23:50      67.1      66.6       74     58.2      0.00      0.00      82.0     0.35      1015.4     0.0       E    91   1.0       E    91   8.08    270      -68.7
   07/17/2019 23:40      67.4      66.9       73     58.4      0.00      0.00      82.0     0.35      1015.4     0.5       E    86   1.9      NE    52   8.09    270      -69.6
   07/17/2019 23:30      68.0      67.1       73     58.5      0.00      0.00      82.0     0.35      1015.4     0.9     ENE    73   2.2     NNE    23   8.09    270      -70.2
   07/17/2019 23:20      68.2      67.7       72     58.5      0.00      0.00      82.0     0.35      1015.4     0.8      NE    55   2.1     ENE    65   8.09    270      -70.5
   07/17/2019 23:10      68.2      67.7       72     58.4      0.00      0.00      82.0     0.35      1015.4     1.3      NE    54   2.7     ENE    63   8.09    269      -70.6
   07/17/2019 23:00      68.2      67.7       71     58.2      0.00      0.00      82.0     0.35      1015.3     1.0     ENE    76   2.4     ENE    67   8.09    269      -69.9
   07/17/2019 22:50      68.5      67.8       70     57.9      0.00      0.00      82.1     0.35      1015.2     0.4       E    95   2.7     ESE   124   8.09    269      -70.1
   07/17/2019 22:40      68.5      68.1       69     57.7      0.00      0.00      82.0     0.35      1015.2     0.5       E    94   2.6       E    98   8.09    269      -70.0
   07/17/2019 22:30      68.8      68.2       68     57.7      0.00      0.00      82.0     0.35      1015.2     0.2       E    92   1.0       E    97   8.09    268      -69.8
   07/17/2019 22:20      68.9      68.5       68     57.7      0.00      0.00      82.0     0.35      1015.1     0.7       E    94   2.1       E    80   8.10    268      -70.9
   07/17/2019 22:10      69.1      68.6       67     57.5      0.00      0.00      82.1     0.35      1015.1     0.4     ESE   118   2.1       E    92   8.10    268      -72.3
   07/17/2019 22:00      69.5      68.8       66     57.5      0.00      0.00      82.0     0.35      1015.0     0.0       E    98   0.6     ESE   115   8.10    268      -72.9
   07/17/2019 21:50      69.4      68.9       66     57.4      0.00      0.00      82.0     0.35      1014.9     0.3     ESE   105   1.5     ESE   105   8.10    268      -73.1
   07/17/2019 21:40      69.6      69.1       65     56.9      0.00      0.00      82.0     0.35      1014.8     0.6      SE   130   1.4      SE   131   8.10    268      -73.5
   07/17/2019 21:30      70.1      69.4       63     56.5      0.00      0.00      82.0     0.35      1014.7     0.4      SE   139   1.4     ESE   110   8.10    268      -73.5
   07/17/2019 21:20      70.7      69.8       61     56.1      0.00      0.00      82.0     0.35      1014.7     0.6     ESE   118   1.8      SE   132   8.11    267      -74.1
   07/17/2019 21:10      71.0      70.2       59     55.6      0.00      0.00      82.0     0.35      1014.5     0.6       S   177   1.3      SW   223   8.11    267      -73.6
   07/17/2019 21:00      70.8      70.5       59     55.7      0.00      0.00      82.0     0.35      1014.4     1.0     SSW   213   1.5       S   187   8.11    267      -74.6
   07/17/2019 20:50      71.1      70.5       59     55.8      0.00      0.00      82.0     0.35      1014.4     1.6       S   188   2.8       S   190   8.11    267      -77.0
   07/17/2019 20:40      71.6      70.7       59     56.0      0.00      0.00      82.0     0.35      1014.3     2.6     SSW   202   3.5     SSW   200   8.12    267      -78.7
   07/17/2019 20:30      72.1      71.3       58     56.1      0.00      0.00      82.0     0.35      1014.3     2.1       S   183   3.1       S   170   8.12    266      -81.4
   07/17/2019 20:20      73.0      71.6       57     56.2      0.00      0.00      82.0     0.35      1014.2     2.0       S   184   4.2     SSW   203   8.13    266      -83.1
   07/17/2019 20:10      73.8      72.8       55     55.9      0.00      0.00      82.0     0.35      1014.1     2.6       S   176   4.7       S   189   8.13    266      -83.5
   07/17/2019 20:00      74.9      73.5       53     55.7      0.00      0.00      82.0     0.35      1014.1     2.8       S   183   4.3       S   184   8.13    266      -81.8
   07/17/2019 19:50      76.1      74.7       50     55.4      0.00      0.00      82.0     0.35      1014.0     2.2       S   173   4.1       S   189   8.13    266      -78.6
   07/17/2019 19:40      77.0      75.8       49     55.8      0.00      0.00      81.9     0.35      1013.8     2.0       S   172   4.5       S   190   8.14    266      -63.9
   07/17/2019 19:30      77.8      76.6       49     56.6      0.00      0.00      81.9     0.35      1013.8     2.5       S   175   4.8     SSW   206   8.14    266      -50.5
   07/17/2019 19:20      78.8      77.4       48     56.5      0.00      0.00      81.8     0.35      1013.7     3.2       S   172   6.2       S   188   8.15    266      -32.5
   07/17/2019 19:10      80.1      78.6       45     56.2      0.00      0.00      81.9     0.35      1013.7     3.0       S   170   5.1      SE   124   8.15    265      -12.1
   07/17/2019 19:00      81.0      79.8       42     55.0      0.00      0.00      81.8     0.35      1013.6     2.4     SSE   155   4.3      SE   129   8.15    265       11.0
   07/17/2019 18:50      82.1      80.8       37     52.5      0.00      0.00      81.8     0.35      1013.5     3.0     SSE   155   5.4      SE   146   8.15    264       34.7
   07/17/2019 18:40      82.8      81.8       36     52.5      0.00      0.00      81.8     0.35      1013.5     2.1      SE   135   4.9      SE   130   8.16    264       59.3
   07/17/2019 18:30      83.2      82.2       35     52.5      0.00      0.00      81.8     0.35      1013.4     1.9       E    99   5.1     ENE    76   8.16    264       84.5
   07/17/2019 18:20      83.0      81.9       35     51.9      0.00      0.00      81.7     0.35      1013.5     2.2     SSE   149   5.3       S   189   8.17    264      110.0
   07/17/2019 18:10      82.3      81.3       34     50.7      0.00      0.00      81.7     0.35      1013.4     2.8      SE   131   7.3      SE   137   8.17    264      136.2
   07/17/2019 18:00      82.7      81.9       32     49.7      0.00      0.00      81.7     0.35      1013.4     4.1      SE   126   8.1      SE   134   8.18    264      162.6
   07/17/2019 17:50      83.5      82.3       32     49.9      0.00      0.00      81.7     0.35      1013.4     3.6     ESE   108   7.0      SE   138   8.18    264      185.6
   07/17/2019 17:40      83.5      82.7       32     50.5      0.00      0.00      81.7     0.35      1013.4     3.4     ESE   121   6.8      SE   127   8.19    264      212.8
   07/17/2019 17:30      84.6      83.1       32     50.8      0.00      0.00      81.6     0.35      1013.5     3.2      SE   143   6.9      SE   146   8.19    264      237.6
   07/17/2019 17:20      84.1      83.4       31     50.3      0.00      0.00      81.6     0.34      1013.5     3.7     ESE   116   8.1      SE   133   8.19    264      264.8
   07/17/2019 17:10      84.4      83.4       31     50.1      0.00      0.00      81.5     0.34      1013.6     4.4      SE   127   7.5     ESE   118   8.20    264      289.0
   07/17/2019 17:00      85.2      83.8       31     50.2      0.00      0.00      81.5     0.34      1013.7     4.7     ESE   121   9.8     ENE    71   8.20    264      312.1
   07/17/2019 16:50      85.7      84.8       32     51.7      0.00      0.00      81.4     0.34      1013.6     4.3     ESE   115  10.4      SE   136   8.21    264      334.8
   07/17/2019 16:40      86.7      85.1       32     52.2      0.00      0.00      81.4     0.34      1013.6     4.1     ESE   118   8.9      SE   138   8.22    264      356.0
   07/17/2019 16:30      86.5      85.6       31     52.0      0.00      0.00      81.4     0.34      1013.6     3.7     ESE   117   7.2      SE   134   8.22    264      377.9
   07/17/2019 16:20      86.6      85.9       31     51.8      0.00      0.00      81.3     0.34      1013.6     3.4      SE   130   8.0      SE   129   8.23    264      399.3
   07/17/2019 16:10      86.8      85.9       30     51.3      0.00      0.00      81.3     0.34      1013.7     3.7      SE   144   7.7      SE   137   8.23    264      420.2
   07/17/2019 16:00      86.2      85.4       30     51.3      0.00      0.00      81.3     0.34      1013.7     4.0      SE   134   7.6     ESE   123   8.24    264      442.2
   07/17/2019 15:50      87.2      85.7       29     50.4      0.00      0.00      81.3     0.34      1013.8     4.7      SE   126   8.8     SSE   152   8.24    264      459.7
   07/17/2019 15:40      87.8      86.7       28     49.8      0.00      0.00      81.2     0.34      1013.8     3.6     ESE   113   6.9      SE   141   8.25    264      476.2
   07/17/2019 15:30      87.8      86.9       27     49.0      0.00      0.00      81.0     0.34      1013.8     3.6     ESE   120   7.6      SE   139   8.25    264      493.0
   07/17/2019 15:20      87.5      86.0       27     48.7      0.00      0.00      81.1     0.34      1013.9     4.6      SE   131  10.3      SE   139   8.26    264      509.1
   07/17/2019 15:10      88.0      86.6       27     48.7      0.00      0.00      81.1     0.34      1013.9     4.7     SSE   149   9.6      SE   125   8.26    264      524.2
   07/17/2019 15:00      87.9      86.5       27     48.8      0.00      0.00      81.1     0.34      1013.9     4.4     ESE   123   8.5     ENE    74   8.27    264      540.2
   07/17/2019 14:50      88.6      87.5       27     49.7      0.00      0.00      81.0     0.34      1013.9     4.8      SE   138   8.8       S   173   8.27    264      549.3
   07/17/2019 14:40      88.3      87.5       29     52.0      0.00      0.00      81.0     0.34      1014.0     3.7       E    94   8.7     ESE   103   8.28    264      561.6
   07/17/2019 14:30      89.4      88.3       31     54.5      0.00      0.00      81.0     0.34      1014.0     3.6     ENE    71   7.9       E    90   8.28    264      569.1
   07/17/2019 14:20      89.2      88.1       32     55.3      0.00      0.00      80.9     0.34      1014.1     2.8     ENE    57   6.6     ENE    73   8.29    264      573.7
   07/17/2019 14:10      89.0      87.9       33     55.9      0.00      0.00      80.8     0.34      1014.2     3.0      NE    35   7.2     NNE    19   8.29    264      584.0
   07/17/2019 14:00      88.9      87.3       36     57.4      0.00      0.00      80.8     0.34      1014.2     2.9     NNE    28   6.7       E    91   8.29    265      595.1
   07/17/2019 13:50      87.3      86.2       37     57.1      0.00      0.00      80.6     0.34      1014.3     2.9      NE    54   5.9     NNE    32   8.30    264      605.9
   07/17/2019 13:40      87.5      85.9       37     57.5      0.00      0.00      80.7     0.34      1014.4     3.0     ENE    66   6.0     SSE   146   8.30    264      611.4
   07/17/2019 13:30      87.1      86.2       38     57.9      0.00      0.00      80.5     0.34      1014.4     3.1      NE    37   6.3     ENE    56   8.30    264      614.1
   07/17/2019 13:20      87.0      85.8       38     58.2      0.00      0.00      80.5     0.34      1014.5     2.9     ENE    66   6.5      NE    42   8.30    265      620.3
   07/17/2019 13:10      86.2      85.1       40     58.4      0.00      0.00      80.5     0.34      1014.5     2.8     ENE    68   5.5     ESE   118   8.31    264      622.5
   07/17/2019 13:00      85.7      84.9       41     58.8      0.00      0.00      80.6     0.34      1014.5     2.6      NE    45   5.8     ENE    77   8.31    265      620.4
   07/17/2019 12:50      85.2      83.8       42     59.0      0.00      0.00      80.4     0.34      1014.6     2.5      NE    50   5.9      NE    48   8.31    264      620.8
   07/17/2019 12:40      84.3      82.7       43     58.9      0.00      0.00      80.5     0.34      1014.7     3.2     NNE    27   6.2     NNE    32   8.31    264      619.5
   07/17/2019 12:30      84.1      82.3       44     59.1      0.00      0.00      80.5     0.34      1014.7     2.9      NE    40   6.5     NNE    24   8.31    265      616.8
   07/17/2019 12:20      84.1      83.2       43     59.2      0.00      0.00      80.4     0.34      1014.7     2.7     NNE    32   5.4     NNE    32   8.32    265      610.4
   07/17/2019 12:10      83.9      82.4       45     59.2      0.00      0.00      80.4     0.34      1014.7     2.7      NE    48   5.0      NE    42   8.32    264      609.3
   07/17/2019 12:00      82.8      81.5       46     59.4      0.00      0.00      80.4     0.34      1014.8     3.0       E    79   6.8     ENE    65   8.32    265      604.0
   07/17/2019 11:50      82.6      81.1       47     59.6      0.00      0.00      80.5     0.34      1014.8     2.8     ENE    72   6.7       E    79   8.32    266      593.9
   07/17/2019 11:40      82.4      81.5       47     59.8      0.00      0.00      80.4     0.34      1014.7     2.7      NE    36   5.1     ENE    64   8.32    265      582.7
   07/17/2019 11:30      82.1      81.1       48     59.9      0.00      0.00      80.4     0.34      1014.8     2.6      NE    45   4.9       E    93   8.32    264      571.9
   07/17/2019 11:20      81.3      80.5       48     59.5      0.00      0.00      80.4     0.34      1014.8     2.6     ENE    60   4.8       E    90   8.32    265      566.1
   07/17/2019 11:10      81.7      80.6       48     59.9      0.00      0.00      80.4     0.34      1014.8     2.8     ENE    60   5.8      NE    43   8.32    265      551.8
   07/17/2019 11:00      80.7      78.9       51     60.2      0.00      0.00      80.4     0.34      1014.8     2.0       E    79   5.0      NE    55   8.32    266      540.7
   07/17/2019 10:50      80.1      79.2       52     60.2      0.00      0.00      80.4     0.34      1014.8     2.4     ENE    61   6.2      NE    36   8.33    266      525.5
   07/17/2019 10:40      79.8      78.3       52     59.8      0.00      0.00      80.5     0.34      1014.9     1.5     NNW   340   4.4       N     2   8.33    265      508.1
   07/17/2019 10:30      78.5      77.5       53     59.7      0.00      0.00      80.5     0.34      1014.7     1.9       N   356   3.8       N    10   8.33    266      494.1
   07/17/2019 10:20      78.4      77.0       54     59.7      0.00      0.00      80.5     0.34      1014.8     2.1     NNE    16   4.5       N     7   8.33    266      477.7
   07/17/2019 10:10      77.0      76.0       56     59.4      0.00      0.00      80.5     0.34      1014.9     1.5     ENE    64   3.3      SE   137   8.33    266      457.6
   07/17/2019 10:00      76.0      74.4       58     59.5      0.00      0.00      80.5     0.34      1014.7     1.8       N    10   4.6       E    90   8.33    266      439.0
   07/17/2019 09:50      74.8      74.0       59     59.2      0.00      0.00      80.6     0.34      1014.7     2.0      SE   136   4.0      SW   222   8.33    266      420.3
   07/17/2019 09:40      75.0      73.8       59     59.1      0.00      0.00      80.6     0.34      1014.8     1.3      NE    49   3.9     NNE    33   8.33    266      395.9
   07/17/2019 09:30      74.2      73.1       62     59.8      0.00      0.00      80.6     0.34      1014.8     1.2      NE    42   2.9       N     0   8.33    266      380.7
   07/17/2019 09:20      73.4      72.5       63     59.7      0.00      0.00      80.7     0.34      1014.7     1.2     ENE    61   2.7     SSW   204   8.33    266      360.5
   07/17/2019 09:10      72.6      70.1       68     60.0      0.00      0.00      80.7     0.34      1014.6     1.0       W   281   3.3      NW   306   8.33    266      336.6
   07/17/2019 09:00      70.1      69.1       71     59.8      0.00      0.00      80.6     0.34      1014.5     1.4      SE   126   3.4     SSE   150   8.33    267      321.0
   07/17/2019 08:50      69.3      68.1       73     59.7      0.00      0.00      80.7     0.34      1014.4     0.9     ESE   114   2.7       N     0   8.33    269      176.4
   07/17/2019 08:40      68.4      67.7       75     59.5      0.00      0.00      80.7     0.34      1014.4     1.1      NE    40   3.0      NE    49   8.34    270       10.4
   07/17/2019 08:30      67.9      67.3       76     59.7      0.00      0.00      80.8     0.34      1014.4     0.9     SSE   166   3.3       S   183   8.34    270       10.4
   07/17/2019 08:20      67.7      66.5       78     60.0      0.00      0.00      80.8     0.34      1014.4     0.7      SW   224   2.3       S   179   8.34    270       61.4
   07/17/2019 08:10      66.8      65.8       80     59.8      0.00      0.00      80.8     0.34      1014.4     1.4     SSE   148   4.2       S   174   8.34    270      112.4
   07/17/2019 08:00      66.1      65.3       82     59.9      0.00      0.00      80.8     0.34      1014.3     1.4     ESE   122   3.3     SSE   155   8.34    270      104.3
   07/17/2019 07:50      66.1      65.3       82     59.9      0.00      0.00      80.9     0.35      1014.3     1.6      SE   145   2.8      SE   139   8.34    271       77.1
   07/17/2019 07:40      66.0      65.2       83     60.2      0.00      0.00      80.9     0.35      1014.2     0.6      SE   142   2.3      SE   142   8.34    271       56.8
   07/17/2019 07:30      65.6      65.2       83     60.2      0.00      0.00      80.9     0.35      1014.1     0.8     NNE    25   2.5       N   355   8.34    271       40.0
   07/17/2019 07:20      65.5      64.8       84     60.2      0.00      0.00      80.9     0.34      1013.9     1.2      NE    42   2.6     ENE    65   8.34    272       30.6
   07/17/2019 07:10      65.2      64.8       85     60.3      0.00      0.00      81.0     0.35      1013.9     1.3     ESE   108   2.5      SE   136   8.34    272       21.7
   07/17/2019 07:00      65.2      64.7       86     60.5      0.00      0.00      81.0     0.34      1013.7     1.0     ENE    79   2.8       E    91   8.34    272       13.4
   07/17/2019 06:50      65.0      64.3       86     60.4      0.00      0.00      81.1     0.35      1013.6     1.4      NE    54   4.3     ENE    75   8.34    272        8.5
   07/17/2019 06:40      65.1      64.7       86     60.6      0.00      0.00      81.0     0.35      1013.4     1.7       E    94   4.3     ENE    76   8.34    272        4.2
   07/17/2019 06:30      65.1      64.7       86     60.6      0.00      0.00      81.1     0.35      1013.3     1.3       E    96   3.8     ESE   116   8.34    272       -1.2
   07/17/2019 06:20      65.0      64.6       86     60.7      0.00      0.00      81.1     0.35      1013.1     0.9       E    90   3.6     ESE   105   8.34    272       -5.0
   07/17/2019 06:10      64.9      64.5       87     60.7      0.00      0.00      81.1     0.35      1012.9     0.7     ENE    73   2.6       E    97   8.34    272       -7.9
   07/17/2019 06:00      64.9      64.3       87     60.7      0.00      0.00      81.1     0.35      1012.9     0.5     NNE    27   2.1      NE    53   8.34    272       -9.8
   07/17/2019 05:50      65.0      64.2       87     60.5      0.00      0.00      81.2     0.35      1012.7     1.7      SE   126   3.4     ESE   103   8.34    272      -10.4
   07/17/2019 05:40      65.0      64.7       86     60.7      0.00      0.00      81.3     0.35      1012.6     0.7       E    89   3.0      NE    40   8.34    272      -11.1
   07/17/2019 05:30      65.0      64.6       86     60.5      0.00      0.00      81.3     0.35      1012.5     1.0     ESE   104   2.6      SE   139   8.34    272      -11.7
   07/17/2019 05:20      65.1      64.6       86     60.5      0.00      0.00      81.3     0.35      1012.4     1.2     ESE   118   3.3       E    98   8.34    272      -12.9
   07/17/2019 05:10      65.0      64.6       86     60.4      0.00      0.00      81.3     0.35      1012.3     1.0     ENE    78   2.4     ENE    59   8.34    272      -13.1
   07/17/2019 05:00      65.0      64.4       85     60.0      0.00      0.00      81.3     0.35      1012.2     1.5       E   100   3.1     SSE   147   8.34    272      -11.7
   07/17/2019 04:50      65.1      64.7       86     60.5      0.00      0.00      81.4     0.35      1012.1     0.7     ENE    74   2.5       E    99   8.34    272      -15.8
   07/17/2019 04:40      65.1      64.6       86     60.5      0.00      0.00      81.4     0.35      1012.1     1.2       E    97   2.5     SSE   152   8.34    271      -11.8
   07/17/2019 04:30      65.1      64.7       86     60.5      0.00      0.00      81.4     0.35      1012.0     1.2     ENE    62   3.8     ENE    57   8.35    271      -11.9
   07/17/2019 04:20      65.0      64.3       86     60.4      0.00      0.00      81.4     0.35      1012.0     0.6      NE    46   2.0      NE    45   8.35    271      -12.5
   07/17/2019 04:10      64.6      64.2       86     60.2      0.00      0.00      81.4     0.35      1012.0     0.3      NE    55   1.8      NE    53   8.35    258      -32.8
   07/17/2019 04:00      64.6      64.1       86     60.1      0.00      0.00      81.5     0.35      1012.0     0.6      NE    45   2.2      NE    56   8.35    212      -52.4
   07/17/2019 03:50      64.6      64.3       86     60.2      0.00      0.00      81.5     0.35      1012.0     0.6     ENE    57   2.3      NE    46   8.35    214      -57.0
   07/17/2019 03:40      64.6      64.3       86     60.1      0.00      0.00      81.5     0.35      1011.9     1.1      NE    52   3.3      NE    48   8.35    215      -57.8
   07/17/2019 03:30      64.7      64.3       86     60.0      0.00      0.00      81.6     0.35      1012.0     0.8     ENE    58   1.9       E    94   8.35    216      -58.9
   07/17/2019 03:20      64.9      64.3       85     60.0      0.00      0.00      81.6     0.35      1011.9     0.5     ENE    72   1.4      NE    54   8.35    224      -59.8
   07/17/2019 03:10      65.2      64.5       84     60.0      0.00      0.00      81.6     0.35      1011.9     1.2     ENE    71   3.7       E    99   8.35    246      -60.6
   07/17/2019 03:00      65.5      64.8       83     60.0      0.00      0.00      81.6     0.35      1012.0     0.6     ENE    60   2.3      SE   131   8.35    250      -61.5
   07/17/2019 02:50      65.7      65.2       83     59.9      0.00      0.00      81.7     0.35      1012.0     1.1      NE    51   2.4     ENE    58   8.35    261      -62.2
   07/17/2019 02:40      65.9      65.2       82     59.8      0.00      0.00      81.7     0.35      1012.0     1.1      NE    51   2.8      NE    48   8.35    264      -62.3
   07/17/2019 02:30      66.1      65.5       81     59.8      0.00      0.00      81.7     0.35      1012.0     0.7      NE    50   1.9      NE    47   8.35    266      -63.4
   07/17/2019 02:20      66.2      65.7       80     59.7      0.00      0.00      81.7     0.35      1012.0     0.8      NE    47   2.0      NE    50   8.35    269      -64.2
   07/17/2019 02:10      66.5      65.8       79     59.6      0.00      0.00      81.7     0.35      1011.9     1.5      NE    49   3.0     NNE    32   8.35    271      -64.8
   07/17/2019 02:00      66.7      66.2       79     59.6      0.00      0.00      81.8     0.35      1011.9     1.5      NE    54   3.4      NE    51   8.35    271      -65.3
   07/17/2019 01:50      66.9      66.4       78     59.6      0.00      0.00      81.8     0.35      1011.9     0.7     ENE    57   2.4     ENE    57   8.35    271      -66.0
   07/17/2019 01:40      67.3      66.7       77     59.6      0.00      0.00      81.8     0.35      1011.9     1.3      NE    46   2.8     ENE    65   8.35    271      -66.7
   07/17/2019 01:30      67.7      67.0       76     59.6      0.00      0.00      81.8     0.35      1011.9     1.8      NE    43   4.4     ENE    68   8.35    270      -67.3
   07/17/2019 01:20      68.0      67.3       76     59.6      0.00      0.00      81.8     0.35      1012.0     1.5      NE    46   3.2      NE    45   8.36    270      -67.8
   07/17/2019 01:10      68.1      67.5       75     59.6      0.00      0.00      81.9     0.35      1011.9     1.4      NE    47   3.4      NE    47   8.36    270      -68.0
   07/17/2019 01:00      68.5      67.8       74     59.6      0.00      0.00      81.9     0.35      1011.9     1.3      NE    54   2.9     ENE    58   8.36    270      -67.9
   07/17/2019 00:50      68.8      68.2       73     59.5      0.00      0.00      81.9     0.35      1011.9     1.2     ENE    64   3.2       E    87   8.36    270      -68.1
   07/17/2019 00:40      68.9      68.3       73     59.7      0.00      0.00      81.9     0.35      1012.0     1.3      NE    51   2.4       E    84   8.36    269      -68.2
   07/17/2019 00:30      69.1      68.6       73     59.7      0.00      0.00      82.0     0.35      1012.0     1.6      NE    46   2.8     NNE    21   8.36    270      -69.2
   07/17/2019 00:20      69.4      68.7       72     59.7      0.00      0.00      81.9     0.35      1011.9     0.8      NE    45   2.0     NNE    18   8.36    269      -69.8
   07/17/2019 00:10      69.6      69.1       72     59.7      0.00      0.00      81.9     0.35      1011.9     1.2     ENE    59   2.4     ENE    70   8.36    269      -70.3
   07/17/2019 00:00      69.9      69.3       71     59.6      0.00      0.00      81.9     0.35      1011.9     1.1     ENE    61   3.2      NE    42   8.36    269      -70.5
   07/16/2019 23:50      70.4      69.6       70     59.6      0.00      0.00      82.0     0.35      1011.9     1.4     ENE    64   3.5     ENE    70   8.36    268      -70.7
   07/16/2019 23:40      70.6      70.1       69     59.7      0.00      0.00      82.0     0.35      1011.9     0.9     ENE    63   1.9      NE    42   8.37    268      -71.1
   07/16/2019 23:30      71.0      70.4       68     59.6      0.00      0.00      82.0     0.35      1011.8     1.8      NE    47   3.3     ENE    78   8.37    268      -71.5
   07/16/2019 23:20      71.2      70.6       67     59.5      0.00      0.00      82.0     0.35      1011.8     1.1      NE    56   2.3      NE    39   8.37    268      -71.9
   07/16/2019 23:10      71.6      70.8       66     59.4      0.00      0.00      82.0     0.35      1011.8     1.4      NE    50   3.3     NNE    14   8.37    268      -72.1
   07/16/2019 23:00      71.9      71.2       65     59.0      0.00      0.00      82.0     0.35      1011.7     1.2      NE    53   3.0       E    86   8.37    268      -72.1
   07/16/2019 22:50      72.2      71.5       63     58.6      0.00      0.00      82.0     0.35      1011.7     0.8     ENE    72   3.2     ENE    62   8.38    267      -73.2
   07/16/2019 22:40      73.0      71.9       61     58.3      0.00      0.00      82.0     0.35      1011.8     1.4     ENE    58   2.6     ENE    76   8.38    267      -73.9
   07/16/2019 22:30      73.4      72.6       60     58.0      0.00      0.00      82.0     0.35      1011.8     1.2      NE    52   2.8     ENE    59   8.38    267      -73.3
   07/16/2019 22:20      73.9      73.0       59     58.0      0.00      0.00      82.0     0.35      1011.7     1.1      NE    55   2.3       E    94   8.38    267      -73.2
   07/16/2019 22:10      74.0      73.7       58     58.0      0.00      0.00      82.0     0.35      1011.7     1.0      NE    54   2.5     NNE    24   8.38    266      -73.7
   07/16/2019 22:00      73.9      73.5       54     56.3      0.00      0.00      82.0     0.35      1011.7     1.4       E   101   3.0      SE   132   8.38    266      -72.7
   07/16/2019 21:50      74.1      73.2       54     55.8      0.00      0.00      82.0     0.35      1011.7     0.6     ESE   103   2.7       E    85   8.39    266      -71.5
   07/16/2019 21:40      74.5      73.8       55     56.7      0.00      0.00      82.0     0.35      1011.5     0.3       E    91   1.6     ENE    78   8.39    266      -72.1
   07/16/2019 21:30      74.9      74.3       54     56.7      0.00      0.00      82.0     0.35      1011.4     0.4     SSE   153   2.0     ESE   105   8.39    266      -74.8
   07/16/2019 21:20      75.8      74.6       52     56.4      0.00      0.00      82.0     0.35      1011.3     0.4      SE   136   1.9      SE   131   8.39    266      -77.5
   07/16/2019 21:10      76.7      75.5       50     56.3      0.00      0.00      82.0     0.35      1011.2     0.5       E    89   2.2       E   100   8.39    266      -78.8
   07/16/2019 21:00      77.3      76.3       48     55.8      0.00      0.00      82.0     0.35      1011.1     0.5       E    82   2.3     ENE    73   8.40    266      -79.8
   07/16/2019 20:50      78.4      77.0       46     55.2      0.00      0.00      81.9     0.35      1011.0     0.3     ENE    74   1.2     ENE    69   8.40    266      -81.0
   07/16/2019 20:40      78.5      77.9       45     55.3      0.00      0.00      81.8     0.35      1010.8     0.6      NE    38   2.2     ENE    57   8.40    265      -82.6
   07/16/2019 20:30      78.5      77.8       43     53.9      0.00      0.00      81.9     0.35      1010.7     0.7     ENE    73   2.1      NE    54   8.40    265      -83.3
   07/16/2019 20:20      80.0      78.2       39     52.1      0.00      0.00      81.9     0.35      1010.4     1.0     SSW   193   1.9       W   271   8.40    264      -83.0
   07/16/2019 20:10      80.8      79.7       38     52.0      0.00      0.00      81.9     0.35      1010.4     0.9     SSE   157   1.7     SSE   153   8.41    264      -85.9
   07/16/2019 20:00      81.5      80.3       37     51.8      0.00      0.00      81.8     0.35      1010.2     0.6       S   171   2.5       S   169   8.41    264      -84.1
   07/16/2019 19:50      82.8      81.2       35     51.3      0.00      0.00      81.8     0.35      1010.1     2.2       S   171   4.8      SE   132   8.42    264      -80.9
   07/16/2019 19:40      84.5      82.5       32     50.4      0.00      0.00      81.8     0.35      1010.1     3.4      SE   146   5.8      SE   133   8.42    264      -68.4
   07/16/2019 19:30      84.5      84.0       30     49.5      0.00      0.00      81.8     0.35      1010.1     1.2      SE   140   4.6      SE   144   8.42    264      -57.1
   07/16/2019 19:20      85.4      84.1       29     49.4      0.00      0.00      81.8     0.35      1010.0     2.5     SSE   161   5.1       S   184   8.43    264      -39.0
   07/16/2019 19:10      86.4      85.1       28     48.5      0.00      0.00      81.7     0.35      1010.0     3.2       S   178   5.3       S   191   8.43    263      -19.3
   07/16/2019 19:00      87.5      86.0       26     48.2      0.00      0.00      81.7     0.35      1010.0     3.8       S   177   6.1       S   180   8.44    263        3.5
   07/16/2019 18:50      88.1      87.2       26     48.7      0.00      0.00      81.7     0.35      1009.9     3.0       S   180   5.2       S   185   8.44    263       28.5
   07/16/2019 18:40      88.7      87.8       26     48.9      0.00      0.00      81.6     0.35      1009.9     3.3       S   169   5.8       S   173   8.45    263       53.5
   07/16/2019 18:30      89.3      88.4       26     49.3      0.00      0.00      81.6     0.35      1009.9     3.7       S   174   7.4     SSW   200   8.45    263       77.2
   07/16/2019 18:20      90.0      88.7       26     49.3      0.00      0.00      81.6     0.35      1009.9     4.3       S   180   6.9     SSW   199   8.46    263      102.9
   07/16/2019 18:10      90.6      89.4       25     49.3      0.00      0.00      81.5     0.35      1009.9     3.7       S   183   6.2       S   190   8.46    263      128.9
   07/16/2019 18:00      91.0      90.2       24     49.1      0.00      0.00      81.5     0.35      1009.9     3.1     SSE   166   6.6       S   185   8.47    263      153.7
   07/16/2019 17:50      91.2      90.3       24     48.5      0.00      0.00      81.4     0.34      1009.9     3.5       S   176   6.0     SSW   201   8.47    263      179.9
   07/16/2019 17:40      91.7      90.8       23     48.2      0.00      0.00      81.4     0.34      1010.0     3.5       S   172   6.7      SE   139   8.47    263      204.8
   07/16/2019 17:30      91.6      91.2       22     47.7      0.00      0.00      81.4     0.34      1010.0     3.4     SSE   163   6.0     SSW   193   8.48    263      230.8
   07/16/2019 17:20      92.4      90.9       22     47.5      0.00      0.00      81.3     0.34      1010.1     4.5     SSE   160   8.1       S   189   8.48    263      255.8
   07/16/2019 17:10      92.9      92.0       22     48.0      0.00      0.00      81.3     0.34      1010.1     3.4     SSE   158   6.1     SSE   168   8.49    263      279.5
   07/16/2019 17:00      93.1      91.9       23     49.0      0.00      0.00      81.3     0.34      1010.1     2.9     SSE   158   6.3     ESE   117   8.49    263      304.3
   07/16/2019 16:50      92.4      91.7       24     49.9      0.00      0.00      81.2     0.34      1010.2     3.5     SSE   153   7.1      SE   129   8.50    263      329.8
   07/16/2019 16:40      92.1      91.0       26     51.6      0.00      0.00      81.0     0.34      1010.3     3.4     ESE   121   8.9     ESE   102   8.50    263      353.6
   07/16/2019 16:30      92.5      91.4       25     51.7      0.00      0.00      81.1     0.34      1010.4     3.6     ESE   111   7.1      SE   126   8.50    263      373.9
   07/16/2019 16:20      93.2      91.8       24     50.5      0.00      0.00      81.1     0.34      1010.4     3.8      SE   144  10.5      SE   125   8.51    263      394.1
   07/16/2019 16:10      93.2      91.9       26     52.5      0.00      0.00      81.0     0.34      1010.5     3.5     ESE   110   8.2     ESE   118   8.51    264      416.2
   07/16/2019 16:00      94.0      92.5       25     52.0      0.00      0.00      81.0     0.34      1010.5     3.7      SE   140   7.2      SE   132   8.52    263      435.7
   07/16/2019 15:50      93.8      92.1       26     52.9      0.00      0.00      81.0     0.34      1010.5     3.8      SE   136   9.2      SE   142   8.52    264      455.3
   07/16/2019 15:40      93.5      91.9       26     52.6      0.00      0.00      80.8     0.34      1010.6     3.6     ESE   113   6.1      SE   139   8.53    264      472.3
   07/16/2019 15:30      92.9      92.4       25     51.7      0.00      0.00      80.8     0.34      1010.7     2.9     ESE   107   6.2      SE   143   8.53    263      488.3
   07/16/2019 15:20      92.5      91.9       25     51.4      0.00      0.00      80.7     0.34      1010.8     3.1     ESE   106   7.5      NE    54   8.54    264      504.0
   07/16/2019 15:10      93.0      91.6       24     50.6      0.00      0.00      80.8     0.34      1010.8     3.7     ESE   108   8.5      SE   136   8.54    264      519.0
   07/16/2019 15:00      93.2      92.4       23     49.3      0.00      0.00      80.7     0.34      1010.9     3.0      SE   133   6.5     ENE    66   8.55    264      534.8
   07/16/2019 14:50      93.0      92.4       22     48.6      0.00      0.00      80.6     0.34      1011.0     3.5     ESE   108   9.6     ESE   104   8.55    263      551.2
   07/16/2019 14:40      92.9      91.9       23     49.8      0.00      0.00      80.6     0.34      1011.0     3.9     ESE   120   8.0      SE   135   8.56    263      563.7
   07/16/2019 14:30      92.2      91.1       24     49.5      0.00      0.00      80.5     0.34      1011.0     5.2      SE   129  10.5      SE   137   8.56    263      576.6
   07/16/2019 14:20      92.2      91.3       24     50.1      0.00      0.00      80.5     0.34      1011.0     4.8     ESE   123   9.9       E    86   8.56    264      586.6
   07/16/2019 14:10      93.9      91.7       24     50.6      0.00      0.00      80.5     0.34      1011.1     4.6      SE   131   9.7       E    94   8.57    263      593.2
   07/16/2019 14:00      93.6      92.5       25     51.6      0.00      0.00      80.4     0.34      1011.2     3.6       E    93   6.4      SE   135   8.57    263      600.8
   07/16/2019 13:50      92.8      91.8       24     50.5      0.00      0.00      80.4     0.34      1011.2     4.8      SE   129  10.1       E    97   8.58    263      611.0
   07/16/2019 13:40      93.0      91.7       24     50.9      0.00      0.00      80.3     0.34      1011.2     4.8      SE   139   8.5     SSE   150   8.58    264      615.8
   07/16/2019 13:30      93.6      92.4       25     51.5      0.00      0.00      80.0     0.34      1011.3     3.8     ESE   101   7.2     ESE   123   8.59    263      620.2
   07/16/2019 13:20      93.8      91.9       25     52.3      0.00      0.00      80.2     0.34      1011.3     3.9     ENE    65   7.9       E    96   8.59    263      619.5
   07/16/2019 13:10      92.6      91.9       26     51.9      0.00      0.00      80.2     0.34      1011.4     4.8     ENE    61   8.1     ENE    69   8.59    263      623.4
   07/16/2019 13:00      92.7      91.9       26     52.9      0.00      0.00      80.1     0.34      1011.4     3.8     ENE    57   7.3     ENE    69   8.60    263      619.9
   07/16/2019 12:50      92.4      91.6       27     53.6      0.00      0.00      80.0     0.34      1011.4     4.2      NE    51   8.9      NE    50   8.60    264      620.4
   07/16/2019 12:40      92.3      91.0       28     54.3      0.00      0.00      80.1     0.34      1011.4     3.7      NE    39   9.2     NNE    30   8.60    263      618.1
   07/16/2019 12:30      91.9      91.1       28     54.0      0.00      0.00      80.1     0.34      1011.5     3.9      NE    41   8.1     ENE    63   8.60    264      612.4
   07/16/2019 12:20      92.4      91.1       29     54.7      0.00      0.00      79.9     0.34      1011.5     3.3      NE    44   7.3     ENE    60   8.61    263      607.2
   07/16/2019 12:10      92.6      90.8       28     53.7      0.00      0.00      79.8     0.34      1011.6     2.5      NE    46   5.7     NNE    33   8.61    263      603.5
   07/16/2019 12:00      91.7      90.6       28     53.9      0.00      0.00      80.0     0.34      1011.6     3.0      NE    35   4.9     ENE    74   8.61    264      596.3
   07/16/2019 11:50      91.4      90.3       30     54.8      0.00      0.00      79.8     0.34      1011.6     2.2     NNE    23   5.2     NNE    28   8.61    264      590.5
   07/16/2019 11:40      90.8      89.5       31     55.3      0.00      0.00      80.0     0.34      1011.6     2.4     ENE    64   5.0       E    79   8.61    264      583.2
   07/16/2019 11:30      89.7      89.1       32     56.1      0.00      0.00      79.9     0.34      1011.6     2.4     ENE    57   5.8       N    11   8.61    263      573.7
   07/16/2019 11:20      89.5      87.7       34     56.5      0.00      0.00      80.0     0.34      1011.6     2.6     NNE    27   4.9     NNE    18   8.61    264      561.3
   07/16/2019 11:10      88.7      87.8       34     56.5      0.00      0.00      79.8     0.34      1011.6     3.1      NE    35   6.1      NE    52   8.61    264      552.1
   07/16/2019 11:00      88.3      87.6       35     56.6      0.00      0.00      80.0     0.34      1011.6     2.5      NE    47   4.3      NE    46   8.61    264      540.8
   07/16/2019 10:50      88.2      87.5       35     56.9      0.00      0.00      80.0     0.34      1011.7     2.3      NE    55   5.5     NNE    30   8.61    264      527.1
   07/16/2019 10:40      87.9      86.5       37     58.0      0.00      0.00      80.0     0.34      1011.7     1.7     ENE    62   4.5     ENE    57   8.61    264      513.7
   07/16/2019 10:30      86.8      85.8       41     60.0      0.00      0.00      79.9     0.34      1011.7     1.4     NNE    23   4.3      NE    56   8.61    264      497.3
   07/16/2019 10:20      86.3      85.4       41     59.7      0.00      0.00      80.1     0.34      1011.8     1.6     ENE    71   5.5       E    93   8.61    264      482.6
   07/16/2019 10:10      85.6      83.7       41     58.3      0.00      0.00      80.1     0.34      1011.8     1.1      SE   133   4.3       E    96   8.61    264      463.7
   07/16/2019 10:00      83.8      82.7       42     57.8      0.00      0.00      80.2     0.34      1011.9     1.5     NNE    27   3.5       N     6   8.61    264      445.7
   07/16/2019 09:50      83.3      81.8       44     58.1      0.00      0.00      80.2     0.34      1011.9     1.3       E    85   3.8     NNE    33   8.61    264      428.5
   07/16/2019 09:40      82.2      81.5       44     57.7      0.00      0.00      80.2     0.34      1011.9     1.6     ENE    57   4.0      NE    34   8.61    264      410.1
   07/16/2019 09:30      82.1      80.4       46     58.3      0.00      0.00      80.3     0.34      1011.9     1.4      NE    49   3.1     NNW   346   8.61    265      390.5
   07/16/2019 09:20      80.7      79.4       46     57.7      0.00      0.00      80.3     0.34      1011.9     1.3     ENE    71   4.3     NNE    14   8.61    266      372.6
   07/16/2019 09:10      79.5      77.3       49     57.7      0.00      0.00      80.4     0.34      1011.9     0.9      NW   322   2.3     ENE    68   8.61    265      362.0
   07/16/2019 09:00      77.4      75.8       52     57.6      0.00      0.00      80.4     0.34      1011.8     1.3       N   360   3.8       N     4   8.61    266      357.6
   07/16/2019 08:50      75.9      74.8       54     57.8      0.00      0.00      80.5     0.34      1011.7     1.2      NE    37   3.0     ESE   109   8.62    268      120.1
   07/16/2019 08:40      75.0      74.2       56     57.7      0.00      0.00      80.5     0.34      1011.6     1.5       N   353   3.2     NNE    32   8.62    268      -25.9
   07/16/2019 08:30      74.4      73.6       58     58.5      0.00      0.00      80.5     0.34      1011.6     1.0     NNE    23   2.3     NNE    26   8.62    269      -32.5
   07/16/2019 08:20      73.7      72.7       60     58.3      0.00      0.00      80.6     0.34      1011.5     0.8     ESE   103   2.1     ENE    77   8.62    269      -30.8
   07/16/2019 08:10      72.8      71.7       62     58.4      0.00      0.00      80.6     0.35      1011.5     0.7     ESE   109   2.3       E    99   8.62    269      -31.0
   07/16/2019 08:00      71.8      70.7       63     58.1      0.00      0.00      80.6     0.35      1011.5     0.8     ESE   102   2.0     SSE   156   8.62    269        0.0
   07/16/2019 07:50      70.8      69.8       64     57.7      0.00      0.00      80.7     0.35      1011.5     0.1     ENE    77   1.7       E    82   8.62    270      -22.9
   07/16/2019 07:40      70.0      68.7       66     57.5      0.00      0.00      80.7     0.35      1011.4     0.6       E    99   2.1       E    96   8.62    270      -34.0
   07/16/2019 07:30      68.9      67.6       68     57.3      0.00      0.00      80.8     0.35      1011.3     0.2       E    82   1.4      NE    52   8.62    270      -32.4
   07/16/2019 07:20      67.8      66.5       71     57.3      0.00      0.00      80.8     0.35      1011.3     0.0       N     0   0.0     ESE   114   8.62    271      -31.9
   07/16/2019 07:10      66.7      65.3       73     57.1      0.00      0.00      80.8     0.35      1011.3     0.0       N     0   0.0     ESE   111   8.62    271      -31.2
   07/16/2019 07:00      65.5      64.3       75     56.9      0.00      0.00      80.8     0.35      1011.2     0.0       N     0   0.0       E    97   8.62    271      -39.2
   07/16/2019 06:50      64.4      63.4       77     56.4      0.00      0.00      80.9     0.35      1011.2     0.1      SE   145   0.8      SE   146   8.62    272      -42.4
   07/16/2019 06:40      63.5      62.7       79     56.4      0.00      0.00      81.0     0.35      1011.2     0.1       S   184   0.6     SSW   205   8.62    271      -44.7
   07/16/2019 06:30      63.2      62.4       80     56.4      0.00      0.00      81.0     0.35      1011.1     0.0     SSE   157   0.5       S   174   8.62    269      -51.7
   07/16/2019 06:20      62.5      61.6       81     56.0      0.00      0.00      81.0     0.35      1011.0     0.1     SSE   157   0.9     SSE   161   8.62    271      -49.3
   07/16/2019 06:10      62.0      61.6       81     55.9      0.00      0.00      81.1     0.35      1011.0     0.4     SSE   158   1.1     SSE   146   8.62    266      -51.7
   07/16/2019 06:00      61.9      61.3       82     55.9      0.00      0.00      81.1     0.35      1011.0     0.5       S   171   1.0       S   170   8.62    244      -55.1
   07/16/2019 05:50      62.2      61.3       81     55.8      0.00      0.00      81.1     0.35      1011.0     0.4      SE   146   1.1      SE   141   8.62    229      -58.8
   07/16/2019 05:40      62.4      61.9       80     55.9      0.00      0.00      81.2     0.35      1010.9     0.5     SSE   153   1.2      SE   144   8.62    239      -59.1
   07/16/2019 05:30      62.5      62.0       79     55.7      0.00      0.00      81.2     0.35      1010.9     0.3     SSE   159   1.2     SSE   153   8.62    257      -59.8
   07/16/2019 05:20      63.2      62.2       79     55.8      0.00      0.00      81.3     0.35      1010.9     0.2     SSE   164   1.2     SSE   147   8.62    266      -60.1
   07/16/2019 05:10      63.0      62.7       79     56.1      0.00      0.00      81.3     0.35      1010.8     0.2     SSE   165   1.0     SSE   162   8.62    257      -60.0
   07/16/2019 05:00      62.9      62.2       80     56.1      0.00      0.00      81.3     0.35      1010.8     0.3     SSE   152   0.8     SSE   149   8.62    253      -60.1
   07/16/2019 04:50      62.8      62.2       78     55.6      0.00      0.00      81.3     0.35      1010.8     0.7     SSE   164   1.3       S   173   8.62    262      -61.6
   07/16/2019 04:40      63.4      62.5       78     55.9      0.00      0.00      81.4     0.35      1010.8     0.4       S   176   1.0       S   179   8.62    260      -61.0
   07/16/2019 04:30      63.5      63.1       77     56.0      0.00      0.00      81.4     0.35      1010.8     0.4     SSE   165   1.3       S   179   8.62    264      -61.6
   07/16/2019 04:20      63.5      62.9       77     55.9      0.00      0.00      81.4     0.35      1010.8     0.5     SSE   163   1.1       S   184   8.63    264      -61.8
   07/16/2019 04:10      63.6      62.9       76     55.7      0.00      0.00      81.5     0.35      1010.8     0.7       S   173   1.3       S   187   8.63    270      -61.9
   07/16/2019 04:00      64.1      63.2       76     55.7      0.00      0.00      81.5     0.35      1010.8     0.2       S   175   1.1       S   184   8.63    269      -62.4
   07/16/2019 03:50      64.2      63.8       75     55.8      0.00      0.00      81.5     0.35      1010.7     0.3     SSE   156   0.9      SE   145   8.63    270      -62.5
   07/16/2019 03:40      64.5      63.9       75     56.0      0.00      0.00      81.6     0.35      1010.7     0.2      SE   144   0.9     SSE   148   8.63    271      -62.5
   07/16/2019 03:30      64.7      64.0       74     55.9      0.00      0.00      81.6     0.35      1010.8     0.4     SSE   160   1.2      SE   136   8.63    271      -63.4
   07/16/2019 03:20      65.4      64.3       72     55.8      0.00      0.00      81.6     0.35      1010.7     0.6     SSE   157   1.5     SSE   154   8.63    271      -64.1
   07/16/2019 03:10      65.2      64.4       73     55.9      0.00      0.00      81.7     0.35      1010.8     1.1     SSE   154   2.1      SE   142   8.63    271      -65.9
   07/16/2019 03:00      65.2      64.4       74     56.2      0.00      0.00      81.7     0.35      1010.8     1.0     SSE   147   1.9      SE   144   8.63    271      -64.6
   07/16/2019 02:50      65.1      64.0       75     56.3      0.00      0.00      81.8     0.35      1010.7     0.5     SSE   155   1.1      SE   141   8.63    271      -63.7
   07/16/2019 02:40      64.8      63.9       74     55.7      0.00      0.00      81.8     0.35      1010.8     0.7     SSE   161   1.3      SE   138   8.63    271      -64.9
   07/16/2019 02:30      65.4      64.4       72     55.8      0.00      0.00      81.7     0.35      1010.8     0.8     SSE   151   1.2      SE   144   8.63    271      -65.1
   07/16/2019 02:20      65.6      65.1       72     56.0      0.00      0.00      81.8     0.35      1010.9     0.6     SSE   154   1.3     SSE   168   8.64    270      -64.9
   07/16/2019 02:10      66.2      65.2       70     55.5      0.00      0.00      81.8     0.35      1011.0     0.7     SSE   161   1.1     SSE   150   8.64    270      -65.1
   07/16/2019 02:00      66.0      65.4       70     55.7      0.00      0.00      81.9     0.35      1011.1     0.3       S   174   1.0     SSE   161   8.64    270      -64.6
   07/16/2019 01:50      66.1      65.4       70     55.7      0.00      0.00      81.9     0.35      1011.2     0.6     SSE   155   1.1      SE   145   8.64    270      -66.1
   07/16/2019 01:40      66.6      65.8       69     55.8      0.00      0.00      81.9     0.35      1011.3     0.9     SSE   148   1.4      SE   146   8.64    270      -66.2
   07/16/2019 01:30      66.5      66.0       69     55.7      0.00      0.00      81.9     0.35      1011.4     0.4     SSE   164   0.9     SSE   156   8.64    269      -65.6
   07/16/2019 01:20      66.7      66.1       68     55.5      0.00      0.00      81.9     0.35      1011.5     0.7     SSE   151   1.3      SE   139   8.64    269      -66.8
   07/16/2019 01:10      66.8      66.3       67     55.3      0.00      0.00      82.0     0.35      1011.5     0.6     SSE   161   1.2       S   177   8.64    269      -67.3
   07/16/2019 01:00      66.6      66.1       67     55.2      0.00      0.00      82.0     0.35      1011.5     0.8       S   178   1.5     SSW   206   8.65    269      -68.0
   07/16/2019 00:50      67.4      66.2       67     55.4      0.00      0.00      82.0     0.35      1011.6     0.8     SSE   152   1.3      SE   142   8.65    268      -69.6
   07/16/2019 00:40      67.6      66.8       66     55.6      0.00      0.00      82.0     0.35      1011.7     0.5     SSE   148   1.2      SE   141   8.65    268      -69.2
   07/16/2019 00:30      68.3      67.2       65     55.5      0.00      0.00      82.0     0.35      1011.7     0.7     SSE   161   1.2      SE   141   8.65    268      -69.9
   07/16/2019 00:20      68.5      67.7       64     55.4      0.00      0.00      82.1     0.35      1011.7     0.6     SSE   158   1.6      SE   144   8.65    268      -70.6
   07/16/2019 00:10      69.1      68.2       62     55.0      0.00      0.00      82.1     0.35      1011.8     0.8       S   174   1.8     SSE   150   8.65    268      -70.0
   07/16/2019 00:00      69.1      68.4       62     55.2      0.00      0.00      82.1     0.35      1011.9     0.1       S   182   0.7       S   189   8.65    268      -69.9
   07/15/2019 23:50      68.8      68.2       63     55.2      0.00      0.00      82.1     0.35      1011.9     0.5       S   191   1.5     SSW   202   8.65    268      -70.0
   07/15/2019 23:40      69.4      68.4       61     55.0      0.00      0.00      82.1     0.35      1011.9     0.6     SSE   153   1.6      SE   126   8.66    268      -72.1
   07/15/2019 23:30      70.3      69.1       59     54.9      0.00      0.00      82.1     0.35      1011.9     0.7       S   180   1.4      SW   225   8.66    268      -71.0
   07/15/2019 23:20      70.8      70.0       58     55.1      0.00      0.00      82.1     0.35      1012.0     0.6       S   185   1.2     SSW   208   8.66    267      -71.6
   07/15/2019 23:10      71.3      70.6       57     55.1      0.00      0.00      82.1     0.35      1012.0     0.1       S   172   0.7     SSE   168   8.66    267      -71.8
   07/15/2019 23:00      72.0      71.0       56     55.1      0.00      0.00      82.1     0.35      1011.9     0.2     SSE   168   0.9     SSE   148   8.66    267      -72.6
   07/15/2019 22:50      71.9      71.5       56     55.1      0.00      0.00      82.1     0.35      1011.9     0.0       N     0   0.0     SSE   161   8.67    267      -73.1
   07/15/2019 22:40      72.0      71.3       56     55.2      0.00      0.00      82.1     0.35      1011.9     0.1     SSE   163   1.0     SSE   157   8.67    267      -74.2
   07/15/2019 22:30      72.3      71.6       56     55.2      0.00      0.00      82.1     0.35      1012.0     0.0       S   177   0.7       S   182   8.67    266      -75.3
   07/15/2019 22:20      73.7      72.2       54     55.0      0.00      0.00      82.1     0.35      1012.0     0.3       S   170   0.9     SSE   167   8.67    266      -76.9
   07/15/2019 22:10      74.5      73.3       52     54.9      0.00      0.00      82.1     0.35      1012.0     0.3      SE   143   1.3      SE   140   8.67    266      -79.4
   07/15/2019 22:00      75.1      74.2       50     55.0      0.00      0.00      82.1     0.35      1011.9     0.6     ESE   118   1.8       E    79   8.68    266      -80.8
   07/15/2019 21:50      76.1      74.8       49     55.0      0.00      0.00      82.1     0.35      1011.8     0.2       E    82   1.2      NE    43   8.68    266      -81.2
   07/15/2019 21:40      76.6      75.8       47     54.8      0.00      0.00      82.1     0.35      1011.7     0.8      NE    48   2.6     NNW   347   8.68    266      -82.6
   07/15/2019 21:30      76.8      76.3       46     54.4      0.00      0.00      82.1     0.35      1011.6     1.4      NE    42   3.0     NNE    33   8.68    266      -83.4
   07/15/2019 21:20      76.7      76.3       46     54.3      0.00      0.00      82.0     0.35      1011.5     1.7      NE    43   3.2     NNE    28   8.69    266      -83.0
   07/15/2019 21:10      77.5      76.4       45     54.2      0.00      0.00      82.0     0.35      1011.4     0.9     ENE    61   2.4      NE    55   8.69    266      -83.5
   07/15/2019 21:00      77.7      77.1       45     54.4      0.00      0.00      82.0     0.35      1011.4     1.0     ENE    64   2.7     ENE    63   8.69    266      -84.1
   07/15/2019 20:50      78.4      77.4       46     55.2      0.00      0.00      82.0     0.35      1011.2     0.9     ENE    67   2.3      NE    45   8.69    266      -84.1
   07/15/2019 20:40      78.9      78.2       45     55.5      0.00      0.00      82.0     0.35      1011.1     1.3      NE    53   2.7     ENE    77   8.70    266      -85.2
   07/15/2019 20:30      79.7      78.7       45     56.1      0.00      0.00      81.9     0.35      1011.0     1.5     ENE    59   3.5     ENE    59   8.70    266      -85.7
   07/15/2019 20:20      80.2      79.3       45     56.2      0.00      0.00      81.9     0.35      1010.9     1.8      NE    50   4.1       N    10   8.70    266      -85.5
   07/15/2019 20:10      80.8      79.9       44     56.5      0.00      0.00      81.9     0.35      1010.8     1.9      NE    52   3.7      NE    50   8.71    266      -84.6
   07/15/2019 20:00      81.6      80.5       44     57.0      0.00      0.00      81.9     0.35      1010.8     2.1      NE    50   4.4     ENE    75   8.71    266      -81.9
   07/15/2019 19:50      82.4      81.2       44     57.6      0.00      0.00      81.8     0.35      1010.7     2.1     ENE    57   3.7     ENE    73   8.72    265      -77.7
   07/15/2019 19:40      83.3      82.1       44     58.2      0.00      0.00      81.8     0.35      1010.7     2.1      NE    44   4.3     NNE    21   8.72    265      -62.4
   07/15/2019 19:30      84.0      83.0       43     58.5      0.00      0.00      81.8     0.35      1010.6     2.4      NE    52   4.7      NE    35   8.72    265      -50.4
   07/15/2019 19:20      85.0      83.8       42     58.9      0.00      0.00      81.7     0.35      1010.5     2.8      NE    41   5.0     NNE    25   8.73    265      -32.7
   07/15/2019 19:10      86.5      84.7       40     58.9      0.00      0.00      81.8     0.35      1010.5     2.9      NE    40   5.0     NNE    13   8.73    265      -13.3
   07/15/2019 19:00      87.3      86.2       39     58.6      0.00      0.00      81.7     0.35      1010.4     2.4       E    79   4.9     ENE    79   8.74    264        9.2
   07/15/2019 18:50      87.9      87.1       38     58.9      0.00      0.00      81.6     0.35      1010.4     2.3     ENE    60   5.7     ENE    70   8.74    264       34.0
   07/15/2019 18:40      89.0      87.6       37     58.8      0.00      0.00      81.6     0.35      1010.4     2.8     ENE    67   4.6     ENE    68   8.74    264       58.1
   07/15/2019 18:30      89.5      88.6       37     59.2      0.00      0.00      81.6     0.35      1010.3     2.9     ENE    60   5.0     ENE    72   8.75    264       82.9
   07/15/2019 18:20      90.6      89.2       36     59.5      0.00      0.00      81.6     0.35      1010.2     3.1     ENE    68   6.8     ENE    61   8.76    264      108.4
   07/15/2019 18:10      91.4      90.2       35     59.1      0.00      0.00      81.5     0.35      1010.3     2.6     ENE    57   5.0      NE    46   8.76    264      131.0
   07/15/2019 18:00      91.9      91.0       34     59.0      0.00      0.00      81.5     0.35      1010.4     2.2     ENE    62   4.1      NE    49   8.76    264      155.0
   07/15/2019 17:50      92.4      91.2       34     59.0      0.00      0.00      81.4     0.35      1010.4     2.9      NE    52   6.3       E    83   8.77    264      179.1
   07/15/2019 17:40      92.5      91.7       34     59.6      0.00      0.00      81.4     0.35      1010.5     2.8      NE    49   5.5     NNE    33   8.77    264      204.0
   07/15/2019 17:30      92.5      92.1       33     59.2      0.00      0.00      81.3     0.35      1010.4     2.7      NE    47   5.3      NE    45   8.78    264      228.9
   07/15/2019 17:20      92.5      91.7       34     59.3      0.00      0.00      81.2     0.34      1010.5     2.6      NE    52   4.4       E    86   8.78    264      253.9
   07/15/2019 17:10      92.7      92.1       34     59.9      0.00      0.00      81.1     0.34      1010.7     2.5      NE    55   4.4     ENE    57   8.78    264      276.9
   07/15/2019 17:00      92.8      91.6       35     60.6      0.00      0.00      81.1     0.34      1010.8     2.3     ENE    57   4.6     ESE   112   8.79    264      301.9
   07/15/2019 16:50      92.1      91.3       36     60.7      0.00      0.00      81.0     0.34      1010.9     2.7     ENE    64   5.6       E    99   8.79    264      326.9
   07/15/2019 16:40      92.3      91.4       36     60.7      0.00      0.00      81.1     0.34      1011.0     2.6     ENE    60   5.1     ENE    71   8.80    264      349.5
   07/15/2019 16:30      92.4      91.4       36     61.1      0.00      0.00      80.9     0.34      1011.1     2.6     ENE    67   4.9       E    90   8.80    264      370.2
   07/15/2019 16:20      92.1      90.8       36     60.5      0.00      0.00      81.0     0.34      1011.2     3.1      NE    49   6.0      NE    41   8.80    264      393.9
   07/15/2019 16:10      93.2      90.6       35     60.9      0.00      0.00      80.8     0.34      1011.3     3.7     ENE    66   6.5     ENE    73   8.81    264      414.0
   07/15/2019 16:00      94.2      93.0       34     60.7      0.00      0.00      81.0     0.34      1011.3     3.2      NE    55   5.8     NNE    32   8.81    264      431.8
   07/15/2019 15:50      94.9      93.9       32     60.5      0.00      0.00      80.8     0.34      1011.4     2.9     ENE    61   5.4      NE    46   8.82    264      449.1
   07/15/2019 15:40      95.8      94.9       31     60.2      0.00      0.00      80.6     0.34      1011.4     3.0     ENE    71   5.2       E    97   8.82    264      466.3
   07/15/2019 15:30      95.7      94.0       32     60.3      0.00      0.00      80.6     0.34      1011.5     2.7      NE    45   5.7     ENE    62   8.83    264      486.7
   07/15/2019 15:20      94.6      93.1       33     60.6      0.00      0.00      80.5     0.34      1011.6     3.0      NE    52   7.7      NE    41   8.83    264      500.4
   07/15/2019 15:10      96.5      94.4       32     61.2      0.00      0.00      80.5     0.34      1011.6     3.3      NE    42   7.1     NNE    32   8.83    264      513.2
   07/15/2019 15:00      96.3      94.9       32     61.1      0.00      0.00      80.4     0.34      1011.7     3.3      NE    54   7.2      NE    56   8.84    264      526.7
   07/15/2019 14:50      96.1      95.0       32     60.8      0.00      0.00      80.5     0.34      1011.7     2.9      NE    48   5.5     ENE    58   8.84    264      538.4
   07/15/2019 14:40      99.0      95.4       30     61.0      0.00      0.00      80.3     0.34      1011.7     3.6      NE    51   7.1      NE    45   8.84    264      550.7
   07/15/2019 14:30     100.4      98.1       29     61.1      0.00      0.00      80.4     0.34      1011.7     3.1      NE    35   6.0     ENE    68   8.85    264      558.5
   07/15/2019 14:20     100.6      98.4       29     61.3      0.00      0.00      80.3     0.34      1011.8     1.9       N   351   5.0      NE    43   8.85    264      568.2
   07/15/2019 14:10     100.9      99.0       28     61.5      0.00      0.00      80.1     0.34      1011.9     2.5      NE    36   6.4       E    97   8.85    264      577.2
   07/15/2019 14:00     102.0     100.4       27     61.2      0.00      0.00      80.2     0.34      1011.9     2.3      NE    39   5.4      NE    49   8.86    264      583.9
   07/15/2019 13:50     101.7     100.3       25     58.6      0.00      0.00      80.1     0.34      1012.0     2.5     NNE    15   7.7     NNE    17   8.86    264      587.8
   07/15/2019 13:40     100.2      99.1       29     61.7      0.00      0.00      80.0     0.34      1012.0     2.7      NE    45   4.4      NE    37   8.86    264      587.1
   07/15/2019 13:30      99.2      97.7       31     62.8      0.00      0.00      80.0     0.34      1012.1     3.2      NE    48   6.3      NE    47   8.86    264      599.3
   07/15/2019 13:20     100.8      98.9       30     62.7      0.00      0.00      80.0     0.34      1012.2     2.9      NE    45   5.4     NNE    19   8.87    264      606.4
   07/15/2019 13:10     101.6     100.3       28     61.4      0.00      0.00      80.0     0.34      1012.2     2.2      NE    38   3.5      NE    46   8.87    264      605.2
   07/15/2019 13:00     100.8      98.2       27     60.1      0.00      0.00      79.9     0.34      1012.4     1.7     NNE    25   3.9      NE    38   8.87    263      604.4
   07/15/2019 12:50     100.0      98.2       27     59.8      0.00      0.00      79.8     0.34      1012.4     3.1      NE    52   6.3     ENE    62   8.87    263      613.1
   07/15/2019 12:40      99.6      98.4       26     58.4      0.00      0.00      79.9     0.34      1012.5     3.0     ENE    71   5.6     ENE    66   8.87    263      612.1
   07/15/2019 12:30      99.6      98.4       26     58.0      0.00      0.00      79.7     0.34      1012.7     2.4      NE    56   5.0      SE   129   8.87    263      604.6
   07/15/2019 12:20      99.5      98.3       24     56.3      0.00      0.00      79.8     0.34      1012.8     2.0     NNE    26   5.1      NE    55   8.87    263      601.6
   07/15/2019 12:10      98.4      96.1       26     56.6      0.00      0.00      79.8     0.34      1012.9     2.1     NNE    32   4.2     ENE    62   8.87    263      600.3
   07/15/2019 12:00      96.3      94.9       27     56.3      0.00      0.00      79.8     0.34      1013.0     2.0      NE    49   4.6      SE   138   8.87    264      598.0
   07/15/2019 11:50      95.3      94.4       29     57.3      0.00      0.00      79.8     0.34      1013.2     2.4      NE    41   4.6      NE    56   8.87    263      587.9
   07/15/2019 11:40      95.2      93.3       30     57.9      0.00      0.00      79.6     0.34      1013.3     1.4      NE    48   3.3      NE    35   8.87    264      581.5
   07/15/2019 11:30      94.0      92.7       31     58.2      0.00      0.00      79.6     0.34      1013.4     1.5      NE    54   3.9      NE    46   8.87    264      572.6
   07/15/2019 11:20      92.8      90.7       32     58.1      0.00      0.00      79.6     0.34      1013.4     1.0     NNE    32   3.2      NW   307   8.87    264      562.6
   07/15/2019 11:10      90.8      89.8       34     57.9      0.00      0.00      79.8     0.34      1013.6     1.7      NE    38   3.3     NNE    32   8.87    264      552.4
   07/15/2019 11:00      90.0      88.1       36     58.3      0.00      0.00      79.8     0.34      1013.7     1.3      NE    42   3.6     ENE    58   8.87    264      541.0
   07/15/2019 10:50      88.3      87.0       38     59.1      0.00      0.00      79.8     0.34      1013.7     2.0      NE    36   5.4     NNE    31   8.87    264      529.2
   07/15/2019 10:40      87.2      86.5       40     59.5      0.00      0.00      79.8     0.34      1013.8     2.0     NNE    19   4.3       N     3   8.87    264      516.3
   07/15/2019 10:30      86.7      84.7       41     59.5      0.00      0.00      79.8     0.34      1014.0     1.0     ENE    58   3.6       N     3   8.87    264      502.5
   07/15/2019 10:20      84.9      83.6       43     59.5      0.00      0.00      79.9     0.34      1014.0     1.5      NE    55   3.7      SE   139   8.87    264      485.6
   07/15/2019 10:10      84.1      81.9       46     59.7      0.00      0.00      79.9     0.34      1014.1     1.3      NE    35   3.1      NW   305   8.87    265      469.3
   07/15/2019 10:00      82.2      81.1       48     59.7      0.00      0.00      79.9     0.34      1014.2     1.4     NNE    20   3.8      NE    45   8.87    265      450.0
   07/15/2019 09:50      81.3      80.0       48     59.5      0.00      0.00      80.0     0.34      1014.2     1.4     NNE    31   3.3      NE    48   8.87    265      432.8
   07/15/2019 09:40      80.3      78.9       50     59.6      0.00      0.00      80.0     0.34      1014.4     1.2     NNE    17   2.5      SE   131   8.87    265      412.7
   07/15/2019 09:30      79.1      78.0       52     59.3      0.00      0.00      80.1     0.34      1014.4     1.5      NE    39   3.4     WNW   303   8.87    266      393.1
   07/15/2019 09:20      78.8      77.0       53     59.7      0.00      0.00      80.1     0.34      1014.5     0.8     ENE    59   3.4      NE    53   8.87    266      376.8
   07/15/2019 09:10      77.0      74.8       58     59.8      0.00      0.00      80.1     0.34      1014.7     1.0       N     8   3.2       N     9   8.88    266      364.5
   07/15/2019 09:00      74.9      73.2       62     59.8      0.00      0.00      80.2     0.34      1014.7     1.4     NNW   344   3.4     ENE    56   8.88    266      359.0
   07/15/2019 08:50      73.4      72.3       63     59.7      0.00      0.00      80.2     0.34      1014.7     1.5     ENE    67   3.8     ENE    63   8.88    268      103.4
   07/15/2019 08:40      72.6      71.5       65     59.6      0.00      0.00      80.3     0.34      1014.7     1.5      NE    49   3.5     ENE    58   8.88    270      -25.4
   07/15/2019 08:30      71.7      70.9       66     59.5      0.00      0.00      80.3     0.34      1014.8     1.2     NNE    26   2.9     NNE    20   8.88    270      -30.0
   07/15/2019 08:20      71.0      70.3       68     59.6      0.00      0.00      80.3     0.34      1014.8     1.2     NNE    29   3.4     NNE    28   8.88    271      -29.9
   07/15/2019 08:10      70.4      69.4       69     59.5      0.00      0.00      80.4     0.34      1014.8     0.8     ENE    77   3.1     ENE    66   8.88    271      -32.1
   07/15/2019 08:00      69.7      68.6       71     59.3      0.00      0.00      80.4     0.34      1014.8     1.2     ENE    66   3.0     ENE    62   8.88    271       -9.0
   07/15/2019 07:50      68.8      68.1       72     59.0      0.00      0.00      80.4     0.34      1014.7     1.3       E    83   3.2     ENE    63   8.88    271      -29.2
   07/15/2019 07:40      68.3      67.3       73     58.8      0.00      0.00      80.5     0.35      1014.6     0.8     ENE    63   2.0     NNE    32   8.88    271      -37.4
   07/15/2019 07:30      67.5      66.7       74     58.7      0.00      0.00      80.5     0.35      1014.5     0.8      NE    53   2.5      NE    54   8.88    272      -26.9
   07/15/2019 07:20      66.9      65.8       76     58.5      0.00      0.00      80.6     0.35      1014.4     0.8       E    82   2.3       E    86   8.88    272      -14.9
   07/15/2019 07:10      66.2      64.9       79     58.7      0.00      0.00      80.6     0.35      1014.3     0.4       E    93   1.7     ENE    78   8.88    272       -5.4
   07/15/2019 07:00      65.0      63.6       82     58.7      0.00      0.00      80.6     0.35      1014.2     0.4      SE   127   1.6      SE   145   8.88    266      -12.2
   07/15/2019 06:50      63.9      62.6       84     58.1      0.00      0.00      80.7     0.35      1014.2     0.1      SW   221   1.1      SW   223   8.88    265      -14.0
   07/15/2019 06:40      62.8      62.2       84     57.5      0.00      0.00      80.7     0.35      1014.1     0.2      SE   131   1.1      SE   129   8.88    254      -18.3
   07/15/2019 06:30      62.7      62.2       84     57.7      0.00      0.00      80.7     0.35      1014.0     0.1      SE   139   0.7      SE   132   8.88    263      -24.8
   07/15/2019 06:20      62.3      61.6       85     57.4      0.00      0.00      80.8     0.35      1014.0     0.7     SSE   158   1.7       S   176   8.88    271      -19.7
   07/15/2019 06:10      62.0      61.5       86     57.5      0.00      0.00      80.8     0.35      1014.0     0.4       S   180   1.2       S   177   8.88    243      -24.9
   07/15/2019 06:00      62.0      61.4       86     57.4      0.00      0.00      80.8     0.35      1014.0     0.4     SSE   156   1.3      SE   141   8.88    255      -29.9
   07/15/2019 05:50      61.9      61.4       86     57.5      0.00      0.00      80.9     0.35      1014.1     0.6       S   183   1.8     SSW   192   8.88    243      -33.3
   07/15/2019 05:40      61.9      61.6       86     57.6      0.00      0.00      80.9     0.35      1014.0     0.5       S   181   1.6       S   187   8.88    237      -35.3
   07/15/2019 05:30      61.9      61.3       86     57.3      0.00      0.00      81.0     0.35      1014.0     0.1       S   178   0.7     SSW   191   8.88    236      -38.5
   07/15/2019 05:20      62.0      61.3       85     57.1      0.00      0.00      81.0     0.35      1014.0     0.6     SSE   164   1.3     SSE   148   8.88    223      -40.2
   07/15/2019 05:10      62.4      61.7       85     57.4      0.00      0.00      81.0     0.35      1013.9     0.2     SSE   150   0.8       S   176   8.88    220      -41.6
   07/15/2019 05:00      62.5      62.1       84     57.5      0.00      0.00      81.1     0.35      1013.9     0.0       N     0   0.0       S   183   8.88    217      -44.4
   07/15/2019 04:50      62.5      62.1       84     57.3      0.00      0.00      81.1     0.35      1013.9     0.0       S   175   0.6       S   170   8.88    213      -46.9
   07/15/2019 04:40      62.7      62.2       84     57.6      0.00      0.00      81.2     0.35      1014.0     0.6     SSE   159   1.4       E    96   8.89    213      -48.5
   07/15/2019 04:30      62.7      62.2       84     57.6      0.00      0.00      81.1     0.35      1014.0     0.1       S   171   0.7       S   178   8.89    214      -51.8
   07/15/2019 04:20      62.5      62.2       84     57.4      0.00      0.00      81.2     0.35      1014.0     0.2     SSE   166   1.1       S   188   8.89    213      -55.6
   07/15/2019 04:10      62.8      62.1       84     57.5      0.00      0.00      81.2     0.35      1014.0     0.5     SSE   149   1.7       E    89   8.89    212      -57.0
   07/15/2019 04:00      62.8      62.3       83     57.1      0.00      0.00      81.2     0.35      1014.0     0.2     SSE   165   1.0     SSE   149   8.89    215      -60.3
   07/15/2019 03:50      63.4      62.5       82     57.6      0.00      0.00      81.3     0.35      1013.9     0.4     SSE   160   1.0     SSE   155   8.89    228      -59.1
   07/15/2019 03:40      63.5      63.0       82     57.7      0.00      0.00      81.3     0.35      1013.9     0.0     SSW   199   0.6     SSW   199   8.89    239      -61.0
   07/15/2019 03:30      63.6      62.9       81     57.3      0.00      0.00      81.3     0.35      1013.9     0.2     SSE   163   1.0      SE   138   8.89    234      -63.5
   07/15/2019 03:20      64.0      63.3       80     57.6      0.00      0.00      81.3     0.35      1014.0     0.4     SSE   167   1.2       S   169   8.89    254      -63.9
   07/15/2019 03:10      64.1      63.8       80     57.7      0.00      0.00      81.4     0.35      1014.0     0.5       S   190   1.2     SSW   192   8.89    256      -62.8
   07/15/2019 03:00      64.4      63.8       79     57.6      0.00      0.00      81.4     0.35      1014.0     0.4     SSW   202   1.9      SW   225   8.90    264      -64.0
   07/15/2019 02:50      64.6      63.9       80     57.6      0.00      0.00      81.4     0.35      1014.0     0.6       S   177   1.8      SW   225   8.90    265      -64.2
   07/15/2019 02:40      65.1      64.3       78     57.8      0.00      0.00      81.4     0.35      1014.1     0.2       S   173   0.8       S   186   8.90    266      -63.8
   07/15/2019 02:30      65.1      64.5       79     58.1      0.00      0.00      81.5     0.35      1014.3     0.2     SSE   168   0.8       S   170   8.90    264      -63.8
   07/15/2019 02:20      65.2      64.5       78     57.9      0.00      0.00      81.4     0.35      1014.3     0.2       S   178   0.9       S   183   8.90    266      -64.6
   07/15/2019 02:10      65.5      65.0       77     57.9      0.00      0.00      81.5     0.35      1014.3     0.3     SSE   151   1.1     SSE   151   8.90    270      -65.1
   07/15/2019 02:00      66.0      65.2       76     57.6      0.00      0.00      81.5     0.35      1014.5     0.9     SSW   193   1.5     SSW   195   8.90    271      -65.0
   07/15/2019 01:50      66.6      65.8       75     57.8      0.00      0.00      81.5     0.35      1014.5     0.2       S   170   1.1       S   177   8.90    271      -65.9
   07/15/2019 01:40      66.4      66.1       74     57.8      0.00      0.00      81.6     0.35      1014.6     1.7     SSW   210   2.3     SSW   193   8.90    271      -64.4
   07/15/2019 01:30      66.7      66.1       74     57.8      0.00      0.00      81.6     0.35      1014.7     0.9     SSW   211   2.1     SSW   213   8.90    271      -64.0
   07/15/2019 01:20      67.1      66.5       73     58.0      0.00      0.00      81.6     0.35      1014.8     0.1     ESE   114   1.6       E    89   8.91    271      -64.9
   07/15/2019 01:10      67.4      66.6       73     58.0      0.00      0.00      81.6     0.35      1014.9     0.4      SE   129   1.4      SE   134   8.91    270      -65.5
   07/15/2019 01:00      67.3      66.7       73     58.0      0.00      0.00      81.6     0.35      1015.0     0.8      SE   131   1.7       E    93   8.91    270      -66.2
   07/15/2019 00:50      68.4      67.1       71     57.9      0.00      0.00      81.7     0.35      1015.1     0.3      SE   136   1.1      SE   142   8.91    270      -66.6
   07/15/2019 00:40      68.8      68.1       71     58.4      0.00      0.00      81.6     0.35      1015.2     0.3     ESE   112   1.7      SE   129   8.91    270      -68.5
   07/15/2019 00:30      69.1      68.5       70     58.5      0.00      0.00      81.6     0.35      1015.3     0.1     ESE   113   0.9     ESE   103   8.91    269      -69.0
   07/15/2019 00:20      69.4      68.8       70     58.6      0.00      0.00      81.6     0.35      1015.4     0.8      SE   126   1.8      SE   144   8.91    269      -69.7
   07/15/2019 00:10      69.6      69.1       69     58.5      0.00      0.00      81.6     0.35      1015.5     1.0     ESE   118   2.2      SE   134   8.91    268      -70.4
   07/15/2019 00:00      70.2      69.4       67     58.4      0.00      0.00      81.7     0.35      1015.5     0.8     ESE   103   1.8     ENE    73   8.92    268      -70.5
   07/14/2019 23:50      70.5      69.7       67     58.7      0.00      0.00      81.7     0.35      1015.5     0.8     ENE    69   3.2     NNE    33   8.92    268      -70.3
   07/14/2019 23:40      70.6      70.0       68     59.0      0.00      0.00      81.7     0.35      1015.5     0.9     ENE    64   2.1     ENE    72   8.92    268      -70.4
   07/14/2019 23:30      70.8      70.2       67     59.2      0.00      0.00      81.7     0.35      1015.5     1.6     ENE    65   3.3     NNE    22   8.92    268      -70.8
   07/14/2019 23:20      70.7      70.2       68     59.3      0.00      0.00      81.7     0.35      1015.4     1.3      NE    45   3.3      NE    46   8.92    268      -70.6
   07/14/2019 23:10      70.7      70.2       68     59.4      0.00      0.00      81.7     0.35      1015.4     0.5     ENE    57   2.2      NE    42   8.92    268      -71.1
   07/14/2019 23:00      71.0      70.3       68     59.4      0.00      0.00      81.7     0.35      1015.3     0.7       E    97   2.7       E    97   8.92    268      -73.2
   07/14/2019 22:50      71.7      70.7       67     59.5      0.00      0.00      81.7     0.35      1015.2     1.5     ENE    78   3.9      SE   143   8.93    268      -76.3
   07/14/2019 22:40      72.6      71.4       65     59.6      0.00      0.00      81.7     0.35      1015.2     1.6     ENE    59   4.0      NE    54   8.93    268      -78.4
   07/14/2019 22:30      73.4      72.4       63     59.6      0.00      0.00      81.7     0.35      1015.1     1.5      NE    50   3.1      NE    53   8.93    268      -79.1
   07/14/2019 22:20      73.5      73.0       63     59.8      0.00      0.00      81.7     0.35      1015.0     1.8      NE    45   3.1     ENE    58   8.93    267      -79.6
   07/14/2019 22:10      73.5      73.2       62     59.7      0.00      0.00      81.7     0.35      1014.9     1.4     ENE    63   2.5     ENE    73   8.94    267      -80.5
   07/14/2019 22:00      74.1      73.3       62     59.8      0.00      0.00      81.7     0.35      1014.9     2.0      SE   132   5.0     ESE   103   8.94    267      -81.2
   07/14/2019 21:50      75.0      73.9       61     59.8      0.00      0.00      81.7     0.35      1014.9     1.5       E    96   5.1     ENE    71   8.94    266      -82.6
   07/14/2019 21:40      76.7      74.8       58     59.9      0.00      0.00      81.7     0.35      1014.8     1.9       E    79   4.4      NE    52   8.94    266      -84.0
   07/14/2019 21:30      78.5      76.5       56     60.4      0.00      0.00      81.6     0.35      1014.6     1.8      NE    45   4.2      NE    49   8.95    266      -84.4
   07/14/2019 21:20      79.7      78.3       47     57.0      0.00      0.00      81.6     0.35      1014.4     1.0      NE    47   4.9      NE    39   8.95    266      -80.3
   07/14/2019 21:10      81.6      79.4       38     52.5      0.00      0.00      81.6     0.35      1014.2     0.4     ESE   120   1.9      SE   136   8.95    264      -81.1
   07/14/2019 21:00      81.6      80.9       36     51.9      0.00      0.00      81.6     0.35      1014.1     1.6       S   188   3.3      SW   223   8.95    264      -82.4
   07/14/2019 20:50      81.6      80.8       37     52.2      0.00      0.00      81.6     0.35      1014.0     1.1       S   190   1.9     SSW   210   8.96    264      -81.3
   07/14/2019 20:40      82.3      81.1       36     52.1      0.00      0.00      81.6     0.35      1013.9     1.3       S   191   1.9       S   185   8.96    264      -83.9
   07/14/2019 20:30      85.2      82.3       33     52.0      0.00      0.00      81.5     0.35      1013.8     0.3       S   174   1.4       S   177   8.96    264      -89.0
   07/14/2019 20:20      86.0      85.0       32     52.1      0.00      0.00      81.5     0.35      1013.7     1.0     WNW   291   3.4     WNW   303   8.97    264      -91.9
   07/14/2019 20:10      86.5      85.6       31     52.2      0.00      0.00      81.5     0.35      1013.6     1.5     WNW   295   3.4      NW   320   8.97    264      -91.4
   07/14/2019 20:00      87.3      86.2       31     52.6      0.00      0.00      81.4     0.35      1013.6     1.9      NW   310   4.3     NNW   345   8.97    264      -88.9
   07/14/2019 19:50      88.5      87.0       30     52.5      0.00      0.00      81.4     0.35      1013.5     1.9     WNW   300   3.8      NW   312   8.98    264      -85.4
   07/14/2019 19:40      89.2      88.1       29     52.5      0.00      0.00      81.4     0.35      1013.5     1.7     WNW   303   3.7     WNW   283   8.98    264      -67.8
   07/14/2019 19:30      90.1      88.7       28     51.7      0.00      0.00      81.3     0.35      1013.4     3.1     WNW   294   6.4       W   262   8.99    264      -56.1
   07/14/2019 19:20      91.2      89.7       26     50.8      0.00      0.00      81.3     0.35      1013.4     3.4     WNW   296   7.5      NW   312   8.99    263      -38.2
   07/14/2019 19:10      91.7      90.9       25     50.2      0.00      0.00      81.3     0.35      1013.3     3.3       W   281   5.5     WSW   242   9.00    263      -18.0
   07/14/2019 19:00      92.4      91.6       24     49.6      0.00      0.00      81.3     0.35      1013.3     3.9       W   264   7.1       W   269   9.00    263        4.6
   07/14/2019 18:50      93.3      92.1       23     49.3      0.00      0.00      81.2     0.35      1013.2     4.5       W   268   8.2       W   260   9.01    263       29.0
   07/14/2019 18:40      93.7      92.8       22     48.4      0.00      0.00      81.2     0.35      1013.2     5.3     WSW   251   8.2       W   261   9.01    263       53.5
   07/14/2019 18:30      94.1      93.0       20     46.4      0.00      0.00      81.1     0.34      1013.2     4.3      SW   234   9.8      SW   221   9.02    263       78.6
   07/14/2019 18:20      94.3      93.6       19     45.7      0.00      0.00      81.1     0.34      1013.2     4.6      SW   233   9.1     SSW   197   9.02    263      106.2
   07/14/2019 18:10      94.7      93.8       20     47.1      0.00      0.00      81.0     0.34      1013.2     5.6      SW   229   8.6     SSW   195   9.03    263      131.8
   07/14/2019 18:00      95.4      94.3       22     50.1      0.00      0.00      81.0     0.34      1013.2     3.9     WSW   243   8.1       W   265   9.04    263      156.3
   07/14/2019 17:50      95.1      94.4       23     51.6      0.00      0.00      81.0     0.34      1013.2     4.1       W   265   8.7     WSW   248   9.04    263      182.7
   07/14/2019 17:40      95.1      94.4       24     52.4      0.00      0.00      80.9     0.34      1013.2     3.6       W   261   7.6     WSW   251   9.05    263      206.6
   07/14/2019 17:30      95.4      94.3       25     53.0      0.00      0.00      80.9     0.34      1013.3     3.6       W   277   7.5       W   271   9.05    263      232.2
   07/14/2019 17:20      96.2      94.6       24     53.5      0.00      0.00      80.8     0.34      1013.2     4.0       W   268   8.0     WSW   247   9.06    263      257.6
   07/14/2019 17:10      96.4      95.7       24     53.5      0.00      0.00      80.8     0.34      1013.3     3.8     WNW   286   8.5       W   265   9.06    263      279.5
   07/14/2019 17:00      97.8      95.1       24     53.7      0.00      0.00      80.7     0.34      1013.4     3.7       W   276  10.2       W   261   9.07    263      302.5
   07/14/2019 16:50      97.5      96.5       24     53.6      0.00      0.00      80.7     0.34      1013.4     2.9     WNW   295   7.6     NNE    24   9.08    263      324.2
   07/14/2019 16:40      98.5      96.6       23     53.5      0.00      0.00      80.6     0.34      1013.4     3.6      NW   326   7.8     NNE    14   9.08    263      345.4
   07/14/2019 16:30      99.0      98.2       22     53.5      0.00      0.00      80.5     0.34      1013.4     3.0      NW   326   7.6     NNE    26   9.09    263      366.9
   07/14/2019 16:20     100.6      98.6       22     54.6      0.00      0.00      80.5     0.34      1013.4     3.9     WNW   302  11.3       W   280   9.09    263      388.3
   07/14/2019 16:10     101.2      99.6       22     54.9      0.00      0.00      80.5     0.34      1013.4     3.6     WNW   300   7.3      SW   231   9.10    263      408.0
   07/14/2019 16:00     101.2     100.2       22     54.6      0.00      0.00      80.3     0.34      1013.4     3.0     NNW   337   7.8      NE    45   9.10    264      427.5
   07/14/2019 15:50     100.6      98.1       24     55.5      0.00      0.00      80.4     0.34      1013.4     2.3     ENE    59   5.3     ESE   107   9.11    263      446.9
   07/14/2019 15:40      99.7      98.7       24     55.6      0.00      0.00      80.3     0.34      1013.5     3.6      SE   146   7.5       S   173   9.11    264      461.5
   07/14/2019 15:30      99.8      98.7       24     55.8      0.00      0.00      80.3     0.34      1013.6     3.1       S   176   7.4     SSW   197   9.12    263      479.1
   07/14/2019 15:20      99.6      98.2       24     55.9      0.00      0.00      80.2     0.34      1013.6     2.5     SSE   159   8.5      SW   225   9.12    264      497.1
   07/14/2019 15:10      99.6      98.3       24     55.8      0.00      0.00      80.0     0.34      1013.8     3.0      SW   220   6.9     SSW   194   9.12    264      510.7
   07/14/2019 15:00      99.5      98.2       24     56.3      0.00      0.00      80.1     0.34      1013.9     2.5       W   269   6.5      NW   308   9.12    264      524.8
   07/14/2019 14:50      99.6      98.1       25     56.9      0.00      0.00      80.0     0.34      1013.9     4.5     SSW   209   7.8      SW   227   9.13    264      536.6
   07/14/2019 14:40     101.1      99.1       22     54.8      0.00      0.00      79.9     0.34      1014.0     2.6      SW   233   7.8     WSW   257   9.13    264      548.7
   07/14/2019 14:30      99.6      98.6       22     53.5      0.00      0.00      79.7     0.34      1014.0     3.2      NE    43   6.4      NE    51   9.14    264      563.9
   07/14/2019 14:20      99.3      97.6       23     54.4      0.00      0.00      79.9     0.34      1014.1     3.2     ENE    65   5.4     ENE    72   9.14    264      577.3
   07/14/2019 14:10      98.4      96.7       25     55.4      0.00      0.00      79.7     0.34      1014.2     3.4       E    90   7.4       E    87   9.15    264      586.3
   07/14/2019 14:00      98.1      96.6       26     56.2      0.00      0.00      79.8     0.34      1014.2     2.9     ENE    67   5.8       E    79   9.15    263      589.5
   07/14/2019 13:50      97.9      96.6       27     57.2      0.00      0.00      79.7     0.34      1014.3     3.0       E    89   6.6      SE   146   9.15    263      598.7
   07/14/2019 13:40      97.4      96.5       27     57.8      0.00      0.00      79.5     0.34      1014.3     3.1     ENE    73   5.7       E    86   9.15    264      605.4
   07/14/2019 13:30      97.7      96.1       28     58.2      0.00      0.00      79.6     0.34      1014.4     3.2     ENE    75   7.6     SSE   157   9.16    264      608.5
   07/14/2019 13:20      97.7      96.6       26     56.7      0.00      0.00      79.6     0.34      1014.4     2.8      NE    43   4.8     ENE    66   9.16    264      608.5
   07/14/2019 13:10      97.9      96.6       25     55.1      0.00      0.00      79.5     0.34      1014.5     2.7     ENE    75   6.4     ENE    74   9.16    263      613.6
   07/14/2019 13:00      97.8      95.5       24     53.5      0.00      0.00      79.4     0.34      1014.5     2.1     NNE    18   5.1     NNE    13   9.16    263      617.5
   07/14/2019 12:50      96.3      95.1       23     52.3      0.00      0.00      79.4     0.34      1014.6     1.9       E    91   4.3      SE   134   9.16    263      615.4
   07/14/2019 12:40      95.4      94.7       25     53.4      0.00      0.00      79.3     0.34      1014.7     1.9     ESE   122   4.0     ENE    75   9.17    263      612.0
   07/14/2019 12:30      95.2      94.3       26     54.3      0.00      0.00      79.3     0.34      1014.8     1.8       N   350   3.8       N   353   9.17    263      606.7
   07/14/2019 12:20      94.7      93.1       28     55.8      0.00      0.00      79.4     0.34      1014.9     1.5       N   354   3.8       N   349   9.17    264      606.5
   07/14/2019 12:10      94.2      93.0       29     57.0      0.00      0.00      79.2     0.34      1014.9     1.9     NNE    17   4.6       E    85   9.17    264      603.6
   07/14/2019 12:00      93.3      92.1       31     57.5      0.00      0.00      79.3     0.34      1015.0     2.1       N     7   5.2       N     5   9.17    264      594.5
   07/14/2019 11:50      92.8      90.6       31     56.6      0.00      0.00      79.3     0.34      1015.0     1.7     NNW   343   3.6       N     0   9.17    263      588.3
   07/14/2019 11:40      90.8      89.6       33     56.9      0.00      0.00      79.3     0.34      1015.0     3.0       N   358   6.4     NNE    17   9.17    264      582.8
   07/14/2019 11:30      90.6      89.3       34     57.4      0.00      0.00      79.3     0.34      1015.1     1.9       N   357   4.0     NNE    27   9.17    264      572.4
   07/14/2019 11:20      90.4      88.7       34     57.4      0.00      0.00      79.1     0.34      1015.2     1.5      NE    52   4.1      NE    41   9.17    264      564.6
   07/14/2019 11:10      89.3      87.3       34     56.6      0.00      0.00      79.3     0.34      1015.1     1.5     NNE    13   4.8       E    89   9.17    264      555.1
   07/14/2019 11:00      87.8      86.2       36     56.8      0.00      0.00      79.2     0.34      1015.1     1.7     NNE    24   3.4     NNE    33   9.17    264      543.1
   07/14/2019 10:50      87.0      85.3       38     57.5      0.00      0.00      79.3     0.34      1015.1     1.5     NNE    22   4.0     NNE    23   9.17    264      532.3
   07/14/2019 10:40      85.7      84.7       39     57.2      0.00      0.00      79.3     0.34      1015.2     1.7       N     8   4.1      NE    40   9.17    264      518.0
   07/14/2019 10:30      84.9      83.1       41     58.0      0.00      0.00      79.4     0.34      1015.2     1.4     NNW   344   4.1     NNW   327   9.17    264      503.1
   07/14/2019 10:20      83.3      82.2       43     58.0      0.00      0.00      79.4     0.34      1015.3     1.6     NNE    12   3.6       N     8   9.17    265      486.0
   07/14/2019 10:10      82.6      81.4       45     58.8      0.00      0.00      79.4     0.34      1015.4     1.4     NNE    20   3.0      NE    42   9.17    265      469.2
   07/14/2019 10:00      81.6      80.3       48     59.1      0.00      0.00      79.4     0.34      1015.4     1.2      NW   312   2.3     WSW   253   9.17    265      450.4
   07/14/2019 09:50      80.5      79.4       51     59.9      0.00      0.00      79.5     0.34      1015.4     1.1      NE    38   2.6     NNE    30   9.17    265      437.3
   07/14/2019 09:40      79.7      78.1       53     60.3      0.00      0.00      79.5     0.34      1015.5     1.0     ENE    78   2.3       E    91   9.17    266      412.6
   07/14/2019 09:30      78.4      76.4       56     60.3      0.00      0.00      79.5     0.34      1015.5     0.6       N     0   2.1     NNE    16   9.17    266      393.0
   07/14/2019 09:20      76.7      74.5       59     60.5      0.00      0.00      79.5     0.34      1015.6     0.5       W   270   2.2       W   270   9.17    266      376.1
   07/14/2019 09:10      74.8      72.7       63     60.5      0.00      0.00      79.6     0.34      1015.6     1.0     NNW   326   2.7     WSW   252   9.17    266      361.8
   07/14/2019 09:00      72.8      70.4       68     60.5      0.00      0.00      79.6     0.34      1015.7     0.7     ENE    60   1.8      NE    56   9.17    267      356.0
   07/14/2019 08:50      70.4      68.9       73     60.4      0.00      0.00      79.6     0.34      1015.7     0.6       E   101   2.4     ESE   111   9.18    269      101.1
   07/14/2019 08:40      69.0      68.0       75     60.3      0.00      0.00      79.6     0.34      1015.7     0.8      NE    46   2.8       N   351   9.18    271      -18.5
   07/14/2019 08:30      68.3      67.2       77     60.3      0.00      0.00      79.7     0.34      1015.8     0.8      NE    39   2.5       N     6   9.18    271      -20.4
   07/14/2019 08:20      67.4      66.1       81     60.8      0.00      0.00      79.7     0.34      1015.8     0.6       N     0   2.6     NNE    17   9.18    272      -18.1
   07/14/2019 08:10      66.2      65.3       84     60.9      0.00      0.00      79.7     0.34      1015.9     0.7     NNE    12   2.6       N     0   9.18    273      -12.8
   07/14/2019 08:00      65.5      64.4       87     61.1      0.00      0.00      79.8     0.34      1015.9     0.6     NNE    17   2.1     NNE    22   9.18    273       -0.3
   07/14/2019 07:50      64.6      63.8       89     60.9      0.00      0.00      79.8     0.34      1015.8     0.2     NNE    25   1.7      NE    53   9.18    271       -5.7
   07/14/2019 07:40      64.1      63.3       90     60.8      0.00      0.00      79.8     0.34      1015.8     0.7     ENE    69   1.9     ENE    65   9.18    271        4.2
   07/14/2019 07:30      63.5      63.0       91     60.6      0.00      0.00      79.8     0.34      1015.7     0.7      NE    35   1.9     NNE    15   9.18    272       40.8
   07/14/2019 07:20      63.3      62.8       91     60.4      0.00      0.00      79.8     0.34      1015.7     0.9     WSW   257   3.5       W   277   9.18    272       38.1
   07/14/2019 07:10      63.2      62.7       92     60.5      0.00      0.00      79.9     0.34      1015.6     1.2      SE   142   2.6      NW   320   9.18    271       38.1
   07/14/2019 07:00      63.1      62.3       92     60.2      0.00      0.00      79.9     0.34      1015.5     0.4     SSE   159   2.4       S   179   9.18    270       27.3
   07/14/2019 06:50      62.7      62.4       92     60.1      0.00      0.00      80.0     0.34      1015.5     1.4       S   174   2.5     SSE   165   9.18    261       12.3
   07/14/2019 06:40      62.8      62.4       92     60.2      0.00      0.00      80.0     0.34      1015.4     1.6       S   178   3.0       S   180   9.18    259        4.1
   07/14/2019 06:30      62.8      62.4       92     60.2      0.00      0.00      80.0     0.34      1015.3     1.1     SSW   212   2.5     SSW   212   9.18    259        0.1
   07/14/2019 06:20      62.8      62.3       92     60.2      0.00      0.00      80.0     0.34      1015.3     1.0      SE   134   2.1       E    91   9.18    256       -3.4
   07/14/2019 06:10      62.7      62.3       92     60.2      0.00      0.00      80.1     0.34      1015.3     0.8       E    87   2.0       E    99   9.18    249       -5.9
   07/14/2019 06:00      62.8      62.2       92     60.0      0.00      0.00      80.1     0.34      1015.4     1.3     ESE   116   2.6      SE   134   9.18    245       -7.7
   07/14/2019 05:50      62.7      62.4       92     60.0      0.00      0.00      80.2     0.34      1015.3     0.8     ENE    75   2.2       E    91   9.18    248       -8.8
   07/14/2019 05:40      62.7      62.2       92     59.9      0.00      0.00      80.2     0.34      1015.2     0.8      SE   129   2.1     SSE   149   9.18    249      -10.1
   07/14/2019 05:30      62.7      62.3       91     59.9      0.00      0.00      80.2     0.34      1015.2     1.2      SE   145   2.5      SE   144   9.19    246      -10.7
   07/14/2019 05:20      62.8      62.3       91     59.8      0.00      0.00      80.3     0.34      1015.2     1.3      SE   124   2.9      SE   136   9.19    247      -11.8
   07/14/2019 05:10      63.1      62.4       90     59.8      0.00      0.00      80.3     0.34      1015.2     1.2      SE   146   2.5      SE   139   9.19    240      -12.6
   07/14/2019 05:00      63.3      62.7       90     59.9      0.00      0.00      80.3     0.34      1015.2     0.6     ENE    61   2.3     NNE    31   9.19    213      -14.8
   07/14/2019 04:50      63.2      62.7       90     60.1      0.00      0.00      80.3     0.35      1015.1     0.6       N     9   2.2     NNW   348   9.19    227      -13.1
   07/14/2019 04:40      63.2      62.7       90     60.0      0.00      0.00      80.4     0.35      1015.1     0.5      NE    52   2.2     ENE    59   9.19    273      -16.1
   07/14/2019 04:30      63.2      62.7       90     59.9      0.00      0.00      80.3     0.35      1015.1     0.5     ENE    77   2.2       E    79   9.19    287      -25.6
   07/14/2019 04:20      63.3      62.8       90     59.8      0.00      0.00      80.4     0.35      1015.1     0.4     ESE   102   1.9       E   101   9.19    287      -27.5
   07/14/2019 04:10      63.2      62.8       90     59.9      0.00      0.00      80.4     0.35      1015.0     0.5     ENE    62   1.4     ENE    72   9.19    286      -36.4
   07/14/2019 04:00      63.3      62.8       90     59.8      0.00      0.00      80.5     0.35      1014.9     0.5     ENE    62   1.7      NE    51   9.19    278      -36.6
   07/14/2019 03:50      63.2      62.8       89     59.7      0.00      0.00      80.5     0.35      1014.9     0.0       E    97   0.6     ESE   102   9.19    271      -36.9
   07/14/2019 03:40      63.6      62.9       89     59.9      0.00      0.00      80.5     0.35      1014.8     0.0     NNE    34   0.3       E    84   9.19    266      -38.6
   07/14/2019 03:30      63.5      63.0       89     60.0      0.00      0.00      80.5     0.35      1014.8     0.6      NE    48   1.6      NE    47   9.19    260      -37.2
   07/14/2019 03:20      63.6      63.0       89     59.8      0.00      0.00      80.5     0.35      1014.8     0.6       E    93   1.9       E    92   9.19    256      -46.9
   07/14/2019 03:10      63.8      63.3       88     59.8      0.00      0.00      80.6     0.35      1014.8     0.9     ENE    73   2.6     ENE    58   9.19    244      -54.5
   07/14/2019 03:00      64.1      63.5       87     59.7      0.00      0.00      80.6     0.35      1014.8     1.2     ENE    60   2.8     ENE    66   9.19    230      -59.6
   07/14/2019 02:50      64.5      63.8       86     59.9      0.00      0.00      80.6     0.35      1014.8     1.1      NE    54   2.6      NE    46   9.19    217      -62.7
   07/14/2019 02:40      64.6      64.1       86     60.0      0.00      0.00      80.6     0.35      1014.8     1.2     ENE    62   3.3     ENE    75   9.20    212      -64.4
   07/14/2019 02:30      64.9      64.4       85     60.0      0.00      0.00      80.7     0.35      1014.8     1.3     ENE    63   2.6     NNE    28   9.20    215      -66.0
   07/14/2019 02:20      65.1      64.6       84     60.0      0.00      0.00      80.7     0.35      1014.9     0.9     ENE    73   2.7     ENE    68   9.20    228      -67.1
   07/14/2019 02:10      65.5      64.9       83     59.9      0.00      0.00      80.7     0.35      1014.9     0.6       E    97   2.3       E    83   9.20    238      -68.3
   07/14/2019 02:00      65.8      65.1       83     60.0      0.00      0.00      80.8     0.35      1014.9     0.5       E    86   2.2       E    92   9.20    243      -68.9
   07/14/2019 01:50      66.2      65.3       81     59.8      0.00      0.00      80.8     0.35      1014.9     1.0     ENE    73   2.4     ESE   105   9.20    263      -69.1
   07/14/2019 01:40      66.6      65.8       80     59.8      0.00      0.00      80.8     0.35      1014.8     0.9     ENE    69   3.0       E    98   9.20    268      -69.1
   07/14/2019 01:30      66.6      66.1       79     59.8      0.00      0.00      80.9     0.35      1014.8     1.4      NE    49   3.2     ENE    64   9.20    270      -68.6
   07/14/2019 01:20      66.5      66.1       79     59.6      0.00      0.00      80.8     0.35      1014.7     0.4       E    85   1.6     ENE    65   9.20    269      -68.1
   07/14/2019 01:10      66.4      66.0       79     59.5      0.00      0.00      80.8     0.35      1014.7     0.3       E    79   2.0     ENE    66   9.21    270      -68.3
   07/14/2019 01:00      66.7      66.1       78     59.2      0.00      0.00      80.9     0.35      1014.7     0.2     ESE   118   1.2     SSE   166   9.21    271      -68.3
   07/14/2019 00:50      67.1      66.3       76     58.8      0.00      0.00      80.8     0.35      1014.7     0.0     ESE   112   0.9     ESE   114   9.21    270      -69.0
   07/14/2019 00:40      67.3      66.7       75     58.8      0.00      0.00      80.9     0.35      1014.7     0.1     ESE   104   1.0     ENE    60   9.21    270      -70.2
   07/14/2019 00:30      67.5      67.0       74     58.6      0.00      0.00      80.8     0.35      1014.7     0.3     ESE   110   2.2     ENE    71   9.21    270      -70.4
   07/14/2019 00:20      68.0      67.1       73     58.5      0.00      0.00      80.9     0.35      1014.7     0.4     ESE   102   1.5       E    85   9.21    270      -69.9
   07/14/2019 00:10      68.2      67.7       73     58.9      0.00      0.00      80.9     0.35      1014.6     0.2     ESE   109   1.2       E    94   9.21    270      -70.7
   07/14/2019 00:00      68.3      67.8       73     59.0      0.00      0.00      80.9     0.35      1014.6     0.4     ESE   108   1.8       E    81   9.21    270      -71.2
   07/13/2019 23:50      68.5      67.9       73     59.1      0.00      0.00      80.9     0.35      1014.6     0.6     ESE   114   1.7       E    79   9.21    270      -70.9
   07/13/2019 23:40      69.0      68.1       72     59.2      0.00      0.00      80.9     0.35      1014.4     0.2     ESE   112   1.5       E    87   9.22    270      -70.6
   07/13/2019 23:30      69.6      68.6       71     59.4      0.00      0.00      80.9     0.35      1014.4     0.2     ENE    70   1.5      NE    53   9.22    269      -72.7
   07/13/2019 23:20      70.0      69.3       70     59.3      0.00      0.00      80.9     0.35      1014.3     0.3     ENE    64   1.5     ENE    63   9.22    268      -73.7
   07/13/2019 23:10      70.3      69.6       68     59.0      0.00      0.00      80.9     0.35      1014.2     0.5     ENE    70   2.1      NE    48   9.22    268      -74.5
   07/13/2019 23:00      71.0      70.0       66     58.4      0.00      0.00      80.8     0.35      1014.0     1.1     ESE   104   2.8       E    92   9.22    268      -75.4
   07/13/2019 22:50      71.5      70.6       64     58.1      0.00      0.00      80.9     0.35      1013.9     1.2       E   101   2.8     ENE    71   9.23    268      -76.3
   07/13/2019 22:40      72.0      71.1       62     58.0      0.00      0.00      80.9     0.35      1013.8     1.1     ESE   117   2.5     ENE    74   9.23    267      -76.4
   07/13/2019 22:30      72.1      71.6       61     57.9      0.00      0.00      80.9     0.35      1013.7     1.0     ESE   115   1.8     ESE   119   9.23    267      -75.9
   07/13/2019 22:20      73.0      71.8       60     57.5      0.00      0.00      81.0     0.35      1013.5     0.7      SE   128   1.4      SE   140   9.23    267      -75.8
   07/13/2019 22:10      73.6      72.7       58     57.6      0.00      0.00      80.9     0.35      1013.2     0.0       E    98   0.6       E    88   9.23    267      -77.0
   07/13/2019 22:00      74.7      73.3       57     57.6      0.00      0.00      80.9     0.35      1013.1     0.8     ESE   113   2.4     ENE    62   9.24    266      -79.3
   07/13/2019 21:50      75.5      74.4       54     57.1      0.00      0.00      80.9     0.35      1013.0     0.7       E    85   2.2     ENE    76   9.24    266      -79.8
   07/13/2019 21:40      76.5      75.2       52     56.7      0.00      0.00      80.9     0.35      1012.7     1.1     ESE   117   2.6       E    84   9.24    266      -80.7
   07/13/2019 21:30      77.4      76.2       50     56.6      0.00      0.00      80.8     0.35      1012.6     1.1     ESE   104   2.2       E    96   9.25    266      -81.8
   07/13/2019 21:20      78.2      77.2       48     56.4      0.00      0.00      80.8     0.35      1012.4     1.0     ESE   108   3.2     ENE    74   9.25    266      -82.7
   07/13/2019 21:10      78.8      77.7       46     56.0      0.00      0.00      80.8     0.35      1012.1     1.0     ESE   114   2.0       E    93   9.25    266      -83.0
   07/13/2019 21:00      79.4      78.5       45     55.9      0.00      0.00      80.8     0.35      1011.8     1.1       E   101   2.4     ENE    66   9.25    266      -84.1
   07/13/2019 20:50      79.6      79.1       45     56.0      0.00      0.00      80.7     0.35      1011.6     1.0     ESE   112   1.9     ESE   106   9.26    266      -83.5
   07/13/2019 20:40      81.1      79.2       44     55.9      0.00      0.00      80.7     0.35      1011.4     0.8     ESE   124   1.5     ESE   123   9.26    266      -84.2
   07/13/2019 20:30      82.6      80.8       42     56.0      0.00      0.00      80.7     0.35      1011.3     0.5     ESE   117   1.6     ENE    77   9.26    265      -87.2
   07/13/2019 20:20      83.5      82.3       40     56.1      0.00      0.00      80.7     0.35      1011.2     0.9      SE   124   2.5      SE   135   9.27    265      -89.2
   07/13/2019 20:10      84.9      83.3       39     56.6      0.00      0.00      80.6     0.35      1011.1     1.2     ESE   120   2.1      SE   136   9.27    265      -89.0
   07/13/2019 20:00      86.7      84.6       38     56.9      0.00      0.00      80.6     0.35      1010.9     0.8     ESE   111   2.1       E    98   9.27    264      -86.4
   07/13/2019 19:50      88.2      86.4       35     56.5      0.00      0.00      80.5     0.35      1010.8     0.4       E    84   2.2     ENE    58   9.28    264      -82.8
   07/13/2019 19:40      88.9      88.0       34     56.5      0.00      0.00      80.5     0.34      1010.8     0.4      NE    36   1.8     NNW   340   9.28    264      -66.9
   07/13/2019 19:30      89.7      88.6       33     56.4      0.00      0.00      80.5     0.34      1010.6     1.2     NNE    24   4.3       N     3   9.29    264      -52.8
   07/13/2019 19:20      89.8      89.2       33     56.6      0.00      0.00      80.4     0.34      1010.5     1.1     NNE    12   4.0       S   177   9.29    264      -34.5
   07/13/2019 19:10      91.0      89.4       33     56.7      0.00      0.00      80.4     0.34      1010.4     2.0     NNE    11   4.4       N     6   9.29    264      -15.1
   07/13/2019 19:00      91.3      90.3       32     56.8      0.00      0.00      80.3     0.34      1010.4     1.4     NNE    14   4.2      NE    55   9.30    264        7.3
   07/13/2019 18:50      92.8      90.9       31     56.7      0.00      0.00      80.3     0.34      1010.4     2.3      NE    35   4.9      NE    47   9.30    264       32.1
   07/13/2019 18:40      93.6      92.3       30     56.6      0.00      0.00      80.3     0.34      1010.2     2.5      NE    54   6.9      NE    50   9.31    264       54.8
   07/13/2019 18:30      94.3      93.3       29     56.3      0.00      0.00      80.3     0.34      1010.2     3.4     SSE   162   5.8     SSW   214   9.31    264       80.7
   07/13/2019 18:20      94.4      93.8       28     56.1      0.00      0.00      80.2     0.34      1010.2     3.5     SSW   208   5.8      SW   218   9.31    264      105.1
   07/13/2019 18:10      94.6      94.0       27     55.7      0.00      0.00      80.2     0.34      1010.2     3.6       S   173   6.2       S   182   9.32    264      132.4
   07/13/2019 18:00      94.7      94.3       27     55.2      0.00      0.00      80.2     0.34      1010.2     3.7     SSE   167   6.4     SSW   191   9.33    264      157.6
   07/13/2019 17:50      94.9      94.1       27     55.4      0.00      0.00      80.2     0.34      1010.2     4.8     SSE   157   8.5       S   184   9.33    264      182.1
   07/13/2019 17:40      95.5      94.3       27     55.4      0.00      0.00      80.1     0.34      1010.3     4.8      SE   142   9.0      SE   135   9.33    264      206.8
   07/13/2019 17:30      96.3      95.4       26     55.1      0.00      0.00      80.0     0.34      1010.3     3.7     SSE   160   7.5     SSE   155   9.34    264      231.4
   07/13/2019 17:20      96.2      94.9       25     54.5      0.00      0.00      80.0     0.34      1010.3     3.6       S   172   7.5       S   188   9.35    264      256.7
   07/13/2019 17:10      96.8      95.4       24     53.8      0.00      0.00      80.0     0.34      1010.4     4.3     SSE   166   7.1       S   185   9.36    264      278.1
   07/13/2019 17:00      98.6      96.5       23     53.1      0.00      0.00      79.9     0.34      1010.4     3.7     SSE   149   7.0      SE   136   9.36    263      299.5
   07/13/2019 16:50      98.8      98.2       21     52.1      0.00      0.00      79.8     0.34      1010.4     2.9     ENE    60   5.8       E    81   9.37    263      319.4
   07/13/2019 16:40      98.7      97.4       22     53.1      0.00      0.00      79.6     0.34      1010.5     2.2      NE    40   5.3     NNE    26   9.37    263      341.8
   07/13/2019 16:30      97.7      96.8       24     54.3      0.00      0.00      79.8     0.34      1010.5     3.1     ENE    59   7.4       E    81   9.37    264      365.1
   07/13/2019 16:20      98.9      96.7       24     55.2      0.00      0.00      79.7     0.34      1010.6     3.6      NE    46   7.5      NE    46   9.38    264      383.4
   07/13/2019 16:10      98.7      97.7       24     55.3      0.00      0.00      79.7     0.34      1010.6     2.9      NE    53   5.6     ENE    70   9.38    264      407.2
   07/13/2019 16:00      98.7      98.0       25     55.9      0.00      0.00      79.5     0.34      1010.8     2.7      NE    44   5.8      NE    35   9.39    264      426.7
   07/13/2019 15:50      98.3      97.2       25     55.8      0.00      0.00      79.6     0.34      1010.9     3.3      NE    52   7.6      NE    43   9.39    264      444.7
   07/13/2019 15:40      98.7      97.6       25     56.1      0.00      0.00      79.5     0.34      1010.9     2.8      NE    55   4.5      NE    34   9.39    264      464.4
   07/13/2019 15:30      98.6      98.0       25     56.7      0.00      0.00      79.3     0.34      1011.1     2.9     NNE    24   5.9     NNE    31   9.40    264      479.3
   07/13/2019 15:20      98.2      96.6       25     56.2      0.00      0.00      79.3     0.34      1011.2     3.1      NE    48   6.6     NNE    16   9.40    264      495.4
   07/13/2019 15:10      98.5      96.3       26     56.5      0.00      0.00      79.3     0.34      1011.3     2.7      NE    45   5.0     ENE    72   9.40    264      512.8
   07/13/2019 15:00      96.9      96.1       27     56.8      0.00      0.00      79.3     0.34      1011.3     3.1      NE    54   6.0     ENE    77   9.41    264      524.7
   07/13/2019 14:50      96.8      95.3       28     57.9      0.00      0.00      79.2     0.34      1011.5     3.0      NE    47   6.7     ENE    66   9.41    264      536.7
   07/13/2019 14:40      96.8      94.6       30     59.0      0.00      0.00      79.2     0.34      1011.5     3.2       E    84   6.7      SE   137   9.41    264      551.3
   07/13/2019 14:30      96.3      95.0       30     59.5      0.00      0.00      79.0     0.34      1011.6     2.5     NNE    32   5.7      NE    34   9.42    264      563.0
   07/13/2019 14:20      96.0      94.7       31     59.5      0.00      0.00      78.9     0.34      1011.7     2.6     ENE    69   6.2     NNE    31   9.42    264      572.8
   07/13/2019 14:10      96.2      94.9       30     59.6      0.00      0.00      79.0     0.34      1011.8     2.6     NNE    23   5.8      NE    45   9.42    264      580.4
   07/13/2019 14:00      95.6      94.4       31     59.3      0.00      0.00      78.9     0.34      1011.8     2.4      NE    35   5.5      NE    37   9.42    264      589.0
   07/13/2019 13:50      95.1      94.3       30     58.8      0.00      0.00      78.9     0.34      1011.9     2.0     NNE    22   5.0      NE    49   9.43    264      595.7
   07/13/2019 13:40      94.5      92.9       30     57.5      0.00      0.00      78.8     0.34      1012.0     2.3     NNE    31   4.9      NE    43   9.43    264      603.0
   07/13/2019 13:30      94.1      93.0       31     58.5      0.00      0.00      78.8     0.34      1012.0     2.6      NE    35   5.4      NE    50   9.43    264      606.5
   07/13/2019 13:20      93.4      91.7       32     58.9      0.00      0.00      78.7     0.34      1012.1     2.3     NNE    20   5.0     WNW   296   9.43    264      613.5
   07/13/2019 13:10      92.6      91.2       33     58.9      0.00      0.00      78.7     0.34      1012.1     2.6      NE    38   5.8       N   354   9.43    264      617.3
   07/13/2019 13:00      91.4      90.2       35     59.7      0.00      0.00      78.5     0.34      1012.2     3.0     ENE    59   7.0     ENE    61   9.43    264      620.1
   07/13/2019 12:50      91.2      90.0       35     59.5      0.00      0.00      78.6     0.34      1012.3     2.7      NE    34   5.4     ENE    75   9.44    264      617.3
   07/13/2019 12:40      90.1      89.2       36     59.2      0.00      0.00      78.5     0.34      1012.4     2.7      NE    50   6.0     ENE    63   9.44    264      618.3
   07/13/2019 12:30      90.1      89.1       37     59.9      0.00      0.00      78.5     0.34      1012.4     3.1      NE    52   7.7      NE    50   9.44    264      613.2
   07/13/2019 12:20      90.5      89.2       38     60.7      0.00      0.00      78.3     0.34      1012.3     2.9      NE    48   5.4      NE    49   9.44    264      606.3
   07/13/2019 12:10      90.2      88.7       37     60.0      0.00      0.00      78.4     0.34      1012.3     2.5     NNE    32   5.2       N     2   9.44    264      601.2
   07/13/2019 12:00      89.5      88.7       38     60.0      0.00      0.00      78.3     0.34      1012.4     2.8      NE    35   5.0      NW   314   9.44    264      596.6
   07/13/2019 11:50      89.2      88.5       38     60.1      0.00      0.00      78.4     0.34      1012.3     2.9      NE    40   5.3     NNE    25   9.44    264      591.7
   07/13/2019 11:40      89.1      87.9       39     60.4      0.00      0.00      78.3     0.34      1012.4     2.3     NNE    30   6.2     ENE    62   9.44    264      583.1
   07/13/2019 11:30      87.9      86.5       40     59.9      0.00      0.00      78.3     0.34      1012.4     2.4      NE    44   5.1     ENE    63   9.44    264      575.5
   07/13/2019 11:20      87.2      86.4       41     60.4      0.00      0.00      78.3     0.34      1012.5     2.8      NE    41   5.1      NE    43   9.44    264      564.7
   07/13/2019 11:10      87.2      86.4       41     60.2      0.00      0.00      78.5     0.34      1012.4     3.0      NE    35   5.1      NE    45   9.44    264      552.3
   07/13/2019 11:00      86.8      85.2       42     60.1      0.00      0.00      78.3     0.34      1012.4     2.5      NE    35   5.3      NE    54   9.44    264      541.0
   07/13/2019 10:50      85.2      84.5       44     60.7      0.00      0.00      78.5     0.34      1012.3     3.0      NE    38   6.0     NNE    13   9.44    264      528.3
   07/13/2019 10:40      85.3      84.5       45     61.3      0.00      0.00      78.5     0.34      1012.3     3.0      NE    37   6.0     NNE    32   9.44    264      514.6
   07/13/2019 10:30      85.7      84.5       43     60.4      0.00      0.00      78.5     0.34      1012.2     2.0     ENE    59   5.7     ENE    70   9.44    264      499.5
   07/13/2019 10:20      84.6      83.4       42     58.7      0.00      0.00      78.6     0.34      1012.1     1.6     ENE    73   4.5     ESE   114   9.44    264      484.2
   07/13/2019 10:10      83.9      83.1       42     57.8      0.00      0.00      78.6     0.34      1012.2     2.4      NE    45   4.3       E    97   9.44    264      465.1
   07/13/2019 10:00      83.5      82.8       41     57.3      0.00      0.00      78.6     0.34      1012.2     1.6      NE    48   4.2     ESE   114   9.44    264      446.7
   07/13/2019 09:50      82.9      81.3       43     57.3      0.00      0.00      78.6     0.34      1012.2     1.4     NNE    25   3.2     NNE    13   9.44    264      428.9
   07/13/2019 09:40      81.7      80.3       45     57.9      0.00      0.00      78.7     0.34      1012.1     1.6       N   358   3.9     NNW   341   9.44    265      411.0
   07/13/2019 09:30      80.4      79.5       48     58.5      0.00      0.00      78.7     0.34      1012.1     1.5     NNE    33   3.1     NNE    25   9.44    265      392.2
   07/13/2019 09:20      79.8      77.7       51     59.3      0.00      0.00      78.7     0.34      1012.2     0.7       N   358   2.4       N     0   9.44    266      375.4
   07/13/2019 09:10      77.8      76.2       54     59.1      0.00      0.00      78.8     0.34      1012.3     1.6       N   357   3.7     NNW   340   9.44    266      361.7
   07/13/2019 09:00      76.4      74.6       57     58.8      0.00      0.00      78.8     0.34      1012.2     1.6       N     3   4.3     NNE    16   9.45    266      357.3
   07/13/2019 08:50      74.7      73.7       59     58.9      0.00      0.00      78.8     0.34      1012.2     1.5     NNE    16   3.1      NE    39   9.45    268      108.5
   07/13/2019 08:40      73.9      72.8       61     58.9      0.00      0.00      78.8     0.34      1012.2     1.6      NE    40   3.8       N     3   9.45    269      -19.8
   07/13/2019 08:30      72.9      71.8       62     58.9      0.00      0.00      78.9     0.34      1012.2     1.4      NE    45   3.3       E    92   9.45    269      -22.6
   07/13/2019 08:20      72.1      71.2       64     58.7      0.00      0.00      79.0     0.34      1012.1     1.4       E    81   4.0       E    92   9.45    269      -22.4
   07/13/2019 08:10      71.5      70.6       65     58.6      0.00      0.00      79.0     0.34      1012.0     0.9      NE    55   2.1     ENE    57   9.45    269      -10.9
   07/13/2019 08:00      70.8      69.8       65     58.1      0.00      0.00      79.0     0.34      1012.0     0.3     NNW   331   1.2       W   260   9.45    270      -10.0
   07/13/2019 07:50      69.9      69.1       66     57.7      0.00      0.00      79.0     0.34      1012.0     0.7     ENE    68   1.9       N     0   9.45    270      -19.2
   07/13/2019 07:40      69.3      68.4       67     57.4      0.00      0.00      79.1     0.34      1011.9     1.0       N     3   1.7     NNE    23   9.45    270      -18.6
   07/13/2019 07:30      68.7      67.9       69     57.6      0.00      0.00      79.1     0.34      1011.8     0.8       N   350   2.2      NW   310   9.45    271      -21.6
   07/13/2019 07:20      68.1      67.1       71     57.8      0.00      0.00      79.2     0.34      1011.8     0.0       N   351   0.9     NNE    26   9.45    271      -23.5
   07/13/2019 07:10      67.3      65.7       74     57.9      0.00      0.00      79.2     0.34      1011.6     0.6     NNW   335   1.8      NW   310   9.45    271      -19.5
   07/13/2019 07:00      65.9      64.8       77     57.9      0.00      0.00      79.2     0.34      1011.6     0.0       N     0   0.0       E    91   9.45    272      -31.5
   07/13/2019 06:50      65.1      64.1       79     57.8      0.00      0.00      79.3     0.34      1011.5     0.0       S   173   0.2       S   173   9.45    272      -33.2
   07/13/2019 06:40      64.2      63.5       80     57.3      0.00      0.00      79.3     0.34      1011.5     0.0     SSE   147   0.5      SE   141   9.45    269      -39.0
   07/13/2019 06:30      63.7      63.1       81     57.2      0.00      0.00      79.3     0.34      1011.4     0.8      SE   133   1.5      SE   145   9.45    271      -46.4
   07/13/2019 06:20      63.3      62.6       81     57.2      0.00      0.00      79.3     0.34      1011.4     0.4     SSE   152   2.1     SSE   147   9.45    271      -38.8
   07/13/2019 06:10      62.8      62.4       82     57.0      0.00      0.00      79.4     0.34      1011.3     0.2     SSE   167   0.8     SSE   157   9.45    264      -43.3
   07/13/2019 06:00      62.7      62.2       83     57.0      0.00      0.00      79.4     0.34      1011.3     0.5       S   177   0.9       S   184   9.45    218      -47.9
   07/13/2019 05:50      62.4      61.9       83     56.8      0.00      0.00      79.5     0.34      1011.3     0.2       S   180   0.8     SSW   195   9.45    222      -51.7
   07/13/2019 05:40      62.8      62.0       82     56.8      0.00      0.00      79.5     0.34      1011.1     0.3     SSE   155   1.2      SE   140   9.45    226      -52.9
   07/13/2019 05:30      63.0      62.4       82     57.2      0.00      0.00      79.5     0.34      1011.0     0.0     SSE   155   0.5     SSE   151   9.45    246      -52.6
   07/13/2019 05:20      63.1      62.7       82     57.3      0.00      0.00      79.6     0.34      1011.0     0.4     SSE   154   1.1      SE   143   9.45    225      -53.9
   07/13/2019 05:10      63.0      62.2       82     57.0      0.00      0.00      79.6     0.34      1011.0     0.3     SSE   167   1.2     SSW   207   9.46    239      -55.4
   07/13/2019 05:00      63.0      62.5       82     57.0      0.00      0.00      79.6     0.34      1010.9     0.4     SSE   153   1.4      SE   142   9.46    244      -56.4
   07/13/2019 04:50      63.0      62.2       81     56.7      0.00      0.00      79.7     0.34      1010.9     0.7     SSE   149   1.5     SSE   160   9.46    254      -58.2
   07/13/2019 04:40      63.6      62.7       80     56.8      0.00      0.00      79.7     0.34      1010.8     0.7     SSE   153   1.5      SE   143   9.46    254      -58.9
   07/13/2019 04:30      63.7      62.8       81     57.2      0.00      0.00      79.7     0.34      1010.8     0.3       S   169   0.8       S   171   9.46    257      -57.8
   07/13/2019 04:20      63.5      62.7       80     56.6      0.00      0.00      79.8     0.34      1010.8     0.5     SSE   151   1.4      SE   140   9.46    261      -59.9
   07/13/2019 04:10      64.0      63.2       79     57.0      0.00      0.00      79.8     0.34      1010.8     0.6     SSE   159   1.0      SE   139   9.46    265      -59.6
   07/13/2019 04:00      64.4      63.6       78     56.9      0.00      0.00      79.8     0.34      1010.8     0.4     SSE   159   1.0     SSE   154   9.46    262      -60.5
   07/13/2019 03:50      64.7      64.3       77     57.3      0.00      0.00      79.8     0.34      1010.8     0.5     SSE   158   1.4      SE   146   9.46    267      -60.3
   07/13/2019 03:40      64.6      64.0       78     57.3      0.00      0.00      79.8     0.34      1010.9     0.3       S   178   1.4     SSW   192   9.46    268      -60.6
   07/13/2019 03:30      64.6      64.2       78     57.3      0.00      0.00      79.9     0.34      1010.8     0.6     SSE   155   1.6     SSE   148   9.46    268      -61.4
   07/13/2019 03:20      65.6      64.4       76     57.2      0.00      0.00      79.9     0.34      1010.8     0.4     SSE   165   0.9     SSE   160   9.47    269      -60.9
   07/13/2019 03:10      65.7      65.2       75     57.3      0.00      0.00      79.9     0.34      1010.8     0.5       S   171   1.2       S   191   9.47    271      -60.0
   07/13/2019 03:00      66.0      65.4       75     57.4      0.00      0.00      80.0     0.34      1010.7     0.0       N     0   0.0       S   171   9.47    271      -60.2
   07/13/2019 02:50      65.8      65.4       75     57.6      0.00      0.00      80.0     0.34      1010.7     0.3       S   174   1.2       S   184   9.47    271      -60.8
   07/13/2019 02:40      65.7      65.2       76     57.7      0.00      0.00      80.0     0.34      1010.8     0.3       S   181   1.2     SSW   198   9.47    271      -60.6
   07/13/2019 02:30      66.2      65.3       75     57.6      0.00      0.00      80.0     0.34      1010.8     0.4     SSE   157   0.9     SSE   160   9.47    271      -60.7
   07/13/2019 02:20      66.2      65.7       75     57.6      0.00      0.00      80.0     0.34      1010.9     0.2     SSE   165   0.7       S   169   9.47    271      -61.3
   07/13/2019 02:10      66.6      65.8       73     57.3      0.00      0.00      80.0     0.35      1010.9     0.3       S   183   1.4       S   184   9.47    271      -61.5
   07/13/2019 02:00      66.6      65.9       73     57.5      0.00      0.00      80.1     0.34      1011.0     0.4       S   173   1.0       S   175   9.47    271      -61.6
   07/13/2019 01:50      67.5      66.3       71     57.0      0.00      0.00      80.1     0.35      1011.0     0.5     SSE   165   0.9     SSE   163   9.47    270      -62.7
   07/13/2019 01:40      67.9      67.2       69     57.1      0.00      0.00      80.1     0.34      1011.0     0.5       S   191   1.0     SSW   196   9.47    270      -61.5
   07/13/2019 01:30      68.2      67.6       69     57.3      0.00      0.00      80.1     0.35      1011.1     0.2       S   171   0.8     SSE   165   9.48    270      -62.0
   07/13/2019 01:20      68.2      67.7       69     57.2      0.00      0.00      80.1     0.34      1011.1     0.1       S   178   0.8       S   179   9.48    270      -62.6
   07/13/2019 01:10      68.2      67.7       69     57.2      0.00      0.00      80.1     0.34      1011.1     0.0      SE   126   0.9      SE   143   9.48    269      -64.4
   07/13/2019 01:00      68.4      67.8       69     57.7      0.00      0.00      80.1     0.34      1011.1     0.1     ESE   114   1.2     ESE   103   9.48    269      -64.7
   07/13/2019 00:50      69.0      68.1       69     58.0      0.00      0.00      80.1     0.34      1011.1     0.0      SE   130   0.4      SE   128   9.48    269      -64.8
   07/13/2019 00:40      69.1      68.6       69     58.2      0.00      0.00      80.2     0.35      1011.0     0.0     SSE   160   0.8      SE   135   9.48    269      -66.4
   07/13/2019 00:30      69.5      68.7       68     58.0      0.00      0.00      80.2     0.35      1011.0     0.7      SE   146   1.3      SE   129   9.48    269      -67.3
   07/13/2019 00:20      70.0      69.1       67     57.9      0.00      0.00      80.2     0.34      1011.0     0.5      SE   140   1.3      SE   138   9.49    269      -68.5
   07/13/2019 00:10      70.6      69.8       66     58.3      0.00      0.00      80.2     0.35      1011.0     0.2      SE   136   1.2      SE   143   9.49    268      -69.2
   07/13/2019 00:00      70.8      70.3       65     58.4      0.00      0.00      80.2     0.35      1011.0     0.0     ENE    59   1.2      NE    52   9.49    268      -70.1
   07/12/2019 23:50      70.7      70.2       65     58.2      0.00      0.00      80.2     0.34      1011.0     0.4     ESE   118   1.6      SE   139   9.49    268      -69.9
   07/12/2019 23:40      71.1      70.3       66     58.5      0.00      0.00      80.2     0.35      1010.9     0.0       S   180   0.7       S   180   9.49    268      -68.4
   07/12/2019 23:30      71.7      70.7       64     58.6      0.00      0.00      80.2     0.35      1010.9     0.0       N     0   0.0     ESE   112   9.49    268      -70.0
   07/12/2019 23:20      72.4      71.5       63     58.7      0.00      0.00      80.2     0.35      1010.9     0.0      SE   144   0.6       E    86   9.50    268      -72.0
   07/12/2019 23:10      73.1      72.2       62     58.8      0.00      0.00      80.2     0.34      1010.9     0.1     ENE    79   1.4     ENE    60   9.50    268      -74.3
   07/12/2019 23:00      73.4      72.7       61     58.9      0.00      0.00      80.2     0.35      1010.8     1.0     ESE   109   3.0     ENE    69   9.50    267      -75.6
   07/12/2019 22:50      73.7      73.0       61     59.1      0.00      0.00      80.2     0.34      1010.7     0.8       E    96   2.5      NE    41   9.50    267      -76.3
   07/12/2019 22:40      74.1      73.4       60     59.0      0.00      0.00      80.2     0.34      1010.8     0.5     ESE   104   1.7     ENE    65   9.50    267      -75.9
   07/12/2019 22:30      74.9      73.9       59     59.0      0.00      0.00      80.2     0.35      1010.7     0.6     ESE   121   1.5       E    97   9.51    267      -75.7
   07/12/2019 22:20      75.7      74.7       58     59.0      0.00      0.00      80.2     0.34      1010.6     0.3     ENE    61   1.9     ENE    65   9.51    267      -76.4
   07/12/2019 22:10      76.0      75.2       57     59.2      0.00      0.00      80.2     0.34      1010.6     0.3     ENE    65   2.6     ENE    70   9.51    267      -77.4
   07/12/2019 22:00      76.2      75.6       56     59.2      0.00      0.00      80.2     0.34      1010.5     0.2     ESE   108   1.2       E    90   9.51    266      -78.2
   07/12/2019 21:50      76.5      75.7       56     59.3      0.00      0.00      80.1     0.34      1010.4     0.3       E    91   2.0       E    91   9.51    266      -78.2
   07/12/2019 21:40      77.3      76.2       55     59.4      0.00      0.00      80.2     0.34      1010.3     0.3     ESE   110   1.8       E    92   9.52    266      -78.5
   07/12/2019 21:30      78.2      77.0       54     59.5      0.00      0.00      80.1     0.34      1010.2     0.2     ESE   119   0.9       E    85   9.52    266      -82.0
   07/12/2019 21:20      78.8      77.9       53     59.5      0.00      0.00      80.1     0.34      1010.0     0.9       E    88   1.9       E    96   9.52    266      -83.7
   07/12/2019 21:10      79.4      78.5       50     58.6      0.00      0.00      80.1     0.34      1009.9     0.5       E    96   2.5       E    85   9.52    266      -82.5
   07/12/2019 21:00      81.9      78.9       40     53.4      0.00      0.00      80.1     0.34      1009.8     0.8      SE   132   1.6      SE   127   9.53    265      -82.0
   07/12/2019 20:50      83.9      81.5       35     51.9      0.00      0.00      80.0     0.34      1009.7     0.0       S   177   0.7     SSW   196   9.53    264      -85.4
   07/12/2019 20:40      84.0      83.4       33     51.8      0.00      0.00      80.0     0.34      1009.7     0.9     WNW   290   2.5     WNW   300   9.53    264      -89.5
   07/12/2019 20:30      84.6      83.7       32     51.1      0.00      0.00      80.0     0.34      1009.6     2.5     SSW   206   5.3     SSW   198   9.54    264      -89.8
   07/12/2019 20:20      85.6      84.5       32     52.1      0.00      0.00      80.0     0.34      1009.5     1.8     SSW   203   4.4     SSW   205   9.54    264      -87.7
   07/12/2019 20:10      86.0      85.2       32     52.6      0.00      0.00      79.9     0.34      1009.4     2.2      SW   223   4.3      SW   236   9.55    264      -83.9
   07/12/2019 20:00      88.2      85.7       31     52.3      0.00      0.00      79.9     0.34      1009.3     0.3     WSW   240   2.0     WNW   282   9.55    264      -82.9
   07/12/2019 19:50      89.3      88.0       29     52.0      0.00      0.00      79.8     0.34      1009.3     0.6     NNW   338   2.1      NW   313   9.56    264      -83.7
   07/12/2019 19:40      90.4      89.0       28     51.8      0.00      0.00      79.8     0.34      1009.3     1.6      NW   304   4.0      NW   323   9.56    264      -69.4
   07/12/2019 19:30      91.2      90.2       27     51.7      0.00      0.00      79.8     0.34      1009.2     1.6     WNW   302   4.1      NW   310   9.56    264      -53.1
   07/12/2019 19:20      91.4      90.7       26     51.8      0.00      0.00      79.8     0.34      1009.1     1.9      NW   312   6.7     WNW   300   9.57    263      -35.5
   07/12/2019 19:10      92.7      91.0       25     51.2      0.00      0.00      79.7     0.34      1009.0     2.9      NW   315   6.5      NW   317   9.57    264      -15.5
   07/12/2019 19:00      93.2      92.4       24     51.2      0.00      0.00      79.7     0.34      1008.9     2.8      NW   312   6.2     WNW   286   9.58    263        7.8
   07/12/2019 18:50      93.8      92.8       24     51.3      0.00      0.00      79.7     0.34      1008.8     2.5      NW   309   5.9     WNW   304   9.58    263       31.1
   07/12/2019 18:40      93.8      93.3       23     50.7      0.00      0.00      79.6     0.34      1008.8     2.0      NW   308   4.9      NW   325   9.59    263       54.7
   07/12/2019 18:30      94.7      93.3       23     50.4      0.00      0.00      79.6     0.34      1008.8     3.4      NW   310   6.9      NW   323   9.59    263       78.9
   07/12/2019 18:20      94.8      94.0       22     49.9      0.00      0.00      79.5     0.34      1008.9     3.0     WNW   302   7.4     WSW   242   9.59    263      105.0
   07/12/2019 18:10      95.1      94.2       20     47.6      0.00      0.00      79.5     0.34      1009.0     4.2     WSW   250   7.4      SW   224   9.60    263      130.8
   07/12/2019 18:00      95.3      93.9       22     49.5      0.00      0.00      79.5     0.34      1008.9     4.9      SW   231   8.3      SW   221   9.60    263      156.9
   07/12/2019 17:50      95.5      94.9       21     48.5      0.00      0.00      79.4     0.34      1008.9     4.3      SW   236   6.9      SW   216   9.61    263      180.8
   07/12/2019 17:40      97.9      95.0       20     48.0      0.00      0.00      79.3     0.34      1008.9     5.2     WSW   242   8.1     SSW   212   9.62    263      204.9
   07/12/2019 17:30      98.0      96.7       20     49.9      0.00      0.00      79.3     0.34      1009.0     2.9       W   265   8.4     WNW   302   9.62    263      229.0
   07/12/2019 17:20      97.7      95.9       21     50.9      0.00      0.00      79.3     0.34      1009.1     2.5       W   264   5.2      NW   304   9.63    263      253.7
   07/12/2019 17:10      97.0      96.0       22     51.3      0.00      0.00      79.2     0.34      1009.1     3.6     WNW   299   9.2       W   274   9.63    263      278.0
   07/12/2019 17:00      97.2      96.1       22     51.3      0.00      0.00      79.2     0.34      1009.2     3.4      NW   307   7.5     WNW   297   9.64    263      301.8
   07/12/2019 16:50      97.0      96.0       22     51.9      0.00      0.00      79.1     0.34      1009.1     3.7      NW   307   7.2     WNW   287   9.64    263      325.5
   07/12/2019 16:40      97.7      95.8       23     52.3      0.00      0.00      79.0     0.34      1009.1     4.0      NW   314   8.5     NNW   330   9.65    263      347.5
   07/12/2019 16:30      98.0      96.0       22     52.1      0.00      0.00      79.0     0.34      1009.2     3.5      NW   321   8.7     WNW   299   9.65    263      370.2
   07/12/2019 16:20      98.0      96.7       23     52.7      0.00      0.00      78.9     0.34      1009.3     3.6      NW   313   7.1      NW   319   9.66    264      391.3
   07/12/2019 16:10      99.1      97.5       22     52.5      0.00      0.00      78.9     0.34      1009.4     3.5      NW   324   7.1     NNW   338   9.66    264      409.2
   07/12/2019 16:00      99.7      98.2       22     52.9      0.00      0.00      78.8     0.34      1009.4     3.5     NNW   339   7.6       N     8   9.67    264      427.4
   07/12/2019 15:50      99.7      98.8       22     53.4      0.00      0.00      78.8     0.34      1009.5     3.4      NW   305   7.7       N   350   9.67    263      446.1
   07/12/2019 15:40      99.5      98.2       22     53.6      0.00      0.00      78.7     0.34      1009.6     3.3      NW   304   7.9      NW   321   9.68    264      463.0
   07/12/2019 15:30      99.3      97.6       26     57.5      0.00      0.00      78.6     0.34      1009.7     3.0      NW   324   9.0     WNW   301   9.68    264      480.4
   07/12/2019 15:20      99.0      97.4       29     60.6      0.00      0.00      78.5     0.34      1009.8     3.0     NNE    24   6.9      NE    48   9.68    264      494.0
   07/12/2019 15:10      98.7      98.0       30     61.4      0.00      0.00      78.5     0.34      1009.8     2.2      NE    54   5.7     ENE    63   9.69    264      510.7
   07/12/2019 15:00      98.4      96.9       30     61.3      0.00      0.00      78.5     0.34      1009.9     2.2     ENE    64   5.8      SE   132   9.69    264      525.7
   07/12/2019 14:50      97.4      96.2       30     60.8      0.00      0.00      78.4     0.34      1010.1     2.9     ENE    72   8.5       E    86   9.69    264      543.8
   07/12/2019 14:40      98.9      96.7       30     60.8      0.00      0.00      78.2     0.34      1010.1     3.1     ENE    66   5.9      NE    49   9.70    264      553.3
   07/12/2019 14:30      98.9      97.2       30     61.0      0.00      0.00      78.1     0.34      1010.2     2.4     ENE    62   5.3      NE    44   9.70    264      563.1
   07/12/2019 14:20      98.4      97.6       30     60.9      0.00      0.00      78.2     0.34      1010.2     2.8      NE    36   5.3      NE    38   9.70    264      572.2
   07/12/2019 14:10      98.2      95.9       30     60.8      0.00      0.00      78.2     0.34      1010.4     1.9     ENE    63   4.8     NNE    15   9.70    264      585.1
   07/12/2019 14:00      97.1      96.3       30     60.6      0.00      0.00      78.1     0.34      1010.6     2.7       E    92   6.2      SE   131   9.70    264      591.9
   07/12/2019 13:50      96.8      95.3       31     60.2      0.00      0.00      78.1     0.34      1010.6     2.7       E    88   5.7     ESE   120   9.71    264      598.3
   07/12/2019 13:40      96.8      95.7       31     60.8      0.00      0.00      78.0     0.34      1010.7     2.4      NE    50   5.4     ESE   110   9.71    264      603.0
   07/12/2019 13:30      96.9      95.5       30     59.8      0.00      0.00      77.9     0.34      1010.8     2.9     NNE    25   6.5     NNE    28   9.71    264      604.7
   07/12/2019 13:20      96.6      94.9       29     58.2      0.00      0.00      77.8     0.34      1010.9     1.9     ENE    57   5.2       N     2   9.71    264      612.0
   07/12/2019 13:10      95.1      94.4       30     58.6      0.00      0.00      77.8     0.34      1011.1     2.8     ENE    71   6.0     ESE   107   9.71    264      614.4
   07/12/2019 13:00      95.3      94.3       30     58.3      0.00      0.00      77.8     0.34      1011.2     2.4       N   352   4.8      NE    50   9.72    264      610.0
   07/12/2019 12:50      94.9      93.7       30     57.9      0.00      0.00      77.7     0.34      1011.3     2.4       N     5   5.0       N     5   9.72    263      611.4
   07/12/2019 12:40      94.1      93.5       30     57.4      0.00      0.00      77.7     0.34      1011.5     2.4     NNE    26   4.6      NE    47   9.72    264      610.2
   07/12/2019 12:30      94.4      93.3       30     57.6      0.00      0.00      77.7     0.34      1011.5     2.3      NE    34   5.6      NE    44   9.72    264      609.4
   07/12/2019 12:20      93.3      91.5       30     56.8      0.00      0.00      77.5     0.34      1011.5     1.8     ENE    57   3.9     ESE   110   9.72    264      606.4
   07/12/2019 12:10      92.4      91.7       31     56.8      0.00      0.00      77.6     0.34      1011.6     2.1       N     9   4.4     NNE    32   9.72    264      600.1
   07/12/2019 12:00      92.5      91.4       31     57.0      0.00      0.00      77.5     0.34      1011.7     1.8     NNE    18   4.6       N    10   9.72    264      594.8
   07/12/2019 11:50      91.5      90.3       32     57.1      0.00      0.00      77.6     0.34      1011.8     2.1      NE    56   4.8     ENE    62   9.72    264      588.2
   07/12/2019 11:40      90.4      89.8       32     56.4      0.00      0.00      77.5     0.34      1011.9     1.8      SE   124   4.2      SE   135   9.72    264      581.2
   07/12/2019 11:30      90.0      88.3       33     56.0      0.00      0.00      77.6     0.34      1012.0     1.6     NNE    32   3.5     NNE    33   9.72    264      571.9
   07/12/2019 11:20      88.3      87.5       34     56.1      0.00      0.00      77.5     0.34      1012.0     2.3      NE    49   5.8     NNE    13   9.72    264      563.2
   07/12/2019 11:10      88.2      87.0       34     55.7      0.00      0.00      77.6     0.34      1012.1     2.1     NNE    26   4.8       E    92   9.72    264      552.9
   07/12/2019 11:00      87.0      86.0       35     55.6      0.00      0.00      77.6     0.34      1012.3     1.4     WNW   301   3.7     WNW   303   9.72    264      541.5
   07/12/2019 10:50      86.2      84.6       37     55.9      0.00      0.00      77.6     0.34      1012.3     1.8       N     8   4.2     NNE    20   9.72    264      528.8
   07/12/2019 10:40      84.9      83.9       39     57.0      0.00      0.00      77.6     0.34      1012.4     1.4     NNE    28   3.7      NE    47   9.72    264      514.1
   07/12/2019 10:30      84.1      82.6       41     57.2      0.00      0.00      77.6     0.34      1012.6     1.6       N     7   4.1     NNE    20   9.72    264      500.2
   07/12/2019 10:20      83.0      82.1       43     57.6      0.00      0.00      77.7     0.34      1012.7     1.7     NNE    15   4.2     NNE    24   9.73    264      483.7
   07/12/2019 10:10      82.7      81.6       44     57.8      0.00      0.00      77.7     0.34      1012.7     1.4     NNE    12   3.2      NW   320   9.73    265      467.1
   07/12/2019 10:00      82.2      81.1       45     58.4      0.00      0.00      77.7     0.34      1012.7     1.1       N    10   3.5      NE    54   9.73    264      448.8
   07/12/2019 09:50      81.1      79.8       46     57.8      0.00      0.00      77.7     0.34      1012.8     0.8     SSW   202   2.2     WNW   290   9.73    265      431.1
   07/12/2019 09:40      79.9      77.8       48     57.6      0.00      0.00      77.8     0.34      1012.9     0.6       E    98   2.4       E    96   9.73    265      412.1
   07/12/2019 09:30      78.0      77.0       50     57.4      0.00      0.00      77.8     0.34      1013.0     1.3       W   275   3.3     WSW   251   9.73    265      393.2
   07/12/2019 09:20      77.3      75.8       51     57.3      0.00      0.00      77.8     0.34      1013.0     0.9      NW   323   2.5      NE    35   9.73    266      375.9
   07/12/2019 09:10      76.0      74.0       54     57.4      0.00      0.00      77.9     0.34      1013.1     0.8     NNW   345   2.1       N   355   9.73    266      362.1
   07/12/2019 09:00      74.3      72.5       58     57.6      0.00      0.00      77.9     0.34      1013.1     1.2     NNE    29   3.2       N   354   9.73    266      357.7
   07/12/2019 08:50      72.6      71.6       60     57.8      0.00      0.00      77.9     0.34      1013.2     1.1     ESE   105   3.0       E    85   9.73    268      115.7
   07/12/2019 08:40      71.7      70.1       63     57.9      0.00      0.00      78.0     0.34      1013.3     1.0     SSE   149   2.4     ESE   110   9.73    270      -10.8
   07/12/2019 08:30      70.3      69.1       66     57.8      0.00      0.00      78.0     0.34      1013.4     0.3     NNW   339   2.0     SSW   194   9.73    270      -16.3
   07/12/2019 08:20      69.2      68.2       68     57.5      0.00      0.00      78.0     0.34      1013.4     0.8     NNE    21   2.5     NNE    14   9.73    270      -17.7
   07/12/2019 08:10      68.4      67.5       70     57.8      0.00      0.00      78.1     0.34      1013.5     0.9     NNW   346   2.5     NNE    21   9.73    271       -7.3
   07/12/2019 08:00      67.7      66.8       72     57.9      0.00      0.00      78.1     0.34      1013.5     0.2       N   351   2.2      NW   308   9.73    271       -9.9
   07/12/2019 07:50      67.0      66.2       74     58.0      0.00      0.00      78.2     0.34      1013.5     0.5       W   269   2.1      NW   311   9.73    271      -17.6
   07/12/2019 07:40      66.5      65.7       76     58.1      0.00      0.00      78.2     0.34      1013.5     1.3     WNW   284   2.6     WSW   244   9.73    272       -8.3
   07/12/2019 07:30      65.8      65.1       77     58.1      0.00      0.00      78.2     0.34      1013.4     0.3     NNE    17   1.5     NNE    30   9.73    272        2.2
   07/12/2019 07:20      65.2      64.4       79     58.1      0.00      0.00      78.2     0.34      1013.4     0.5      NW   313   2.2      NW   310   9.73    272        2.1
   07/12/2019 07:10      64.6      63.8       81     58.0      0.00      0.00      78.3     0.34      1013.4     0.4     SSW   203   1.3     WSW   239   9.73    272        6.0
   07/12/2019 07:00      64.0      63.2       82     57.9      0.00      0.00      78.3     0.34      1013.4     0.2      SW   224   1.6      SW   225   9.73    269       -2.1
   07/12/2019 06:50      63.4      62.4       83     57.8      0.00      0.00      78.3     0.34      1013.4     0.0       S   178   0.5       S   177   9.73    260       -4.1
   07/12/2019 06:40      62.5      61.6       85     57.3      0.00      0.00      78.4     0.34      1013.3     0.1       S   183   0.7     SSW   198   9.73    232       -8.9
   07/12/2019 06:30      61.7      61.2       85     57.1      0.00      0.00      78.4     0.34      1013.2     0.3       S   169   1.1      SE   137   9.73    251      -16.1
   07/12/2019 06:20      61.4      60.3       86     56.5      0.00      0.00      78.4     0.34      1013.2     0.7       S   183   1.2       S   188   9.73    234      -14.9
   07/12/2019 06:10      60.7      60.3       86     56.1      0.00      0.00      78.5     0.34      1013.2     0.6      SE   142   1.3      SE   136   9.73    264      -23.0
   07/12/2019 06:00      61.3      60.3       85     56.1      0.00      0.00      78.5     0.34      1013.2     0.8     SSE   162   1.5     SSE   164   9.73    266      -27.9
   07/12/2019 05:50      61.2      60.8       86     56.7      0.00      0.00      78.5     0.34      1013.1     1.4     SSW   200   1.7     SSW   206   9.74    260      -29.4
   07/12/2019 05:40      61.4      60.6       86     56.5      0.00      0.00      78.6     0.34      1013.0     0.5     SSE   163   1.6       S   181   9.74    262      -33.1
   07/12/2019 05:30      61.6      61.1       86     56.9      0.00      0.00      78.6     0.34      1013.0     0.0     SSE   159   0.6      SE   146   9.74    253      -34.5
   07/12/2019 05:20      61.6      61.1       86     57.1      0.00      0.00      78.6     0.34      1013.0     0.2       S   186   1.0     SSW   198   9.74    245      -36.5
   07/12/2019 05:10      61.3      60.8       86     56.7      0.00      0.00      78.7     0.34      1013.0     0.6     SSE   165   1.3     SSE   155   9.74    237      -39.4
   07/12/2019 05:00      61.6      61.0       86     56.9      0.00      0.00      78.7     0.34      1012.9     0.4     SSE   157   1.0      SE   145   9.74    232      -41.0
   07/12/2019 04:50      61.8      60.9       85     56.6      0.00      0.00      78.7     0.34      1012.9     0.6     SSE   162   1.2      SE   138   9.74    226      -44.0
   07/12/2019 04:40      61.9      61.2       84     56.7      0.00      0.00      78.7     0.34      1012.8     0.8       S   170   1.8       S   179   9.74    222      -45.9
   07/12/2019 04:30      62.5      61.7       84     57.3      0.00      0.00      78.8     0.34      1012.7     0.6     SSW   197   1.8     SSW   210   9.74    219      -45.5
   07/12/2019 04:20      62.5      61.7       84     57.4      0.00      0.00      78.8     0.34      1012.7     0.2     SSE   165   0.8     SSE   159   9.74    220      -48.8
   07/12/2019 04:10      62.5      61.8       83     57.1      0.00      0.00      78.8     0.34      1012.7     0.3       S   172   0.9     SSE   162   9.74    216      -52.3
   07/12/2019 04:00      63.3      62.3       82     57.0      0.00      0.00      78.8     0.34      1012.6     0.3     SSE   166   0.8       S   175   9.74    214      -54.8
   07/12/2019 03:50      63.5      62.9       82     57.5      0.00      0.00      78.8     0.34      1012.7     0.1       S   172   0.7       S   178   9.75    217      -55.7
   07/12/2019 03:40      63.3      62.9       81     57.2      0.00      0.00      78.9     0.34      1012.7     0.0     SSE   152   0.6     SSE   150   9.75    215      -59.1
   07/12/2019 03:30      63.5      63.0       80     57.1      0.00      0.00      78.9     0.34      1012.7     0.1      SE   134   0.9      SE   131   9.75    230      -60.8
   07/12/2019 03:20      63.4      62.9       80     56.7      0.00      0.00      78.9     0.34      1012.6     0.0       N     0   0.0       E    90   9.75    239      -61.1
   07/12/2019 03:10      63.6      62.9       78     56.2      0.00      0.00      78.9     0.34      1012.6     0.0       N     0   0.0     ESE   107   9.75    267      -61.7
   07/12/2019 03:00      63.6      62.9       79     56.7      0.00      0.00      79.0     0.34      1012.6     0.1       E    89   1.2     ENE    70   9.75    259      -62.5
   07/12/2019 02:50      64.0      62.9       79     56.7      0.00      0.00      79.0     0.34      1012.6     0.5     SSE   152   1.1     SSE   161   9.75    260      -62.2
   07/12/2019 02:40      64.6      63.7       79     57.4      0.00      0.00      79.0     0.34      1012.6     0.0     SSE   157   0.6      SE   144   9.75    261      -62.1
   07/12/2019 02:30      64.6      64.1       80     57.9      0.00      0.00      79.0     0.34      1012.6     0.2       S   180   1.4       S   182   9.75    262      -62.3
   07/12/2019 02:20      64.5      63.6       79     57.2      0.00      0.00      79.0     0.34      1012.6     0.3       S   169   1.1      SE   132   9.75    264      -63.5
   07/12/2019 02:10      64.9      64.1       78     57.4      0.00      0.00      79.1     0.34      1012.6     0.9     SSE   162   2.0      SE   140   9.76    270      -64.1
   07/12/2019 02:00      65.5      64.7       77     57.8      0.00      0.00      79.1     0.34      1012.8     0.5     SSE   166   1.5       S   191   9.76    271      -64.3
   07/12/2019 01:50      65.6      64.8       76     57.3      0.00      0.00      79.1     0.34      1012.9     1.1     SSW   199   2.0      SW   220   9.76    271      -63.7
   07/12/2019 01:40      66.4      65.2       75     57.8      0.00      0.00      79.1     0.34      1013.0     1.3     SSW   204   2.1      SW   220   9.76    271      -63.1
   07/12/2019 01:30      66.7      66.1       74     58.0      0.00      0.00      79.1     0.34      1013.0     0.0       S   186   0.7       S   184   9.76    271      -64.7
   07/12/2019 01:20      67.5      66.4       73     57.8      0.00      0.00      79.1     0.34      1013.1     0.1      SE   130   1.0     ESE   115   9.76    270      -66.6
   07/12/2019 01:10      67.8      67.2       72     58.1      0.00      0.00      79.2     0.34      1013.1     0.6      SE   126   1.4     ESE   107   9.76    270      -68.6
   07/12/2019 01:00      67.9      67.5       71     58.1      0.00      0.00      79.1     0.34      1013.2     0.6     ESE   118   1.6     ENE    63   9.76    270      -69.9
   07/12/2019 00:50      68.4      67.6       70     57.7      0.00      0.00      79.2     0.34      1013.2     0.4     ESE   103   2.0     ESE   110   9.76    269      -68.8
   07/12/2019 00:40      68.8      68.3       69     58.0      0.00      0.00      79.2     0.34      1013.2     0.6     ESE   120   1.8      SE   136   9.76    269      -69.6
   07/12/2019 00:30      68.9      68.5       69     58.1      0.00      0.00      79.2     0.34      1013.3     0.6     ESE   116   2.1       E    80   9.77    269      -70.6
   07/12/2019 00:20      68.9      68.3       69     58.0      0.00      0.00      79.2     0.34      1013.3     0.6       E    98   2.1       E    91   9.77    268      -70.1
   07/12/2019 00:10      68.7      68.2       69     57.7      0.00      0.00      79.2     0.34      1013.4     0.5     ESE   110   1.6       E    83   9.77    269      -68.8
   07/12/2019 00:00      69.1      68.5       67     57.5      0.00      0.00      79.2     0.34      1013.4     0.2      SE   138   1.4     SSE   150   9.77    268      -68.5
   07/11/2019 23:50      69.9      68.9       65     57.0      0.00      0.00      79.2     0.34      1013.4     0.3     ESE   109   1.1     ENE    60   9.77    268      -68.0
   07/11/2019 23:40      70.2      69.6       64     57.1      0.00      0.00      79.3     0.34      1013.4     0.2     ENE    78   0.7     ESE   106   9.77    268      -66.7
   07/11/2019 23:30      70.5      69.8       62     56.3      0.00      0.00      79.3     0.34      1013.4     0.1     SSW   209   0.7      SW   217   9.77    267      -66.7
   07/11/2019 23:20      71.3      70.3       59     55.4      0.00      0.00      79.3     0.34      1013.5     0.1      SE   142   0.8      SE   128   9.78    267      -70.4
   07/11/2019 23:10      71.0      70.5       55     53.8      0.00      0.00      79.2     0.34      1013.4     0.2     SSW   193   1.4       S   189   9.78    266      -70.3
   07/11/2019 23:00      71.2      70.5       48     50.0      0.00      0.00      79.2     0.34      1013.4     0.2       E    97   1.9       E    98   9.78    266      -72.2
   07/11/2019 22:50      72.0      71.1       44     48.6      0.00      0.00      79.3     0.34      1013.4     0.6     SSE   157   2.1      SE   138   9.78    266      -72.1
   07/11/2019 22:40      72.3      71.6       44     48.6      0.00      0.00      79.2     0.34      1013.5     0.2     SSW   198   0.9      SW   234   9.78    266      -72.6
   07/11/2019 22:30      73.5      71.8       43     48.7      0.00      0.00      79.2     0.34      1013.5     0.7       S   172   1.8       S   189   9.79    266      -73.9
   07/11/2019 22:20      75.1      73.2       40     48.5      0.00      0.00      79.2     0.34      1013.4     0.5     ESE   114   1.8     ENE    69   9.79    265      -78.4
   07/11/2019 22:10      76.0      74.9       38     48.2      0.00      0.00      79.2     0.34      1013.3     0.6       E    95   2.4     ENE    62   9.79    265      -80.0
   07/11/2019 22:00      76.3      75.7       38     48.2      0.00      0.00      79.2     0.34      1013.3     1.6     SSW   198   3.7      SW   217   9.79    265      -80.6
   07/11/2019 21:50      76.9      76.2       37     48.1      0.00      0.00      79.2     0.34      1013.2     0.7     SSW   195   3.1      SW   216   9.80    264      -84.1
   07/11/2019 21:40      77.2      76.5       37     48.5      0.00      0.00      79.2     0.34      1013.1     2.5     SSW   204   5.3       W   263   9.80    265      -85.6
   07/11/2019 21:30      77.2      76.8       37     48.9      0.00      0.00      79.2     0.34      1013.1     3.8     SSW   212   6.6     SSW   204   9.80    265      -86.2
   07/11/2019 21:20      77.6      76.9       38     49.9      0.00      0.00      79.1     0.34      1013.0     5.2     SSW   204   8.0      SW   218   9.81    265      -87.1
   07/11/2019 21:10      78.2      77.3       39     50.6      0.00      0.00      79.1     0.34      1012.9     4.0     SSW   202   6.9      SW   226   9.81    265      -88.2
   07/11/2019 21:00      78.7      77.9       39     51.0      0.00      0.00      79.1     0.34      1012.9     3.6     SSW   209   7.2     SSW   207   9.82    265      -88.8
   07/11/2019 20:50      79.4      78.4       38     51.3      0.00      0.00      79.0     0.34      1012.9     3.2      SW   229   6.7     WSW   252   9.82    264      -89.6
   07/11/2019 20:40      80.1      79.1       38     51.8      0.00      0.00      79.0     0.34      1012.8     5.2     WSW   243   8.2     WSW   242   9.82    264      -90.0
   07/11/2019 20:30      81.0      79.8       37     51.4      0.00      0.00      79.0     0.34      1012.9     5.3     WSW   239   8.6     WSW   251   9.83    264      -90.6
   07/11/2019 20:20      81.9      80.7       36     51.4      0.00      0.00      79.0     0.34      1012.8     4.6     WSW   236   6.6      SW   214   9.84    264      -90.7
   07/11/2019 20:10      83.0      81.5       34     51.2      0.00      0.00      79.0     0.34      1012.9     4.2     WSW   239   7.4      SW   236   9.84    264      -89.3
   07/11/2019 20:00      84.5      82.6       32     50.7      0.00      0.00      78.9     0.34      1013.0     3.7     WSW   237   6.6      SW   229   9.85    264      -86.9
   07/11/2019 19:50      85.9      84.1       30     49.9      0.00      0.00      78.9     0.34      1013.0     2.7     WSW   253   5.9     WSW   253   9.85    264      -84.7
   07/11/2019 19:40      86.4      85.6       29     50.5      0.00      0.00      78.9     0.34      1013.1     2.4       W   268   6.2       W   275   9.86    264      -71.4
   07/11/2019 19:30      87.2      86.0       29     50.9      0.00      0.00      78.8     0.34      1013.0     3.6     WSW   257   6.4     WSW   249   9.86    264      -52.8
   07/11/2019 19:20      88.1      86.8       29     51.3      0.00      0.00      78.8     0.34      1012.9     3.4       W   265   6.2     WSW   250   9.87    264      -34.0
   07/11/2019 19:10      88.9      87.8       28     51.2      0.00      0.00      78.7     0.34      1012.9     3.3     WNW   283   6.7     WSW   257   9.87    264      -12.8
   07/11/2019 19:00      89.6      88.6       27     50.7      0.00      0.00      78.7     0.34      1012.9     3.3       W   269   6.9     WSW   256   9.88    264       11.2
   07/11/2019 18:50      90.2      89.4       26     50.5      0.00      0.00      78.7     0.34      1012.9     2.8     WNW   289   7.0     WSW   247   9.88    264       35.5
   07/11/2019 18:40      90.8      89.9       26     50.7      0.00      0.00      78.7     0.34      1012.9     3.6       W   266   6.2     WNW   302   9.89    264       59.6
   07/11/2019 18:30      91.1      90.2       26     50.8      0.00      0.00      78.6     0.34      1012.9     4.1       W   268   7.5     WSW   245   9.90    264       84.2
   07/11/2019 18:20      91.6      90.6       26     50.7      0.00      0.00      78.6     0.34      1012.9     4.1       W   271   7.9      SW   232   9.90    264      109.9
   07/11/2019 18:10      92.1      91.1       26     51.7      0.00      0.00      78.5     0.34      1012.9     4.0       W   270   7.8     WSW   258   9.91    264      134.4
   07/11/2019 18:00      92.2      91.7       24     49.8      0.00      0.00      78.5     0.34      1012.9     3.5     WNW   288   8.9     WSW   241   9.91    263      158.4
   07/11/2019 17:50      92.1      91.3       24     50.1      0.00      0.00      78.4     0.34      1012.9     3.7     WNW   304   9.5      NW   306   9.92    263      183.5
   07/11/2019 17:40      92.8      91.4       25     50.8      0.00      0.00      78.3     0.34      1013.1     3.3      NW   306   7.3      NW   322   9.93    264      208.6
   07/11/2019 17:30      92.8      92.1       25     51.5      0.00      0.00      78.3     0.34      1013.1     3.3      NW   309   8.1      SW   235   9.93    264      234.9
   07/11/2019 17:20      93.3      91.9       25     51.9      0.00      0.00      78.3     0.34      1013.1     3.2      NW   314   7.7      NW   309   9.94    264      259.5
   07/11/2019 17:10      93.5      92.8       25     52.4      0.00      0.00      78.2     0.34      1013.2     3.6     WNW   297   7.6      NW   323   9.94    264      285.1
   07/11/2019 17:00      93.8      93.0       25     52.1      0.00      0.00      78.2     0.34      1013.1     4.0     WNW   304   8.3      NW   305   9.95    264      308.4
   07/11/2019 16:50      94.1      93.3       24     51.5      0.00      0.00      78.1     0.34      1013.1     3.5      NW   304   7.6     WNW   283   9.95    264      332.2
   07/11/2019 16:40      94.1      93.1       24     51.0      0.00      0.00      78.0     0.34      1013.1     3.9      NW   308  10.5       N   349   9.96    264      354.7
   07/11/2019 16:30      95.5      93.3       23     50.7      0.00      0.00      78.0     0.34      1013.2     4.7      NW   311   8.7       N    11   9.97    263      375.5
   07/11/2019 16:20      95.8      94.7       23     51.0      0.00      0.00      77.9     0.34      1013.3     3.8      NW   314   8.3      NW   310   9.97    264      395.5
   07/11/2019 16:10      95.7      94.7       23     51.4      0.00      0.00      77.9     0.34      1013.4     4.2     WNW   297   8.5       W   276   9.98    264      415.6
   07/11/2019 16:00      95.5      94.4       26     54.7      0.00      0.00      77.8     0.34      1013.4     3.7     WSW   247   8.6     WNW   291   9.99    264      437.1
   07/11/2019 15:50      94.6      93.3       29     57.2      0.00      0.00      77.8     0.34      1013.5     3.5       S   178   7.4     SSW   211   9.99    264      459.3
   07/11/2019 15:40      94.1      92.5       29     56.0      0.00      0.00      77.7     0.34      1013.6     4.0       S   174   8.3       S   174  10.00    264      479.9
   07/11/2019 15:30      93.1      92.1       28     54.9      0.00      0.00      77.7     0.34      1013.7     4.7     SSE   155   8.7       S   171  10.00    264      497.1
   07/11/2019 15:20      93.8      92.2       28     54.7      0.00      0.00      77.6     0.34      1013.9     4.8       S   188  10.1       S   186  10.01    264      511.3
   07/11/2019 15:10      93.3      92.7       29     55.9      0.00      0.00      77.5     0.34      1013.9     4.9       S   175   9.1       S   175  10.02    264      527.7
   07/11/2019 15:00      94.4      92.1       29     56.5      0.00      0.00      77.5     0.34      1013.9     5.4       S   179   9.0       S   187  10.02    264      541.0
   07/11/2019 14:50      94.6      92.9       30     57.5      0.00      0.00      77.4     0.34      1014.0     3.8       S   171   7.4       S   176  10.03    264      550.4
   07/11/2019 14:40      94.2      93.3       31     58.2      0.00      0.00      77.2     0.34      1014.0     3.8     ESE   112   6.9     ENE    72  10.03    264      565.4
   07/11/2019 14:30      95.3      93.5       31     59.4      0.00      0.00      77.3     0.34      1014.0     3.6     ENE    74   6.9       E    98  10.04    264      568.5
   07/11/2019 14:20      97.4      95.0       27     56.6      0.00      0.00      77.1     0.34      1014.0     3.4     ENE    70   6.6      NE    42  10.04    264      574.5
   07/11/2019 14:10      98.5      96.8       21     51.1      0.00      0.00      77.2     0.34      1014.1     2.0     NNE    33   6.3     ENE    62  10.05    263      580.3
   07/11/2019 14:00      98.1      96.3       21     50.5      0.00      0.00      77.2     0.34      1014.3     1.6      NW   314   3.2       N     4  10.05    263      588.0
   07/11/2019 13:50      96.9      95.4       21     50.2      0.00      0.00      77.0     0.34      1014.4     2.4     NNE    29   5.7       N     8  10.06    263      595.1
   07/11/2019 13:40      95.3      94.4       21     49.3      0.00      0.00      77.0     0.34      1014.5     2.0     WNW   294   4.4      SW   225  10.06    263      607.0
   07/11/2019 13:30      95.1      92.9       21     48.5      0.00      0.00      77.0     0.34      1014.6     2.5     SSE   165   5.8      SW   216  10.06    263      614.7
   07/11/2019 13:20      94.8      93.1       21     48.5      0.00      0.00      76.8     0.34      1014.8     2.9      SE   136   6.8      SE   128  10.07    263      617.2
   07/11/2019 13:10      94.8      93.8       22     49.1      0.00      0.00      76.8     0.34      1014.9     1.4       N     6   3.6     NNE    18  10.08    263      614.6
   07/11/2019 13:00      94.2      93.0       22     48.5      0.00      0.00      76.7     0.34      1015.2     1.7       N     4   4.8     NNE    15  10.08    263      615.8
   07/11/2019 12:50      92.9      91.3       23     48.8      0.00      0.00      76.7     0.34      1015.3     1.6     WNW   290   4.8     WSW   255  10.08    263      617.9
   07/11/2019 12:40      91.5      89.9       26     51.2      0.00      0.00      76.7     0.34      1015.5     1.8       N   350   4.6       N     8  10.08    263      616.7
   07/11/2019 12:30      90.0      89.2       28     52.6      0.00      0.00      76.7     0.34      1015.6     2.2      NE    41   4.3      NE    40  10.09    264      613.9
   07/11/2019 12:20      89.5      88.5       29     52.9      0.00      0.00      76.7     0.34      1015.6     2.0       E    98   4.3      SE   137  10.09    263      614.3
   07/11/2019 12:10      89.3      87.2       31     53.6      0.00      0.00      76.7     0.34      1015.8     2.1      NW   324   4.8       N    10  10.09    264      607.6
   07/11/2019 12:00      88.3      87.3       31     53.4      0.00      0.00      76.6     0.34      1015.9     2.3     NNW   330   4.5      NW   315  10.09    264      598.8
   07/11/2019 11:50      87.8      86.9       32     53.6      0.00      0.00      76.5     0.34      1016.0     1.9     NNE    32   4.0      NE    41  10.09    264      593.2
   07/11/2019 11:40      87.6      86.5       33     54.2      0.00      0.00      76.6     0.34      1016.1     1.3     NNE    19   4.1       N    10  10.10    264      583.5
   07/11/2019 11:30      86.5      84.3       35     54.2      0.00      0.00      76.6     0.34      1016.2     1.3     NNE    33   4.3      NE    55  10.10    264      577.8
   07/11/2019 11:20      85.0      83.5       36     54.3      0.00      0.00      76.6     0.34      1016.3     2.0     SSW   192   4.0     SSW   212  10.10    264      569.1
   07/11/2019 11:10      84.6      83.1       37     54.6      0.00      0.00      76.6     0.34      1016.5     2.2     ENE    69   4.9       E    99  10.10    264      558.0
   07/11/2019 11:00      83.5      81.6       39     55.0      0.00      0.00      76.6     0.34      1016.6     1.7       N     6   4.2     NNE    30  10.10    264      544.2
   07/11/2019 10:50      81.8      80.7       41     55.1      0.00      0.00      76.6     0.34      1016.6     1.8      NW   310   4.9     NNE    30  10.10    264      538.2
   07/11/2019 10:40      81.7      81.0       41     55.3      0.00      0.00      76.7     0.34      1016.7     2.2     NNW   342   4.3     ENE    66  10.10    264      519.8
   07/11/2019 10:30      81.5      80.6       42     55.8      0.00      0.00      76.7     0.34      1016.8     1.4      NE    55   3.8      NE    37  10.11    264      497.5
   07/11/2019 10:20      80.6      78.9       44     55.8      0.00      0.00      76.7     0.34      1016.8     1.7      NE    50   5.3      NW   319  10.11    264      488.7
   07/11/2019 10:10      79.0      78.0       45     55.6      0.00      0.00      76.7     0.34      1016.9     1.6     NNW   346   3.6      NE    53  10.12    265      470.0
   07/11/2019 10:00      78.6      77.6       46     56.0      0.00      0.00      76.7     0.34      1017.0     1.7     ENE    58   3.9      NE    42  10.13    264      452.1
   07/11/2019 09:50      77.8      76.5       48     55.9      0.00      0.00      76.8     0.34      1017.1     1.2      NW   320   3.3     NNW   327  10.16    265      434.2
   07/11/2019 09:40      76.8      75.8       49     55.8      0.00      0.00      76.8     0.34      1017.1     1.7      NE    53   3.3      SE   125  10.19    266      414.2
   07/11/2019 09:30      76.0      75.2       51     56.2      0.00      0.00      76.8     0.34      1017.1     1.3     NNW   342   3.2       N     2  10.22    265      394.3
   07/11/2019 09:20      75.5      73.8       53     56.3      0.00      0.00      76.8     0.34      1017.2     1.2     ENE    68   4.0       E    85  10.25    266      377.1
   07/11/2019 09:10      74.0      72.4       55     56.5      0.00      0.00      76.8     0.34      1017.2     1.0      NE    44   2.6      SE   128  10.29    266      365.5
   07/11/2019 09:00      72.3      70.4       60     56.8      0.00      0.00      77.0     0.34      1017.3     1.1     NNW   339   3.7      NE    48   9.45    266      359.8
   07/11/2019 08:50      70.6      69.6       63     56.7      0.00      0.00      77.0     0.34      1017.4     1.0       N   353   2.6     WNW   302   9.46    268      102.0
   07/11/2019 08:40      70.0      68.9       64     56.5      0.00      0.00      77.0     0.34      1017.4     0.7     NNE    16   2.6       N    11   9.46    269      -13.3
   07/11/2019 08:30      69.0      68.2       65     56.5      0.00      0.00      76.9     0.34      1017.4     1.0     NNE    19   2.4     NNE    31   9.46    270      -20.6
   07/11/2019 08:20      68.3      67.5       67     56.6      0.00      0.00      77.0     0.34      1017.4     1.0     NNE    20   2.4      NE    50   9.46    270      -20.2
   07/11/2019 08:10      67.7      67.2       68     56.3      0.00      0.00      77.1     0.34      1017.4     1.3       E    82   3.2     ENE    73   9.46    270       -8.1
   07/11/2019 08:00      67.5      66.3       69     56.3      0.00      0.00      77.1     0.34      1017.4     0.7     NNE    19   2.6      NW   312   9.46    270       -9.9
   07/11/2019 07:50      66.8      65.7       71     56.5      0.00      0.00      77.2     0.34      1017.3     1.3     NNE    23   3.0     NNE    29   9.46    271      -16.3
   07/11/2019 07:40      66.0      65.1       73     56.7      0.00      0.00      77.2     0.34      1017.3     1.0     NNE    14   2.6       N    10   9.46    271      -14.7
   07/11/2019 07:30      65.4      64.8       74     56.7      0.00      0.00      77.2     0.34      1017.2     0.8     NNE    28   1.9       E    82   9.46    271      -18.6
   07/11/2019 07:20      65.0      64.0       75     56.1      0.00      0.00      77.3     0.34      1017.2     0.2     ENE    68   2.2     ENE    58   9.46    271      -26.9
   07/11/2019 07:10      64.1      62.9       75     55.5      0.00      0.00      77.3     0.34      1017.0     0.5      SE   128   1.5     ESE   118   9.46    271      -26.7
   07/11/2019 07:00      62.9      61.9       77     54.9      0.00      0.00      77.3     0.34      1017.0     0.0       N     0   0.0     SSE   152   9.46    272      -30.7
   07/11/2019 06:50      62.2      61.0       79     55.0      0.00      0.00      77.4     0.34      1017.0     0.0       N     0   0.0     SSE   160   9.46    271      -27.6
   07/11/2019 06:40      61.3      60.5       80     54.5      0.00      0.00      77.4     0.34      1017.0     0.3     SSE   149   0.7     SSE   147   9.46    265      -28.3
   07/11/2019 06:30      60.8      60.4       81     54.6      0.00      0.00      77.5     0.34      1016.9     0.2     SSE   152   0.7     SSE   147   9.46    268      -32.5
   07/11/2019 06:20      60.6      59.9       82     54.7      0.00      0.00      77.5     0.34      1016.8     0.0       N     0   0.0     SSE   150   9.46    272      -26.4
   07/11/2019 06:10      60.1      59.5       83     54.7      0.00      0.00      77.5     0.34      1016.7     0.0     SSE   150   0.5     SSE   150   9.46    238      -31.9
   07/11/2019 06:00      59.7      59.0       84     54.7      0.00      0.00      77.5     0.34      1016.6     0.0     SSE   165   0.4     SSE   165   9.46    249      -37.6
   07/11/2019 05:50      59.1      58.6       84     54.1      0.00      0.00      77.6     0.34      1016.5     0.0     SSE   156   0.4     SSE   152   9.46    247      -42.8
   07/11/2019 05:40      59.9      58.8       84     54.4      0.00      0.00      77.6     0.34      1016.5     0.2     SSE   161   1.0      SE   140   9.46    241      -44.4
   07/11/2019 05:30      60.1      59.5       85     55.1      0.00      0.00      77.7     0.34      1016.5     0.8     SSE   151   1.5     SSE   147   9.46    235      -43.6
   07/11/2019 05:20      60.2      59.6       84     55.0      0.00      0.00      77.7     0.34      1016.5     0.4     SSE   150   1.1     SSE   149   9.46    227      -46.0
   07/11/2019 05:10      60.2      59.7       83     54.8      0.00      0.00      77.7     0.34      1016.4     0.5     SSE   154   1.4     SSE   148   9.46    218      -47.8
   07/11/2019 05:00      60.3      59.9       82     54.7      0.00      0.00      77.8     0.34      1016.4     0.3     SSE   160   0.8     SSE   168   9.46    215      -50.1
   07/11/2019 04:50      60.5      60.0       82     54.5      0.00      0.00      77.8     0.34      1016.4     0.5     SSE   162   0.9     SSE   167   9.46    224      -51.9
   07/11/2019 04:40      60.4      59.8       81     54.2      0.00      0.00      77.8     0.34      1016.3     0.4     SSE   149   1.0     SSE   149   9.47    233      -53.4
   07/11/2019 04:30      60.6      59.7       79     53.4      0.00      0.00      77.8     0.34      1016.2     0.1      SE   145   1.2      SE   142   9.47    239      -55.5
   07/11/2019 04:20      60.9      60.3       78     53.5      0.00      0.00      77.9     0.34      1016.2     0.8     SSE   151   1.2      SE   146   9.47    260      -54.9
   07/11/2019 04:10      61.2      60.4       77     53.3      0.00      0.00      77.9     0.34      1016.1     0.6       S   179   1.1     SSW   196   9.47    262      -55.0
   07/11/2019 04:00      61.2      60.8       75     53.0      0.00      0.00      77.9     0.34      1016.0     0.4       S   174   1.0     SSW   203   9.47    265      -55.1
   07/11/2019 03:50      61.3      60.8       75     53.1      0.00      0.00      78.0     0.34      1016.1     0.0     SSW   195   0.7     SSW   212   9.47    267      -55.3
   07/11/2019 03:40      61.2      60.6       75     52.9      0.00      0.00      78.0     0.34      1015.9     0.1     SSE   148   0.6     SSE   155   9.47    269      -56.3
   07/11/2019 03:30      61.3      60.8       74     52.8      0.00      0.00      78.0     0.34      1015.9     0.5       S   182   1.2       S   178   9.47    269      -55.9
   07/11/2019 03:20      61.7      61.0       72     52.4      0.00      0.00      78.1     0.34      1015.9     0.0     SSE   160   0.6     SSE   147   9.47    270      -56.2
   07/11/2019 03:10      61.9      61.4       72     52.4      0.00      0.00      78.1     0.34      1015.9     0.5     SSE   151   1.1     SSE   154   9.47    271      -56.5
   07/11/2019 03:00      62.3      61.5       71     52.3      0.00      0.00      78.1     0.34      1015.9     0.4     SSE   162   0.9     SSE   156   9.47    270      -57.0
   07/11/2019 02:50      62.4      61.9       70     52.3      0.00      0.00      78.2     0.34      1015.9     0.0     SSE   157   0.9     SSE   159   9.47    271      -56.8
   07/11/2019 02:40      62.2      61.7       70     52.2      0.00      0.00      78.2     0.34      1016.1     0.2     SSE   159   0.9     SSE   153   9.47    270      -57.4
   07/11/2019 02:30      62.8      61.7       67     51.3      0.00      0.00      78.2     0.34      1016.1     0.4      SE   146   1.1      SE   141   9.48    270      -58.0
   07/11/2019 02:20      62.7      62.3       66     51.2      0.00      0.00      78.2     0.34      1016.1     0.3     SSE   168   0.8       S   182   9.48    269      -57.6
   07/11/2019 02:10      63.0      62.4       65     50.9      0.00      0.00      78.2     0.34      1016.1     0.2     SSE   156   0.8     SSE   158   9.48    269      -57.9
   07/11/2019 02:00      63.2      62.8       65     51.0      0.00      0.00      78.3     0.34      1016.1     0.4       S   175   0.9       S   184   9.48    269      -58.3
   07/11/2019 01:50      63.3      62.8       65     51.0      0.00      0.00      78.2     0.34      1016.2     0.3     SSE   157   0.9     SSE   147   9.48    269      -59.1
   07/11/2019 01:40      63.9      62.9       64     50.8      0.00      0.00      78.3     0.34      1016.2     0.4     SSE   162   1.1     SSE   156   9.48    269      -60.0
   07/11/2019 01:30      63.8      63.2       63     50.9      0.00      0.00      78.3     0.34      1016.3     0.5     SSE   154   1.1      SE   146   9.48    269      -59.8
   07/11/2019 01:20      63.6      63.1       64     51.0      0.00      0.00      78.3     0.34      1016.4     0.5       S   171   1.1     SSE   164   9.48    269      -61.2
   07/11/2019 01:10      64.9      63.3       62     50.7      0.00      0.00      78.4     0.34      1016.4     0.4     SSE   164   1.2     SSE   165   9.48    269      -61.2
   07/11/2019 01:00      64.9      64.5       60     50.7      0.00      0.00      78.4     0.34      1016.4     0.4     SSE   159   0.9     SSE   164   9.49    269      -60.4
   07/11/2019 00:50      64.8      63.8       61     50.6      0.00      0.00      78.4     0.34      1016.5     0.9     SSE   150   1.4     SSE   148   9.49    268      -61.9
   07/11/2019 00:40      64.8      63.6       60     50.0      0.00      0.00      78.4     0.34      1016.5     0.8       S   182   1.6       S   191   9.49    268      -62.5
   07/11/2019 00:30      65.0      64.5       59     50.2      0.00      0.00      78.4     0.34      1016.5     0.9       S   177   1.8       S   184   9.49    268      -61.8
   07/11/2019 00:20      64.9      64.4       60     50.2      0.00      0.00      78.4     0.34      1016.6     0.2     SSE   155   1.1       E    97   9.49    268      -63.0
   07/11/2019 00:10      65.5      64.8       59     50.2      0.00      0.00      78.4     0.34      1016.6     0.6     SSE   158   1.6     SSW   196   9.49    268      -63.0
   07/11/2019 00:00      66.0      65.2       57     49.9      0.00      0.00      78.5     0.34      1016.6     0.6       S   171   1.7       S   191   9.49    268      -63.2
   07/10/2019 23:50      66.7      65.5       56     50.0      0.00      0.00      78.5     0.34      1016.7     0.7     SSE   165   1.8       S   182   9.50    267      -63.1
   07/10/2019 23:40      66.8      66.3       55     49.8      0.00      0.00      78.5     0.34      1016.7     0.3     SSE   167   1.1       S   183   9.50    267      -64.3
   07/10/2019 23:30      67.4      66.6       53     49.2      0.00      0.00      78.5     0.34      1016.7     0.7       S   171   1.3     SSW   196   9.50    267      -65.1
   07/10/2019 23:20      67.3      66.9       52     49.2      0.00      0.00      78.5     0.34      1016.8     1.2     SSW   193   1.8       S   186   9.50    267      -65.1
   07/10/2019 23:10      67.5      66.7       54     49.5      0.00      0.00      78.5     0.34      1016.9     0.8     SSW   193   1.4     SSW   192   9.50    267      -66.5
   07/10/2019 23:00      68.5      67.3       52     49.5      0.00      0.00      78.5     0.34      1016.9     0.9      SE   137   2.2      SE   127   9.50    266      -69.3
   07/10/2019 22:50      68.5      67.4       51     49.0      0.00      0.00      78.4     0.34      1016.9     1.6       S   183   2.8      SW   216   9.51    267      -67.8
   07/10/2019 22:40      68.9      67.8       50     49.0      0.00      0.00      78.4     0.34      1016.9     1.0       S   181   1.9     SSW   196   9.51    266      -68.4
   07/10/2019 22:30      69.6      68.5       49     49.1      0.00      0.00      78.5     0.34      1016.9     1.0     SSW   193   2.1     SSW   198   9.51    266      -69.1
   07/10/2019 22:20      69.9      69.1       49     49.3      0.00      0.00      78.4     0.34      1016.9     0.3     SSW   202   1.0     SSW   205   9.51    266      -69.5
   07/10/2019 22:10      71.6      69.6       47     49.2      0.00      0.00      78.4     0.34      1016.8     0.3     ESE   106   1.0     ENE    77   9.52    266      -72.9
   07/10/2019 22:00      72.7      71.3       45     49.3      0.00      0.00      78.4     0.34      1016.8     0.1       S   183   0.9      SW   223   9.52    266      -75.5
   07/10/2019 21:50      72.9      72.3       44     49.4      0.00      0.00      78.4     0.34      1016.8     1.2      SW   225   2.9      SW   222   9.52    266      -78.9
   07/10/2019 21:40      73.2      72.6       44     49.8      0.00      0.00      78.4     0.34      1016.6     0.5     SSW   205   3.0      SW   225   9.52    266      -80.8
   07/10/2019 21:30      73.3      72.9       44     49.8      0.00      0.00      78.4     0.34      1016.5     2.0     SSW   193   3.8      SW   230   9.53    266      -82.3
   07/10/2019 21:20      74.1      72.9       43     49.7      0.00      0.00      78.4     0.34      1016.4     1.9     SSW   191   5.1      SW   232   9.53    266      -82.0
   07/10/2019 21:10      74.3      73.8       42     49.7      0.00      0.00      78.3     0.34      1016.3     2.2     SSW   207   3.9      SW   225   9.53    266      -83.6
   07/10/2019 21:00      75.1      74.0       41     49.4      0.00      0.00      78.4     0.34      1016.3     1.8      SW   226   5.7      SW   226   9.53    266      -82.5
   07/10/2019 20:50      75.6      74.7       40     49.3      0.00      0.00      78.3     0.34      1016.2     1.8      SW   224   4.8     WSW   244   9.54    265      -85.6
   07/10/2019 20:40      76.2      75.2       40     49.5      0.00      0.00      78.3     0.34      1016.1     1.9     SSW   211   3.7      SW   230   9.54    265      -86.6
   07/10/2019 20:30      77.3      76.0       38     49.2      0.00      0.00      78.3     0.34      1016.2     2.6      SW   228   4.8     WSW   247   9.54    265      -87.7
   07/10/2019 20:20      78.2      77.2       37     49.0      0.00      0.00      78.3     0.34      1016.1     4.0      SW   232   6.7      SW   226   9.55    265      -87.3
   07/10/2019 20:10      79.3      77.8       36     48.9      0.00      0.00      78.2     0.34      1016.1     3.8      SW   227   6.3     WSW   244   9.55    265      -85.8
   07/10/2019 20:00      79.7      78.9       34     48.8      0.00      0.00      78.2     0.34      1016.1     3.3      SW   232   5.6      SW   229   9.55    264      -82.6
   07/10/2019 19:50      81.3      79.6       34     49.4      0.00      0.00      78.2     0.34      1016.0     3.2      SW   229   7.1     WSW   239   9.56    264      -79.2
   07/10/2019 19:40      82.9      80.9       32     48.9      0.00      0.00      78.1     0.34      1015.9     4.3     WSW   252   7.1     WSW   257   9.56    264      -66.7
   07/10/2019 19:30      83.2      82.6       31     49.3      0.00      0.00      78.1     0.34      1015.9     2.6     WNW   287   5.5       W   260   9.57    264      -46.6
   07/10/2019 19:20      84.0      83.0       30     49.3      0.00      0.00      78.0     0.34      1015.8     2.6       W   271   7.4       W   273   9.57    264      -27.4
   07/10/2019 19:10      84.0      83.3       31     49.7      0.00      0.00      78.0     0.34      1015.8     2.5     WNW   291   5.0     WSW   252   9.58    264       -7.3
   07/10/2019 19:00      84.5      83.6       30     49.1      0.00      0.00      78.0     0.34      1015.8     2.9     WNW   300   7.0     WNW   299   9.58    264       15.5
   07/10/2019 18:50      84.9      84.1       29     48.6      0.00      0.00      78.0     0.34      1015.7     3.9     WNW   303   7.8      NW   310   9.59    264       39.2
   07/10/2019 18:40      85.0      84.4       31     50.4      0.00      0.00      77.9     0.34      1015.7     3.5     WNW   295   8.5     NNW   332   9.59    264       63.7
   07/10/2019 18:30      85.7      84.6       30     50.7      0.00      0.00      77.9     0.34      1015.7     3.6     WNW   301   8.2       W   275   9.59    264       88.8
   07/10/2019 18:20      86.2      85.2       29     50.2      0.00      0.00      77.9     0.34      1015.6     4.6      NW   308   8.5     WNW   284   9.60    264      115.8
   07/10/2019 18:10      87.2      85.9       30     51.1      0.00      0.00      77.7     0.34      1015.6     4.3     WNW   301   8.7      NW   305   9.61    264      139.5
   07/10/2019 18:00      87.4      86.7       28     50.3      0.00      0.00      77.7     0.34      1015.6     3.7     WNW   302   7.6       W   277   9.61    264      162.1
   07/10/2019 17:50      88.9      87.0       28     50.1      0.00      0.00      77.7     0.34      1015.6     3.6      NW   311   7.2      NW   317   9.62    264      186.8
   07/10/2019 17:40      89.3      88.7       27     50.3      0.00      0.00      77.7     0.34      1015.6     3.1     WNW   302   6.8     WSW   250   9.62    264      211.4
   07/10/2019 17:30      89.0      88.1       27     50.3      0.00      0.00      77.6     0.34      1015.7     3.1      NW   310   9.6     NNW   331   9.63    264      237.5
   07/10/2019 17:20      89.2      88.4       27     50.5      0.00      0.00      77.6     0.34      1015.7     4.4     WNW   297   7.8      NW   307   9.63    264      263.5
   07/10/2019 17:10      90.4      88.6       27     51.3      0.00      0.00      77.5     0.34      1015.7     5.4      NW   307   9.6     WNW   301   9.64    264      287.6
   07/10/2019 17:00      90.3      89.6       27     51.5      0.00      0.00      77.5     0.34      1015.8     3.5      NW   309   9.3       W   278   9.64    264      307.4
   07/10/2019 16:50      90.8      89.5       27     51.6      0.00      0.00      77.4     0.34      1015.8     4.2      NW   307   7.8     NNE    22   9.65    264      330.3
   07/10/2019 16:40      91.4      90.3       26     51.1      0.00      0.00      77.4     0.34      1015.8     3.5     NNW   336   6.7      NW   323   9.65    264      350.1
   07/10/2019 16:30      91.8      90.8       26     51.6      0.00      0.00      77.3     0.34      1015.8     4.5     WNW   292   9.6     WNW   284   9.65    264      375.6
   07/10/2019 16:20      92.7      91.4       27     53.1      0.00      0.00      77.3     0.34      1015.9     4.3       W   281   8.9       W   276   9.66    264      392.1
   07/10/2019 16:10      93.5      92.4       27     53.8      0.00      0.00      77.2     0.34      1016.0     4.0     WNW   296   8.7       W   270   9.66    264      413.1
   07/10/2019 16:00      93.3      92.3       27     54.1      0.00      0.00      77.2     0.34      1016.0     3.9      NW   304   9.3       W   276   9.67    264      433.1
   07/10/2019 15:50      92.8      91.9       28     54.6      0.00      0.00      77.1     0.34      1016.1     2.0       W   271   7.0      NW   305   9.67    264      448.3
   07/10/2019 15:40      92.7      91.2       29     54.8      0.00      0.00      77.0     0.34      1016.1     3.4       W   260  10.8      SW   215   9.67    264      469.8
   07/10/2019 15:30      92.9      91.9       29     55.3      0.00      0.00      77.0     0.34      1016.1     3.8     ESE   114   8.4     WSW   238   9.68    264      489.1
   07/10/2019 15:20      92.2      91.3       29     55.2      0.00      0.00      76.9     0.34      1016.2     3.3     SSW   192   7.8       S   184   9.68    264      505.7
   07/10/2019 15:10      92.4      91.0       29     55.3      0.00      0.00      76.9     0.34      1016.3     2.9     SSE   152   6.0     ESE   103   9.68    264      519.1
   07/10/2019 15:00      91.9      90.6       30     55.6      0.00      0.00      76.7     0.34      1016.4     3.6       E    81   7.9      NE    45   9.69    265      532.3
   07/10/2019 14:50      91.7      90.7       31     56.2      0.00      0.00      76.7     0.34      1016.5     3.0     ENE    76   6.8     ENE    58   9.69    264      548.6
   07/10/2019 14:40      90.8      89.7       33     57.1      0.00      0.00      76.7     0.34      1016.5     2.6     ESE   113   6.9     ENE    75   9.69    265      563.6
   07/10/2019 14:30      90.8      89.6       34     58.1      0.00      0.00      76.7     0.34      1016.7     3.1       E    79   5.4     ENE    67   9.70    265      574.6
   07/10/2019 14:20      91.4      89.9       34     58.9      0.00      0.00      76.6     0.34      1016.7     3.1     ENE    74   6.8     ESE   108   9.70    264      579.6
   07/10/2019 14:10      91.3      89.4       35     58.9      0.00      0.00      76.4     0.34      1016.8     2.5     ENE    76   6.4       E   100   9.70    264      590.0
   07/10/2019 14:00      89.8      88.6       36     58.5      0.00      0.00      76.5     0.34      1016.9     2.8     ESE   106   9.3      SE   125   9.70    265      602.0
   07/10/2019 13:50      90.8      89.4       34     57.9      0.00      0.00      76.4     0.34      1016.9     3.1       E    96   7.4     ESE   120   9.70    264      603.5
   07/10/2019 13:40      91.3      89.8       33     57.1      0.00      0.00      76.4     0.34      1017.0     2.0      NE    55   6.7     ESE   105   9.71    264      606.7
   07/10/2019 13:30      90.0      89.3       33     56.9      0.00      0.00      76.3     0.34      1017.1     1.7      NE    43   4.2      NE    52   9.71    264      612.9
   07/10/2019 13:20      89.7      88.1       35     57.9      0.00      0.00      76.1     0.34      1017.2     3.3     ENE    62   6.7      NE    51   9.71    264      615.0
   07/10/2019 13:10      89.9      88.7       33     56.8      0.00      0.00      76.2     0.34      1017.2     2.6     ENE    57   5.2      NE    40   9.71    264      617.8
   07/10/2019 13:00      89.6      87.3       33     55.5      0.00      0.00      76.2     0.34      1017.2     2.3       E    81   4.6      SE   125   9.71    264      622.6
   07/10/2019 12:50      88.1      87.2       32     53.8      0.00      0.00      76.0     0.34      1017.4     1.9     ENE    70   3.7     NNE    15   9.71    264      622.0
   07/10/2019 12:40      88.1      86.7       32     53.8      0.00      0.00      76.0     0.34      1017.5     2.2      NE    38   5.1     NNW   337   9.72    264      617.9
   07/10/2019 12:30      87.1      86.5       32     53.4      0.00      0.00      76.0     0.34      1017.6     2.4       N     4   7.9     NNW   337   9.72    264      586.6
   07/10/2019 12:20      87.7      86.2       32     53.5      0.00      0.00      76.0     0.34      1017.7     2.7       E    87   5.2       E    87   9.72    264      613.9
   07/10/2019 12:10      87.6      86.5       32     53.5      0.00      0.00      76.0     0.34      1017.7     2.2       N   352   5.0       N   353   9.72    264      605.3
   07/10/2019 12:00      86.8      85.0       33     53.1      0.00      0.00      76.0     0.34      1017.8     1.5     NNW   338   3.4     NNW   348   9.72    264      602.4
   07/10/2019 11:50      85.1      83.7       33     52.5      0.00      0.00      76.0     0.34      1017.8     1.9     NNW   342   5.5      NW   322   9.72    264      596.8
   07/10/2019 11:40      84.4      83.3       34     52.6      0.00      0.00      75.9     0.34      1017.8     1.8     NNE    18   4.4      NE    41   9.72    264      590.0
   07/10/2019 11:30      83.4      82.5       35     52.8      0.00      0.00      76.0     0.34      1017.8     2.3       E    85   5.1     ENE    67   9.72    264      582.1
   07/10/2019 11:20      83.2      82.3       38     54.3      0.00      0.00      76.0     0.34      1017.9     1.6       E    79   3.1      SW   228   9.72    264      572.9
   07/10/2019 11:10      82.4      80.3       40     54.9      0.00      0.00      76.0     0.34      1018.0     1.3     ESE   117   3.7     ENE    62   9.72    264      560.6
   07/10/2019 11:00      81.1      79.9       42     55.0      0.00      0.00      76.0     0.34      1018.1     1.9      SE   129   3.8       E    94   9.72    264      549.6
   07/10/2019 10:50      80.9      78.9       44     55.7      0.00      0.00      76.0     0.34      1018.1     1.7     NNE    17   4.3       N   352   9.72    264      533.4
   07/10/2019 10:40      79.3      78.4       45     55.7      0.00      0.00      76.0     0.34      1018.2     1.5     ENE    60   3.4     ENE    61   9.72    264      521.5
   07/10/2019 10:30      78.7      77.6       46     55.6      0.00      0.00      76.0     0.34      1018.2     1.3       N   352   2.8       W   281   9.72    265      503.2
   07/10/2019 10:20      78.0      76.7       48     55.8      0.00      0.00      76.0     0.34      1018.2     1.3     NNE    13   3.6     ENE    59   9.72    265      488.6
   07/10/2019 10:10      77.5      76.0       49     56.1      0.00      0.00      76.0     0.34      1018.2     1.6     ENE    61   3.8       E    80   9.73    266      471.1
   07/10/2019 10:00      76.4      75.0       51     56.2      0.00      0.00      76.0     0.34      1018.3     1.6     NNW   345   3.6     WSW   244   9.73    265      452.8
   07/10/2019 09:50      75.3      73.7       53     56.1      0.00      0.00      76.1     0.34      1018.3     1.7     WNW   302   3.5       W   273   9.73    266      433.4
   07/10/2019 09:40      74.0      73.2       54     56.0      0.00      0.00      76.1     0.34      1018.4     1.6       N   351   4.1     NNE    33   9.73    266      415.2
   07/10/2019 09:30      74.0      72.5       54     55.8      0.00      0.00      76.2     0.34      1018.5     1.1      NE    56   3.6     ENE    74   9.73    266      396.0
   07/10/2019 09:20      72.8      71.8       56     55.8      0.00      0.00      76.2     0.34      1018.6     1.3       E    94   2.6     ESE   108   9.73    266      378.0
   07/10/2019 09:10      72.5      70.8       58     56.1      0.00      0.00      76.2     0.34      1018.6     1.2     ENE    63   3.0     ENE    73   9.73    266      360.3
   07/10/2019 09:00      70.9      68.7       62     56.2      0.00      0.00      76.2     0.34      1018.7     0.9     WNW   293   3.0     WSW   249   9.73    267      356.9
   07/10/2019 08:50      68.9      67.6       66     56.3      0.00      0.00      76.3     0.34      1018.6     1.1     WNW   283   3.2     WNW   283   9.73    269       97.3
   07/10/2019 08:40      67.8      66.6       68     56.4      0.00      0.00      76.3     0.34      1018.6     0.8       E    94   3.3      SE   143   9.73    270       -6.5
   07/10/2019 08:30      67.0      65.8       70     56.3      0.00      0.00      76.3     0.34      1018.6     0.4     NNW   330   1.7      NW   312   9.73    271      -16.7
   07/10/2019 08:20      66.0      65.6       72     56.3      0.00      0.00      76.4     0.34      1018.6     1.1     NNW   340   2.4      NW   322   9.73    271      -19.1
   07/10/2019 08:10      65.8      65.1       73     56.6      0.00      0.00      76.4     0.34      1018.5     0.7     NNE    20   2.2      NE    39   9.73    271       -4.4
   07/10/2019 08:00      65.2      64.0       75     56.5      0.00      0.00      76.5     0.34      1018.4     0.7     SSE   146   1.9      SE   126   9.73    271       -8.0
   07/10/2019 07:50      64.2      63.6       77     56.4      0.00      0.00      76.5     0.34      1018.4     1.1     NNE    13   2.8     NNE    20   9.73    272        8.4
   07/10/2019 07:40      63.8      63.3       77     56.3      0.00      0.00      76.5     0.34      1018.3     0.9       N   358   2.6       N     0   9.73    272       20.6
   07/10/2019 07:30      63.5      62.8       79     56.4      0.00      0.00      76.5     0.34      1018.3     1.0     ENE    78   2.1     ENE    72   9.73    272       19.7
   07/10/2019 07:20      63.0      62.0       80     56.3      0.00      0.00      76.6     0.34      1018.3     0.6     ESE   102   2.1       E    88   9.73    271       11.5
   07/10/2019 07:10      62.1      61.3       82     56.2      0.00      0.00      76.6     0.34      1018.2     0.2      SE   142   1.3      SE   145   9.74    269       12.6
   07/10/2019 07:00      61.5      60.4       84     56.2      0.00      0.00      76.6     0.34      1018.2     0.1     SSW   197   0.7     SSW   196   9.74    297        6.3
   07/10/2019 06:50      60.6      59.4       87     56.0      0.00      0.00      76.7     0.34      1018.2     0.0       N     0   0.0       S   170   9.74    310        3.6
   07/10/2019 06:40      59.7      58.8       88     55.7      0.00      0.00      76.7     0.34      1018.2     0.0       N     0   0.0       S   170   9.74    319       -0.8
   07/10/2019 06:30      58.9      58.1       89     55.1      0.00      0.00      76.7     0.34      1018.2     0.2     SSE   148   0.8     SSE   148   9.74    320       -8.2
   07/10/2019 06:20      58.3      57.7       89     54.5      0.00      0.00      76.8     0.34      1018.2     0.0       S   173   0.7       S   177   9.74    322       -9.8
   07/10/2019 06:10      58.1      57.5       88     54.3      0.00      0.00      76.8     0.34      1018.1     0.2     SSE   166   0.9       S   180   9.74    336      -15.1
   07/10/2019 06:00      58.3      57.7       88     54.4      0.00      0.00      76.8     0.34      1018.1     0.2     SSE   147   0.7      SE   145   9.74    333      -19.8
   07/10/2019 05:50      58.4      57.9       88     54.7      0.00      0.00      76.8     0.34      1018.0     0.0      SE   143   0.0      SE   143   9.74    321      -23.2
   07/10/2019 05:40      58.2      57.7       89     54.7      0.00      0.00      76.9     0.34      1017.9     0.2     SSE   151   0.6     SSE   155   9.74    311      -25.9
   07/10/2019 05:30      58.0      57.4       88     54.1      0.00      0.00      76.9     0.34      1017.8     0.0       S   174   0.5       S   175   9.74    302      -28.8
   07/10/2019 05:20      58.1      57.7       88     54.5      0.00      0.00      77.0     0.34      1017.7     0.6       S   172   1.5       S   181   9.74    294      -29.7
   07/10/2019 05:10      57.9      57.0       88     53.8      0.00      0.00      77.0     0.34      1017.6     0.3     SSE   166   1.0      SE   142   9.74    288      -33.3
   07/10/2019 05:00      58.1      57.4       87     54.0      0.00      0.00      77.0     0.34      1017.5     0.1     SSE   156   1.0      SE   142   9.74    280      -35.3
   07/10/2019 04:50      58.4      57.8       87     54.1      0.00      0.00      77.1     0.34      1017.6     0.5     SSE   168   1.1       S   177   9.74    271      -36.1
   07/10/2019 04:40      58.8      58.2       86     54.3      0.00      0.00      77.1     0.34      1017.5     0.4       S   171   0.9     SSE   155   9.74    264      -38.9
   07/10/2019 04:30      58.9      58.5       86     54.5      0.00      0.00      77.1     0.34      1017.3     0.3     SSE   161   0.8       S   173   9.75    256      -40.9
   07/10/2019 04:20      58.8      58.4       86     54.3      0.00      0.00      77.2     0.34      1017.4     0.2       S   177   0.8     SSW   201   9.75    241      -43.6
   07/10/2019 04:10      59.0      58.3       84     53.8      0.00      0.00      77.2     0.34      1017.3     0.2       S   171   0.9       S   176   9.75    232      -48.0
   07/10/2019 04:00      59.5      58.6       84     54.0      0.00      0.00      77.2     0.34      1017.3     0.3     SSE   158   0.7     SSE   156   9.75    227      -49.0
   07/10/2019 03:50      59.4      58.9       84     54.0      0.00      0.00      77.2     0.34      1017.2     0.0       S   178   0.0       S   178   9.75    222      -51.0
   07/10/2019 03:40      59.6      58.8       83     53.9      0.00      0.00      77.3     0.34      1017.2     0.4     SSE   160   0.8       S   182   9.75    215      -53.1
   07/10/2019 03:30      59.9      59.3       82     54.0      0.00      0.00      77.2     0.34      1017.3     0.5       S   172   1.0       S   176   9.75    215      -53.8
   07/10/2019 03:20      60.3      59.5       80     53.9      0.00      0.00      77.3     0.34      1017.3     1.0       S   188   2.0     SSW   212   9.75    219      -54.9
   07/10/2019 03:10      60.5      59.7       80     54.1      0.00      0.00      77.4     0.34      1017.2     0.0     SSW   200   0.2     SSW   199   9.75    222      -53.4
   07/10/2019 03:00      60.7      59.7       79     53.7      0.00      0.00      77.3     0.34      1017.2     0.2       S   171   1.0     SSW   194   9.75    232      -54.9
   07/10/2019 02:50      60.6      60.2       79     53.7      0.00      0.00      77.4     0.34      1017.1     0.3       S   179   1.0     SSW   198   9.75    243      -54.8
   07/10/2019 02:40      61.2      60.2       77     53.3      0.00      0.00      77.4     0.34      1017.1     0.0     SSE   168   0.6     SSE   161   9.75    255      -55.7
   07/10/2019 02:30      61.1      60.4       77     53.5      0.00      0.00      77.4     0.34      1017.2     0.0       S   171   0.6       S   171   9.76    258      -54.9
   07/10/2019 02:20      61.0      60.5       77     53.4      0.00      0.00      77.5     0.34      1017.2     0.2     SSE   168   0.8     SSE   167   9.76    262      -55.7
   07/10/2019 02:10      61.4      60.5       76     53.3      0.00      0.00      77.5     0.34      1017.2     0.1       S   170   0.6     SSE   163   9.76    265      -57.1
   07/10/2019 02:00      62.2      61.0       74     53.3      0.00      0.00      77.5     0.34      1017.1     0.2     SSE   161   0.7     SSE   158   9.76    269      -57.9
   07/10/2019 01:50      62.0      61.4       74     53.2      0.00      0.00      77.5     0.34      1017.1     0.0     SSE   159   0.6       S   170   9.76    270      -57.7
   07/10/2019 01:40      62.2      61.6       74     53.4      0.00      0.00      77.5     0.34      1017.1     0.2     SSE   164   0.6     SSE   167   9.76    270      -58.7
   07/10/2019 01:30      62.3      61.5       74     53.4      0.00      0.00      77.5     0.34      1017.2     0.5       S   177   0.9       S   183   9.76    271      -58.9
   07/10/2019 01:20      62.2      61.4       75     53.7      0.00      0.00      77.6     0.34      1017.2     0.1       S   170   0.7       S   173   9.77    271      -59.9
   07/10/2019 01:10      62.3      61.8       74     53.7      0.00      0.00      77.5     0.34      1017.1     0.0     SSE   149   0.9      SE   136   9.77    271      -59.7
   07/10/2019 01:00      62.2      61.9       75     54.2      0.00      0.00      77.6     0.34      1017.1     0.5       S   180   1.2     SSE   168   9.77    271      -60.1
   07/10/2019 00:50      62.3      61.6       76     54.3      0.00      0.00      77.6     0.34      1017.1     0.3       S   181   1.3       S   177   9.77    271      -60.5
   07/10/2019 00:40      63.1      62.0       75     54.4      0.00      0.00      77.6     0.34      1017.2     0.4       S   172   1.2       S   180   9.77    271      -61.5
   07/10/2019 00:30      63.6      62.9       73     54.4      0.00      0.00      77.6     0.34      1017.2     0.4       S   179   1.3     SSW   196   9.78    271      -60.9
   07/10/2019 00:20      64.1      63.3       73     54.6      0.00      0.00      77.6     0.34      1017.2     0.6       S   171   2.0       S   185   9.78    271      -61.4
   07/10/2019 00:10      64.1      63.5       72     54.6      0.00      0.00      77.6     0.34      1017.2     1.4     SSW   201   2.0     SSW   209   9.78    271      -60.9
   07/10/2019 00:00      64.1      63.5       73     54.8      0.00      0.00      77.6     0.34      1017.2     0.3      SW   217   1.0     WSW   240   9.78    271      -61.7
   07/09/2019 23:50      64.9      63.9       71     55.1      0.00      0.00      77.5     0.34      1017.2     0.7       S   188   1.6     SSW   210   9.78    271      -62.0
   07/09/2019 23:40      66.0      64.5       70     55.0      0.00      0.00      77.6     0.34      1017.1     1.0       S   190   2.2     WSW   239   9.78    270      -62.9
   07/09/2019 23:30      66.4      65.5       68     55.1      0.00      0.00      77.6     0.34      1017.2     0.9      SW   217   2.0      SW   233   9.79    270      -62.3
   07/09/2019 23:20      66.5      66.1       68     55.3      0.00      0.00      77.7     0.34      1017.1     0.6      SW   231   1.8     WSW   259   9.79    270      -64.2
   07/09/2019 23:10      66.5      65.9       68     55.3      0.00      0.00      77.6     0.34      1017.2     1.1      SW   221   2.3     SSW   206   9.79    269      -65.2
   07/09/2019 23:00      66.7      65.8       67     55.1      0.00      0.00      77.6     0.34      1017.2     0.6     SSW   192   1.5     SSW   207   9.79    269      -66.5
   07/09/2019 22:50      67.0      66.4       67     55.2      0.00      0.00      77.6     0.34      1017.2     1.4      SW   230   3.2     WSW   244   9.80    269      -68.0
   07/09/2019 22:40      67.6      66.7       66     55.2      0.00      0.00      77.6     0.34      1017.2     2.1     WSW   237   3.3     WSW   251   9.80    268      -69.3
   07/09/2019 22:30      68.2      67.3       64     55.3      0.00      0.00      77.6     0.34      1017.3     2.2     WSW   237   4.0     WSW   245   9.80    268      -70.3
   07/09/2019 22:20      68.8      67.8       63     55.3      0.00      0.00      77.6     0.34      1017.2     2.0      SW   230   3.4      SW   222   9.81    268      -70.7
   07/09/2019 22:10      69.1      68.5       62     55.4      0.00      0.00      77.6     0.34      1017.2     1.2       W   266   2.8       W   271   9.81    268      -70.2
   07/09/2019 22:00      69.1      68.5       63     55.4      0.00      0.00      77.5     0.34      1017.1     0.5     WNW   300   2.7      NW   309   9.81    268      -69.3
   07/09/2019 21:50      69.5      68.7       62     55.5      0.00      0.00      77.5     0.34      1017.1     0.0     ESE   124   0.0     ESE   124   9.81    268      -70.7
   07/09/2019 21:40      70.1      69.3       61     55.6      0.00      0.00      77.5     0.34      1017.0     1.1      SW   224   3.2      SW   227   9.82    268      -72.7
   07/09/2019 21:30      70.7      69.9       60     55.6      0.00      0.00      77.5     0.34      1016.9     2.2     WSW   238   4.5     WSW   242   9.82    268      -74.7
   07/09/2019 21:20      71.1      70.4       59     55.7      0.00      0.00      77.5     0.34      1016.9     2.7     WSW   240   4.1      SW   231   9.82    267      -75.8
   07/09/2019 21:10      71.6      70.8       58     55.8      0.00      0.00      77.5     0.34      1016.8     2.8     WSW   241   5.0     WSW   236   9.83    267      -76.9
   07/09/2019 21:00      72.0      71.3       57     55.8      0.00      0.00      77.5     0.34      1016.8     2.4     WSW   238   4.7     WSW   250   9.83    267      -77.3
   07/09/2019 20:50      72.7      71.8       57     55.9      0.00      0.00      77.5     0.34      1016.7     2.5      SW   215   4.4      SW   234   9.83    267      -78.7
   07/09/2019 20:40      73.6      72.3       55     56.0      0.00      0.00      77.4     0.34      1016.6     2.8     SSW   210   4.7      SW   221   9.84    267      -79.4
   07/09/2019 20:30      74.6      73.3       54     56.0      0.00      0.00      77.4     0.34      1016.5     1.6      SW   225   3.3     WSW   239   9.84    267      -80.8
   07/09/2019 20:20      75.2      74.3       52     56.1      0.00      0.00      77.3     0.34      1016.4     2.0     WSW   258   3.6       W   263   9.85    267      -80.8
   07/09/2019 20:10      76.3      75.1       51     56.2      0.00      0.00      77.3     0.34      1016.3     1.9       W   260   3.6       W   266   9.85    266      -79.1
   07/09/2019 20:00      77.2      76.1       50     56.3      0.00      0.00      77.3     0.34      1016.2     2.6     WNW   294   6.0     WNW   299   9.85    266      -75.4
   07/09/2019 19:50      78.1      77.0       48     56.5      0.00      0.00      77.3     0.34      1016.0     3.1       W   272   6.8      SW   216   9.85    266      -70.6
   07/09/2019 19:40      79.4      77.7       47     56.5      0.00      0.00      77.3     0.34      1015.8     3.8       W   263   7.3     WSW   251   9.86    266      -58.9
   07/09/2019 19:30      80.1      79.1       46     56.8      0.00      0.00      77.2     0.34      1015.7     3.6       W   272   7.5       W   271   9.86    266      -41.9
   07/09/2019 19:20      80.6      79.5       45     56.8      0.00      0.00      77.2     0.34      1015.6     3.4      NW   309   7.3      NW   311   9.87    266      -24.0
   07/09/2019 19:10      81.6      80.0       44     56.9      0.00      0.00      77.2     0.34      1015.6     3.2      NW   310   6.5     WNW   293   9.87    266       -4.7
   07/09/2019 19:00      82.6      81.0       43     56.9      0.00      0.00      77.1     0.34      1015.5     2.9      NW   310   7.6     NNW   344   9.88    266       17.9
   07/09/2019 18:50      82.6      81.9       42     56.8      0.00      0.00      77.1     0.34      1015.4     1.7      NW   312   5.2      NW   306   9.88    266       41.6
   07/09/2019 18:40      83.7      81.9       41     56.5      0.00      0.00      77.1     0.34      1015.3     3.7     WNW   282   7.2      NW   314   9.88    266       62.4
   07/09/2019 18:30      83.7      83.3       32     50.6      0.00      0.00      77.0     0.34      1015.3     2.8      SW   218   6.4      SW   230   9.89    265       85.4
   07/09/2019 18:20      84.3      83.3       31     49.8      0.00      0.00      77.0     0.34      1015.2     3.2       S   173   6.0       S   170   9.89    264      111.1
   07/09/2019 18:10      84.2      83.3       32     50.3      0.00      0.00      76.9     0.34      1015.1     2.7     SSE   166   6.0     SSW   193   9.90    265      137.9
   07/09/2019 18:00      84.4      83.3       31     50.3      0.00      0.00      76.9     0.34      1015.1     4.2       S   173   7.1     SSW   195   9.91    265      165.5
   07/09/2019 17:50      84.9      84.0       31     51.0      0.00      0.00      76.8     0.34      1015.1     3.5       S   171   6.9      SE   144   9.91    264      188.7
   07/09/2019 17:40      85.0      84.5       32     51.5      0.00      0.00      76.8     0.34      1015.2     3.7       S   181   7.7     SSE   164   9.92    264      216.8
   07/09/2019 17:30      85.3      84.4       32     51.9      0.00      0.00      76.8     0.34      1015.2     4.0       S   178   9.0      SE   138   9.92    264      243.8
   07/09/2019 17:20      86.0      84.5       32     52.2      0.00      0.00      76.7     0.34      1015.3     3.9       S   178   7.3     SSW   193   9.93    265      271.0
   07/09/2019 17:10      86.1      85.4       33     53.1      0.00      0.00      76.7     0.34      1015.3     3.9     SSW   198   7.3     SSW   195   9.93    265      298.0
   07/09/2019 17:00      85.7      84.9       33     53.3      0.00      0.00      76.6     0.34      1015.2     3.6       S   173   7.0     SSE   161   9.94    265      321.1
   07/09/2019 16:50      86.2      85.1       33     53.3      0.00      0.00      76.6     0.34      1015.3     3.6       S   172   8.0       S   191   9.94    265      341.5
   07/09/2019 16:40      86.1      84.9       33     53.0      0.00      0.00      76.5     0.34      1015.3     4.3       S   187   8.2     SSE   166   9.95    265      363.9
   07/09/2019 16:30      86.2      85.7       32     52.9      0.00      0.00      76.5     0.34      1015.3     4.0       S   180   7.3       S   177   9.95    265      353.1
   07/09/2019 16:20      86.4      85.7       32     53.0      0.00      0.00      76.5     0.34      1015.3     4.4       S   189   8.6       S   182   9.96    265      327.9
   07/09/2019 16:10      88.4      85.7       32     53.1      0.00      0.00      76.4     0.34      1015.3     4.3     SSW   211   8.2       S   189   9.96    265      404.3
   07/09/2019 16:00      88.8      87.7       30     53.0      0.00      0.00      76.3     0.34      1015.3     2.5      NE    53   9.9     SSW   200   9.97    264      440.9
   07/09/2019 15:50      88.8      87.8       31     54.1      0.00      0.00      76.3     0.34      1015.4     2.2       N   355   4.7      SW   214   9.97    265      457.1
   07/09/2019 15:40      88.5      87.2       32     54.2      0.00      0.00      76.3     0.34      1015.4     1.8     ENE    70   5.5       E    95   9.97    265      479.6
   07/09/2019 15:30      89.0      87.7       31     54.2      0.00      0.00      76.2     0.34      1015.5     1.9     ENE    66   7.1      SE   141   9.97    264      495.6
   07/09/2019 15:20      89.1      86.9       32     54.3      0.00      0.00      76.2     0.34      1015.6     1.6      SE   143   5.1      SE   135   9.98    265      511.3
   07/09/2019 15:10      88.2      87.6       32     54.7      0.00      0.00      76.1     0.34      1015.6     2.1     NNE    30   6.8     ENE    76   9.98    265      535.9
   07/09/2019 15:00      87.8      85.7       33     54.7      0.00      0.00      76.1     0.34      1015.7     1.7     WNW   291   4.3     WNW   299   9.98    266      550.6
   07/09/2019 14:50      86.5      85.7       34     54.8      0.00      0.00      76.0     0.34      1015.9     2.5       N     0   5.1      NE    48   9.98    266      565.7
   07/09/2019 14:40      86.2      85.1       35     55.0      0.00      0.00      76.0     0.34      1016.0     2.6       E    86   5.0      NE    47   9.99    266      579.1
   07/09/2019 14:30      86.2      85.1       36     55.4      0.00      0.00      75.9     0.34      1016.2     1.7      SE   137   4.9      SE   134   9.99    265      588.5
   07/09/2019 14:20      85.2      82.8       38     55.4      0.00      0.00      75.9     0.34      1016.3     1.9      NW   325   5.5     NNE    18   9.99    266      604.8
   07/09/2019 14:10      84.6      82.9       38     55.4      0.00      0.00      75.7     0.34      1016.5     2.2      SW   216   5.2      SW   218   9.99    265      619.8
   07/09/2019 14:00      84.4      82.9       38     55.6      0.00      0.00      75.8     0.34      1016.6     2.3      NW   326   6.3       N   349   9.99    266      618.4
   07/09/2019 13:50      84.1      82.5       39     56.0      0.00      0.00      75.8     0.34      1016.6     2.3     NNE    22   4.6       N   355   9.99    266      600.2
   07/09/2019 13:40      82.8      82.1       40     55.8      0.00      0.00      75.7     0.34      1016.8     2.6     NNW   339   5.6       N    10  10.00    266      597.4
   07/09/2019 13:30      82.8      81.2       41     55.9      0.00      0.00      75.7     0.34      1016.9     2.3       N   357   5.9     ENE    64  10.00    265      610.0
   07/09/2019 13:20      82.4      81.1       41     55.9      0.00      0.00      75.6     0.34      1017.0     1.5      NE    38   4.4      NE    47  10.00    266      528.7
   07/09/2019 13:10      82.4      80.6       42     56.2      0.00      0.00      75.6     0.34      1017.0     2.1       N   356   5.1      NE    36  10.00    266      628.0
   07/09/2019 13:00      82.1      80.2       43     56.6      0.00      0.00      75.6     0.34      1017.2     2.2       N     4   5.9     NNE    32  10.00    266      648.5
   07/09/2019 12:50      80.9      79.7       44     56.4      0.00      0.00      75.6     0.34      1017.3     2.4     ENE    59   5.1       E    80  10.00    266      589.5
   07/09/2019 12:40      81.0      79.2       44     56.3      0.00      0.00      75.5     0.34      1017.3     2.2     NNE    12   4.1      NW   310  10.00    266      644.0
   07/09/2019 12:30      80.0      79.0       45     56.2      0.00      0.00      75.5     0.34      1017.3     2.3     NNE    17   6.3     NNE    17  10.01    265      543.2
   07/09/2019 12:20      80.1      79.0       45     56.4      0.00      0.00      75.5     0.34      1017.5     1.8       N    10   5.1     NNE    28  10.02    265      610.9
   07/09/2019 12:10      79.2      77.4       46     56.1      0.00      0.00      75.5     0.34      1017.6     2.3     NNE    21   6.6       N   355  10.02    266      598.4
   07/09/2019 12:00      77.7      75.0       49     55.9      0.00      0.00      75.5     0.34      1017.6     1.8     WSW   254   4.9     WSW   256  10.03    266      586.9
   07/09/2019 11:50      76.3      75.4       50     55.9      0.00      0.00      75.5     0.34      1017.7     1.9     NNE    33   4.0      NW   324  10.03    266      580.0
   07/09/2019 11:40      76.3      75.0       51     56.1      0.00      0.00      75.5     0.34      1017.8     1.5     NNE    18   4.5      NE    34  10.04    266      514.0
   07/09/2019 11:30      76.2      75.2       51     56.1      0.00      0.00      75.5     0.34      1017.9     2.0       N    10   5.2     NNE    26   9.97    266      569.6
   07/09/2019 11:20      75.5      73.5       53     56.0      0.00      0.00      75.4     0.34      1017.9     1.2     NNE    17   3.5       N    10   8.30    266      589.9
   07/09/2019 11:10      73.5      71.9       56     55.6      0.00      0.00      75.5     0.34      1018.0     1.4     ENE    69   3.7     WNW   292   8.30    266      525.2
   07/09/2019 11:00      73.2      72.3       55     55.6      0.00      0.00      75.4     0.34      1018.0     2.3       E    83   6.8       E   100   8.30    266      507.9
   07/09/2019 10:50      72.7      72.0       55     55.5      0.00      0.00      75.5     0.34      1018.1     2.4     ENE    72   4.8     ENE    57   8.30    266      498.5
   07/09/2019 10:40      72.8      71.8       56     55.7      0.00      0.00      75.5     0.34      1018.2     1.7      NE    56   5.4      NE    52   8.30    266      531.0
   07/09/2019 10:30      72.0      70.7       57     55.7      0.00      0.00      75.5     0.34      1018.1     1.9     NNE    32   4.0       N     7   8.31    266      482.3
   07/09/2019 10:20      70.6      69.0       60     55.4      0.00      0.00      75.5     0.34      1018.0     1.1     NNW   347   3.0       N   351   8.31    266      467.5
   07/09/2019 10:10      69.7      68.9       60     55.0      0.00      0.00      75.5     0.34      1018.0     1.7       W   277   4.1       W   263   8.31    267      434.4
   07/09/2019 10:00      69.7      67.8       62     55.3      0.00      0.00      75.5     0.34      1018.1     1.0     NNE    12   3.1       N     8   8.31    266      347.2
   07/09/2019 09:50      68.2      67.5       63     54.9      0.00      0.00      75.6     0.34      1018.1     1.8     NNE    13   4.4      NE    47   8.31    268      283.6
   07/09/2019 09:40      68.0      67.4       64     55.0      0.00      0.00      75.6     0.34      1018.1     1.7      NE    48   4.2      NE    44   8.31    268      244.4
   07/09/2019 09:30      67.9      66.7       65     55.1      0.00      0.00      75.6     0.34      1018.2     1.0       N     6   4.0     NNE    17   8.31    268      213.8
   07/09/2019 09:20      66.9      65.8       66     54.7      0.00      0.00      75.6     0.34      1018.2     0.8     ENE    60   3.0     ESE   106   8.31    268      170.2
   07/09/2019 09:10      66.2      65.4       67     54.8      0.00      0.00      75.6     0.34      1018.2     1.8     ENE    65   3.5       E    91   8.31    269      149.8
   07/09/2019 09:00      65.7      64.7       69     54.7      0.00      0.00      75.7     0.34      1018.2     1.7     ENE    70   4.5     ESE   117   8.31    269      129.0
   07/09/2019 08:50      64.9      64.2       71     54.8      0.00      0.00      75.7     0.34      1018.2     1.7     ESE   113   3.8       E    85   8.31    269      114.4
   07/09/2019 08:40      64.6      64.1       71     54.8      0.00      0.00      75.7     0.34      1018.2     2.1      SE   139   5.4     ENE    72   8.31    270       93.1
   07/09/2019 08:30      64.5      63.8       72     54.8      0.00      0.00      75.7     0.34      1018.1     1.8     SSE   154   5.0     SSW   214   8.31    270       83.0
   07/09/2019 08:20      64.1      63.5       73     55.0      0.00      0.00      75.8     0.34      1018.0     1.5      SE   131   4.0      SE   125   8.31    270       57.5
   07/09/2019 08:10      63.8      63.3       74     55.0      0.00      0.00      75.7     0.34      1018.0     1.5      SE   146   3.8      SE   140   8.31    270       55.1
   07/09/2019 08:00      63.6      63.2       74     55.0      0.00      0.00      75.8     0.34      1017.8     1.8       E    94   4.2     ESE   117   8.31    270       54.5
   07/09/2019 07:50      63.6      63.0       74     55.1      0.00      0.00      75.9     0.34      1017.6     1.7      SE   135   4.9       E    96   8.31    270       56.5
   07/09/2019 07:40      63.3      62.5       75     54.9      0.00      0.00      75.8     0.34      1017.5     1.8      SE   145   3.7     SSE   148   8.31    270       50.4
   07/09/2019 07:30      63.0      62.4       75     54.8      0.00      0.00      75.9     0.34      1017.5     2.4      SE   134   5.1     ESE   110   8.31    271       40.7
   07/09/2019 07:20      62.8      62.0       76     54.8      0.00      0.00      75.9     0.34      1017.5     1.9     ESE   119   4.1       E   100   8.31    271       31.3
   07/09/2019 07:10      62.3      61.7       77     54.9      0.00      0.00      75.8     0.34      1017.4     2.2      SE   143   5.5      SE   143   8.31    271       23.3
   07/09/2019 07:00      62.0      61.3       79     54.9      0.00      0.00      75.9     0.34      1017.4     2.1     ESE   121   4.3     ESE   116   8.31    271       14.5
   07/09/2019 06:50      61.6      61.3       80     55.1      0.00      0.00      75.9     0.34      1017.3     2.4      SE   131   4.3       E    93   8.31    271        7.5
   07/09/2019 06:40      61.6      61.3       80     55.2      0.00      0.00      75.9     0.34      1017.3     2.2       E    98   5.4     ENE    64   8.31    271        1.7
   07/09/2019 06:30      61.8      61.3       80     55.2      0.00      0.00      76.0     0.34      1017.1     2.0     ESE   107   5.1     ESE   114   8.31    271       -1.6
   07/09/2019 06:20      61.8      61.4       79     55.1      0.00      0.00      76.0     0.34      1017.1     1.8     ESE   110   5.2     ENE    59   8.31    271       -5.5
   07/09/2019 06:10      61.8      61.4       79     55.1      0.00      0.00      76.0     0.34      1017.1     1.4     ESE   111   3.3      SE   134   8.31    271       -8.2
   07/09/2019 06:00      62.0      61.4       79     55.0      0.00      0.00      76.1     0.34      1017.1     2.5     ESE   122   5.1      SE   125   8.31    271      -10.0
   07/09/2019 05:50      62.0      61.6       79     55.1      0.00      0.00      76.1     0.34      1017.1     1.7       E    95   4.0     SSW   192   8.32    271      -10.7
   07/09/2019 05:40      62.2      61.7       78     55.0      0.00      0.00      76.1     0.34      1017.0     1.8     ESE   109   4.4      SE   135   8.32    271      -11.7
   07/09/2019 05:30      62.5      61.9       77     55.0      0.00      0.00      76.1     0.34      1017.0     1.6       E    84   3.6       E    91   8.32    271      -11.9
   07/09/2019 05:20      62.5      62.1       77     55.1      0.00      0.00      76.2     0.34      1016.9     0.9     ENE    79   2.8       E    80   8.32    271      -11.9
   07/09/2019 05:10      62.5      62.0       78     55.1      0.00      0.00      76.2     0.34      1016.8     1.4     ENE    65   2.7     ENE    62   8.32    271      -11.7
   07/09/2019 05:00      62.4      62.0       77     55.0      0.00      0.00      76.2     0.34      1016.7     0.9      NE    47   2.3     ENE    59   8.32    271      -11.8
   07/09/2019 04:50      62.3      61.7       77     54.7      0.00      0.00      76.3     0.34      1016.7     0.8     ENE    60   2.1     ENE    63   8.32    271      -11.8
   07/09/2019 04:40      62.1      61.7       76     54.4      0.00      0.00      76.3     0.34      1016.6     0.7     ESE   107   1.6     ESE   117   8.32    271      -11.5
   07/09/2019 04:30      62.0      61.6       76     54.0      0.00      0.00      76.3     0.34      1016.5     0.0     ESE   113   0.6      SE   133   8.32    271      -11.1
   07/09/2019 04:20      62.0      61.4       76     53.8      0.00      0.00      76.3     0.34      1016.5     0.0       N     0   0.0     ENE    59   8.32    271      -10.9
   07/09/2019 04:10      61.7      61.3       76     53.7      0.00      0.00      76.4     0.34      1016.4     0.0       S   189   0.4       S   191   8.32    271      -10.5
   07/09/2019 04:00      61.6      61.0       76     53.6      0.00      0.00      76.4     0.34      1016.5     0.2       E    95   1.3       E   100   8.32    271      -11.0
   07/09/2019 03:50      61.2      60.7       77     53.5      0.00      0.00      76.5     0.34      1016.5     0.1     SSE   168   0.9     SSE   165   8.32    271      -11.6
   07/09/2019 03:40      61.0      60.3       77     53.5      0.00      0.00      76.4     0.34      1016.5     0.3       S   172   1.1     SSW   196   8.32    271      -12.8
   07/09/2019 03:30      60.5      59.8       79     53.5      0.00      0.00      76.5     0.34      1016.5     0.5       S   175   1.6     SSW   198   8.32    271      -13.4
   07/09/2019 03:20      59.9      59.1       81     53.5      0.00      0.00      76.5     0.34      1016.4     0.2       S   171   0.9     SSE   168   8.32    271      -13.0
   07/09/2019 03:10      59.3      58.3       82     53.3      0.00      0.00      76.5     0.34      1016.4     0.4     SSE   168   1.1     SSE   148   8.32    272      -11.7
   07/09/2019 03:00      58.6      57.6       83     52.9      0.00      0.00      76.6     0.34      1016.5     0.6     SSE   168   1.9       S   177   8.32    272      -12.4
   07/09/2019 02:50      58.3      57.6       83     52.5      0.00      0.00      76.6     0.34      1016.5     0.0     SSE   167   0.7     SSE   168   8.32    269      -32.8
   07/09/2019 02:40      58.5      57.9       82     52.8      0.00      0.00      76.6     0.34      1016.5     0.5       S   185   1.4       S   184   8.32    248      -50.1
   07/09/2019 02:30      59.1      58.2       82     53.0      0.00      0.00      76.6     0.34      1016.5     0.6       S   182   1.2       S   187   8.32    242      -53.4
   07/09/2019 02:20      59.6      58.8       82     53.6      0.00      0.00      76.6     0.34      1016.5     0.2       S   191   1.0       S   183   8.32    236      -54.4
   07/09/2019 02:10      59.7      59.0       81     53.6      0.00      0.00      76.7     0.34      1016.6     0.4     SSW   200   1.2     SSW   207   8.32    249      -55.1
   07/09/2019 02:00      59.8      59.3       81     53.6      0.00      0.00      76.7     0.34      1016.7     0.4       S   181   1.0       S   188   8.33    260      -56.2
   07/09/2019 01:50      59.8      59.2       81     53.8      0.00      0.00      76.7     0.34      1016.8     1.0       S   178   1.8       S   183   8.33    269      -46.5
   07/09/2019 01:40      59.4      58.6       82     53.5      0.00      0.00      76.7     0.34      1016.9     1.1       S   183   2.4       S   186   8.33    270      -36.0
   07/09/2019 01:30      59.5      58.8       81     53.4      0.00      0.00      76.7     0.34      1016.8     0.5       S   174   0.8     SSE   162   8.33    265      -45.7
   07/09/2019 01:20      60.0      59.2       80     53.3      0.00      0.00      76.7     0.34      1016.9     0.5       S   187   1.4       S   188   8.33    254      -54.4
   07/09/2019 01:10      60.0      59.4       80     53.5      0.00      0.00      76.7     0.34      1017.0     0.3     SSW   213   0.7      SW   221   8.33    259      -54.5
   07/09/2019 01:00      60.0      59.5       80     53.5      0.00      0.00      76.8     0.34      1017.0     0.0       S   179   0.7       S   181   8.33    262      -55.0
   07/09/2019 00:50      59.7      59.4       79     53.0      0.00      0.00      76.8     0.34      1017.0     0.0       N     0   0.0       E    95   8.33    264      -56.1
   07/09/2019 00:40      59.9      59.4       79     53.1      0.00      0.00      76.8     0.34      1017.0     0.1       E    79   1.0       E    84   8.33    269      -57.2
   07/09/2019 00:30      60.2      59.5       78     52.9      0.00      0.00      76.8     0.34      1017.0     0.0     SSE   150   0.7     SSE   150   8.33    270      -58.1
   07/09/2019 00:20      60.6      59.8       77     52.7      0.00      0.00      76.8     0.34      1017.1     0.9       S   177   1.9       S   184   8.33    271      -57.7
   07/09/2019 00:10      60.7      60.3       76     52.9      0.00      0.00      76.8     0.34      1017.1     1.6     SSW   211   2.0      SW   215   8.33    271      -56.2
   07/09/2019 00:00      61.1      60.5       76     53.2      0.00      0.00      76.8     0.34      1017.1     0.2       S   179   0.9       S   173   8.33    271      -57.1
   07/08/2019 23:50      61.3      60.8       75     53.0      0.00      0.00      76.8     0.34      1017.2     0.0       N     0   0.0      SE   143   8.33    271      -57.9
   07/08/2019 23:40      62.3      61.0       73     52.8      0.00      0.00      76.9     0.34      1017.1     0.4       S   187   1.3     SSW   209   8.34    271      -58.7
   07/08/2019 23:30      62.3      61.9       72     53.1      0.00      0.00      76.9     0.34      1017.1     1.1     SSW   211   1.9     SSW   200   8.34    271      -59.1
   07/08/2019 23:20      62.9      62.0       71     53.0      0.00      0.00      76.9     0.34      1017.1     0.2       S   176   1.3       S   189   8.34    271      -61.1
   07/08/2019 23:10      62.8      62.5       71     53.2      0.00      0.00      76.9     0.34      1017.0     0.7     SSW   201   2.2      SW   226   8.34    270      -62.7
   07/08/2019 23:00      63.0      62.5       71     53.2      0.00      0.00      76.9     0.34      1017.0     1.4     SSW   203   3.0     WSW   245   8.34    270      -63.8
   07/08/2019 22:50      63.3      62.6       71     53.2      0.00      0.00      76.9     0.34      1016.9     1.5     SSW   192   2.9     WSW   252   8.34    270      -64.2
   07/08/2019 22:40      63.4      62.9       70     53.2      0.00      0.00      76.8     0.34      1016.8     1.1     SSW   202   2.4      SW   217   8.34    270      -64.9
   07/08/2019 22:30      63.6      62.9       70     53.2      0.00      0.00      76.9     0.34      1016.8     1.3     SSW   196   2.3     SSW   207   8.34    270      -66.0
   07/08/2019 22:20      63.6      63.3       69     53.2      0.00      0.00      76.9     0.34      1016.7     2.1     SSW   197   4.4       S   191   8.34    269      -67.1
   07/08/2019 22:10      64.1      63.4       69     53.3      0.00      0.00      76.9     0.34      1016.7     2.4     SSW   200   4.3      SW   221   8.34    269      -67.5
   07/08/2019 22:00      64.3      63.7       68     53.3      0.00      0.00      76.9     0.34      1016.6     2.3     SSW   193   5.0       S   181   8.34    269      -67.7
   07/08/2019 21:50      64.6      64.0       67     53.3      0.00      0.00      76.9     0.34      1016.6     2.2     SSW   201   3.4     SSW   210   8.35    269      -67.6
   07/08/2019 21:40      65.2      64.2       67     53.4      0.00      0.00      76.9     0.34      1016.4     1.1     SSW   204   2.1       S   191   8.35    269      -68.0
   07/08/2019 21:30      65.5      64.7       66     53.5      0.00      0.00      76.8     0.34      1016.4     1.2     SSW   201   2.6      SW   214   8.35    268      -69.8
   07/08/2019 21:20      65.8      65.0       66     53.5      0.00      0.00      76.9     0.34      1016.3     1.8     SSW   206   2.9     SSW   209   8.35    268      -71.6
   07/08/2019 21:10      66.1      65.3       65     53.5      0.00      0.00      76.8     0.34      1016.2     1.9     SSW   214   3.8     SSW   193   8.35    268      -72.6
   07/08/2019 21:00      66.8      65.9       63     53.5      0.00      0.00      76.8     0.34      1016.1     2.6     SSW   212   4.9      SW   229   8.36    268      -73.5
   07/08/2019 20:50      67.4      66.4       62     53.6      0.00      0.00      76.8     0.34      1016.0     3.1      SW   231   4.8      SW   236   8.36    268      -74.4
   07/08/2019 20:40      67.9      67.2       61     53.7      0.00      0.00      76.8     0.34      1016.0     3.2     WSW   237   6.0      SW   223   8.36    268      -75.0
   07/08/2019 20:30      68.5      67.7       60     53.7      0.00      0.00      76.8     0.34      1016.0     3.7      SW   236   7.1      SW   234   8.36    268      -75.5
   07/08/2019 20:20      69.1      68.3       59     53.8      0.00      0.00      76.8     0.34      1015.9     3.1     WSW   238   5.6     WSW   238   8.37    268      -75.3
   07/08/2019 20:10      69.2      68.6       59     54.1      0.00      0.00      76.8     0.34      1015.8     2.9      SW   236   6.5     SSW   203   8.37    268      -73.0
   07/08/2019 20:00      69.5      68.8       59     54.2      0.00      0.00      76.8     0.34      1015.8     2.1     SSW   202   4.5      SW   229   8.37    268      -69.0
   07/08/2019 19:50      70.2      69.2       58     54.0      0.00      0.00      76.7     0.34      1015.7     2.5     SSW   192   5.2       S   184   8.37    267      -63.1
   07/08/2019 19:40      71.4      70.0       55     53.8      0.00      0.00      76.7     0.34      1015.7     3.0       S   182   5.8       S   190   8.38    267      -51.8
   07/08/2019 19:30      72.3      71.3       54     54.2      0.00      0.00      76.7     0.34      1015.6     2.5       S   182   4.7     SSE   158   8.38    267      -37.0
   07/08/2019 19:20      72.5      71.9       54     54.5      0.00      0.00      76.7     0.34      1015.5     2.2       S   170   4.4       S   186   8.38    267      -23.3
   07/08/2019 19:10      72.7      72.2       54     54.6      0.00      0.00      76.7     0.34      1015.4     2.7       S   189   5.0      SW   220   8.38    267       -2.8
   07/08/2019 19:00      73.0      72.2       54     54.6      0.00      0.00      76.6     0.34      1015.4     3.1       S   189   6.4      SW   226   8.39    267       15.4
   07/08/2019 18:50      73.8      72.6       53     54.8      0.00      0.00      76.6     0.34      1015.4     3.4       S   189   6.6      SW   224   8.39    267       33.0
   07/08/2019 18:40      74.0      73.1       52     55.0      0.00      0.00      76.6     0.34      1015.4     3.2      SW   224   6.2      SW   229   8.39    267       67.4
   07/08/2019 18:30      74.4      73.5       51     55.0      0.00      0.00      76.6     0.34      1015.3     3.6      SW   218   7.3     SSW   206   8.39    266       93.9
   07/08/2019 18:20      74.4      73.8       51     54.9      0.00      0.00      76.5     0.34      1015.2     2.5       S   179   6.1      SW   219   8.40    266      113.1
   07/08/2019 18:10      74.3      73.5       51     54.8      0.00      0.00      76.5     0.34      1015.1     3.6       S   178   6.7      SE   132   8.40    266      138.3
   07/08/2019 18:00      74.6      73.7       51     54.6      0.00      0.00      76.5     0.34      1015.1     4.5       S   180   7.6       S   181   8.40    266      171.6
   07/08/2019 17:50      75.5      74.3       50     54.9      0.00      0.00      76.5     0.34      1015.1     4.3       S   187   7.6       S   187   8.41    266      192.3
   07/08/2019 17:40      76.0      75.2       49     55.0      0.00      0.00      76.4     0.34      1015.0     3.5     SSE   160   7.5      SE   127   8.41    266      222.2
   07/08/2019 17:30      75.9      75.1       49     55.0      0.00      0.00      76.4     0.34      1015.0     3.9     SSE   167   7.8       S   178   8.41    266      248.6
   07/08/2019 17:20      75.9      75.0       50     55.3      0.00      0.00      76.4     0.34      1015.1     4.0       S   178   6.8       S   182   8.42    266      256.3
   07/08/2019 17:10      76.2      75.3       49     55.4      0.00      0.00      76.3     0.34      1015.1     3.4      SE   134   6.5     SSW   192   8.42    266      292.9
   07/08/2019 17:00      76.9      75.3       49     55.4      0.00      0.00      76.3     0.34      1015.1     4.1     SSE   149   7.8      SE   128   8.42    266      319.9
   07/08/2019 16:50      76.7      75.5       49     55.5      0.00      0.00      76.3     0.34      1015.1     3.8     SSE   150  10.5      SE   140   8.43    266      341.7
   07/08/2019 16:40      76.7      75.9       48     55.4      0.00      0.00      76.3     0.34      1015.1     4.7     SSE   155   9.2      SE   145   8.43    266      363.9
   07/08/2019 16:30      77.7      76.5       47     55.7      0.00      0.00      76.2     0.34      1015.2     3.9     SSE   165   8.7       S   183   8.43    266      381.9
   07/08/2019 16:20      77.3      76.5       48     55.7      0.00      0.00      76.3     0.34      1015.1     4.7       S   177   9.3     SSW   195   8.44    266      407.9
   07/08/2019 16:10      77.8      76.8       47     55.8      0.00      0.00      76.2     0.34      1015.1     4.6      SW   216   9.3     SSW   200   8.44    266      427.0
   07/08/2019 16:00      77.5      76.7       48     55.9      0.00      0.00      76.2     0.34      1015.1     3.8       S   170   8.9       S   173   8.44    266      448.3
   07/08/2019 15:50      78.0      76.5       48     55.8      0.00      0.00      76.1     0.34      1015.1     4.3       S   173   8.3     SSW   207   8.44    266      467.4
   07/08/2019 15:40      78.2      76.7       48     55.9      0.00      0.00      76.1     0.34      1015.1     4.4       S   173   7.5     SSE   168   8.45    266      485.3
   07/08/2019 15:30      78.5      77.4       47     55.9      0.00      0.00      76.1     0.34      1015.2     2.8     ESE   103   6.1     ESE   106   8.45    266      500.4
   07/08/2019 15:20      78.5      76.7       47     55.8      0.00      0.00      76.1     0.34      1015.4     2.8     ENE    75   6.8     NNE    33   8.45    266      511.8
   07/08/2019 15:10      78.1      77.4       46     55.7      0.00      0.00      76.0     0.34      1015.5     2.6      NE    49   5.7     NNE    21   8.46    266      528.1
   07/08/2019 15:00      78.2      77.3       46     55.6      0.00      0.00      76.1     0.34      1015.6     2.0       E   100   5.1     SSE   162   8.46    266      544.5
   07/08/2019 14:50      77.9      76.7       47     55.5      0.00      0.00      76.0     0.34      1015.7     2.5     ENE    63   5.7      SE   128   8.46    266      558.0
   07/08/2019 14:40      77.3      76.5       47     55.4      0.00      0.00      76.0     0.34      1015.7     2.5     ENE    66   5.8       E    90   8.46    266      568.2
   07/08/2019 14:30      77.6      76.3       48     55.5      0.00      0.00      76.0     0.34      1015.8     2.4     NNE    22   5.3      NE    49   8.46    266      580.0
   07/08/2019 14:20      77.0      75.8       48     55.2      0.00      0.00      76.0     0.34      1015.9     2.7     ENE    59   6.6       E    81   8.46    266      592.8
   07/08/2019 14:10      77.0      76.0       48     55.3      0.00      0.00      75.8     0.34      1016.0     3.5      NE    55   7.2       E    79   8.47    266      601.0
   07/08/2019 14:00      77.2      76.0       48     55.1      0.00      0.00      76.0     0.34      1016.0     3.2      NE    36   7.3     NNW   338   8.47    266      576.4
   07/08/2019 13:50      77.1      75.4       48     54.8      0.00      0.00      76.0     0.34      1016.1     2.0      NE    47   5.2     NNE    17   8.47    266      613.2
   07/08/2019 13:40      75.7      74.5       49     54.4      0.00      0.00      76.0     0.34      1016.1     1.9      NE    52   5.1      NE    35   8.47    266      617.9
   07/08/2019 13:30      75.5      73.7       49     54.4      0.00      0.00      75.9     0.34      1016.2     2.4      NE    55   5.8     ENE    65   8.47    266      625.9
   07/08/2019 13:20      74.3      73.1       51     54.1      0.00      0.00      75.9     0.34      1016.3     2.1       E    92   5.3      SE   136   8.47    266      641.5
   07/08/2019 13:10      74.2      73.5       50     54.2      0.00      0.00      76.0     0.34      1016.3     2.2      NE    42   6.1     ENE    60   8.47    266      621.0
   07/08/2019 13:00      73.7      72.5       51     54.1      0.00      0.00      75.9     0.34      1016.4     2.2      NE    36   5.2      NE    39   8.47    266      603.0
   07/08/2019 12:50      73.3      72.2       52     54.0      0.00      0.00      76.0     0.34      1016.5     2.0     NNW   344   5.6     SSE   154   8.47    266      645.1
   07/08/2019 12:40      72.6      71.1       53     53.8      0.00      0.00      76.0     0.34      1016.6     2.3     NNE    25   5.8       N     3   8.47    266      632.8
   07/08/2019 12:30      72.0      70.5       53     53.5      0.00      0.00      76.0     0.34      1016.8     2.6       N   355   6.4       W   266   8.47    266      724.5
   07/08/2019 12:20      72.3      70.7       54     53.8      0.00      0.00      76.0     0.34      1016.8     3.1       E    86   6.5     ENE    61   8.47    266      747.0
   07/08/2019 12:10      71.9      69.3       55     53.5      0.00      0.00      76.0     0.34      1016.8     1.8     SSE   166   5.6       E    80   8.47    266      763.3
   07/08/2019 12:00      69.6      67.7       59     53.5      0.00      0.00      76.0     0.34      1016.9     2.0      NW   319   4.9     SSW   209   8.48    266      576.0
   07/08/2019 11:50      68.4      66.9       60     53.3      0.00      0.00      76.0     0.34      1017.0     1.4     ESE   114   4.6       E    84   8.48    267      343.1
   07/08/2019 11:40      67.3      66.7       61     53.1      0.00      0.00      76.1     0.34      1017.1     1.5     ESE   110   4.0     ESE   101   8.48    268      267.5
   07/08/2019 11:30      67.4      66.7       62     53.6      0.00      0.00      76.1     0.34      1017.1     1.8       E    98   3.7       E    88   8.48    268      219.5
   07/08/2019 11:20      67.3      65.9       63     53.4      0.00      0.00      76.1     0.34      1017.1     0.7     ENE    65   3.0     WNW   287   8.48    268      193.1
   07/08/2019 11:10      66.2      65.2       65     53.2      0.00      0.00      76.1     0.34      1017.1     1.3     ESE   111   3.1       E    79   8.48    268      194.3
   07/08/2019 11:00      65.7      65.0       65     53.3      0.00      0.00      76.1     0.34      1017.1     2.0     ENE    75   4.1       E    84   8.48    268      172.5
   07/08/2019 10:50      65.5      64.8       66     53.4      0.00      0.00      76.1     0.34      1017.1     2.1      SE   140   5.0      SE   133   8.48    268      146.6
   07/08/2019 10:40      66.1      65.1       65     53.3      0.00      0.00      76.2     0.34      1017.1     1.7       E    79   3.4       E    80   8.48    268      127.2
   07/08/2019 10:30      66.0      65.2       65     53.3      0.00      0.00      76.2     0.34      1017.1     0.9     ENE    75   2.5     ENE    68   8.48    268      126.5
   07/08/2019 10:20      65.6      64.8       65     53.3      0.00      0.00      76.2     0.34      1017.1     1.0     ENE    73   3.8       E    97   8.48    268      131.1
   07/08/2019 10:10      65.2      64.6       66     53.3      0.00      0.00      76.2     0.34      1017.2     0.9     SSE   151   3.2       E    80   8.48    268      112.2
   07/08/2019 10:00      65.3      64.4       66     53.2      0.00      0.00      76.2     0.34      1017.1     1.8      NE    54   4.4     ENE    63   8.48    268      105.9
   07/08/2019 09:50      65.1      64.2       66     53.3      0.00      0.00      76.3     0.34      1017.0     1.8       E    99   4.5      SE   141   8.48    268      115.6
   07/08/2019 09:40      64.5      63.6       68     53.1      0.00      0.00      76.3     0.34      1017.1     1.4       E    88   3.9     ESE   106   8.48    268      104.3
   07/08/2019 09:30      64.4      63.8       68     53.2      0.00      0.00      76.3     0.34      1017.2     2.3       E    91   4.3     ENE    58   8.48    269       88.7
   07/08/2019 09:20      64.4      63.2       68     53.2      0.00      0.00      76.3     0.34      1017.2     1.5     ENE    62   3.2       E    82   8.48    268       80.6
   07/08/2019 09:10      63.8      63.2       69     53.1      0.00      0.00      76.3     0.34      1017.2     2.0     ESE   113   5.3       E    81   8.48    269       73.9
   07/08/2019 09:00      63.8      63.1       70     53.4      0.00      0.00      76.3     0.34      1017.3     1.5       E    83   3.4     ENE    63   8.48    269       66.7
   07/08/2019 08:50      63.6      63.0       70     53.5      0.00      0.00      76.4     0.34      1017.3     1.6       E    94   3.6     ENE    70   8.48    269       53.3
   07/08/2019 08:40      63.6      62.8       71     53.6      0.00      0.00      76.3     0.34      1017.4     2.0       E    93   4.3     ENE    72   8.48    269       54.5
   07/08/2019 08:30      63.4      62.8       71     53.4      0.00      0.00      76.4     0.34      1017.3     2.2     ESE   120   4.9     ESE   105   8.48    269       63.1
   07/08/2019 08:20      63.0      62.5       71     53.3      0.00      0.00      76.4     0.34      1017.2     2.0     ESE   109   4.6     ESE   106   8.48    269       48.0
   07/08/2019 08:10      63.0      62.4       71     53.2      0.00      0.00      76.4     0.34      1017.0     3.3      SE   127   6.4      SE   135   8.48    269       53.0
   07/08/2019 08:00      63.0      62.5       71     53.2      0.00      0.00      76.5     0.34      1017.0     3.6     ESE   122   7.1      SE   136   8.49    269       59.9
   07/08/2019 07:50      63.1      62.7       71     53.3      0.00      0.00      76.5     0.34      1017.0     3.5      SE   134   6.1      SE   141   8.48    269       58.7
   07/08/2019 07:40      63.1      62.7       70     53.2      0.00      0.00      76.5     0.34      1016.8     3.7     SSE   167   6.4       S   185   8.49    269       48.5
   07/08/2019 07:30      63.2      62.8       71     53.3      0.00      0.00      76.5     0.34      1016.8     2.3     SSE   151   5.5     SSE   156   8.49    269       42.5
   07/08/2019 07:20      62.9      62.5       71     53.3      0.00      0.00      76.5     0.34      1016.7     2.1     ESE   119   3.4     SSE   151   8.49    270       32.6
   07/08/2019 07:10      63.2      62.7       70     53.0      0.00      0.00      76.6     0.34      1016.5     2.1     ESE   119   4.0     SSE   166   8.49    270       23.2
   07/08/2019 07:00      63.2      62.7       70     52.9      0.00      0.00      76.6     0.34      1016.5     1.8       E    91   4.6      SE   133   8.49    269       16.4
   07/08/2019 06:50      63.0      62.5       70     52.9      0.00      0.00      76.5     0.34      1016.5     0.9     ESE   107   2.6      SE   135   8.49    270        9.5
   07/08/2019 06:40      62.8      62.5       70     52.9      0.00      0.00      76.6     0.34      1016.4     1.2      SE   139   3.6      SE   126   8.49    270        3.6
   07/08/2019 06:30      62.8      62.2       71     52.9      0.00      0.00      76.6     0.34      1016.3     1.0      SE   132   3.6     SSE   147   8.49    270       -2.6
   07/08/2019 06:20      62.5      62.1       72     53.0      0.00      0.00      76.6     0.34      1016.2     1.9     SSE   157   4.1      SE   142   8.49    270       -7.1
   07/08/2019 06:10      62.4      62.0       72     53.2      0.00      0.00      76.6     0.34      1016.1     1.9       S   177   5.1       S   186   8.49    270      -10.9
   07/08/2019 06:00      62.4      61.9       73     53.4      0.00      0.00      76.7     0.34      1016.0     2.2     SSE   153   4.7     SSE   149   8.49    270      -13.5
   07/08/2019 05:50      62.4      61.9       73     53.4      0.00      0.00      76.7     0.34      1015.9     2.1     SSE   164   5.7     SSE   164   8.49    270      -15.1
   07/08/2019 05:40      62.5      61.9       74     53.8      0.00      0.00      76.7     0.34      1015.9     2.4     SSE   158   5.1       S   184   8.49    270      -15.4
   07/08/2019 05:30      62.5      62.0       74     53.9      0.00      0.00      76.7     0.34      1015.7     2.6     SSE   150   6.1       S   177   8.49    270      -16.1
   07/08/2019 05:20      62.6      62.2       73     53.5      0.00      0.00      76.8     0.34      1015.6     2.8     SSE   168   6.0     SSE   154   8.49    270      -17.1
   07/08/2019 05:10      62.8      62.3       72     53.2      0.00      0.00      76.8     0.34      1015.4     3.0     SSE   154   6.4       S   173   8.49    270      -20.2
   07/08/2019 05:00      62.7      62.2       72     53.1      0.00      0.00      76.8     0.34      1015.3     1.8     SSE   158   4.5      SE   128   8.49    270      -25.1
   07/08/2019 04:50      62.5      62.0       73     53.5      0.00      0.00      76.8     0.34      1015.3     1.9     SSE   150   5.3      SE   133   8.49    270      -29.3
   07/08/2019 04:40      62.7      62.1       73     53.7      0.00      0.00      76.8     0.34      1015.2     3.4     SSE   162   6.4     SSW   193   8.49    270      -39.5
   07/08/2019 04:30      62.8      62.3       73     53.8      0.00      0.00      76.8     0.34      1015.3     3.7     SSE   155   5.4       S   178   8.50    270      -33.3
   07/08/2019 04:20      63.1      62.5       72     53.8      0.00      0.00      76.8     0.34      1015.3     3.4     ESE   112   5.4       E    80   8.50    270      -21.4
   07/08/2019 04:10      63.3      62.9       71     53.6      0.00      0.00      76.9     0.34      1015.1     2.5     ESE   118   5.8     ENE    79   8.50    270      -16.4
   07/08/2019 04:00      63.3      62.8       71     53.7      0.00      0.00      76.9     0.34      1015.1     1.7     ESE   105   3.0     ENE    73   8.50    270      -22.3
   07/08/2019 03:50      63.6      62.9       72     53.9      0.00      0.00      76.9     0.34      1015.1     2.9     ESE   124   5.0      SE   127   8.50    270      -31.3
   07/08/2019 03:40      63.5      63.1       71     53.9      0.00      0.00      77.0     0.34      1015.1     2.9      SE   138   5.6     SSE   146   8.50    270      -22.2
   07/08/2019 03:30      63.6      63.2       71     53.9      0.00      0.00      77.0     0.34      1015.1     2.4     SSE   151   5.2     SSW   195   8.50    270      -26.7
   07/08/2019 03:20      63.8      63.3       71     53.9      0.00      0.00      77.0     0.34      1015.2     2.2      SE   144   4.8     ESE   114   8.50    270      -20.7
   07/08/2019 03:10      63.8      63.3       71     53.9      0.00      0.00      77.0     0.34      1015.2     2.5     SSE   151   4.8      SE   145   8.50    270      -18.4
   07/08/2019 03:00      63.8      63.5       71     54.0      0.00      0.00      77.0     0.34      1015.3     1.2      SE   130   2.9      SE   126   8.50    270      -17.4
   07/08/2019 02:50      64.0      63.5       70     54.0      0.00      0.00      77.1     0.34      1015.3     1.6     ENE    78   5.2     ENE    58   8.50    270      -16.7
   07/08/2019 02:40      64.1      63.7       71     54.2      0.00      0.00      77.0     0.34      1015.3     1.5     ENE    62   3.2     ENE    68   8.50    270      -16.8
   07/08/2019 02:30      64.1      63.7       71     54.4      0.00      0.00      77.1     0.34      1015.3     0.8     ENE    60   2.5     NNE    20   8.50    270      -16.3
   07/08/2019 02:20      64.1      63.6       72     54.5      0.00      0.00      77.1     0.34      1015.4     1.5     ENE    76   4.4     ENE    62   8.51    270      -16.3
   07/08/2019 02:10      64.1      63.8       72     54.6      0.00      0.00      77.1     0.34      1015.4     1.3       E    85   3.6       E    98   8.51    270      -16.1
   07/08/2019 02:00      64.1      63.6       72     54.7      0.00      0.00      77.1     0.34      1015.6     1.1       E    80   3.2       E    87   8.51    270      -16.1
   07/08/2019 01:50      64.0      63.5       73     54.9      0.00      0.00      77.1     0.34      1015.6     1.1     ENE    77   2.5       E    99   8.51    270      -16.0
   07/08/2019 01:40      63.8      63.4       73     54.9      0.00      0.00      77.2     0.34      1015.6     1.1     ESE   105   2.5       E    91   8.51    270      -15.4
   07/08/2019 01:30      63.8      63.3       74     54.9      0.00      0.00      77.2     0.34      1015.7     2.2      SE   130   5.4       E    92   8.51    270      -15.2
   07/08/2019 01:20      63.6      63.3       74     54.9      0.00      0.00      77.2     0.34      1015.7     1.7      SE   129   3.8     SSW   196   8.51    270      -15.3
   07/08/2019 01:10      63.8      63.3       74     55.1      0.00      0.00      77.2     0.34      1015.8     2.1      SE   139   5.6     SSE   152   8.51    270      -15.4
   07/08/2019 01:00      63.9      63.3       74     55.2      0.00      0.00      77.2     0.34      1015.9     1.1       E   100   2.5     ESE   108   8.51    270      -15.2
   07/08/2019 00:50      63.8      63.3       75     55.3      0.00      0.00      77.2     0.34      1016.0     1.8     ESE   105   4.2      SE   134   8.51    270      -14.9
   07/08/2019 00:40      63.7      63.3       75     55.3      0.00      0.00      77.3     0.34      1016.0     1.8       E    91   4.4       E    83   8.51    270      -14.8
   07/08/2019 00:30      63.7      63.3       75     55.3      0.00      0.00      77.3     0.34      1016.0     1.6      SE   124   2.9     ESE   113   8.51    270      -15.0
   07/08/2019 00:20      63.6      63.2       75     55.3      0.00      0.00      77.3     0.34      1016.0     1.9     ESE   117   3.9     ESE   109   8.51    270      -14.8
   07/08/2019 00:10      63.6      63.2       75     55.3      0.00      0.00      77.3     0.34      1016.0     1.9      SE   130   4.9       E    89   8.52    270      -14.7
   07/08/2019 00:00      63.5      63.0       75     55.4      0.00      0.00      77.3     0.34      1016.0     1.2      SE   138   4.1     ESE   121   8.52    270      -14.7
   07/07/2019 23:50      63.3      62.9       76     55.4      0.00      0.00      77.4     0.34      1016.1     2.0      SE   144   4.8      SE   144   8.52    270      -14.6
   07/07/2019 23:40      63.2      62.5       77     55.4      0.00      0.00      77.3     0.34      1016.2     1.5     SSE   162   3.2     ESE   115   8.52    270      -14.3
   07/07/2019 23:30      62.8      62.4       77     55.3      0.00      0.00      77.3     0.34      1016.2     1.5       S   176   3.5     SSW   194   8.52    270      -14.1
   07/07/2019 23:20      62.7      62.2       78     55.3      0.00      0.00      77.4     0.34      1016.3     1.4       S   181   2.9       S   186   8.52    270      -14.2
   07/07/2019 23:10      62.5      61.9       78     55.1      0.00      0.00      77.3     0.34      1016.3     1.5      SE   139   4.1      SE   125   8.52    270      -17.4
   07/07/2019 23:00      62.5      61.9       77     54.9      0.00      0.00      77.4     0.34      1016.2     1.9      SE   143   4.0      SE   132   8.52    271      -48.9
   07/07/2019 22:50      63.0      62.0       76     54.9      0.00      0.00      77.4     0.34      1016.2     2.9     SSE   148   5.6      SE   131   8.52    271      -66.4
   07/07/2019 22:40      63.8      62.6       74     54.8      0.00      0.00      77.4     0.34      1016.1     2.9     ESE   123   7.1     ESE   107   8.52    270      -67.3
   07/07/2019 22:30      63.8      63.3       73     54.6      0.00      0.00      77.4     0.34      1016.0     2.2     ESE   120   6.0      SE   133   8.52    270      -66.6
   07/07/2019 22:20      63.7      63.3       72     54.2      0.00      0.00      77.4     0.34      1015.9     1.3      SE   140   2.5      SE   125   8.53    270      -65.5
   07/07/2019 22:10      64.2      63.4       71     54.1      0.00      0.00      77.4     0.34      1015.8     0.5       S   177   1.6       S   183   8.53    270      -65.6
   07/07/2019 22:00      64.5      63.7       70     54.1      0.00      0.00      77.4     0.34      1015.7     1.2       S   187   2.8       S   177   8.53    269      -67.8
   07/07/2019 21:50      65.2      64.2       69     54.1      0.00      0.00      77.4     0.34      1015.5     1.9       S   183   3.8       S   187   8.53    269      -70.6
   07/07/2019 21:40      65.6      64.9       67     53.9      0.00      0.00      77.3     0.34      1015.3     1.7     SSE   159   3.3      SE   127   8.53    268      -72.0
   07/07/2019 21:30      65.9      65.2       66     53.7      0.00      0.00      77.4     0.34      1015.3     2.2       S   172   4.3     SSE   153   8.53    268      -73.2
   07/07/2019 21:20      66.5      65.7       64     53.5      0.00      0.00      77.4     0.34      1015.2     2.4       S   178   4.4       S   180   8.54    268      -73.1
   07/07/2019 21:10      66.9      66.2       63     53.3      0.00      0.00      77.4     0.34      1015.1     1.7       S   175   3.6     SSE   167   8.54    268      -73.2
   07/07/2019 21:00      67.4      66.7       61     53.2      0.00      0.00      77.3     0.34      1015.0     1.7       S   169   3.2       S   176   8.54    268      -74.0
   07/07/2019 20:50      67.7      67.1       61     53.2      0.00      0.00      77.4     0.34      1014.9     1.4       S   177   2.6      SE   135   8.54    268      -74.2
   07/07/2019 20:40      67.9      67.4       60     53.2      0.00      0.00      77.3     0.34      1014.8     1.8       S   182   3.2     SSW   197   8.54    268      -74.8
   07/07/2019 20:30      68.6      67.7       59     53.2      0.00      0.00      77.3     0.34      1014.8     2.0     SSW   197   3.5       S   180   8.54    268      -74.9
   07/07/2019 20:20      69.4      68.3       57     52.7      0.00      0.00      77.3     0.34      1014.7     2.3       S   182   4.2     SSW   213   8.55    267      -75.6
   07/07/2019 20:10      70.0      69.0       55     52.7      0.00      0.00      77.3     0.34      1014.6     2.0       S   171   4.0     SSE   155   8.55    267      -73.2
   07/07/2019 20:00      70.6      69.7       54     52.5      0.00      0.00      77.2     0.34      1014.5     2.7       S   185   4.6       S   189   8.55    267      -69.5
   07/07/2019 19:50      71.3      70.3       52     52.2      0.00      0.00      77.3     0.34      1014.5     2.0       S   180   3.8     SSW   198   8.55    267      -65.3
   07/07/2019 19:40      72.5      71.1       50     51.9      0.00      0.00      77.3     0.34      1014.3     2.9       S   184   4.9     SSE   164   8.56    266      -55.6
   07/07/2019 19:30      73.0      72.3       47     51.3      0.00      0.00      77.2     0.34      1014.2     2.4       S   190   4.6       S   188   8.57    266      -40.4
   07/07/2019 19:20      73.8      72.8       45     50.5      0.00      0.00      77.2     0.34      1014.2     3.2       S   186   7.0     SSW   200   8.57    266      -22.5
   07/07/2019 19:10      74.0      73.5       42     49.4      0.00      0.00      77.2     0.34      1014.1     3.1       S   170   6.3       S   181   8.57    266       -2.4
   07/07/2019 19:00      74.4      73.6       42     49.4      0.00      0.00      77.1     0.34      1014.1     3.7       S   176   7.1       S   183   8.58    266       20.8
   07/07/2019 18:50      74.6      74.0       42     49.6      0.00      0.00      77.1     0.34      1013.9     4.0       S   177   7.1     SSW   196   8.58    266       43.8
   07/07/2019 18:40      75.4      74.3       42     50.4      0.00      0.00      77.1     0.34      1013.8     4.7     SSE   158   7.8     SSE   163   8.58    266       68.0
   07/07/2019 18:30      75.8      74.8       44     51.8      0.00      0.00      77.1     0.34      1013.8     4.1     SSE   156   7.6       S   180   8.59    266       92.4
   07/07/2019 18:20      76.4      75.5       45     53.0      0.00      0.00      77.0     0.34      1013.7     3.8       S   177   6.9     SSE   168   8.59    266      113.7
   07/07/2019 18:10      77.2      75.8       44     52.7      0.00      0.00      77.0     0.34      1013.7     4.3       S   185   7.4     SSE   164   8.60    266      137.3
   07/07/2019 18:00      77.9      77.0       43     53.1      0.00      0.00      77.0     0.34      1013.6     3.7       S   189   8.5       S   187   8.60    266      165.6
   07/07/2019 17:50      77.7      77.3       45     54.6      0.00      0.00      76.9     0.34      1013.6     4.0       S   173   8.0     SSE   148   8.60    266      198.0
   07/07/2019 17:40      78.1      77.2       48     56.1      0.00      0.00      76.9     0.34      1013.6     4.9       S   182   8.4       S   174   8.61    266      232.4
   07/07/2019 17:30      78.8      77.8       49     57.3      0.00      0.00      76.9     0.34      1013.6     4.6     SSE   165   8.5       S   176   8.61    266      256.1
   07/07/2019 17:20      80.4      78.4       49     58.4      0.00      0.00      76.9     0.34      1013.6     4.1     SSE   159   8.0       S   179   8.61    266      273.3
   07/07/2019 17:10      80.6      79.4       47     57.8      0.00      0.00      76.9     0.34      1013.6     3.1     ESE   104   6.9      SE   143   8.62    266      299.7
   07/07/2019 17:00      80.8      79.4       46     57.3      0.00      0.00      76.8     0.34      1013.7     3.2       E    85   5.2     ESE   119   8.62    266      349.1
   07/07/2019 16:50      80.9      80.3       45     57.5      0.00      0.00      76.8     0.34      1013.7     3.3     ENE    68   6.0     ENE    70   8.62    266      382.6
   07/07/2019 16:40      81.5      80.2       45     57.7      0.00      0.00      76.8     0.34      1013.7     3.2     ENE    60   5.2     ENE    76   8.63    266      364.6
   07/07/2019 16:30      81.6      80.8       44     57.6      0.00      0.00      76.8     0.34      1013.8     2.7     ENE    65   5.1     ENE    68   8.63    266      372.9
   07/07/2019 16:20      81.7      80.3       45     57.3      0.00      0.00      76.7     0.34      1013.8     2.6     ENE    72   5.5      NE    54   8.63    266      378.6
   07/07/2019 16:10      81.8      80.8       45     57.7      0.00      0.00      76.8     0.34      1013.9     2.3     ENE    74   5.3      NE    46   8.63    266      322.0
   07/07/2019 16:00      81.1      80.3       45     57.7      0.00      0.00      76.8     0.34      1013.9     2.5       E    89   6.7      SE   130   8.63    266      481.2
   07/07/2019 15:50      81.2      79.9       45     57.6      0.00      0.00      76.7     0.34      1014.0     2.4       E    89   5.2     ESE   114   8.63    266      464.2
   07/07/2019 15:40      81.1      79.4       45     57.6      0.00      0.00      76.7     0.34      1014.2     2.0     NNE    20   5.2     NNE    31   8.64    266      422.5
   07/07/2019 15:30      79.5      78.4       47     56.9      0.00      0.00      76.7     0.34      1014.2     2.0     SSE   149   4.3     SSE   167   8.64    266      473.6
   07/07/2019 15:20      79.3      78.4       48     57.2      0.00      0.00      76.7     0.34      1014.3     2.7     ESE   107   5.5     SSE   151   8.64    266      479.7
   07/07/2019 15:10      80.4      78.8       47     57.3      0.00      0.00      76.7     0.34      1014.4     2.2       E    93   6.0      SE   126   8.64    266      480.8
   07/07/2019 15:00      80.1      78.7       47     57.6      0.00      0.00      76.7     0.34      1014.5     2.5       E    79   5.1       E    84   8.64    266      565.6
   07/07/2019 14:50      80.1      78.5       47     57.7      0.00      0.00      76.7     0.34      1014.7     1.9      NE    45   3.9      NE    43   8.64    266      571.4
   07/07/2019 14:40      78.9      77.9       49     57.9      0.00      0.00      76.6     0.34      1014.9     2.3     ENE    59   5.4     ENE    75   8.65    267      578.6
   07/07/2019 14:30      77.9      76.2       52     58.1      0.00      0.00      76.5     0.34      1014.9     2.2     NNE    32   5.4      NE    45   8.65    267      603.7
   07/07/2019 14:20      77.1      76.3       53     58.0      0.00      0.00      76.6     0.34      1015.1     3.1     NNE    32   7.4     ENE    60   8.65    267      629.9
   07/07/2019 14:10      76.5      73.6       55     57.9      0.00      0.00      76.6     0.34      1015.2     2.4       E    82   4.3      NE    38   8.65    267      625.4
   07/07/2019 14:00      75.0      73.1       56     57.6      0.00      0.00      76.6     0.34      1015.2     2.6     SSW   201   7.0     SSW   199   8.65    267      625.1
   07/07/2019 13:50      75.5      74.7       55     57.9      0.00      0.00      76.6     0.34      1015.3     2.2       E    97   4.6       S   172   8.65    267      636.3
   07/07/2019 13:40      74.9      71.3       59     57.8      0.00      0.00      76.6     0.34      1015.5     2.2      NE    46   5.1     NNE    28   8.65    267      657.5
   07/07/2019 13:30      72.2      71.5       61     57.4      0.00      0.00      76.6     0.34      1015.6     2.0       E    87   6.5       E   100   8.65    267      388.9
   07/07/2019 13:20      72.3      71.0       61     57.5      0.00      0.00      76.6     0.34      1015.7     2.6     ENE    78   4.4     ENE    60   8.65    267      572.0
   07/07/2019 13:10      72.8      71.2       60     57.5      0.00      0.00      76.6     0.34      1015.9     3.0       S   191   7.9      SE   126   8.65    267      521.4
   07/07/2019 13:00      71.7      70.5       62     57.3      0.00      0.00      76.6     0.34      1016.0     2.3       S   182   6.5      SW   231   8.65    267      566.4
   07/07/2019 12:50      71.6      70.6       62     57.3      0.00      0.00      76.6     0.34      1016.0     3.6       S   169   8.2     SSW   194   8.65    267      588.4
   07/07/2019 12:40      70.6      69.4       64     57.0      0.00      0.00      76.6     0.34      1016.2     2.5       S   190   6.0     NNW   341   8.66    267      675.6
   07/07/2019 12:30      70.5      68.8       64     57.1      0.00      0.00      76.6     0.34      1016.3     4.4     SSW   194   7.3     SSW   192   8.66    267      511.6
   07/07/2019 12:20      69.6      68.2       66     57.0      0.00      0.00      76.6     0.34      1016.3     3.8     SSW   197   8.4     SSW   206   8.66    268      334.1
   07/07/2019 12:10      69.5      68.5       66     57.0      0.00      0.00      76.6     0.34      1016.3     4.0     SSW   191   7.1       S   172   8.66    268      358.3
   07/07/2019 12:00      70.2      69.2       65     57.2      0.00      0.00      76.6     0.34      1016.4     3.5     SSE   166   7.6      SE   140   8.66    268      330.4
   07/07/2019 11:50      71.1      69.7       63     57.2      0.00      0.00      76.7     0.34      1016.3     2.9     ESE   121   6.1      SE   141   8.66    268      311.1
   07/07/2019 11:40      71.2      69.3       64     57.5      0.00      0.00      76.7     0.34      1016.3     1.2     ENE    68   3.7       N     2   8.66    268      344.9
   07/07/2019 11:30      69.4      68.8       65     57.1      0.00      0.00      76.7     0.34      1016.3     1.8     ENE    75   4.3     ENE    67   8.66    268      322.6
   07/07/2019 11:20      68.9      68.3       66     57.0      0.00      0.00      76.7     0.34      1016.3     1.6     SSE   149   4.4     SSE   153   8.66    268      298.3
   07/07/2019 11:10      68.9      67.4       68     56.9      0.00      0.00      76.7     0.34      1016.3     1.7     ESE   122   4.2     SSE   157   8.66    268      280.4
   07/07/2019 11:00      68.3      67.3       68     56.8      0.00      0.00      76.8     0.34      1016.4     1.9     SSE   162   5.7      SE   134   8.66    268      269.5
   07/07/2019 10:50      68.8      67.8       67     56.9      0.00      0.00      76.7     0.34      1016.4     2.2     ENE    76   4.3      SE   132   8.66    268      250.2
   07/07/2019 10:40      68.6      66.7       69     57.0      0.00      0.00      76.8     0.34      1016.3     1.1      NE    44   2.9     WNW   294   8.66    268      269.6
   07/07/2019 10:30      66.8      66.3       71     56.7      0.00      0.00      76.8     0.34      1016.3     1.8      NE    52   4.1       N     0   8.66    269      239.4
   07/07/2019 10:20      66.4      65.2       73     56.9      0.00      0.00      76.8     0.34      1016.3     1.4     ESE   107   3.6      SE   128   8.66    269      194.2
   07/07/2019 10:10      65.6      65.2       74     56.8      0.00      0.00      76.9     0.34      1016.3     2.1     ESE   123   4.5      SE   126   8.66    270      139.1
   07/07/2019 10:00      65.6      64.7       74     56.8      0.00      0.00      76.8     0.34      1016.3     2.3     ESE   109   4.6      NE    54   8.66    270      153.4
   07/07/2019 09:50      65.5      64.8       74     56.7      0.00      0.00      76.9     0.34      1016.2     3.0     ESE   108   6.5     ESE   111   8.66    270      156.9
   07/07/2019 09:40      65.3      64.2       75     56.6      0.00      0.00      76.9     0.34      1016.1     2.1       E    97   4.3       E    93   8.66    270      160.1
   07/07/2019 09:30      64.8      63.9       76     56.5      0.00      0.00      76.9     0.34      1016.1     3.4      SE   128   6.5     SSE   153   8.66    270      144.2
   07/07/2019 09:20      64.6      64.1       75     56.5      0.00      0.00      76.9     0.34      1016.1     3.0       E    96   6.8     ESE   115   8.67    270      159.4
   07/07/2019 09:10      64.2      63.6       76     56.2      0.00      0.00      77.0     0.34      1016.3     2.2     ESE   107   5.5     ESE   116   8.67    270      132.5
   07/07/2019 09:00      64.3      63.8       76     56.4      0.00      0.00      77.0     0.34      1016.4     2.3     ESE   103   4.6     ENE    72   8.67    271       96.4
   07/07/2019 08:50      64.0      63.3       77     56.5      0.00      0.00      77.0     0.34      1016.5     1.7      SE   137   4.6      SE   129   8.67    271       78.7
   07/07/2019 08:40      63.6      63.0       79     56.6      0.00      0.00      77.0     0.34      1016.5     2.1     ESE   108   4.1     ESE   105   8.67    271       80.5
   07/07/2019 08:30      63.3      62.7       81     56.9      0.00      0.00      77.0     0.34      1016.6     1.8     ESE   106   3.6       E   100   8.67    271       45.1
   07/07/2019 08:20      63.2      62.7       81     57.0      0.00      0.00      77.1     0.34      1016.6     1.9     SSE   147   3.6       E    91   8.67    271       45.1
   07/07/2019 08:10      62.9      62.5       81     56.8      0.00      0.00      77.1     0.34      1016.6     1.1      SE   127   2.7     ESE   103   8.67    271       24.1
   07/07/2019 08:00      62.8      62.3       82     56.8      0.00      0.00      77.1     0.34      1016.5     2.0      SE   128   3.7      SE   139   8.67    271       32.5
   07/07/2019 07:50      62.7      62.2       82     56.7      0.00      0.00      77.1     0.34      1016.5     2.1      SE   138   4.3      SE   139   8.67    271       26.8
   07/07/2019 07:40      62.8      62.4       81     56.8      0.00      0.00      77.2     0.34      1016.4     1.6      SE   125   3.5     ESE   102   8.67    272       19.4
   07/07/2019 07:30      62.7      62.2       82     56.7      0.00      0.00      77.2     0.34      1016.4     1.6     ESE   104   3.8     SSE   161   8.67    271       15.9
   07/07/2019 07:20      62.7      62.2       81     56.7      0.00      0.00      77.3     0.34      1016.3     1.5       E    97   4.3     ESE   122   8.67    271       14.6
   07/07/2019 07:10      62.9      62.4       81     56.6      0.00      0.00      77.2     0.34      1016.2     1.6      SE   127   3.5      SE   133   8.67    272        4.8
   07/07/2019 07:00      63.0      62.4       80     56.6      0.00      0.00      77.2     0.34      1016.0     0.6     ENE    64   1.9      NE    46   8.67    272       -0.0
   07/07/2019 06:50      62.7      62.3       81     56.4      0.00      0.00      77.3     0.34      1015.9     1.3      NE    52   4.0     NNE    30   8.67    272       -0.2
   07/07/2019 06:40      62.5      61.9       81     56.4      0.00      0.00      77.3     0.34      1015.9     0.9     ENE    79   2.9      SE   140   8.67    272       -3.8
   07/07/2019 06:30      62.7      62.1       81     56.5      0.00      0.00      77.3     0.34      1015.9     2.8     ESE   122   5.0     ESE   118   8.67    272       -4.6
   07/07/2019 06:20      62.8      62.2       81     56.6      0.00      0.00      77.3     0.34      1015.7     2.0      SE   126   3.7       E   100   8.67    272       -6.5
   07/07/2019 06:10      62.8      62.4       81     56.7      0.00      0.00      77.4     0.34      1015.6     1.5     ESE   111   3.8     ENE    76   8.68    272       -9.3
   07/07/2019 06:00      63.0      62.5       81     56.7      0.00      0.00      77.3     0.34      1015.6     1.6       E   100   3.2      NE    53   8.68    272      -10.8
   07/07/2019 05:50      63.0      62.6       81     56.8      0.00      0.00      77.4     0.34      1015.4     0.7     ENE    69   2.0       N     3   8.68    272      -11.6
   07/07/2019 05:40      62.8      62.3       81     56.8      0.00      0.00      77.5     0.34      1015.4     0.5      NE    48   2.1      NE    43   8.68    272      -11.9
   07/07/2019 05:30      62.7      62.2       82     56.7      0.00      0.00      77.5     0.34      1015.3     0.4      NE    44   2.2     NNE    15   8.68    272      -11.9
   07/07/2019 05:20      62.5      61.9       82     56.7      0.00      0.00      77.5     0.34      1015.2     0.3     SSE   149   1.4      SE   142   8.68    272      -12.2
   07/07/2019 05:10      62.5      61.9       82     56.6      0.00      0.00      77.5     0.34      1015.2     1.5     ESE   120   3.5     ENE    62   8.68    272      -12.1
   07/07/2019 05:00      62.5      62.3       82     56.7      0.00      0.00      77.5     0.34      1015.2     0.9     ENE    74   1.9     ENE    68   8.68    272      -12.3
   07/07/2019 04:50      62.5      61.7       83     56.7      0.00      0.00      77.6     0.34      1015.3     0.5     ENE    74   1.9     ENE    74   8.68    272      -11.9
   07/07/2019 04:40      62.2      61.7       83     56.6      0.00      0.00      77.6     0.34      1015.3     1.4     ESE   110   3.1     ENE    64   8.68    272      -11.8
   07/07/2019 04:30      62.0      61.7       83     56.6      0.00      0.00      77.6     0.34      1015.3     1.6     ESE   108   4.1     ESE   117   8.68    272      -11.9
   07/07/2019 04:20      61.9      61.4       83     56.5      0.00      0.00      77.7     0.34      1015.4     1.3     ESE   120   3.3      SE   125   8.68    271      -12.0
   07/07/2019 04:10      61.7      61.4       84     56.7      0.00      0.00      77.6     0.34      1015.5     1.6     ESE   119   5.1     SSE   157   8.68    271      -12.1
   07/07/2019 04:00      61.7      61.3       84     56.7      0.00      0.00      77.7     0.34      1015.6     0.7      SE   131   2.7       E    82   8.68    271      -11.9
   07/07/2019 03:50      61.6      61.2       85     56.7      0.00      0.00      77.7     0.34      1015.6     2.0      SE   132   4.6     SSE   150   8.68    271      -11.8
   07/07/2019 03:40      61.4      61.1       85     56.9      0.00      0.00      77.8     0.34      1015.6     1.7       E    99   4.1     ESE   119   8.68    271      -11.7
   07/07/2019 03:30      61.3      60.9       86     56.8      0.00      0.00      77.8     0.34      1015.6     1.8     ESE   103   4.0      SE   138   8.68    271      -11.7
   07/07/2019 03:20      61.2      60.8       86     56.9      0.00      0.00      77.8     0.34      1015.5     1.5     ESE   119   3.9       E    87   8.68    271      -11.5
   07/07/2019 03:10      61.1      60.6       87     57.0      0.00      0.00      77.8     0.34      1015.6     1.3     ESE   110   2.9     ESE   121   8.69    271      -11.5
   07/07/2019 03:00      60.8      60.5       88     56.9      0.00      0.00      77.9     0.34      1015.7     1.2     ESE   122   3.6     SSE   154   8.69    270      -11.7
   07/07/2019 02:50      60.8      60.3       87     56.8      0.00      0.00      77.9     0.34      1015.8     1.0     ESE   103   3.4      SE   128   8.69    269      -11.9
   07/07/2019 02:40      60.8      60.3       87     56.4      0.00      0.00      77.9     0.34      1015.8     1.3      SE   145   3.2      SE   135   8.69    269      -12.3
   07/07/2019 02:30      60.8      60.4       86     56.4      0.00      0.00      77.9     0.34      1015.9     0.8      NE    48   2.4       E    85   8.69    271      -12.5
   07/07/2019 02:20      60.8      60.0       86     56.2      0.00      0.00      77.9     0.34      1016.0     1.0      NE    46   3.8       E    98   8.69    271      -12.7
   07/07/2019 02:10      60.3      59.8       86     55.9      0.00      0.00      78.0     0.34      1016.0     1.2       S   170   3.7     SSE   158   8.69    271      -12.7
   07/07/2019 02:00      60.3      59.8       86     55.7      0.00      0.00      78.0     0.34      1016.0     2.4       S   171   4.7       S   171   8.69    271      -12.6
   07/07/2019 01:50      61.1      60.1       85     56.0      0.00      0.00      78.0     0.34      1016.1     2.5     SSE   160   4.5       S   174   8.69    271      -12.9
   07/07/2019 01:40      61.2      60.6       85     56.5      0.00      0.00      78.0     0.34      1016.1     1.5      SE   134   5.3      SE   134   8.69    271      -13.0
   07/07/2019 01:30      61.0      60.6       86     56.5      0.00      0.00      78.0     0.34      1016.0     2.0     ENE    63   3.3      NE    36   8.69    271      -12.8
   07/07/2019 01:20      61.3      60.6       86     56.7      0.00      0.00      78.1     0.34      1015.9     2.3       E    88   4.4       E    82   8.69    271      -12.7
   07/07/2019 01:10      61.3      60.9       86     56.9      0.00      0.00      78.1     0.34      1015.9     1.7     ENE    65   3.9       E    83   8.70    271      -12.5
   07/07/2019 01:00      61.7      61.0       86     57.0      0.00      0.00      78.1     0.34      1015.8     2.2     ENE    68   4.1       E    91   8.70    270      -12.4
   07/07/2019 00:50      61.7      61.3       86     57.2      0.00      0.00      78.1     0.34      1015.8     1.6      NE    44   3.7      NE    36   8.70    271      -12.2
   07/07/2019 00:40      61.6      61.2       86     57.1      0.00      0.00      78.1     0.34      1015.8     1.7      NE    48   3.5      NE    36   8.70    271      -11.7
   07/07/2019 00:30      61.6      61.2       86     57.1      0.00      0.00      78.2     0.34      1015.8     1.3      NE    56   2.8     ENE    69   8.70    270      -18.2
   07/07/2019 00:20      61.5      61.0       86     56.9      0.00      0.00      78.2     0.34      1015.9     1.4     ENE    59   3.7     ENE    63   8.70    267      -39.0
   07/07/2019 00:10      61.6      61.1       85     56.8      0.00      0.00      78.2     0.34      1015.9     1.6     ENE    63   3.2     ENE    61   8.70    249      -63.2
   07/07/2019 00:00      61.7      61.3       84     56.6      0.00      0.00      78.2     0.34      1015.9     1.2     ENE    69   3.2      SE   146   8.70    250      -65.3
   07/06/2019 23:50      61.7      61.3       84     56.6      0.00      0.00      78.2     0.34      1015.9     1.1     ENE    72   2.2       E    92   8.70    254      -64.1
   07/06/2019 23:40      61.8      61.3       84     56.5      0.00      0.00      78.2     0.34      1015.8     0.5       E    89   1.7       E    81   8.70    250      -64.3
   07/06/2019 23:30      61.9      61.3       84     56.6      0.00      0.00      78.2     0.34      1015.8     0.2       E    85   0.7       E    96   8.71    240      -65.1
   07/06/2019 23:20      62.1      61.6       83     56.6      0.00      0.00      78.2     0.34      1015.8     0.5       E   100   1.6       E    96   8.71    254      -65.9
   07/06/2019 23:10      62.5      61.8       83     56.9      0.00      0.00      78.2     0.34      1015.7     0.2       E    89   1.7     ENE    76   8.71    247      -68.1
   07/06/2019 23:00      62.9      62.2       82     56.9      0.00      0.00      78.3     0.34      1015.7     0.5      SE   129   1.3      SE   138   8.71    256      -69.9
   07/06/2019 22:50      63.1      62.5       82     57.1      0.00      0.00      78.3     0.34      1015.6     1.0     ENE    57   2.0     NNE    19   8.71    262      -71.0
   07/06/2019 22:40      63.1      62.6       81     57.0      0.00      0.00      78.3     0.34      1015.6     0.5     ENE    76   1.4     ENE    75   8.71    264      -70.1
   07/06/2019 22:30      63.3      62.8       81     57.0      0.00      0.00      78.2     0.34      1015.6     0.8       E    94   2.9     ENE    63   8.71    266      -69.7
   07/06/2019 22:20      63.7      63.0       80     57.1      0.00      0.00      78.2     0.34      1015.5     0.7       E    83   2.4      NE    35   8.71    267      -70.7
   07/06/2019 22:10      64.1      63.3       79     57.1      0.00      0.00      78.2     0.34      1015.5     0.8     ENE    68   3.3     ESE   114   8.72    267      -71.6
   07/06/2019 22:00      64.2      63.7       79     57.2      0.00      0.00      78.2     0.34      1015.4     1.2     ENE    67   2.8     ENE    66   8.72    268      -72.4
   07/06/2019 21:50      64.6      64.0       78     57.3      0.00      0.00      78.2     0.34      1015.2     0.9       E    79   2.6     ENE    67   8.72    268      -74.1
   07/06/2019 21:40      65.0      64.2       77     57.3      0.00      0.00      78.2     0.34      1015.2     1.3       E    91   3.4     ESE   111   8.72    268      -75.5
   07/06/2019 21:30      65.7      64.8       76     57.3      0.00      0.00      78.2     0.34      1015.2     1.3       E   100   2.8       E    93   8.72    268      -76.7
   07/06/2019 21:20      66.1      65.3       75     57.3      0.00      0.00      78.2     0.34      1015.1     0.9       E    93   2.0       E    82   8.73    268      -77.7
   07/06/2019 21:10      66.5      65.8       74     57.4      0.00      0.00      78.2     0.34      1015.1     1.1       E    99   3.4      NE    47   8.73    269      -78.7
   07/06/2019 21:00      67.2      66.2       72     57.4      0.00      0.00      78.1     0.34      1015.0     1.4       E    96   4.1     ENE    69   8.73    269      -79.4
   07/06/2019 20:50      67.9      66.9       71     57.5      0.00      0.00      78.1     0.34      1014.9     1.4       E    79   3.7     ENE    76   8.73    268      -80.7
   07/06/2019 20:40      68.3      67.5       70     57.5      0.00      0.00      78.1     0.34      1014.9     0.9       E    97   2.3       E    91   8.74    268      -81.7
   07/06/2019 20:30      69.3      68.1       68     57.6      0.00      0.00      78.0     0.34      1014.8     1.3     ESE   104   3.5       E    90   8.74    268      -82.2
   07/06/2019 20:20      70.3      69.1       66     57.6      0.00      0.00      78.1     0.34      1014.6     1.2     ENE    72   2.6       E    79   8.74    268      -83.4
   07/06/2019 20:10      71.8      70.1       63     57.7      0.00      0.00      78.0     0.34      1014.6     1.7     ENE    63   3.6      NE    40   8.75    268      -83.0
   07/06/2019 20:00      72.7      71.5       61     58.0      0.00      0.00      78.0     0.34      1014.5     1.6      NE    44   3.0     NNE    27   8.75    267      -79.5
   07/06/2019 19:50      73.8      72.3       60     58.1      0.00      0.00      78.0     0.34      1014.4     1.5     ENE    67   3.3       E    85   8.75    267      -75.1
   07/06/2019 19:40      74.6      73.5       58     58.2      0.00      0.00      77.9     0.34      1014.2     1.1     ENE    73   2.7       E   100   8.76    267      -64.5
   07/06/2019 19:30      75.9      74.2       56     58.3      0.00      0.00      77.9     0.34      1014.1     2.2      NE    54   4.3      NE    34   8.76    267      -47.9
   07/06/2019 19:20      77.7      75.9       54     58.6      0.00      0.00      77.9     0.34      1014.0     2.1      NE    38   4.8      NE    43   8.76    266      -30.4
   07/06/2019 19:10      78.8      77.4       52     58.7      0.00      0.00      77.8     0.34      1014.0     2.1      NE    41   3.8      NE    49   8.77    266       -9.5
   07/06/2019 19:00      79.2      78.3       51     58.8      0.00      0.00      77.8     0.34      1013.9     2.1      NE    45   3.8     NNE    31   8.77    266       15.6
   07/06/2019 18:50      81.7      79.0       48     58.9      0.00      0.00      77.8     0.34      1013.9     2.3      NE    45   4.7      NE    41   8.77    266       40.0
   07/06/2019 18:40      82.3      81.3       46     59.1      0.00      0.00      77.8     0.34      1013.8     1.2      NE    48   3.3     WNW   285   8.78    266       63.7
   07/06/2019 18:30      83.9      81.9       44     58.7      0.00      0.00      77.7     0.34      1013.7     1.9     NNE    24   5.1      NE    53   8.78    266       87.9
   07/06/2019 18:20      84.3      83.6       37     54.6      0.00      0.00      77.7     0.34      1013.7     2.4     NNW   335   5.0      NW   320   8.78    265      113.0
   07/06/2019 18:10      85.1      84.0       35     54.4      0.00      0.00      77.7     0.34      1013.7     3.2      NW   314   6.3      NW   319   8.79    265      138.1
   07/06/2019 18:00      85.6      84.8       35     54.2      0.00      0.00      77.6     0.34      1013.7     3.0      NW   310   7.7      NW   304   8.79    265      163.6
   07/06/2019 17:50      87.0      85.6       34     54.5      0.00      0.00      77.6     0.34      1013.8     3.5     WNW   295   8.5     WNW   283   8.79    265      188.3
   07/06/2019 17:40      87.0      85.7       34     54.7      0.00      0.00      77.6     0.34      1013.8     2.3     WNW   296   6.8       W   280   8.80    265      214.3
   07/06/2019 17:30      86.4      85.9       34     54.4      0.00      0.00      77.5     0.34      1013.8     3.8     WNW   302   7.2     WSW   243   8.80    266      240.3
   07/06/2019 17:20      87.0      86.2       33     54.1      0.00      0.00      77.5     0.34      1013.9     3.4     WNW   303   6.6      SW   228   8.80    265      264.7
   07/06/2019 17:10      87.7      86.5       33     54.6      0.00      0.00      77.4     0.34      1013.9     3.5     WNW   286   8.6     WNW   303   8.81    265      289.7
   07/06/2019 17:00      87.7      86.0       34     55.2      0.00      0.00      77.3     0.34      1014.0     2.9      NW   315   6.8      NW   321   8.81    265      313.0
   07/06/2019 16:50      86.7      85.6       36     55.8      0.00      0.00      77.3     0.34      1014.0     4.2       W   270   8.9     WSW   256   8.82    266      337.7
   07/06/2019 16:40      86.0      84.8       41     58.8      0.00      0.00      77.3     0.34      1014.1     2.8     SSW   208   7.1     WSW   249   8.82    266      363.3
   07/06/2019 16:30      85.9      84.6       41     58.8      0.00      0.00      77.2     0.34      1014.2     4.0     SSE   158   7.4      SE   134   8.82    266      384.4
   07/06/2019 16:20      85.9      84.6       41     59.0      0.00      0.00      77.2     0.34      1014.2     3.9       S   186   8.4      SW   215   8.83    266      408.5
   07/06/2019 16:10      86.2      84.9       41     59.1      0.00      0.00      77.1     0.34      1014.3     4.2       S   187   7.3      SW   218   8.83    266      427.9
   07/06/2019 16:00      85.9      84.8       41     59.0      0.00      0.00      77.1     0.34      1014.4     4.2     SSE   160   7.6     SSE   167   8.84    266      447.1
   07/06/2019 15:50      87.1      85.2       40     59.5      0.00      0.00      77.0     0.34      1014.5     3.4       S   178   7.7       S   176   8.84    266      461.8
   07/06/2019 15:40      87.2      86.2       41     59.8      0.00      0.00      77.0     0.34      1014.5     2.8       E   100   7.0     ENE    72   8.84    266      477.4
   07/06/2019 15:30      86.9      86.1       41     60.4      0.00      0.00      76.9     0.34      1014.6     3.0     ESE   104   7.4     ENE    69   8.85    266      493.8
   07/06/2019 15:20      87.1      86.4       42     60.8      0.00      0.00      76.9     0.34      1014.7     2.5       E    79   5.7     NNE    20   8.85    266      508.2
   07/06/2019 15:10      87.1      86.4       42     60.6      0.00      0.00      76.8     0.34      1014.8     2.5     ENE    69   5.3     ENE    72   8.85    266      523.4
   07/06/2019 15:00      86.9      86.0       41     60.0      0.00      0.00      76.8     0.34      1014.8     2.8     ENE    60   5.8     NNE    13   8.85    266      539.6
   07/06/2019 14:50      87.1      86.0       41     59.8      0.00      0.00      76.6     0.34      1015.0     2.2      NE    51   5.1     ENE    73   8.86    266      551.6
   07/06/2019 14:40      86.8      85.0       41     59.8      0.00      0.00      76.7     0.34      1015.0     2.4     ENE    72   6.4       E    97   8.86    266      564.7
   07/06/2019 14:30      85.3      84.0       42     59.0      0.00      0.00      76.7     0.34      1015.1     3.2      NE    55   5.4     ENE    73   8.86    266      578.9
   07/06/2019 14:20      86.4      84.1       42     59.1      0.00      0.00      76.6     0.34      1015.2     3.0       E   100   7.6      SE   140   8.86    266      588.3
   07/06/2019 14:10      86.4      84.7       41     59.5      0.00      0.00      76.5     0.34      1015.4     2.7      NE    40   6.6     ENE    56   8.87    266      595.7
   07/06/2019 14:00      85.6      84.5       42     59.3      0.00      0.00      76.5     0.34      1015.5     2.5      NE    43   5.5      NE    46   8.87    266      606.4
   07/06/2019 13:50      85.6      84.0       41     58.6      0.00      0.00      76.5     0.34      1015.6     2.4      NE    37   5.6     ENE    76   8.87    266      611.8
   07/06/2019 13:40      84.5      82.9       42     58.4      0.00      0.00      76.5     0.34      1015.7     2.7       E    81   5.6       E    86   8.87    266      619.3
   07/06/2019 13:30      83.7      81.8       43     58.0      0.00      0.00      76.4     0.34      1015.9     2.1      NE    45   4.2     SSE   150   8.87    265      622.0
   07/06/2019 13:20      82.5      81.5       44     57.7      0.00      0.00      76.3     0.34      1016.0     2.0       E    93   3.7      NE    49   8.87    266      625.4
   07/06/2019 13:10      82.5      81.4       43     57.6      0.00      0.00      76.3     0.34      1016.2     2.3     NNE    30   6.1     ENE    64   8.88    266      630.5
   07/06/2019 13:00      82.4      81.3       44     58.0      0.00      0.00      76.3     0.34      1016.3     1.8     NNE    13   3.9      NW   313   8.88    266      630.6
   07/06/2019 12:50      81.5      79.8       46     57.9      0.00      0.00      76.2     0.34      1016.4     1.8       N     3   4.9      NE    53   8.88    266      633.2
   07/06/2019 12:40      80.1      79.5       48     58.0      0.00      0.00      76.2     0.34      1016.5     2.0     NNE    28   5.8      NE    43   8.88    266      630.8
   07/06/2019 12:30      80.4      78.9       48     58.4      0.00      0.00      76.2     0.34      1016.6     2.0       N     0   4.3       E    87   8.88    266      627.1
   07/06/2019 12:20      79.3      77.9       50     58.3      0.00      0.00      76.2     0.34      1016.7     2.3     NNE    33   5.3     NNE    31   8.88    266      626.2
   07/06/2019 12:10      78.4      77.0       51     58.2      0.00      0.00      76.2     0.34      1016.8     2.5      NE    48   5.3       E    93   8.88    266      620.9
   07/06/2019 12:00      77.5      76.1       53     58.1      0.00      0.00      76.1     0.34      1017.0     2.3      NE    55   5.1     ENE    60   8.88    266      614.2
   07/06/2019 11:50      76.9      75.9       54     58.4      0.00      0.00      76.1     0.34      1017.1     2.4     NNE    27   5.8     ENE    73   8.88    266      606.7
   07/06/2019 11:40      76.3      75.3       55     58.5      0.00      0.00      76.0     0.34      1017.1     2.3     ENE    57   4.9      NE    35   8.88    266      599.5
   07/06/2019 11:30      75.5      74.3       57     58.7      0.00      0.00      76.1     0.34      1017.1     2.5     ENE    76   5.1     NNE    30   8.88    266      591.1
   07/06/2019 11:20      75.2      74.3       57     58.5      0.00      0.00      76.1     0.34      1017.1     2.4     ENE    62   5.0       E    86   8.88    266      577.2
   07/06/2019 11:10      75.2      73.5       59     58.7      0.00      0.00      76.1     0.34      1017.2     2.0      NE    35   4.4       N   352   8.88    266      565.4
   07/06/2019 11:00      73.8      72.6       60     58.5      0.00      0.00      76.1     0.34      1017.2     2.5     NNE    22   5.8     NNE    13   8.88    266      553.1
   07/06/2019 10:50      73.3      71.6       61     58.4      0.00      0.00      76.0     0.34      1017.3     1.9      NE    41   5.1       E    95   8.89    266      541.4
   07/06/2019 10:40      72.1      70.8       63     58.1      0.00      0.00      76.1     0.34      1017.3     2.1      NE    53   4.6     ESE   110   8.89    266      527.9
   07/06/2019 10:30      71.6      70.5       63     58.0      0.00      0.00      76.1     0.34      1017.3     2.2      NE    52   5.8     ESE   113   8.89    266      507.9
   07/06/2019 10:20      71.6      70.6       63     58.0      0.00      0.00      76.1     0.34      1017.3     1.7      NE    38   3.7       E    82   8.89    266      490.4
   07/06/2019 10:10      71.2      69.9       64     57.7      0.00      0.00      76.2     0.34      1017.3     1.7      NE    41   3.9      SE   139   8.89    266      472.0
   07/06/2019 10:00      70.8      68.6       66     57.7      0.00      0.00      76.2     0.34      1017.4     1.5     ENE    57   3.0      NE    41   8.89    266      454.0
   07/06/2019 09:50      68.9      66.9       69     57.5      0.00      0.00      76.2     0.34      1017.4     1.4       N   355   3.4       N     3   8.89    266      430.0
   07/06/2019 09:40      67.9      67.0       70     57.2      0.00      0.00      76.3     0.34      1017.4     2.2      NE    56   4.8     ENE    62   8.89    267      414.6
   07/06/2019 09:30      67.9      65.5       73     57.6      0.00      0.00      76.3     0.34      1017.4     1.5     NNW   340   4.9       E    87   8.89    267      415.0
   07/06/2019 09:20      65.5      63.7       78     57.3      0.00      0.00      76.3     0.34      1017.5     1.4      SE   136   4.5      SE   126   8.89    268      344.6
   07/06/2019 09:10      64.2      63.7       79     57.1      0.00      0.00      76.3     0.34      1017.5     1.3     SSE   151   4.1     SSE   150   8.89    270      187.4
   07/06/2019 09:00      64.0      63.6       79     57.2      0.00      0.00      76.4     0.34      1017.6     0.9      SE   130   2.3      SE   128   8.89    270      173.8
   07/06/2019 08:50      63.9      62.7       82     57.4      0.00      0.00      76.3     0.34      1017.7     0.8      SW   236   3.4     WSW   252   8.89    270      151.8
   07/06/2019 08:40      62.8      62.2       83     57.3      0.00      0.00      76.4     0.34      1017.7     1.3       S   178   2.5       S   185   8.89    271      126.4
   07/06/2019 08:30      62.5      61.7       84     57.2      0.00      0.00      76.5     0.34      1017.6     1.6      SW   226   2.9      SW   225   8.89    271      103.3
   07/06/2019 08:20      62.0      61.4       85     57.1      0.00      0.00      76.5     0.34      1017.5     1.5      SW   220   3.2     WSW   255   8.89    270       88.3
   07/06/2019 08:10      61.9      61.2       86     57.3      0.00      0.00      76.5     0.34      1017.5     0.7     ESE   108   2.4      SE   143   8.89    270       78.1
   07/06/2019 08:00      61.6      60.9       87     57.2      0.00      0.00      76.6     0.34      1017.5     0.7      SE   133   2.3       E    90   8.89    272       60.2
   07/06/2019 07:50      61.2      60.6       88     57.3      0.00      0.00      76.6     0.34      1017.4     1.1      NE    55   2.5     ENE    61   8.89    279       50.2
   07/06/2019 07:40      60.8      60.3       89     57.3      0.00      0.00      76.6     0.34      1017.4     0.7     ENE    73   2.3      NE    46   8.89    286       47.6
   07/06/2019 07:30      60.6      60.0       90     57.3      0.00      0.00      76.7     0.34      1017.3     1.2       E    93   2.6      NE    55   8.89    289       38.9
   07/06/2019 07:20      60.3      60.0       90     57.2      0.00      0.00      76.7     0.34      1017.3     1.5       E    88   4.0     ENE    72   8.89    292       30.1
   07/06/2019 07:10      60.5      59.8       91     57.3      0.00      0.00      76.7     0.34      1017.4     1.0       E    79   3.8     ENE    61   8.89    293       22.9
   07/06/2019 07:00      60.0      59.4       91     57.1      0.00      0.00      76.7     0.34      1017.5     0.7     ESE   103   2.2     ENE    73   8.89    288       15.8
   07/06/2019 06:50      59.7      59.4       91     56.8      0.00      0.00      76.8     0.34      1017.5     0.9     ESE   105   2.9      SE   145   8.89    277       11.1
   07/06/2019 06:40      59.7      59.4       91     56.8      0.00      0.00      76.8     0.34      1017.4     1.5       E    81   4.3     ESE   107   8.89    274        7.8
   07/06/2019 06:30      59.6      58.9       91     56.5      0.00      0.00      76.8     0.34      1017.4     1.3      NE    52   3.0     NNE    28   8.89    306        6.0
   07/06/2019 06:20      59.2      58.8       91     56.2      0.00      0.00      76.8     0.34      1017.4     1.1       E    88   2.5       E    92   8.89    344        3.0
   07/06/2019 06:10      59.0      58.5       91     56.1      0.00      0.00      76.9     0.34      1017.4     1.2     ESE   111   2.5     ENE    75   8.89    393        1.8
   07/06/2019 06:00      58.8      58.4       91     56.0      0.00      0.00      76.9     0.34      1017.4     0.8      SE   131   2.7     SSE   158   8.89    415       -1.7
   07/06/2019 05:50      58.7      58.3       91     55.9      0.00      0.00      77.0     0.34      1017.4     0.8      SE   126   1.5      SE   128   8.89    423       -9.5
   07/06/2019 05:40      58.5      58.1       91     55.8      0.00      0.00      77.0     0.34      1017.3     0.3       E    85   1.1      NE    56   8.89    428      -14.6
   07/06/2019 05:30      58.5      58.0       91     55.5      0.00      0.00      77.0     0.34      1017.2     0.8       E    96   2.5       E    97   8.89    427      -13.4
   07/06/2019 05:20      58.2      57.4       91     55.1      0.00      0.00      77.1     0.34      1017.1     0.8     ENE    69   2.5      SE   143   8.89    423      -19.6
   07/06/2019 05:10      58.1      57.4       90     54.7      0.00      0.00      77.1     0.34      1017.0     0.2     ESE   113   1.4       E    97   8.89    423      -21.3
   07/06/2019 05:00      58.3      57.7       90     54.9      0.00      0.00      77.2     0.34      1016.9     0.0      SE   131   0.9      SE   131   8.89    413      -21.5
   07/06/2019 04:50      58.8      57.8       89     55.2      0.00      0.00      77.1     0.34      1016.9     0.0      SE   144   0.6      SE   143   8.90    400      -22.2
   07/06/2019 04:40      58.8      58.4       89     55.4      0.00      0.00      77.2     0.34      1016.8     0.2     ESE   123   1.4       E    91   8.90    391      -22.7
   07/06/2019 04:30      58.8      58.4       89     55.3      0.00      0.00      77.2     0.34      1016.8     0.0       N     0   0.0       S   173   8.90    382      -24.4
   07/06/2019 04:20      59.2      58.4       88     55.2      0.00      0.00      77.3     0.34      1016.7     0.0       S   174   0.5       S   173   8.90    367      -25.7
   07/06/2019 04:10      59.5      58.9       88     55.5      0.00      0.00      77.3     0.34      1016.8     0.0       N     0   0.0     SSE   150   8.90    350      -27.4
   07/06/2019 04:00      59.7      59.1       87     55.6      0.00      0.00      77.3     0.34      1016.7     0.0       N     0   0.0     ESE   117   8.90    332      -29.5
   07/06/2019 03:50      59.7      59.4       87     55.7      0.00      0.00      77.4     0.34      1016.8     0.0      SE   127   2.0     ESE   117   8.90    319      -32.2
   07/06/2019 03:40      59.7      59.3       87     55.7      0.00      0.00      77.4     0.34      1016.8     0.8      SE   128   1.9      SE   128   8.90    309      -32.7
   07/06/2019 03:30      59.7      58.6       87     55.4      0.00      0.00      77.4     0.34      1016.7     0.8      SE   130   2.1       E    97   8.90    303      -33.6
   07/06/2019 03:20      59.5      58.6       87     55.1      0.00      0.00      77.5     0.34      1016.7     0.3      SE   124   1.9     ENE    71   8.90    297      -34.6
   07/06/2019 03:10      59.6      59.2       87     55.5      0.00      0.00      77.5     0.34      1016.7     0.0       N     0   0.0     SSE   162   8.90    289      -36.6
   07/06/2019 03:00      59.7      59.1       87     55.4      0.00      0.00      77.5     0.34      1016.7     0.0      SE   136   0.5      SE   136   8.90    276      -40.5
   07/06/2019 02:50      59.6      59.3       87     55.4      0.00      0.00      77.5     0.34      1016.6     0.2       S   173   0.8       S   170   8.90    264      -44.1
   07/06/2019 02:40      59.9      59.2       85     55.0      0.00      0.00      77.5     0.34      1016.6     0.1     SSE   159   0.6     SSE   151   8.90    250      -49.0
   07/06/2019 02:30      60.7      59.7       85     55.5      0.00      0.00      77.6     0.34      1016.7     0.6       S   175   1.2       S   188   8.90    236      -50.1
   07/06/2019 02:20      60.8      60.3       84     55.7      0.00      0.00      77.5     0.34      1016.7     0.0     SSE   162   0.8       S   169   8.90    227      -51.6
   07/06/2019 02:10      61.0      60.3       84     55.6      0.00      0.00      77.6     0.34      1016.7     0.0       N     0   0.0       S   184   8.91    218      -55.4
   07/06/2019 02:00      60.9      60.5       83     55.6      0.00      0.00      77.6     0.34      1016.7     0.0       S   183   0.7       S   184   8.91    217      -58.0
   07/06/2019 01:50      61.4      60.5       81     55.1      0.00      0.00      77.7     0.34      1016.7     0.0     SSE   154   0.3     SSE   154   8.91    219      -61.4
   07/06/2019 01:40      62.0      61.1       80     55.3      0.00      0.00      77.7     0.34      1016.7     0.2      SE   133   1.0      SE   138   8.91    232      -62.3
   07/06/2019 01:30      62.5      61.8       79     55.5      0.00      0.00      77.7     0.34      1016.7     0.0      SE   146   0.3      SE   146   8.91    235      -63.3
   07/06/2019 01:20      63.2      62.3       78     55.6      0.00      0.00      77.7     0.34      1016.7     0.0       E   101   0.2       E   101   8.91    256      -65.2
   07/06/2019 01:10      63.3      62.8       77     55.7      0.00      0.00      77.7     0.34      1016.7     0.8       E    82   3.1     ENE    68   8.91    268      -66.3
   07/06/2019 01:00      63.6      63.0       77     55.7      0.00      0.00      77.8     0.34      1016.7     1.3     ESE   110   2.8      SE   134   8.91    270      -65.4
   07/06/2019 00:50      63.8      63.3       75     55.6      0.00      0.00      77.7     0.34      1016.7     1.1     ESE   110   3.1     ENE    78   8.91    270      -65.0
   07/06/2019 00:40      63.6      63.2       74     55.2      0.00      0.00      77.7     0.34      1016.8     1.0     ESE   115   2.6     ENE    74   8.91    270      -63.1
   07/06/2019 00:30      63.9      63.3       73     54.9      0.00      0.00      77.7     0.34      1016.8     0.4      SE   131   1.4      SE   140   8.92    269      -61.7
   07/06/2019 00:20      64.1      63.6       73     55.1      0.00      0.00      77.8     0.34      1016.8     0.2     ESE   121   1.0     SSW   214   8.92    269      -61.4
   07/06/2019 00:10      64.3      63.8       73     55.1      0.00      0.00      77.8     0.34      1016.8     0.6      SE   126   1.3      SE   141   8.92    269      -60.5
   07/06/2019 00:00      64.8      63.9       73     55.5      0.00      0.00      77.8     0.34      1016.7     0.3      SE   142   1.2     SSE   150   8.92    268      -59.2
   07/05/2019 23:50      65.2      64.4       72     55.5      0.00      0.00      77.8     0.34      1016.8     0.0     SSE   153   0.6      SE   143   8.92    268      -59.4
   07/05/2019 23:40      65.5      64.9       71     55.7      0.00      0.00      77.8     0.34      1016.8     0.2       S   169   0.9     SSE   162   8.92    269      -59.5
   07/05/2019 23:30      65.4      64.9       71     55.6      0.00      0.00      77.8     0.34      1016.8     0.4       S   171   1.2     SSE   157   8.92    269      -59.8
   07/05/2019 23:20      65.6      64.8       70     55.3      0.00      0.00      77.8     0.34      1016.6     0.4     SSE   164   1.2       S   178   8.92    268      -60.6
   07/05/2019 23:10      65.5      65.1       70     55.2      0.00      0.00      77.8     0.34      1016.6     0.4       S   172   1.1       S   169   8.93    269      -61.0
   07/05/2019 23:00      65.8      65.2       69     54.9      0.00      0.00      77.8     0.34      1016.5     0.4     SSE   159   1.0      SE   145   8.93    269      -62.6
   07/05/2019 22:50      66.1      65.6       69     55.1      0.00      0.00      77.8     0.34      1016.5     0.8     SSW   192   1.2     SSW   208   8.93    269      -63.6
   07/05/2019 22:40      66.4      65.6       68     55.3      0.00      0.00      77.8     0.34      1016.4     0.5       S   185   1.6     SSW   193   8.93    269      -64.2
   07/05/2019 22:30      66.7      65.9       68     55.2      0.00      0.00      77.8     0.34      1016.4     0.1     SSW   210   0.7     SSW   211   8.93    268      -65.1
   07/05/2019 22:20      67.7      66.4       65     54.9      0.00      0.00      77.9     0.34      1016.4     0.0       E    93   0.5       E    90   8.93    268      -67.2
   07/05/2019 22:10      68.4      67.4       64     55.2      0.00      0.00      77.8     0.34      1016.3     0.0      SE   144   0.7       S   173   8.93    268      -68.7
   07/05/2019 22:00      68.6      68.1       63     55.4      0.00      0.00      77.8     0.34      1016.2     0.9     SSW   206   1.7     SSW   202   8.94    268      -69.9
   07/05/2019 21:50      69.0      68.2       63     55.4      0.00      0.00      77.8     0.34      1016.2     0.8     SSW   204   1.8      SW   217   8.94    268      -72.5
   07/05/2019 21:40      69.4      68.6       63     55.5      0.00      0.00      77.8     0.34      1016.1     1.3     SSW   209   3.1      SW   215   8.94    268      -75.1
   07/05/2019 21:30      70.0      69.0       62     55.6      0.00      0.00      77.8     0.34      1016.0     1.5      SW   218   3.4     WSW   258   8.94    268      -76.6
   07/05/2019 21:20      70.1      69.6       61     55.7      0.00      0.00      77.8     0.34      1016.0     1.0      SW   216   3.0      SW   214   8.94    268      -78.5
   07/05/2019 21:10      71.1      69.7       60     55.7      0.00      0.00      77.8     0.34      1015.9     2.0     SSW   207   3.8      SW   231   8.94    268      -79.5
   07/05/2019 21:00      71.6      70.8       59     55.9      0.00      0.00      77.7     0.34      1015.7     2.1      SW   223   5.0     WSW   253   8.95    267      -80.2
   07/05/2019 20:50      72.7      71.3       58     56.1      0.00      0.00      77.7     0.34      1015.7     3.0      SW   219   5.2      SW   222   8.95    267      -81.3
   07/05/2019 20:40      73.5      72.4       56     56.3      0.00      0.00      77.7     0.34      1015.5     2.4      SW   233   4.7     SSW   200   8.95    267      -81.9
   07/05/2019 20:30      74.1      73.2       54     56.2      0.00      0.00      77.6     0.34      1015.5     2.6     WSW   245   5.3     WSW   243   8.95    267      -82.3
   07/05/2019 20:20      75.5      73.8       52     56.0      0.00      0.00      77.7     0.34      1015.4     3.5     WSW   248   6.1      NW   317   8.99    267      -82.2
   07/05/2019 20:10      76.5      75.2       51     56.4      0.00      0.00      77.6     0.34      1015.2     2.0       W   272   4.3       W   266   9.00    266      -80.7
   07/05/2019 20:00      77.8      76.3       49     56.3      0.00      0.00      77.6     0.34      1015.1     2.8       W   271   4.9       W   262   9.00    266      -77.0
   07/05/2019 19:50      79.4      77.7       46     56.3      0.00      0.00      77.5     0.34      1015.0     2.0       W   266   5.1     WSW   254   9.00    266      -72.7
   07/05/2019 19:40      80.7      79.1       44     56.0      0.00      0.00      77.5     0.34      1014.9     2.2     WSW   252   4.5      SW   224   9.00    266      -60.8
   07/05/2019 19:30      81.2      80.3       42     55.7      0.00      0.00      77.5     0.34      1014.7     1.9       W   271   5.4     SSW   213   9.01    266      -45.3
   07/05/2019 19:20      81.9      80.2       44     56.9      0.00      0.00      77.5     0.34      1014.6     2.0      SW   215   5.7       S   174   9.01    266      -26.5
   07/05/2019 19:10      82.4      81.6       41     55.7      0.00      0.00      77.4     0.34      1014.5     2.2     NNW   330   8.1     SSW   209   9.01    266       -7.4
   07/05/2019 19:00      82.4      81.8       41     55.8      0.00      0.00      77.4     0.34      1014.6     2.0      NW   322   5.1     WNW   297   9.02    266       15.8
   07/05/2019 18:50      82.9      82.0       40     56.0      0.00      0.00      77.4     0.34      1014.5     2.7     NNW   338   5.8      NW   313   9.02    266       38.8
   07/05/2019 18:40      83.7      82.5       40     56.1      0.00      0.00      77.4     0.34      1014.5     2.9     NNW   333   6.7      NW   318   9.03    266       63.0
   07/05/2019 18:30      84.6      83.3       39     56.4      0.00      0.00      77.3     0.34      1014.5     2.5     NNW   329   6.3     WNW   301   9.03    266       87.2
   07/05/2019 18:20      85.1      84.5       39     57.0      0.00      0.00      77.3     0.34      1014.4     2.0     NNW   327   5.3     NNW   337   9.03    266      112.0
   07/05/2019 18:10      85.5      84.6       39     57.2      0.00      0.00      77.3     0.34      1014.4     2.6     NNW   328   5.6     WNW   291   9.04    266      136.7
   07/05/2019 18:00      85.4      84.2       39     57.3      0.00      0.00      77.2     0.34      1014.4     2.1     NNW   331   5.5      NW   307   9.04    266      163.5
   07/05/2019 17:50      85.9      84.3       40     58.0      0.00      0.00      77.2     0.34      1014.5     4.0       W   263   8.5       W   266   9.04    266      188.7
   07/05/2019 17:40      85.5      84.2       42     59.0      0.00      0.00      77.1     0.34      1014.5     1.4       S   188   4.6      SE   128   9.05    266      213.8
   07/05/2019 17:30      85.2      84.0       42     59.0      0.00      0.00      77.1     0.34      1014.5     3.6       S   190   7.2       S   172   9.05    266      240.8
   07/05/2019 17:20      85.4      84.1       42     59.2      0.00      0.00      77.1     0.34      1014.5     3.2     SSE   153   6.3       S   176   9.05    266      265.1
   07/05/2019 17:10      85.2      84.3       43     59.4      0.00      0.00      77.0     0.34      1014.6     2.8     SSE   152   6.7     SSE   159   9.06    266      288.3
   07/05/2019 17:00      86.5      84.5       42     59.3      0.00      0.00      77.0     0.34      1014.7     3.5     SSE   161   6.3       S   190   9.06    266      308.9
   07/05/2019 16:50      86.3      84.5       41     59.1      0.00      0.00      76.9     0.34      1014.7     3.2     ESE   118   7.3     ENE    60   9.06    266      330.4
   07/05/2019 16:40      85.8      85.0       40     58.8      0.00      0.00      76.9     0.34      1014.8     2.5       E    95   6.2       E    94   9.07    266      353.9
   07/05/2019 16:30      86.1      84.6       40     58.5      0.00      0.00      76.8     0.34      1014.8     2.5     ENE    78   6.0      SE   133   9.07    266      372.1
   07/05/2019 16:20      86.0      84.6       40     58.1      0.00      0.00      76.8     0.34      1014.8     3.2     ESE   110   5.4      SE   127   9.07    266      398.5
   07/05/2019 16:10      86.4      85.4       39     57.9      0.00      0.00      76.8     0.34      1014.9     2.3       E    81   6.6       E    98   9.07    266      416.5
   07/05/2019 16:00      86.5      84.4       39     57.8      0.00      0.00      76.7     0.34      1015.0     2.7       E    80   7.6     ENE    78   9.08    266      436.5
   07/05/2019 15:50      85.6      84.5       39     57.3      0.00      0.00      76.5     0.34      1015.0     2.7       E    98   5.9     ESE   119   9.08    266      456.7
   07/05/2019 15:40      87.0      85.0       38     57.4      0.00      0.00      76.7     0.34      1015.1     2.8     ESE   111   5.8     ESE   106   9.08    266      471.8
   07/05/2019 15:30      86.9      84.9       38     57.3      0.00      0.00      76.6     0.34      1015.2     1.7      NE    47   4.6     ENE    72   9.09    266      487.3
   07/05/2019 15:20      86.4      84.3       38     57.2      0.00      0.00      76.6     0.34      1015.3     1.9     ENE    66   5.8     ESE   117   9.09    266      503.8
   07/05/2019 15:10      85.9      84.0       39     57.0      0.00      0.00      76.5     0.34      1015.4     1.9     ENE    67   4.7       E    87   9.09    266      522.3
   07/05/2019 15:00      84.8      83.3       40     56.8      0.00      0.00      76.4     0.34      1015.5     2.7     NNE    14   4.6     NNE    21   9.09    266      537.8
   07/05/2019 14:50      84.6      83.3       40     56.7      0.00      0.00      76.4     0.34      1015.6     2.6      NE    51   5.0     ESE   104   9.09    266      549.5
   07/05/2019 14:40      84.5      82.6       40     56.9      0.00      0.00      76.2     0.34      1015.8     1.8       E    79   4.0      SE   137   9.10    266      563.5
   07/05/2019 14:30      84.1      83.0       40     57.0      0.00      0.00      76.3     0.34      1015.8     2.3     ENE    61   5.7       E    92   9.10    266      574.4
   07/05/2019 14:20      83.5      81.3       42     56.9      0.00      0.00      76.3     0.34      1016.0     1.9     ESE   114   6.4     ENE    58   9.10    266      587.0
   07/05/2019 14:10      82.6      81.0       42     56.8      0.00      0.00      76.2     0.34      1016.1     2.8     ENE    61   5.7      NE    40   9.10    265      597.4
   07/05/2019 14:00      82.3      80.8       43     56.8      0.00      0.00      76.2     0.34      1016.2     2.5       E    94   5.3      NE    49   9.10    266      605.1
   07/05/2019 13:50      82.7      81.5       42     56.9      0.00      0.00      76.1     0.34      1016.2     2.7     ENE    65   5.6     ENE    62   9.11    266      610.3
   07/05/2019 13:40      81.9      80.7       44     57.4      0.00      0.00      76.0     0.34      1016.3     3.0     NNE    33   6.6      NE    36   9.11    266      614.0
   07/05/2019 13:30      81.0      79.4       45     57.0      0.00      0.00      76.0     0.34      1016.5     2.2      NE    43   5.6     ENE    60   9.11    265      625.0
   07/05/2019 13:20      80.2      79.0       46     57.0      0.00      0.00      76.0     0.34      1016.6     2.2       E    92   5.4      NE    53   9.11    266      630.0
   07/05/2019 13:10      79.9      79.3       47     57.6      0.00      0.00      75.8     0.34      1016.7     2.5      NE    40   5.3       E    93   9.11    266      628.4
   07/05/2019 13:00      79.6      79.0       47     57.6      0.00      0.00      75.9     0.34      1016.7     2.0      NE    49   4.9      NE    45   9.11    266      630.1
   07/05/2019 12:50      79.6      78.4       48     57.7      0.00      0.00      75.9     0.34      1016.8     2.7     ENE    75   4.7     ESE   112   9.11    266      630.6
   07/05/2019 12:40      79.4      76.7       50     57.7      0.00      0.00      75.8     0.34      1016.9     1.3      NE    42   3.4      NE    37   9.12    265      627.0
   07/05/2019 12:30      77.9      76.6       51     57.7      0.00      0.00      75.8     0.34      1017.0     3.0     NNE    29   6.0      NE    45   9.12    266      613.5
   07/05/2019 12:20      77.7      75.7       52     57.7      0.00      0.00      75.8     0.34      1017.0     2.5     NNE    33   5.3     ENE    61   9.12    266      616.7
   07/05/2019 12:10      77.3      76.0       52     57.6      0.00      0.00      75.8     0.34      1017.1     2.5     ENE    58   4.4     NNE    32   9.12    265      611.3
   07/05/2019 12:00      76.8      75.7       53     57.8      0.00      0.00      75.7     0.34      1017.1     2.6     NNE    21   6.1     NNW   344   9.12    266      609.2
   07/05/2019 11:50      76.2      74.6       54     57.7      0.00      0.00      75.7     0.34      1017.1     2.6     NNE    33   6.5      NE    52   9.12    266      600.5
   07/05/2019 11:40      75.7      73.7       56     57.6      0.00      0.00      75.7     0.34      1017.2     2.2     NNE    23   5.4     ENE    66   9.12    266      593.6
   07/05/2019 11:30      73.9      73.2       57     57.6      0.00      0.00      75.7     0.34      1017.2     2.6       E    88   5.7     NNE    17   9.12    266      589.4
   07/05/2019 11:20      73.6      72.6       58     57.5      0.00      0.00      75.7     0.34      1017.2     2.2       E    88   5.4      SE   144   9.12    266      577.3
   07/05/2019 11:10      73.3      72.2       59     57.6      0.00      0.00      75.7     0.34      1017.2     2.4       E    82   5.7     ENE    64   9.12    266      569.1
   07/05/2019 11:00      73.0      71.6       60     57.6      0.00      0.00      75.7     0.34      1017.2     2.2      NE    46   6.4       E    99   9.12    266      551.4
   07/05/2019 10:50      72.1      71.3       61     57.4      0.00      0.00      75.7     0.34      1017.4     2.7      NE    52   7.3       E    93   9.12    266      539.9
   07/05/2019 10:40      72.0      71.3       61     57.4      0.00      0.00      75.7     0.34      1017.4     2.3     ENE    56   4.4      NE    41   9.12    266      525.9
   07/05/2019 10:30      71.6      70.3       62     57.3      0.00      0.00      75.7     0.34      1017.2     2.4      NE    49   6.2     ESE   119   9.12    266      513.2
   07/05/2019 10:20      70.8      69.9       63     57.0      0.00      0.00      75.7     0.34      1017.2     2.3      NE    43   6.9      NE    54   9.12    266      494.7
   07/05/2019 10:10      70.6      69.3       63     56.9      0.00      0.00      75.8     0.34      1017.1     2.1       E    88   3.9      NE    37   9.12    266      476.4
   07/05/2019 10:00      69.9      69.0       64     56.6      0.00      0.00      75.8     0.34      1017.1     2.3      NE    48   4.9      NE    36   9.12    266      457.0
   07/05/2019 09:50      69.8      68.2       65     56.6      0.00      0.00      75.8     0.34      1017.1     1.5       N   354   4.1      NE    44   9.12    266      433.6
   07/05/2019 09:40      68.4      67.7       66     56.4      0.00      0.00      75.9     0.34      1017.1     1.6     NNE    12   3.8       N     4   9.12    266      410.0
   07/05/2019 09:30      67.9      66.4       69     56.6      0.00      0.00      75.9     0.34      1017.2     1.7      NE    56   4.4      NE    54   9.12    267      395.5
   07/05/2019 09:20      66.7      64.4       73     56.6      0.00      0.00      75.9     0.34      1017.2     1.6      NE    49   4.1      NE    53   9.12    267      383.1
   07/05/2019 09:10      64.4      63.3       76     56.1      0.00      0.00      76.0     0.34      1017.3     1.4     NNE    27   3.4     NNE    26   9.12    269      226.4
   07/05/2019 09:00      63.6      62.7       77     55.9      0.00      0.00      76.0     0.34      1017.3     1.5     ENE    72   3.2      NE    53   9.12    270       87.7
   07/05/2019 08:50      63.0      62.5       78     55.8      0.00      0.00      76.0     0.34      1017.3     2.9       E    91   5.3     ENE    72   9.12    270      147.4
   07/05/2019 08:40      63.0      62.5       77     55.6      0.00      0.00      76.0     0.34      1017.3     1.7      SE   133   4.2     SSE   156   9.12    270       93.4
   07/05/2019 08:30      63.1      62.4       77     55.5      0.00      0.00      76.1     0.34      1017.1     1.0       E    95   3.0     ESE   107   9.12    270       48.0
   07/05/2019 08:20      63.3      62.8       75     55.1      0.00      0.00      76.2     0.34      1017.1     2.3     ENE    78   3.9      SE   145   9.12    269       19.0
   07/05/2019 08:10      63.3      62.5       76     55.0      0.00      0.00      76.2     0.34      1017.0     1.6     NNE    19   4.7      NE    53   9.12    270       36.3
   07/05/2019 08:00      62.8      62.2       77     55.1      0.00      0.00      76.2     0.34      1016.9     1.6      NE    47   3.3      NE    39   9.12    269       56.3
   07/05/2019 07:50      62.5      61.9       78     55.1      0.00      0.00      76.2     0.34      1016.9     1.2       E    86   3.2       E    81   9.12    273       61.7
   07/05/2019 07:40      62.2      61.2       79     55.1      0.00      0.00      76.3     0.34      1016.8     0.4     NNE    32   2.1     ESE   108   9.12    284       63.1
   07/05/2019 07:30      61.3      60.6       80     54.9      0.00      0.00      76.3     0.34      1016.8     0.6       S   186   1.9       S   191   9.12    288       45.2
   07/05/2019 07:20      60.9      60.3       82     54.9      0.00      0.00      76.3     0.34      1016.8     1.0     SSE   160   2.6       S   176   9.12    288       31.7
   07/05/2019 07:10      60.6      59.9       82     54.8      0.00      0.00      76.4     0.34      1016.8     1.3     SSE   159   2.7      SE   130   9.12    307       26.9
   07/05/2019 07:00      60.1      59.4       83     54.6      0.00      0.00      76.4     0.34      1016.7     0.6       S   171   2.2     SSW   193   9.12    355       21.1
   07/05/2019 06:50      59.6      58.2       86     54.6      0.00      0.00      76.5     0.34      1016.6     0.7     SSE   155   1.6       S   178   9.12    387       15.0
   07/05/2019 06:40      58.5      57.1       88     54.2      0.00      0.00      76.5     0.34      1016.6     0.4     SSE   161   1.4       S   183   9.12    406        8.5
   07/05/2019 06:30      57.3      56.4       89     53.4      0.00      0.00      76.5     0.34      1016.5     1.0     SSE   155   1.7      SE   140   9.12    406        0.2
   07/05/2019 06:20      56.6      55.7       90     53.2      0.00      0.00      76.6     0.34      1016.4     0.8     SSE   151   1.8      SE   142   9.12    406       -4.6
   07/05/2019 06:10      55.8      55.5       89     52.4      0.00      0.00      76.6     0.34      1016.3     0.4     SSE   155   1.6      SE   145   9.12    410      -11.2
   07/05/2019 06:00      56.3      55.5       89     52.5      0.00      0.00      76.6     0.34      1016.4     0.5      SE   146   1.9      SE   142   9.12    407      -16.7
   07/05/2019 05:50      56.8      56.0       88     52.7      0.00      0.00      76.7     0.34      1016.2     1.0       S   178   1.7       S   185   9.13    401      -19.3
   07/05/2019 05:40      56.8      56.4       89     53.3      0.00      0.00      76.7     0.34      1016.0     0.7       S   171   1.7     SSW   192   9.13    407      -20.9
   07/05/2019 05:30      57.0      56.4       89     53.3      0.00      0.00      76.7     0.34      1016.0     0.6       S   188   1.4       S   179   9.13    397      -21.9
   07/05/2019 05:20      57.1      56.6       89     53.6      0.00      0.00      76.8     0.34      1015.9     0.4     SSE   164   0.7       S   183   9.13    391      -23.2
   07/05/2019 05:10      56.7      55.8       89     53.0      0.00      0.00      76.8     0.34      1015.9     0.3     SSE   151   1.1     SSE   151   9.13    380      -25.2
   07/05/2019 05:00      56.8      55.7       87     52.3      0.00      0.00      76.8     0.34      1015.7     0.4     SSE   158   1.3      SE   145   9.13    358      -26.5
   07/05/2019 04:50      57.2      56.6       88     53.3      0.00      0.00      76.9     0.34      1015.6     0.4     SSE   150   1.1     SSE   154   9.13    342      -26.4
   07/05/2019 04:40      57.3      56.6       88     53.3      0.00      0.00      77.0     0.34      1015.5     0.4     SSE   159   1.1      SE   146   9.13    331      -28.0
   07/05/2019 04:30      57.2      56.7       88     53.4      0.00      0.00      76.9     0.34      1015.5     0.3     SSE   167   0.9       S   176   9.13    323      -29.0
   07/05/2019 04:20      57.7      56.6       87     53.0      0.00      0.00      77.0     0.34      1015.5     0.5     SSE   162   1.2       S   177   9.13    316      -31.1
   07/05/2019 04:10      57.9      57.0       86     53.1      0.00      0.00      77.0     0.34      1015.4     0.6     SSE   168   1.9       S   184   9.13    307      -31.6
   07/05/2019 04:00      58.1      57.5       86     53.5      0.00      0.00      77.0     0.34      1015.4     0.6       S   176   1.1     SSW   205   9.13    301      -32.1
   07/05/2019 03:50      58.4      57.8       86     53.8      0.00      0.00      77.1     0.34      1015.4     0.0     SSE   166   0.7     SSE   166   9.13    297      -34.1
   07/05/2019 03:40      58.6      58.0       86     54.0      0.00      0.00      77.1     0.34      1015.3     0.0       S   172   0.3       S   172   9.13    288      -36.8
   07/05/2019 03:30      58.5      57.9       86     54.0      0.00      0.00      77.2     0.34      1015.4     0.5     SSE   167   0.9     SSE   164   9.13    279      -39.4
   07/05/2019 03:20      58.4      57.9       86     53.9      0.00      0.00      77.2     0.34      1015.4     0.4       S   173   1.0     SSE   168   9.14    271      -42.9
   07/05/2019 03:10      58.9      57.6       84     53.6      0.00      0.00      77.2     0.34      1015.4     0.8     SSE   153   1.6     SSE   147   9.14    262      -45.9
   07/05/2019 03:00      58.9      58.1       85     54.0      0.00      0.00      77.3     0.34      1015.4     0.6     SSE   161   1.0       S   172   9.14    254      -47.6
   07/05/2019 02:50      59.1      58.1       84     53.9      0.00      0.00      77.3     0.34      1015.4     0.5     SSE   161   1.3     SSE   151   9.14    243      -50.7
   07/05/2019 02:40      59.3      58.6       83     53.8      0.00      0.00      77.3     0.34      1015.5     0.2       S   170   1.4       S   181   9.14    234      -53.6
   07/05/2019 02:30      59.6      58.9       82     53.8      0.00      0.00      77.3     0.34      1015.5     0.7     SSE   167   1.6       S   178   9.14    226      -54.9
   07/05/2019 02:20      60.2      59.2       81     53.9      0.00      0.00      77.3     0.34      1015.5     0.4     SSE   151   1.4     SSE   164   9.14    222      -55.6
   07/05/2019 02:10      60.3      59.9       81     54.1      0.00      0.00      77.4     0.34      1015.6     0.1     SSE   158   0.7     SSE   168   9.14    219      -55.4
   07/05/2019 02:00      60.3      59.9       81     54.2      0.00      0.00      77.4     0.34      1015.6     0.1     SSE   157   0.5     SSE   157   9.14    219      -55.5
   07/05/2019 01:50      60.3      59.7       81     53.9      0.00      0.00      77.3     0.34      1015.6     0.3     SSE   162   0.7     SSE   158   9.14    218      -57.3
   07/05/2019 01:40      60.6      59.8       81     54.1      0.00      0.00      77.5     0.34      1015.7     0.3     SSW   200   1.0     SSW   213   9.14    223      -56.4
   07/05/2019 01:30      60.7      60.3       80     54.3      0.00      0.00      77.5     0.34      1015.7     0.4       S   171   0.9       S   171   9.14    226      -56.7
   07/05/2019 01:20      60.6      60.1       81     54.5      0.00      0.00      77.5     0.34      1015.6     0.1       S   173   0.8       S   174   9.14    233      -56.8
   07/05/2019 01:10      60.5      60.0       81     54.2      0.00      0.00      77.5     0.34      1015.6     0.2     SSW   195   1.4     SSW   202   9.14    244      -58.3
   07/05/2019 01:00      60.7      60.3       80     54.3      0.00      0.00      77.5     0.34      1015.5     0.7       S   188   1.6       S   191   9.15    259      -59.6
   07/05/2019 00:50      61.3      60.3       79     54.2      0.00      0.00      77.6     0.34      1015.4     0.5       S   169   1.2     SSE   159   9.15    250      -60.3
   07/05/2019 00:40      61.2      60.6       79     54.5      0.00      0.00      77.6     0.34      1015.4     0.5     SSE   165   1.2       S   172   9.15    261      -60.0
   07/05/2019 00:30      61.2      60.5       78     54.0      0.00      0.00      77.6     0.34      1015.4     0.3     SSE   162   0.7     SSE   163   9.15    266      -60.9
   07/05/2019 00:20      61.6      60.9       78     54.1      0.00      0.00      77.6     0.34      1015.4     0.5       S   178   1.0       S   179   9.15    269      -61.4
   07/05/2019 00:10      62.0      61.3       76     54.0      0.00      0.00      77.6     0.34      1015.4     0.6       S   179   1.1       S   182   9.15    269      -61.8
   07/05/2019 00:00      62.2      61.7       76     54.2      0.00      0.00      77.6     0.34      1015.3     0.6     SSW   203   1.3       S   186   9.15    270      -60.6
   07/04/2019 23:50      62.2      61.7       76     54.3      0.00      0.00      77.6     0.34      1015.3     0.1       S   178   0.7       S   179   9.15    270      -61.1
   07/04/2019 23:40      62.7      61.9       75     54.4      0.00      0.00      77.7     0.34      1015.3     0.0       S   177   0.5       S   177   9.15    271      -61.7
   07/04/2019 23:30      62.5      62.2       75     54.5      0.00      0.00      77.7     0.34      1015.2     0.0       S   174   0.6       S   171   9.16    271      -62.6
   07/04/2019 23:20      62.9      62.3       74     54.3      0.00      0.00      77.7     0.34      1015.2     0.0       S   173   0.8     SSE   155   9.16    271      -63.2
   07/04/2019 23:10      63.0      62.5       74     54.3      0.00      0.00      77.7     0.34      1015.2     0.0     SSE   161   0.7     SSE   159   9.16    271      -64.1
   07/04/2019 23:00      63.8      62.8       72     54.1      0.00      0.00      77.7     0.34      1015.1     0.3     SSE   167   1.5       S   184   9.16    271      -64.3
   07/04/2019 22:50      64.0      63.3       72     54.4      0.00      0.00      77.7     0.34      1015.1     0.3     SSW   191   1.2       S   188   9.16    271      -63.9
   07/04/2019 22:40      63.9      63.6       71     54.3      0.00      0.00      77.7     0.34      1015.0     0.4     SSW   192   1.1     SSE   167   9.16    270      -64.4
   07/04/2019 22:30      64.1      63.3       71     54.0      0.00      0.00      77.7     0.34      1015.0     0.1      SE   138   0.8      SE   139   9.16    270      -65.1
   07/04/2019 22:20      64.7      63.8       70     54.0      0.00      0.00      77.7     0.34      1014.9     0.5       S   170   0.9       S   188   9.16    269      -66.3
   07/04/2019 22:10      65.3      64.3       68     54.0      0.00      0.00      77.7     0.34      1014.9     0.0     SSE   161   0.3     SSE   161   9.17    269      -67.7
   07/04/2019 22:00      66.1      65.2       66     54.0      0.00      0.00      77.7     0.34      1014.8     0.0       E    98   1.1     ENE    68   9.17    268      -70.2
   07/04/2019 21:50      66.7      65.8       65     54.0      0.00      0.00      77.7     0.34      1014.7     0.4     ESE   116   1.4       E    84   9.17    268      -73.5
   07/04/2019 21:40      67.2      66.4       63     53.9      0.00      0.00      77.6     0.34      1014.5     0.5     ENE    76   1.8     ENE    73   9.17    268      -74.5
   07/04/2019 21:30      67.5      66.9       62     53.8      0.00      0.00      77.6     0.34      1014.3     1.3      NE    56   3.0      NE    43   9.17    268      -74.2
   07/04/2019 21:20      67.7      67.0       61     53.5      0.00      0.00      77.6     0.34      1014.2     0.8      NE    38   2.6      NE    48   9.17    268      -72.2
   07/04/2019 21:10      67.7      67.3       60     53.2      0.00      0.00      77.7     0.34      1014.1     0.4     ENE    58   1.6       E    83   9.18    268      -72.6
   07/04/2019 21:00      68.3      67.4       58     52.3      0.00      0.00      77.6     0.34      1014.0     0.1       E    91   1.3       E    86   9.18    268      -71.5
   07/04/2019 20:50      68.9      67.9       56     52.2      0.00      0.00      77.6     0.34      1013.9     0.0       S   171   0.7       S   174   9.18    267      -72.3
   07/04/2019 20:40      69.4      68.6       55     52.0      0.00      0.00      77.6     0.34      1013.8     0.6       S   178   2.2       S   176   9.19    267      -75.1
   07/04/2019 20:30      70.0      69.1       54     52.0      0.00      0.00      77.5     0.34      1013.7     1.5       S   173   2.6     SSE   158   9.19    267      -77.0
   07/04/2019 20:20      70.1      69.6       53     52.1      0.00      0.00      77.6     0.34      1013.6     1.6     SSE   166   3.5       S   186   9.19    267      -76.8
   07/04/2019 20:10      70.6      69.9       53     52.4      0.00      0.00      77.5     0.34      1013.6     2.9       S   179   5.0       S   173   9.19    267      -74.8
   07/04/2019 20:00      71.5      70.3       54     53.1      0.00      0.00      77.5     0.34      1013.5     2.3       S   182   4.2     SSE   162   9.20    267      -71.1
   07/04/2019 19:50      72.3      71.3       53     53.3      0.00      0.00      77.5     0.34      1013.4     2.1       S   175   4.9     SSE   161   9.20    266      -66.5
   07/04/2019 19:40      72.7      72.0       52     53.8      0.00      0.00      77.5     0.34      1013.3     2.4     SSE   169   4.8     SSW   198   9.20    266      -54.6
   07/04/2019 19:30      73.3      72.3       52     54.1      0.00      0.00      77.5     0.34      1013.2     2.7       S   178   5.8       S   172   9.21    266      -37.8
   07/04/2019 19:20      74.5      73.0       51     54.2      0.00      0.00      77.4     0.34      1013.2     3.7     SSE   156   6.7      SE   133   9.21    266      -19.8
   07/04/2019 19:10      75.3      74.2       50     54.6      0.00      0.00      77.4     0.34      1013.2     2.7     SSE   163   5.0      SE   134   9.21    266        0.8
   07/04/2019 19:00      75.5      75.2       49     55.0      0.00      0.00      77.4     0.34      1013.0     2.8       S   178   5.3     SSE   169   9.22    266       23.6
   07/04/2019 18:50      76.3      75.3       49     55.3      0.00      0.00      77.3     0.34      1012.9     3.7       S   175   6.3       S   177   9.22    266       47.9
   07/04/2019 18:40      77.8      76.1       49     56.0      0.00      0.00      77.3     0.34      1012.8     4.1     SSE   168   6.6       S   170   9.22    266       70.1
   07/04/2019 18:30      78.0      77.2       48     56.5      0.00      0.00      77.3     0.34      1012.6     3.4       S   171   5.9     SSE   154   9.23    266       94.6
   07/04/2019 18:20      79.5      77.5       47     56.5      0.00      0.00      77.2     0.34      1012.5     4.2     SSE   168   7.5     SSE   167   9.23    266      118.3
   07/04/2019 18:10      79.9      79.1       45     56.5      0.00      0.00      77.3     0.34      1012.5     3.3     SSE   166   5.8     SSW   193   9.24    266      142.4
   07/04/2019 18:00      80.3      79.5       45     56.8      0.00      0.00      77.2     0.34      1012.4     3.7       S   177   6.8     SSW   192   9.24    266      167.9
   07/04/2019 17:50      80.3      79.4       45     56.8      0.00      0.00      77.2     0.34      1012.3     4.2     SSW   192   7.8       S   180   9.24    266      193.9
   07/04/2019 17:40      80.7      80.1       45     56.9      0.00      0.00      77.2     0.34      1012.3     4.3       S   187   7.3       S   184   9.25    266      220.5
   07/04/2019 17:30      81.0      80.3       44     57.0      0.00      0.00      77.1     0.34      1012.4     4.5     SSE   152   7.6      SE   140   9.25    266      244.3
   07/04/2019 17:20      82.2      80.5       44     57.2      0.00      0.00      77.1     0.34      1012.5     4.3       S   177   7.4     SSE   146   9.25    266      266.9
   07/04/2019 17:10      82.3      81.0       44     57.4      0.00      0.00      77.0     0.34      1012.5     4.3       S   183  10.0     SSW   193   9.26    266      290.8
   07/04/2019 17:00      82.6      81.8       43     57.5      0.00      0.00      77.0     0.34      1012.4     4.1     SSE   159   7.2       S   170   9.26    266      316.4
   07/04/2019 16:50      82.9      81.9       42     57.1      0.00      0.00      77.0     0.34      1012.4     3.6     SSE   166   7.8      SE   144   9.26    266      335.6
   07/04/2019 16:40      84.4      82.3       41     57.0      0.00      0.00      77.0     0.34      1012.4     2.9     ESE   115   6.8       E    97   9.27    266      356.0
   07/04/2019 16:30      84.4      83.5       41     57.9      0.00      0.00      76.9     0.34      1012.4     2.5     ENE    74   8.5     ESE   103   9.27    266      371.1
   07/04/2019 16:20      84.1      82.6       42     58.0      0.00      0.00      76.9     0.34      1012.4     1.5       E    85   6.6      SE   133   9.28    266      399.9
   07/04/2019 16:10      83.3      82.4       43     58.0      0.00      0.00      76.9     0.34      1012.4     3.1     ESE   103   6.7     WNW   291   9.28    266      421.5
   07/04/2019 16:00      84.6      82.6       42     57.9      0.00      0.00      76.9     0.34      1012.4     2.6     NNW   332   6.1      SW   226   9.28    266      438.0
   07/04/2019 15:50      84.1      82.9       42     57.9      0.00      0.00      76.7     0.34      1012.5     2.2      NE    54   4.6      NE    51   9.29    266      458.2
   07/04/2019 15:40      84.5      83.6       41     58.1      0.00      0.00      76.7     0.34      1012.6     2.2      NE    45   6.6      SE   139   9.29    266      471.2
   07/04/2019 15:30      84.6      83.1       41     57.8      0.00      0.00      76.6     0.34      1012.6     2.2     ENE    72   5.6       S   185   9.29    266      493.1
   07/04/2019 15:20      84.4      82.4       42     57.5      0.00      0.00      76.7     0.34      1012.7     2.5      NE    39   5.9      NE    51   9.29    266      510.7
   07/04/2019 15:10      83.3      82.4       42     57.5      0.00      0.00      76.7     0.34      1012.8     2.5     ESE   117   6.0     ESE   111   9.29    266      529.6
   07/04/2019 15:00      83.2      81.3       44     57.8      0.00      0.00      76.6     0.34      1012.9     2.0      SE   131   7.4      SE   143   9.29    266      545.7
   07/04/2019 14:50      82.1      81.3       43     57.3      0.00      0.00      76.6     0.34      1013.0     2.6       E    91   6.5      NE    55   9.29    266      556.2
   07/04/2019 14:40      82.1      81.4       43     56.8      0.00      0.00      76.6     0.34      1013.1     1.8     ENE    69   4.4     ESE   110   9.30    266      570.8
   07/04/2019 14:30      81.6      80.7       44     57.0      0.00      0.00      76.5     0.34      1013.2     2.5     ENE    73   5.7       E    82   9.30    266      583.7
   07/04/2019 14:20      80.7      79.4       46     57.1      0.00      0.00      76.5     0.34      1013.2     2.6       E    91   5.5      NE    55   9.30    266      596.1
   07/04/2019 14:10      80.0      78.8       46     57.1      0.00      0.00      76.5     0.34      1013.3     2.2       E    89   4.4     ESE   111   9.30    266      605.6
   07/04/2019 14:00      79.9      78.5       47     57.4      0.00      0.00      76.5     0.34      1013.5     2.6     ENE    61   4.8     ENE    65   9.30    266      612.2
   07/04/2019 13:50      80.4      78.8       47     57.6      0.00      0.00      76.5     0.34      1013.7     2.2      NE    54   5.5     ESE   110   9.30    266      614.2
   07/04/2019 13:40      80.2      79.4       46     57.2      0.00      0.00      76.5     0.34      1013.8     2.1     ENE    65   4.8       E    82   9.31    266      628.3
   07/04/2019 13:30      80.1      77.7       46     56.5      0.00      0.00      76.5     0.34      1013.9     1.6       N   350   3.7     NNE    26   9.31    266      639.7
   07/04/2019 13:20      77.7      76.8       48     56.0      0.00      0.00      76.5     0.34      1014.0     2.0     SSE   155   5.0     SSW   200   9.31    266      646.4
   07/04/2019 13:10      77.6      76.2       48     56.1      0.00      0.00      76.4     0.34      1014.1     2.8       S   178   5.1     WSW   247   9.31    266      647.0
   07/04/2019 13:00      77.0      76.3       49     56.2      0.00      0.00      76.4     0.34      1014.1     3.8     WSW   242   8.2       S   181   9.31    266      649.0
   07/04/2019 12:50      76.6      75.4       50     56.1      0.00      0.00      76.4     0.34      1014.2     3.1      SW   214   5.8     SSW   206   9.31    266      649.7
   07/04/2019 12:40      76.2      75.2       51     56.2      0.00      0.00      76.4     0.34      1014.3     2.1       E    92   6.2     ESE   120   9.31    266      643.9
   07/04/2019 12:30      75.4      74.3       52     55.9      0.00      0.00      76.4     0.34      1014.4     1.7       S   188   4.1     WNW   282   9.31    266      650.6
   07/04/2019 12:20      74.8      72.6       54     55.6      0.00      0.00      76.4     0.34      1014.5     2.6       W   259   6.6     SSW   208   9.31    266      656.2
   07/04/2019 12:10      73.7      72.5       54     55.6      0.00      0.00      76.4     0.34      1014.5     4.2       W   259   6.9       W   264   9.31    266      533.6
   07/04/2019 12:00      73.7      71.2       56     55.8      0.00      0.00      76.4     0.34      1014.6     1.4      NW   314   5.4      NW   311   9.31    266      542.7
   07/04/2019 11:50      72.3      71.1       57     55.7      0.00      0.00      76.5     0.34      1014.6     2.7     WSW   259   6.2       W   275   9.31    266      414.7
   07/04/2019 11:40      72.3      71.0       57     55.7      0.00      0.00      76.4     0.34      1014.7     2.7     WSW   255   5.7      NW   317   9.31    266      416.8
   07/04/2019 11:30      72.3      71.5       57     55.8      0.00      0.00      76.4     0.34      1014.8     1.6     WNW   291   4.1     WNW   287   9.31    266      327.3
   07/04/2019 11:20      72.0      69.8       59     56.0      0.00      0.00      76.5     0.34      1014.8     1.5       N     4   4.8       N   352   9.31    266      416.4
   07/04/2019 11:10      70.0      69.5       61     55.7      0.00      0.00      76.5     0.34      1014.9     2.2     NNW   338   4.6     NNE    27   9.32    267      251.7
   07/04/2019 11:00      69.9      68.9       61     55.6      0.00      0.00      76.5     0.34      1014.8     2.4     WNW   290   4.7      NW   325   9.32    267      273.4
   07/04/2019 10:50      69.6      68.7       61     55.4      0.00      0.00      76.5     0.34      1014.7     2.4      SW   228   5.5      SW   216   9.32    267      268.9
   07/04/2019 10:40      69.7      68.8       61     55.4      0.00      0.00      76.5     0.34      1014.7     1.1       S   186   4.5     WSW   250   9.32    267      258.1
   07/04/2019 10:30      69.5      68.6       62     55.3      0.00      0.00      76.5     0.34      1014.7     1.8       S   176   3.9       S   186   9.47    267      271.0
   07/04/2019 10:20      69.3      67.5       63     55.5      0.00      0.00      76.5     0.34      1014.7     1.1     NNE    24   3.8     WSW   237   9.47    267      306.0
   07/04/2019 10:10      67.8      66.6       65     55.2      0.00      0.00      76.5     0.34      1014.7     1.4     SSW   194   4.3       S   173   9.47    268      261.2
   07/04/2019 10:00      67.7      66.4       65     55.0      0.00      0.00      76.6     0.34      1014.6     2.6       S   186   5.5      SW   227   9.47    268      246.3
   07/04/2019 09:50      67.8      66.3       66     55.4      0.00      0.00      76.6     0.34      1014.6     1.8     WSW   239   5.2     SSW   213   9.47    268      223.3
   07/04/2019 09:40      66.5      66.0       68     55.3      0.00      0.00      76.6     0.34      1014.7     1.6       E    84   4.9     SSW   196   9.47    268      209.6
   07/04/2019 09:30      66.2      65.5       69     55.3      0.00      0.00      76.6     0.34      1014.7     1.9     SSE   147   4.2       E    93   9.47    268      192.5
   07/04/2019 09:20      65.8      65.2       70     55.4      0.00      0.00      76.7     0.34      1014.7     2.4       S   175   4.5      SW   220   9.47    268      149.0
   07/04/2019 09:10      65.6      65.0       70     55.3      0.00      0.00      76.7     0.34      1014.7     1.9     SSE   161   4.7       S   181   9.47    269      128.4
   07/04/2019 09:00      65.5      64.9       70     55.3      0.00      0.00      76.7     0.34      1014.7     2.6     SSW   202   4.4     SSW   192   9.47    269      117.1
   07/04/2019 08:50      65.3      64.8       71     55.4      0.00      0.00      76.7     0.34      1014.7     1.6     WSW   253   4.0      NW   306   9.47    269      103.2
   07/04/2019 08:40      65.0      64.3       72     55.3      0.00      0.00      76.7     0.34      1014.7     1.6       W   272   3.8       W   262   9.47    269       95.5
   07/04/2019 08:30      64.5      63.9       73     55.2      0.00      0.00      76.8     0.34      1014.6     2.2      SW   221   5.2       S   188   9.47    269       96.8
   07/04/2019 08:20      64.4      63.8       73     55.2      0.00      0.00      76.8     0.34      1014.5     2.1     SSE   163   4.1      SE   133   9.47    269       85.5
   07/04/2019 08:10      64.3      63.8       73     55.2      0.00      0.00      76.8     0.34      1014.5     1.8      SE   137   3.6      SE   137   9.47    269       80.4
   07/04/2019 08:00      64.0      63.4       74     55.2      0.00      0.00      76.8     0.34      1014.4     2.0      SW   215   4.2     SSW   209   9.48    269       78.8
   07/04/2019 07:50      63.6      63.2       75     55.2      0.00      0.00      76.9     0.34      1014.4     1.8     SSE   166   3.9     ESE   124   9.48    270       66.2
   07/04/2019 07:40      63.9      63.3       74     55.3      0.00      0.00      76.9     0.34      1014.4     2.8      SE   138   5.5       S   173   9.48    270       46.0
   07/04/2019 07:30      63.9      63.2       75     55.3      0.00      0.00      76.9     0.34      1014.4     1.0       E    92   2.8      SE   130   9.48    270       43.6
   07/04/2019 07:20      63.6      63.2       75     55.4      0.00      0.00      76.9     0.34      1014.4     1.8     ESE   118   5.0      SE   137   9.48    270       37.4
   07/04/2019 07:10      63.6      63.0       76     55.4      0.00      0.00      76.9     0.34      1014.3     0.9      SE   141   4.2     SSW   194   9.48    270       26.8
   07/04/2019 07:00      63.3      63.0       75     55.2      0.00      0.00      77.0     0.34      1014.3     1.0       E    87   2.6       E    80   9.48    270       16.1
   07/04/2019 06:50      63.3      62.9       75     55.2      0.00      0.00      77.0     0.34      1014.3     0.9       E    91   2.1       E    91   9.48    270        8.7
   07/04/2019 06:40      63.2      62.5       76     55.1      0.00      0.00      77.0     0.34      1014.3     0.4     ESE   102   2.4      SE   130   9.48    270        1.6
   07/04/2019 06:30      62.8      62.4       77     55.1      0.00      0.00      77.0     0.34      1014.2     1.0       S   177   2.4      SE   140   9.48    270       -3.1
   07/04/2019 06:20      62.8      62.4       77     55.2      0.00      0.00      77.0     0.34      1014.1     0.9     ESE   116   3.1      SE   130   9.48    270       -6.6
   07/04/2019 06:10      62.6      62.3       77     55.2      0.00      0.00      77.1     0.34      1014.0     1.4       S   176   2.3     SSE   150   9.48    271       -9.4
   07/04/2019 06:00      62.6      62.2       78     55.3      0.00      0.00      77.1     0.34      1013.9     1.7      SE   129   3.0       E   101   9.48    271      -11.3
   07/04/2019 05:50      62.8      62.2       78     55.4      0.00      0.00      77.1     0.34      1013.8     1.7     ESE   109   4.2       E    85   9.48    271      -12.2
   07/04/2019 05:40      62.7      62.2       78     55.6      0.00      0.00      77.2     0.34      1013.8     0.8     ESE   110   3.5      SE   125   9.48    271      -12.8
   07/04/2019 05:30      62.7      62.3       79     55.8      0.00      0.00      77.2     0.34      1013.7     1.6       E    80   3.6       E    84   9.48    271      -13.1
   07/04/2019 05:20      62.7      62.2       79     55.9      0.00      0.00      77.2     0.34      1013.7     1.4     ESE   112   3.8     ESE   116   9.48    271      -13.0
   07/04/2019 05:10      63.0      62.3       79     55.9      0.00      0.00      77.2     0.34      1013.7     1.8     ESE   108   3.5     ESE   108   9.48    271      -12.9
   07/04/2019 05:00      62.9      62.5       78     55.7      0.00      0.00      77.3     0.34      1013.6     0.6     ENE    67   2.4     ENE    66   9.48    271      -13.2
   07/04/2019 04:50      62.8      62.5       78     55.7      0.00      0.00      77.2     0.34      1013.5     1.2      NE    46   2.8      NE    45   9.48    271      -13.4
   07/04/2019 04:40      62.9      62.5       78     55.8      0.00      0.00      77.3     0.34      1013.4     1.3     ENE    60   2.9     ENE    74   9.49    271      -13.4
   07/04/2019 04:30      62.7      62.4       79     55.8      0.00      0.00      77.3     0.34      1013.4     1.5     ENE    69   4.0       E   101   9.49    271      -13.3
   07/04/2019 04:20      62.8      62.2       79     55.9      0.00      0.00      77.4     0.34      1013.4     2.1     ENE    71   6.1       E    83   9.49    271      -12.9
   07/04/2019 04:10      62.7      62.2       79     55.9      0.00      0.00      77.4     0.34      1013.4     2.0      SE   127   4.5      SE   139   9.49    271      -13.0
   07/04/2019 04:00      62.7      62.2       79     55.9      0.00      0.00      77.4     0.34      1013.4     1.7     ESE   113   5.0      SE   132   9.49    271      -13.2
   07/04/2019 03:50      62.5      62.2       79     55.9      0.00      0.00      77.4     0.34      1013.3     1.6      SE   128   3.3     ESE   116   9.49    271      -13.4
   07/04/2019 03:40      62.5      62.2       79     55.9      0.00      0.00      77.5     0.34      1013.2     1.6      SE   139   4.0      SE   132   9.49    271      -13.6
   07/04/2019 03:30      62.7      62.2       80     56.0      0.00      0.00      77.5     0.34      1013.2     1.4      SE   131   3.7     SSE   151   9.49    271      -13.4
   07/04/2019 03:20      62.7      62.2       80     56.0      0.00      0.00      77.5     0.34      1013.2     2.1     SSE   147   5.0      SE   124   9.49    271      -13.5
   07/04/2019 03:10      62.9      62.3       79     56.1      0.00      0.00      77.5     0.34      1013.3     2.0     ESE   118   4.5     SSE   153   9.49    271      -13.3
   07/04/2019 03:00      63.1      62.7       79     56.2      0.00      0.00      77.6     0.34      1013.2     2.1       E    97   4.1      SE   141   9.49    271      -13.3
   07/04/2019 02:50      63.1      62.6       79     56.3      0.00      0.00      77.6     0.34      1013.2     1.1     ESE   103   3.9      SE   137   9.49    271      -13.4
   07/04/2019 02:40      63.2      62.7       79     56.3      0.00      0.00      77.6     0.34      1013.2     1.9       E    94   4.5       E    80   9.49    271      -13.2
   07/04/2019 02:30      63.2      62.8       79     56.4      0.00      0.00      77.6     0.34      1013.2     1.8     ESE   118   4.8      SE   131   9.49    271      -13.2
   07/04/2019 02:20      63.2      62.8       79     56.4      0.00      0.00      77.7     0.34      1013.2     1.0       E    86   4.1       E    84   9.49    271      -12.9
   07/04/2019 02:10      63.3      62.9       79     56.4      0.00      0.00      77.7     0.34      1013.2     1.9     ESE   106   4.3      SE   137   9.50    271      -13.0
   07/04/2019 02:00      63.5      63.0       79     56.5      0.00      0.00      77.7     0.34      1013.2     1.9       E    86   3.9       E    95   9.50    271      -13.5
   07/04/2019 01:50      63.6      63.2       79     56.6      0.00      0.00      77.7     0.34      1013.2     1.3       E    92   3.0     ENE    66   9.50    271      -13.5
   07/04/2019 01:40      63.5      63.2       79     56.6      0.00      0.00      77.8     0.34      1013.3     1.9       E    81   3.8      NE    53   9.50    271      -15.0
   07/04/2019 01:30      63.6      63.2       78     56.5      0.00      0.00      77.8     0.34      1013.3     1.5     ESE   104   4.2     ENE    67   9.50    271      -18.1
   07/04/2019 01:20      63.5      63.1       79     56.5      0.00      0.00      77.9     0.34      1013.4     1.4     ESE   106   4.3     ENE    65   9.50    271      -27.4
   07/04/2019 01:10      63.4      63.1       79     56.5      0.00      0.00      77.9     0.34      1013.3     1.2     ESE   106   2.8     ENE    59   9.50    271      -38.4
   07/04/2019 01:00      63.5      63.0       78     56.3      0.00      0.00      78.0     0.34      1013.3     1.7       E    98   3.1      SE   132   9.50    271      -52.9
   07/04/2019 00:50      63.8      63.2       77     56.0      0.00      0.00      77.9     0.34      1013.3     1.0     ESE   113   2.1       S   179   9.50    271      -63.9
   07/04/2019 00:40      63.6      63.2       76     55.9      0.00      0.00      77.9     0.34      1013.2     0.9     ESE   120   2.9      SE   133   9.50    271      -63.7
   07/04/2019 00:30      63.7      63.2       75     55.5      0.00      0.00      78.0     0.34      1013.2     0.9       E   101   2.7       E    94   9.50    271      -62.9
   07/04/2019 00:20      63.8      63.3       74     55.1      0.00      0.00      78.0     0.34      1013.2     0.4       E    93   2.2     ENE    67   9.50    271      -62.7
   07/04/2019 00:10      63.8      63.3       73     54.6      0.00      0.00      78.0     0.34      1013.2     0.4       E    85   1.9     ESE   109   9.51    271      -62.2
   07/04/2019 00:00      64.0      63.3       72     54.2      0.00      0.00      78.0     0.34      1013.2     0.7       E   100   1.7       E    87   9.51    271      -60.7
   07/03/2019 23:50      64.6      63.7       70     54.0      0.00      0.00      78.0     0.34      1013.2     0.0       N     0   0.0     ESE   119   9.51    270      -60.5
   07/03/2019 23:40      65.2      64.3       68     54.0      0.00      0.00      78.0     0.34      1013.2     0.5     ESE   121   1.6     ESE   120   9.51    270      -62.1
   07/03/2019 23:30      65.2      64.9       68     54.0      0.00      0.00      78.1     0.34      1013.2     0.9     ESE   110   2.1      SE   132   9.51    269      -64.6
   07/03/2019 23:20      65.1      64.4       67     53.5      0.00      0.00      78.1     0.34      1013.2     0.8     ESE   112   2.3     ESE   115   9.51    269      -62.8
   07/03/2019 23:10      65.0      64.4       66     53.0      0.00      0.00      78.1     0.34      1013.2     0.8     ESE   119   1.6     ESE   104   9.51    269      -61.9
   07/03/2019 23:00      64.9      64.4       66     52.9      0.00      0.00      78.1     0.34      1013.2     0.5      SE   129   1.8      SE   139   9.52    269      -61.4
   07/03/2019 22:50      64.9      64.5       66     52.9      0.00      0.00      78.1     0.34      1013.2     0.2      SE   135   1.1       S   185   9.52    269      -61.8
   07/03/2019 22:40      65.5      64.6       64     52.6      0.00      0.00      78.1     0.34      1013.2     0.1      SE   133   1.6       E    97   9.52    269      -62.3
   07/03/2019 22:30      65.8      65.1       63     52.6      0.00      0.00      78.1     0.34      1013.2     0.0     SSE   166   0.3     SSE   159   9.52    268      -63.1
   07/03/2019 22:20      65.9      65.3       62     52.3      0.00      0.00      78.1     0.34      1013.2     0.4       S   176   1.1       S   175   9.52    268      -63.5
   07/03/2019 22:10      65.8      65.4       61     52.0      0.00      0.00      78.1     0.34      1013.1     0.2       S   171   0.8       S   189   9.52    268      -64.2
   07/03/2019 22:00      66.0      65.3       61     51.9      0.00      0.00      78.1     0.34      1013.1     0.4       S   175   1.6       S   186   9.52    268      -66.2
   07/03/2019 21:50      66.7      65.6       60     51.9      0.00      0.00      78.1     0.34      1013.1     0.5      SE   145   1.3     ESE   122   9.53    268      -68.3
   07/03/2019 21:40      67.2      66.4       59     52.0      0.00      0.00      78.2     0.34      1013.0     0.6     SSE   166   1.7       S   176   9.53    267      -70.9
   07/03/2019 21:30      67.5      66.9       58     52.0      0.00      0.00      78.1     0.34      1012.9     1.8       S   177   3.9       S   189   9.53    267      -72.7
   07/03/2019 21:20      67.7      67.2       58     52.0      0.00      0.00      78.1     0.34      1012.8     1.8     SSE   164   3.8     SSE   157   9.53    267      -73.9
   07/03/2019 21:10      68.0      67.3       57     51.7      0.00      0.00      78.1     0.34      1012.6     2.3       S   173   4.4       S   176   9.53    267      -74.2
   07/03/2019 21:00      68.1      67.6       56     51.7      0.00      0.00      78.1     0.34      1012.5     2.0       S   175   3.9       S   191   9.54    267      -74.6
   07/03/2019 20:50      68.6      67.8       56     51.7      0.00      0.00      78.1     0.34      1012.4     1.6       S   171   3.0       S   181   9.54    267      -75.0
   07/03/2019 20:40      68.9      68.2       55     51.7      0.00      0.00      78.1     0.34      1012.3     2.5       S   178   4.4       S   170   9.54    266      -75.6
   07/03/2019 20:30      69.3      68.6       54     51.7      0.00      0.00      78.1     0.34      1012.2     2.5       S   174   4.6       S   190   9.55    266      -76.2
   07/03/2019 20:20      69.9      68.9       53     51.6      0.00      0.00      78.1     0.34      1012.2     3.1       S   187   5.3       S   184   9.55    266      -75.6
   07/03/2019 20:10      70.7      69.6       51     51.4      0.00      0.00      78.1     0.34      1012.1     3.1       S   179   6.5       S   177   9.55    266      -73.9
   07/03/2019 20:00      71.4      70.4       50     51.1      0.00      0.00      78.0     0.34      1011.9     3.1       S   180   5.7       S   172   9.56    266      -69.9
   07/03/2019 19:50      72.3      71.2       48     51.0      0.00      0.00      78.0     0.34      1011.8     3.0       S   190   5.7     SSW   210   9.56    266      -65.1
   07/03/2019 19:40      73.4      72.0       48     51.6      0.00      0.00      78.0     0.34      1011.7     3.4       S   181   6.0     SSW   193   9.56    266      -53.9
   07/03/2019 19:30      74.3      73.0       46     51.5      0.00      0.00      78.0     0.34      1011.7     2.7       S   180   5.9       S   181   9.57    266      -37.9
   07/03/2019 19:20      74.5      74.0       45     51.6      0.00      0.00      78.0     0.34      1011.6     2.9       S   172   6.2       S   181   9.57    266      -19.8
   07/03/2019 19:10      75.0      74.0       45     51.8      0.00      0.00      78.0     0.34      1011.6     3.7       S   183   6.7       S   188   9.58    266        1.1
   07/03/2019 19:00      75.7      74.6       45     52.3      0.00      0.00      77.9     0.34      1011.5     3.6     SSE   167   7.5       S   180   9.58    266       23.7
   07/03/2019 18:50      76.0      75.1       44     52.3      0.00      0.00      77.9     0.34      1011.3     4.0     SSE   153   7.1      SE   145   9.58    266       47.8
   07/03/2019 18:40      76.2      75.6       44     52.2      0.00      0.00      77.9     0.34      1011.3     3.5     SSE   153   6.1     SSE   164   9.59    266       71.5
   07/03/2019 18:30      76.9      75.7       43     52.3      0.00      0.00      77.8     0.34      1011.2     4.9      SE   141   8.6     ESE   115   9.59    266       95.8
   07/03/2019 18:20      76.8      76.3       44     52.7      0.00      0.00      77.8     0.34      1011.1     4.1     SSE   158   7.7      SE   140   9.59    266      120.2
   07/03/2019 18:10      76.7      75.9       45     53.3      0.00      0.00      77.8     0.34      1011.1     5.1     SSE   161   8.1     SSE   157   9.60    266      145.6
   07/03/2019 18:00      77.5      76.5       45     54.0      0.00      0.00      77.7     0.34      1011.1     4.9     SSE   160   8.4      SE   141   9.60    266      171.2
   07/03/2019 17:50      78.1      76.7       45     54.6      0.00      0.00      77.7     0.34      1011.1     5.1     SSE   158   8.5       S   173   9.61    266      196.3
   07/03/2019 17:40      78.9      77.7       45     55.1      0.00      0.00      77.7     0.34      1011.0     5.0     SSE   163   7.9      SE   132   9.61    266      221.3
   07/03/2019 17:30      79.7      78.6       44     55.5      0.00      0.00      77.6     0.34      1010.9     4.5       S   169   7.9     SSE   147   9.62    266      244.8
   07/03/2019 17:20      79.6      78.6       45     55.9      0.00      0.00      77.6     0.34      1011.0     4.4       S   175  11.2     SSW   205   9.62    266      271.8
   07/03/2019 17:10      80.2      79.2       44     56.1      0.00      0.00      77.5     0.34      1010.9     5.1       S   177   9.3       S   185   9.63    266      296.1
   07/03/2019 17:00      80.2      79.4       45     56.4      0.00      0.00      77.5     0.34      1010.9     5.0       S   181   9.8       S   186   9.63    266      319.7
   07/03/2019 16:50      80.3      79.5       45     56.5      0.00      0.00      77.5     0.34      1010.9     4.9       S   186   8.2      SE   135   9.64    266      343.3
   07/03/2019 16:40      80.2      79.6       46     57.1      0.00      0.00      77.4     0.34      1011.0     4.8       S   176   9.0     SSW   206   9.64    266      365.4
   07/03/2019 16:30      80.7      79.4       46     57.4      0.00      0.00      77.4     0.34      1011.1     5.6     SSE   162  10.4      SE   131   9.64    266      382.5
   07/03/2019 16:20      81.6      80.8       45     57.9      0.00      0.00      77.3     0.34      1011.1     5.3       S   179  10.1     SSW   198   9.65    266      403.2
   07/03/2019 16:10      82.3      81.0       45     58.3      0.00      0.00      77.3     0.34      1011.1     5.0       S   172   9.7     SSE   169   9.65    266      427.7
   07/03/2019 16:00      81.9      81.1       45     58.2      0.00      0.00      77.2     0.34      1011.2     5.0       S   173   8.7      SW   216   9.66    266      449.8
   07/03/2019 15:50      82.1      81.3       45     58.2      0.00      0.00      77.2     0.34      1011.2     4.5       S   171   8.9      SW   218   9.66    266      466.3
   07/03/2019 15:40      82.4      81.0       45     58.3      0.00      0.00      77.2     0.34      1011.2     4.2     SSE   150   7.7      SE   141   9.66    266      475.4
   07/03/2019 15:30      82.2      81.3       45     58.3      0.00      0.00      77.1     0.34      1011.3     5.1       S   177   8.7     SSW   205   9.67    266      480.6
   07/03/2019 15:20      82.4      81.3       45     58.3      0.00      0.00      77.1     0.34      1011.3     4.5     SSE   164   9.9      SE   138   9.67    266      519.7
   07/03/2019 15:10      82.4      81.7       44     58.2      0.00      0.00      77.0     0.34      1011.4     4.5     SSE   168  11.6       S   187   9.68    266      539.4
   07/03/2019 15:00      82.6      81.6       44     58.3      0.00      0.00      77.0     0.34      1011.5     4.8       S   187   9.0     SSW   197   9.68    266      550.0
   07/03/2019 14:50      82.9      81.9       44     58.3      0.00      0.00      76.9     0.34      1011.6     4.4       S   172   8.3      SE   127   9.68    266      555.7
   07/03/2019 14:40      83.0      81.5       44     58.3      0.00      0.00      76.9     0.34      1011.7     3.9       S   176   8.5     SSW   192   9.69    266      581.5
   07/03/2019 14:30      82.5      81.5       45     58.4      0.00      0.00      76.8     0.34      1011.8     4.3       S   170   8.8      SW   218   9.69    266      574.9
   07/03/2019 14:20      82.8      81.4       45     58.5      0.00      0.00      76.8     0.34      1011.8     4.3     SSE   167   6.8     SSW   196   9.69    266      585.3
   07/03/2019 14:10      82.6      81.5       45     58.6      0.00      0.00      76.7     0.34      1011.8     2.9     SSE   149   7.6       S   181   9.69    266      592.5
   07/03/2019 14:00      82.9      81.4       45     58.5      0.00      0.00      76.7     0.34      1012.0     3.6       S   169   7.0      SW   226   9.70    266      620.5
   07/03/2019 13:50      83.3      82.0       43     58.2      0.00      0.00      76.6     0.34      1012.0     3.4     SSE   167   8.3     SSW   204   9.70    266      634.1
   07/03/2019 13:40      82.3      81.1       43     57.2      0.00      0.00      76.6     0.34      1012.1     2.4       E    92   5.1     ENE    73   9.70    265      584.4
   07/03/2019 13:30      83.3      81.3       42     56.8      0.00      0.00      76.5     0.34      1012.1     2.3      SE   144   6.5      SE   143   9.70    265      592.2
   07/03/2019 13:20      82.1      81.1       43     56.7      0.00      0.00      76.5     0.34      1012.2     2.7     ESE   106   6.8      SE   134   9.70    266      631.7
   07/03/2019 13:10      82.1      80.6       43     56.8      0.00      0.00      76.4     0.34      1012.3     2.5      NE    52   4.2     ENE    71   9.71    264      641.9
   07/03/2019 13:00      82.3      80.7       43     57.0      0.00      0.00      76.4     0.34      1012.4     2.9     NNE    28   5.1      NE    47   9.71    265      657.4
   07/03/2019 12:50      82.3      78.8       45     57.1      0.00      0.00      76.4     0.34      1012.6     1.9     NNE    16   5.4     ENE    68   9.71    265      660.1
   07/03/2019 12:40      79.3      78.0       48     57.1      0.00      0.00      76.4     0.34      1012.8     2.5     ESE   121   6.4     SSE   148   9.71    266      459.1
   07/03/2019 12:30      80.1      78.8       47     57.5      0.00      0.00      76.3     0.34      1012.9     3.1       E    95   8.4      SE   130   9.71    265      608.6
   07/03/2019 12:20      80.0      78.4       48     57.4      0.00      0.00      76.3     0.34      1013.0     2.0     NNE    24   4.9     NNW   340   9.71    265      605.7
   07/03/2019 12:10      79.7      78.4       47     57.3      0.00      0.00      76.3     0.34      1013.2     2.4     NNE    18   4.8     NNE    33   9.71    265      629.0
   07/03/2019 12:00      78.6      76.8       49     57.0      0.00      0.00      76.3     0.34      1013.3     1.6     NNW   342   3.8       N     4   9.72    266      532.7
   07/03/2019 11:50      77.7      76.6       50     57.1      0.00      0.00      76.3     0.34      1013.4     1.9       N     3   5.4       N   355   9.72    266      567.8
   07/03/2019 11:40      77.6      76.3       50     57.0      0.00      0.00      76.3     0.34      1013.4     1.6     NNE    17   4.5       N   355   9.72    266      575.4
   07/03/2019 11:30      76.6      75.5       52     56.8      0.00      0.00      76.3     0.34      1013.5     1.4       E    99   4.1     ESE   114   9.72    265      583.3
   07/03/2019 11:20      75.7      74.3       53     56.8      0.00      0.00      76.3     0.34      1013.5     1.9      NE    36   4.1     NNW   330   9.72    266      596.5
   07/03/2019 11:10      75.1      73.8       54     56.7      0.00      0.00      76.2     0.34      1013.6     2.6      NE    51   4.9      NE    45   9.72    266      552.0
   07/03/2019 11:00      75.4      73.7       54     56.9      0.00      0.00      76.2     0.34      1013.7     1.7     NNW   345   4.4     NNW   349   9.72    265      508.0
   07/03/2019 10:50      74.0      72.4       56     56.6      0.00      0.00      76.3     0.34      1013.8     1.4     NNE    12   3.4     SSE   154   9.72    266      474.1
   07/03/2019 10:40      72.9      71.1       58     56.4      0.00      0.00      76.3     0.34      1013.9     1.6     SSE   154   5.6     SSW   195   9.72    266      542.2
   07/03/2019 10:30      72.4      71.3       58     56.4      0.00      0.00      76.3     0.34      1013.9     2.2       W   268   5.3      NW   312   9.72    266      528.5
   07/03/2019 10:20      72.5      71.5       58     56.7      0.00      0.00      76.2     0.34      1014.0     1.8       N   358   4.8       N     0   9.72    266      450.1
   07/03/2019 10:10      71.8      70.9       60     56.6      0.00      0.00      76.3     0.34      1014.0     2.3     NNW   337   4.7       N   353   9.72    266      439.2
   07/03/2019 10:00      71.6      70.2       60     56.5      0.00      0.00      76.3     0.34      1014.0     1.7     ENE    58   3.5      SE   140   9.72    266      432.0
   07/03/2019 09:50      70.3      68.9       63     56.3      0.00      0.00      76.3     0.34      1014.0     1.5     NNE    20   3.5      NE    44   9.73    266      436.3
   07/03/2019 09:40      69.3      67.6       65     56.2      0.00      0.00      76.4     0.34      1013.9     2.2     WSW   248   4.2       W   259   9.72    266      407.5
   07/03/2019 09:30      68.7      67.8       66     56.2      0.00      0.00      76.4     0.34      1014.0     2.3     ESE   116   5.3     SSE   163   9.73    267      296.2
   07/03/2019 09:20      68.6      67.1       66     56.4      0.00      0.00      76.4     0.34      1014.1     1.9     ESE   105   4.9     SSE   147   9.73    267      452.8
   07/03/2019 09:10      67.2      65.9       70     56.3      0.00      0.00      76.4     0.34      1014.1     1.0       E    95   3.5     NNE    16   9.73    268      233.3
   07/03/2019 09:00      66.2      65.3       71     56.3      0.00      0.00      76.5     0.34      1014.2     1.1      SE   127   3.4     SSE   152   9.73    268      163.8
   07/03/2019 08:50      65.6      65.1       73     56.4      0.00      0.00      76.5     0.34      1014.2     2.1       E    91   4.5       E    80   9.73    269      142.6
   07/03/2019 08:40      65.4      64.8       74     56.4      0.00      0.00      76.6     0.34      1014.3     1.6     ESE   115   3.9     ENE    76   9.73    269      120.4
   07/03/2019 08:30      65.3      64.4       74     56.4      0.00      0.00      76.5     0.34      1014.3     1.2       E    79   2.9     ESE   109   9.73    269      104.1
   07/03/2019 08:20      65.2      64.6       74     56.5      0.00      0.00      76.6     0.34      1014.3     1.2     ESE   103   3.2      SE   125   9.73    270       86.5
   07/03/2019 08:10      64.9      64.3       75     56.4      0.00      0.00      76.6     0.34      1014.2     0.7     NNE    18   2.7     NNE    29   9.73    270       72.3
   07/03/2019 08:00      64.4      63.7       76     56.2      0.00      0.00      76.7     0.34      1014.1     0.6       N   354   2.7      NE    41   9.73    270       77.0
   07/03/2019 07:50      64.1      63.2       77     56.2      0.00      0.00      76.7     0.34      1014.1     0.9       E    87   2.5       E   100   9.73    270       60.1
   07/03/2019 07:40      63.5      62.9       78     56.0      0.00      0.00      76.7     0.34      1013.9     1.4      SE   133   3.5      SE   130   9.73    271       46.9
   07/03/2019 07:30      63.2      62.5       78     56.0      0.00      0.00      76.8     0.34      1013.8     1.6      SE   139   3.7      SE   126   9.73    271       37.3
   07/03/2019 07:20      62.8      62.4       79     56.0      0.00      0.00      76.8     0.34      1013.7     1.9      SE   135   3.4      SE   137   9.73    271       27.2
   07/03/2019 07:10      62.7      62.2       79     55.9      0.00      0.00      76.8     0.34      1013.7     1.5     SSE   159   3.0     SSE   163   9.73    271       19.7
   07/03/2019 07:00      62.5      61.9       80     55.9      0.00      0.00      76.9     0.34      1013.6     1.4      SE   133   3.2       E    83   9.73    271       14.4
   07/03/2019 06:50      62.2      61.7       80     55.8      0.00      0.00      76.9     0.34      1013.5     1.5     ESE   106   2.8      SE   134   9.73    271        9.0
   07/03/2019 06:40      62.1      61.6       81     55.9      0.00      0.00      76.9     0.34      1013.4     1.3      SE   141   3.6      SE   138   9.73    271        2.8
   07/03/2019 06:30      62.1      61.6       81     55.9      0.00      0.00      77.0     0.34      1013.4     2.0      SE   125   3.5     SSW   198   9.74    271        0.4
   07/03/2019 06:20      62.2      61.7       81     56.0      0.00      0.00      77.0     0.34      1013.3     2.1     ESE   122   5.5     ESE   102   9.74    272       -2.2
   07/03/2019 06:10      62.0      61.7       82     56.3      0.00      0.00      77.0     0.34      1013.2     2.1       E    81   3.9       E    85   9.74    272       -4.5
   07/03/2019 06:00      62.0      61.6       82     56.3      0.00      0.00      77.1     0.34      1013.0     1.6     ESE   107   3.4       E    94   9.74    272       -6.6
   07/03/2019 05:50      61.7      61.3       84     56.4      0.00      0.00      77.1     0.34      1013.0     1.5     ESE   112   4.4      SE   137   9.74    272       -7.2
   07/03/2019 05:40      61.3      60.8       85     56.4      0.00      0.00      77.2     0.34      1013.0     0.7     ESE   119   2.5     ESE   116   9.74    272       -9.9
   07/03/2019 05:30      61.1      60.8       85     56.4      0.00      0.00      77.2     0.34      1012.9     1.0     ESE   119   2.5      SE   134   9.74    271      -28.0
   07/03/2019 05:20      61.3      60.8       85     56.4      0.00      0.00      77.2     0.34      1012.8     1.1     ESE   108   2.5      SE   133   9.74    249      -53.0
   07/03/2019 05:10      61.8      61.1       84     56.6      0.00      0.00      77.3     0.34      1012.7     0.6       E    85   1.6       E    83   9.74    224      -64.1
   07/03/2019 05:00      62.3      61.4       85     56.9      0.00      0.00      77.3     0.34      1012.7     1.0     ENE    77   2.4       E   100   9.74    241      -57.5
   07/03/2019 04:50      62.0      61.4       85     57.1      0.00      0.00      77.3     0.34      1012.7     1.2       E    87   3.9     ENE    69   9.74    265      -32.3
   07/03/2019 04:40      61.6      60.3       85     56.5      0.00      0.00      77.3     0.34      1012.6     1.2     ESE   104   3.1      SE   126   9.74    271      -14.5
   07/03/2019 04:30      60.5      58.3       85     54.6      0.00      0.00      77.4     0.34      1012.6     1.2     ESE   119   3.1      SE   143   9.74    271       -7.3
   07/03/2019 04:20      58.7      58.0       83     53.4      0.00      0.00      77.4     0.34      1012.5     0.6     SSE   160   1.7     ENE    79   9.74    224      -35.1
   07/03/2019 04:10      58.8      58.4       84     53.6      0.00      0.00      77.5     0.34      1012.4     0.0     SSE   166   0.5       S   179   9.74    223      -49.1
   07/03/2019 04:00      59.3      58.1       83     53.2      0.00      0.00      77.5     0.34      1012.4     0.5     SSE   163   1.1       S   171   9.74    217      -53.5
   07/03/2019 03:50      59.2      58.8       83     53.7      0.00      0.00      77.5     0.34      1012.4     0.5       S   179   1.2       S   177   9.74    217      -52.3
   07/03/2019 03:40      59.5      58.7       82     53.5      0.00      0.00      77.5     0.34      1012.3     0.5       S   189   1.7       S   190   9.75    217      -54.8
   07/03/2019 03:30      59.7      59.1       82     53.7      0.00      0.00      77.6     0.34      1012.2     0.5       S   172   1.1       S   179   9.75    216      -55.3
   07/03/2019 03:20      59.7      59.2       81     53.7      0.00      0.00      77.6     0.34      1012.1     0.6       S   191   1.2       S   176   9.75    219      -55.2
   07/03/2019 03:10      60.0      59.5       81     53.8      0.00      0.00      77.7     0.34      1012.1     0.0       N     0   0.0       S   189   9.75    219      -56.6
   07/03/2019 03:00      60.6      59.5       80     53.7      0.00      0.00      77.7     0.34      1012.1     0.9     SSW   206   1.9     SSW   206   9.75    225      -57.4
   07/03/2019 02:50      60.6      60.2       80     54.0      0.00      0.00      77.7     0.34      1012.1     0.9       S   187   1.5     SSW   211   9.75    234      -56.6
   07/03/2019 02:40      60.6      59.9       79     53.6      0.00      0.00      77.7     0.34      1012.1     0.4     SSW   195   0.9     SSW   205   9.75    245      -56.6
   07/03/2019 02:30      60.5      59.9       77     52.9      0.00      0.00      77.8     0.34      1012.1     0.0       S   176   0.8       S   178   9.75    256      -58.7
   07/03/2019 02:20      61.1      60.3       76     52.9      0.00      0.00      77.8     0.34      1012.1     0.2     SSE   162   0.8       S   171   9.75    262      -60.2
   07/03/2019 02:10      61.3      60.8       75     53.0      0.00      0.00      77.8     0.34      1012.2     0.8       S   180   1.5     SSW   196   9.75    265      -60.4
   07/03/2019 02:00      61.5      61.0       74     53.1      0.00      0.00      77.9     0.34      1012.3     0.4     SSW   196   1.8     SSW   202   9.76    264      -60.1
   07/03/2019 01:50      61.3      60.4       75     52.9      0.00      0.00      77.9     0.34      1012.3     0.7       S   185   2.1     SSW   200   9.76    267      -60.0
   07/03/2019 01:40      61.3      60.7       75     52.8      0.00      0.00      77.9     0.34      1012.4     0.2     SSE   163   1.0       S   186   9.76    268      -61.8
   07/03/2019 01:30      61.9      61.0       73     52.6      0.00      0.00      77.9     0.34      1012.5     0.5       S   170   1.8       S   191   9.76    269      -62.7
   07/03/2019 01:20      62.1      61.3       72     52.8      0.00      0.00      78.0     0.34      1012.5     1.0     SSW   201   1.8     SSW   200   9.76    270      -61.5
   07/03/2019 01:10      62.7      61.4       71     52.6      0.00      0.00      78.0     0.34      1012.6     0.2       S   174   0.8       S   170   9.76    270      -62.5
   07/03/2019 01:00      62.5      61.7       72     52.8      0.00      0.00      78.0     0.34      1012.6     0.3       S   183   1.2       S   182   9.76    270      -62.1
   07/03/2019 00:50      63.1      62.2       70     52.8      0.00      0.00      78.0     0.34      1012.7     0.3     SSE   164   1.0     SSE   158   9.77    270      -63.2
   07/03/2019 00:40      63.6      62.9       69     52.9      0.00      0.00      78.0     0.34      1012.7     0.1       S   174   0.9       S   176   9.77    270      -63.4
   07/03/2019 00:30      63.5      63.0       69     53.0      0.00      0.00      78.0     0.34      1012.6     0.1       S   180   0.8       S   186   9.77    270      -64.2
   07/03/2019 00:20      63.4      62.9       70     53.0      0.00      0.00      78.0     0.34      1012.6     0.4       S   176   1.4       S   187   9.77    270      -64.9
   07/03/2019 00:10      63.6      63.1       69     52.9      0.00      0.00      78.0     0.34      1012.7     0.0       E    95   0.7       E    86   9.77    270      -66.0
   07/03/2019 00:00      63.8      63.3       69     52.9      0.00      0.00      78.0     0.34      1012.7     0.0       E    99   0.7       E    91   9.77    270      -67.1
   07/02/2019 23:50      64.2      63.4       68     53.0      0.00      0.00      78.1     0.35      1012.6     0.2     ESE   113   1.3     ESE   118   9.77    270      -66.5
   07/02/2019 23:40      64.6      63.8       68     53.3      0.00      0.00      78.1     0.34      1012.6     0.0      SE   131   0.6     ESE   112   9.78    269      -67.2
   07/02/2019 23:30      65.0      64.3       68     53.6      0.00      0.00      78.1     0.35      1012.5     0.0     SSE   160   0.5     SSE   160   9.78    269      -67.9
   07/02/2019 23:20      65.5      64.7       67     53.7      0.00      0.00      78.1     0.35      1012.5     0.0     SSE   156   0.8     SSE   158   9.78    269      -68.4
   07/02/2019 23:10      65.9      65.2       66     53.9      0.00      0.00      78.1     0.35      1012.5     0.0       E    88   0.5     ESE   115   9.78    268      -68.9
   07/02/2019 23:00      66.4      65.7       65     54.0      0.00      0.00      78.1     0.35      1012.4     0.0     ENE    73   1.1     ENE    71   9.78    268      -70.5
   07/02/2019 22:50      66.5      66.1       65     54.2      0.00      0.00      78.1     0.35      1012.4     0.6       E    99   1.6     ENE    68   9.78    268      -72.4
   07/02/2019 22:40      66.7      66.1       66     54.4      0.00      0.00      78.1     0.35      1012.4     0.6     ESE   102   2.0     ENE    73   9.79    268      -71.5
   07/02/2019 22:30      67.2      66.3       64     54.3      0.00      0.00      78.1     0.35      1012.4     0.2      SE   127   1.1      SE   135   9.79    268      -72.4
   07/02/2019 22:20      67.5      66.9       63     54.3      0.00      0.00      78.1     0.35      1012.3     0.2       E    81   1.9     ENE    74   9.79    268      -73.7
   07/02/2019 22:10      67.9      67.3       62     54.2      0.00      0.00      78.1     0.35      1012.3     0.7     ENE    73   2.6       E    84   9.79    267      -74.5
   07/02/2019 22:00      68.3      67.5       61     54.0      0.00      0.00      78.1     0.35      1012.3     0.6     ENE    73   1.6      NE    52   9.80    267      -75.5
   07/02/2019 21:50      68.6      67.9       60     54.0      0.00      0.00      78.1     0.35      1012.2     0.9     ENE    70   2.5     ESE   109   9.80    267      -75.8
   07/02/2019 21:40      69.2      68.3       59     53.7      0.00      0.00      78.1     0.34      1012.1     0.7       E    93   2.5       E    79   9.80    267      -76.2
   07/02/2019 21:30      69.5      68.8       58     53.5      0.00      0.00      78.1     0.35      1012.0     0.8       E    90   2.4     ESE   103   9.80    267      -76.3
   07/02/2019 21:20      70.0      69.1       57     53.6      0.00      0.00      78.1     0.34      1012.0     1.2       E    97   3.3       E   101   9.81    266      -76.7
   07/02/2019 21:10      70.7      69.6       57     53.9      0.00      0.00      78.0     0.35      1011.9     1.4     ENE    77   3.0     ENE    63   9.81    266      -77.4
   07/02/2019 21:00      71.6      70.5       55     54.0      0.00      0.00      78.0     0.34      1011.8     1.5     ENE    70   2.9      NE    46   9.81    266      -78.7
   07/02/2019 20:50      72.7      71.3       53     54.0      0.00      0.00      78.0     0.34      1011.7     1.6      NE    54   3.8     ENE    59   9.82    266      -79.9
   07/02/2019 20:40      73.7      72.4       52     54.3      0.00      0.00      78.0     0.34      1011.6     1.7      NE    42   3.9      NE    48   9.82    266      -80.6
   07/02/2019 20:30      74.7      73.4       50     54.0      0.00      0.00      78.0     0.34      1011.5     2.1      NE    44   4.5     NNE    22   9.82    266      -81.1
   07/02/2019 20:20      75.5      74.4       44     51.4      0.00      0.00      78.0     0.34      1011.4     1.7     SSE   153   3.5       S   190   9.83    266      -79.6
   07/02/2019 20:10      75.8      75.2       43     51.7      0.00      0.00      78.0     0.34      1011.4     1.4      SE   135   2.5       E    91   9.83    266      -78.2
   07/02/2019 20:00      76.6      75.5       42     51.5      0.00      0.00      77.9     0.34      1011.3     2.3       S   170   4.5       S   170   9.83    266      -74.3
   07/02/2019 19:50      77.4      76.2       42     51.7      0.00      0.00      77.9     0.34      1011.3     2.6       S   175   4.7     SSE   147   9.84    265      -70.8
   07/02/2019 19:40      78.5      77.1       40     51.7      0.00      0.00      77.9     0.34      1011.3     3.3       S   178   6.7     SSW   210   9.84    265      -58.1
   07/02/2019 19:30      79.2      78.0       39     51.4      0.00      0.00      77.8     0.34      1011.2     3.9       S   173   7.3       S   173   9.85    265      -40.7
   07/02/2019 19:20      79.7      78.8       37     51.2      0.00      0.00      77.8     0.34      1011.2     3.4       S   190   6.0     SSW   210   9.85    265      -22.4
   07/02/2019 19:10      79.9      79.4       37     51.2      0.00      0.00      77.8     0.34      1011.2     3.2       S   185   5.0     SSE   166   9.86    265       -3.1
   07/02/2019 19:00      80.8      79.5       37     51.7      0.00      0.00      77.7     0.34      1011.2     4.1       S   170   7.1       S   190   9.86    265       15.1
   07/02/2019 18:50      81.0      80.4       38     52.8      0.00      0.00      77.7     0.34      1011.2     3.2       S   173   6.4       S   172   9.87    265       43.6
   07/02/2019 18:40      81.8      80.5       38     53.1      0.00      0.00      77.7     0.34      1011.2     4.6     SSE   165   7.8     SSW   195   9.87    265       67.6
   07/02/2019 18:30      82.9      81.5       38     53.9      0.00      0.00      77.7     0.34      1011.1     4.0     SSE   166   7.1      SE   144   9.88    264       90.5
   07/02/2019 18:20      83.3      82.6       38     54.4      0.00      0.00      77.6     0.34      1011.1     3.8       S   171   6.9     SSE   164   9.88    265      114.5
   07/02/2019 18:10      84.1      83.0       38     55.0      0.00      0.00      77.6     0.34      1011.0     4.2      SW   215   8.0     SSW   198   9.89    264      139.6
   07/02/2019 18:00      85.1      83.9       36     54.8      0.00      0.00      77.5     0.34      1011.1     4.3     SSW   213   7.0       S   179   9.90    264      166.0
   07/02/2019 17:50      86.2      84.8       35     55.1      0.00      0.00      77.5     0.34      1011.1     4.3      SW   215   8.7      SW   222   9.90    264      190.4
   07/02/2019 17:40      87.2      85.9       35     56.0      0.00      0.00      77.5     0.34      1011.1     3.4      SW   223   8.3       W   272   9.91    264      214.0
   07/02/2019 17:30      87.5      86.7       35     55.8      0.00      0.00      77.4     0.34      1011.2     3.0     WSW   254   6.1     WNW   285   9.91    264      238.4
   07/02/2019 17:20      88.0      87.1       34     55.5      0.00      0.00      77.4     0.34      1011.1     2.8     WSW   246   6.4      SW   232   9.92    264      262.3
   07/02/2019 17:10      88.4      87.4       33     55.1      0.00      0.00      77.3     0.34      1011.2     3.2     WSW   258   6.3      SW   223   9.92    264      285.3
   07/02/2019 17:00      88.3      87.3       33     55.2      0.00      0.00      77.3     0.34      1011.2     3.1      NW   324   6.2       N     9   9.93    264      311.5
   07/02/2019 16:50      87.8      86.9       34     55.9      0.00      0.00      77.2     0.34      1011.3     3.4       N   353   7.9      NE    35   9.93    264      335.6
   07/02/2019 16:40      87.9      86.9       33     54.9      0.00      0.00      77.2     0.34      1011.3     3.7     NNE    20   7.5     NNE    33   9.94    264      357.1
   07/02/2019 16:30      88.8      87.7       32     55.1      0.00      0.00      77.2     0.34      1011.2     4.4     WSW   237   8.7       W   265   9.94    264      377.7
   07/02/2019 16:20      88.8      87.6       32     54.8      0.00      0.00      77.1     0.34      1011.3     4.1      SW   229  10.0      SW   236   9.95    264      399.6
   07/02/2019 16:10      88.7      87.5       34     56.0      0.00      0.00      77.0     0.34      1011.4     4.3       S   181   8.7      SW   232   9.95    264      421.3
   07/02/2019 16:00      88.9      87.7       32     54.4      0.00      0.00      76.9     0.34      1011.4     3.2     ENE    57   6.9      SW   236   9.95    264      444.4
   07/02/2019 15:50      88.6      87.1       33     54.9      0.00      0.00      76.9     0.34      1011.6     3.4     NNE    32   7.1      NW   308   9.96    264      461.8
   07/02/2019 15:40      88.1      87.0       33     55.1      0.00      0.00      76.9     0.34      1011.7     3.9      NE    51  10.1      SE   146   9.96    264      479.2
   07/02/2019 15:30      87.3      86.1       35     56.1      0.00      0.00      76.9     0.34      1011.8     2.6       E    99   6.1       E    85   9.97    264      496.9
   07/02/2019 15:20      86.6      85.9       36     56.2      0.00      0.00      76.8     0.34      1011.9     4.1      SE   145   7.0       E    99   9.97    264      516.1
   07/02/2019 15:10      86.5      85.6       36     56.0      0.00      0.00      76.6     0.34      1012.0     4.5      SE   125   8.1     SSE   157   9.97    265      531.1
   07/02/2019 15:00      87.0      86.1       36     56.3      0.00      0.00      76.7     0.34      1012.0     3.6       E    98   7.3       E    89   9.98    264      538.7
   07/02/2019 14:50      87.6      86.2       36     56.5      0.00      0.00      76.6     0.34      1012.2     2.7     ESE   116   6.6      SE   128   9.98    264      553.2
   07/02/2019 14:40      88.2      87.1       35     56.8      0.00      0.00      76.6     0.34      1012.3     2.5     ENE    71   6.4     ESE   102   9.99    264      558.2
   07/02/2019 14:30      88.6      86.2       36     57.0      0.00      0.00      76.5     0.34      1012.4     2.7      NE    41   5.8      NE    41   9.99    265      575.4
   07/02/2019 14:20      87.5      85.6       37     56.9      0.00      0.00      76.3     0.34      1012.5     3.7       E    98   6.8       E    82   9.99    264      593.8
   07/02/2019 14:10      87.6      86.2       36     56.9      0.00      0.00      76.3     0.34      1012.5     3.5     ENE    63   8.1     ENE    77  10.00    264      607.5
   07/02/2019 14:00      87.4      85.7       37     56.9      0.00      0.00      76.4     0.34      1012.6     3.4      NE    42   6.9     NNE    23  10.00    264      611.5
   07/02/2019 13:50      86.7      85.5       37     56.6      0.00      0.00      76.3     0.34      1012.7     3.3       E    86   8.9     ENE    74  10.00    264      617.5
   07/02/2019 13:40      86.8      85.6       37     56.9      0.00      0.00      76.2     0.34      1012.8     2.8      NE    53   8.7     ENE    74  10.01    264      613.4
   07/02/2019 13:30      86.5      84.7       38     57.0      0.00      0.00      76.2     0.34      1013.0     2.3     ENE    66   5.3       W   265  10.01    264      624.5
   07/02/2019 13:20      86.5      85.3       38     57.0      0.00      0.00      76.1     0.34      1013.1     2.5     ENE    74   5.1      NE    35  10.01    264      624.7
   07/02/2019 13:10      85.7      84.1       38     56.4      0.00      0.00      76.0     0.34      1013.3     2.4     NNW   335   5.9       W   271  10.01    264      629.7
   07/02/2019 13:00      85.4      84.3       38     56.2      0.00      0.00      76.0     0.34      1013.4     2.2     ESE   111   6.0     ESE   103  10.02    264      632.5
   07/02/2019 12:50      85.4      84.5       37     56.1      0.00      0.00      76.0     0.34      1013.6     2.5       E    85   4.4     ESE   106  10.02    264      627.3
   07/02/2019 12:40      84.8      83.5       38     55.6      0.00      0.00      75.9     0.34      1013.7     2.4     NNW   334   5.4     NNW   345  10.03    264      626.1
   07/02/2019 12:30      84.4      83.0       38     55.5      0.00      0.00      76.0     0.34      1013.7     2.7       E    84   7.7     ENE    78  10.03    264      627.8
   07/02/2019 12:20      84.3      83.4       38     55.4      0.00      0.00      75.8     0.34      1013.7     2.8     NNE    31   4.7      NW   314  10.04    264      620.5
   07/02/2019 12:10      84.0      82.5       38     55.4      0.00      0.00      75.8     0.34      1013.9     2.1     NNE    32   4.6       N   355  10.04    264      611.3
   07/02/2019 12:00      82.6      81.5       40     55.2      0.00      0.00      75.8     0.34      1013.9     2.3     ENE    59   5.7       E    85  10.05    264      611.4
   07/02/2019 11:50      82.5      81.3       39     54.5      0.00      0.00      75.8     0.34      1014.0     2.0     ESE   121   5.1     ESE   116  10.05    264      602.8
   07/02/2019 11:40      82.1      81.4       40     55.1      0.00      0.00      75.8     0.34      1014.1     2.8      NE    47   6.3     ENE    68  10.06    264      593.2
   07/02/2019 11:30      81.9      80.5       41     54.9      0.00      0.00      75.8     0.34      1014.1     2.6      NE    39   4.5     ENE    64  10.06    264      582.8
   07/02/2019 11:20      80.9      79.4       42     54.9      0.00      0.00      75.8     0.34      1014.3     2.5     ENE    75   6.1     SSE   154  10.07    264      574.7
   07/02/2019 11:10      81.0      80.4       42     55.5      0.00      0.00      75.8     0.34      1014.5     2.1     NNE    32   4.3      NE    40  10.08    264      560.2
   07/02/2019 11:00      80.6      79.0       44     55.9      0.00      0.00      75.8     0.34      1014.5     2.5     NNE    31   4.9     NNW   328  10.09    264      551.0
   07/02/2019 10:50      79.9      78.8       45     56.1      0.00      0.00      75.8     0.34      1014.5     2.4      NE    35   4.6      NE    34  10.09    264      538.4
   07/02/2019 10:40      79.3      77.5       47     56.2      0.00      0.00      75.8     0.34      1014.4     2.3     NNE    29   4.7     ENE    58  10.09    264      525.5
   07/02/2019 10:30      77.8      76.5       48     55.9      0.00      0.00      75.8     0.34      1014.4     2.4     NNE    24   5.6      NE    40   9.98    265      506.7
   07/02/2019 10:20      77.6      76.3       48     56.0      0.00      0.00      75.9     0.34      1014.5     1.8     NNE    32   5.5      NE    46   9.77    264      495.6
   07/02/2019 10:10      76.6      75.5       50     55.8      0.00      0.00      75.8     0.34      1014.5     1.7      NE    35   4.8     ESE   111   9.77    265      476.1
   07/02/2019 10:00      75.6      73.8       51     55.5      0.00      0.00      75.9     0.34      1014.5     1.9     NNE    26   5.4     NNW   342   9.77    265      457.7
   07/02/2019 09:50      74.8      73.9       52     55.4      0.00      0.00      76.0     0.34      1014.6     2.0     NNW   348   4.8     ESE   104   9.77    265      439.0
   07/02/2019 09:40      74.4      73.8       52     55.3      0.00      0.00      76.0     0.34      1014.7     1.9     ENE    63   3.7       E    85   9.77    265      419.6
   07/02/2019 09:30      73.9      73.0       53     55.3      0.00      0.00      76.0     0.34      1014.7     1.4     NNE    21   3.7      NE    54   9.77    266      400.1
   07/02/2019 09:20      73.1      71.8       54     54.9      0.00      0.00      76.0     0.34      1014.7     1.3     NNE    15   3.5       N   350   9.77    266      384.0
   07/02/2019 09:10      72.5      70.8       56     55.3      0.00      0.00      76.1     0.34      1014.8     1.3     NNE    12   3.3      NE    48   9.77    266      370.0
   07/02/2019 09:00      71.1      69.3       60     55.6      0.00      0.00      76.1     0.34      1014.9     1.1      NW   317   2.9       N   354   9.77    266      364.9
   07/02/2019 08:50      69.4      68.2       63     55.8      0.00      0.00      76.2     0.34      1014.9     1.5       E    86   3.4      NE    45   9.77    268      199.4
   07/02/2019 08:40      68.4      67.2       65     55.7      0.00      0.00      76.2     0.34      1015.0     0.9       E    93   2.4       E    80   9.77    269        6.5
   07/02/2019 08:30      67.6      66.7       67     55.8      0.00      0.00      76.2     0.34      1015.0     1.1     NNE    25   2.3       E    81   9.77    270      -23.3
   07/02/2019 08:20      66.9      66.2       68     55.6      0.00      0.00      76.3     0.34      1014.9     1.1      SE   135   2.4      SE   143   9.77    270      -27.1
   07/02/2019 08:10      66.5      65.8       69     55.5      0.00      0.00      76.3     0.34      1014.8     1.1       E    89   2.7     ESE   107   9.77    270      -22.5
   07/02/2019 08:00      66.1      65.2       70     55.7      0.00      0.00      76.3     0.34      1014.8     1.0      NE    52   2.3      NE    56   9.77    270      -29.1
   07/02/2019 07:50      65.5      64.9       71     55.6      0.00      0.00      76.5     0.34      1014.8     1.3      NE    52   2.8       E    87   9.77    271      -15.6
   07/02/2019 07:40      65.1      64.6       72     55.7      0.00      0.00      76.4     0.34      1014.7     1.2     NNE    20   2.4     ENE    63   9.77    271       -5.8
   07/02/2019 07:30      64.6      63.8       74     55.6      0.00      0.00      76.5     0.34      1014.7     0.6      NE    48   2.8     ENE    63   9.77    271      -22.4
   07/02/2019 07:20      63.9      63.2       76     55.6      0.00      0.00      76.5     0.34      1014.7     0.6       E    81   2.3     ENE    70   9.77    271      -19.8
   07/02/2019 07:10      63.4      62.4       77     55.5      0.00      0.00      76.6     0.34      1014.7     0.6      NE    47   2.1     NNE    17   9.77    272      -11.5
   07/02/2019 07:00      62.6      61.7       78     55.1      0.00      0.00      76.6     0.34      1014.8     0.0     WSW   249   0.1     WSW   249   9.77    260      -12.0
   07/02/2019 06:50      61.8      60.3       80     54.8      0.00      0.00      76.7     0.34      1014.8     0.0       N     0   0.0      SE   142   9.77    258      -11.6
   07/02/2019 06:40      60.5      59.7       81     54.1      0.00      0.00      76.7     0.34      1014.7     0.0      SE   142   1.1      SE   142   9.77    261      -14.4
   07/02/2019 06:30      60.0      59.1       83     54.2      0.00      0.00      76.7     0.34      1014.6     0.4     SSE   162   0.9     SSE   162   9.77    269      -18.3
   07/02/2019 06:20      59.3      58.6       84     54.0      0.00      0.00      76.8     0.34      1014.6     0.0     SSW   192   0.3     SSW   192   9.77    285      -14.7
   07/02/2019 06:10      58.9      58.4       85     53.9      0.00      0.00      76.8     0.34      1014.6     0.0       N     0   0.0     SSE   160   9.77    307      -21.7
   07/02/2019 06:00      58.8      58.4       84     53.9      0.00      0.00      76.8     0.34      1014.6     0.0       S   174   0.2       S   174   9.77    311      -28.3
   07/02/2019 05:50      58.8      58.5       84     53.8      0.00      0.00      76.8     0.34      1014.5     0.2     SSE   161   0.8     SSE   154   9.77    306      -33.5
   07/02/2019 05:40      58.7      58.1       85     53.8      0.00      0.00      76.9     0.34      1014.4     0.6     SSE   160   1.2     SSE   168   9.78    297      -38.0
   07/02/2019 05:30      58.3      57.8       84     53.3      0.00      0.00      76.9     0.34      1014.4     0.6     SSE   159   1.1      SE   144   9.78    289      -42.2
   07/02/2019 05:20      58.6      57.7       84     53.2      0.00      0.00      77.0     0.34      1014.3     0.6     SSE   156   1.4     SSE   149   9.78    282      -44.0
   07/02/2019 05:10      58.9      58.4       84     53.6      0.00      0.00      77.0     0.34      1014.3     0.3       S   179   1.1     SSE   151   9.78    276      -45.9
   07/02/2019 05:00      58.8      58.2       83     53.5      0.00      0.00      77.0     0.34      1014.2     0.5     SSE   160   1.3       S   180   9.78    267      -49.9
   07/02/2019 04:50      59.4      58.6       82     53.5      0.00      0.00      77.0     0.34      1014.3     0.4     SSE   154   1.1     SSE   146   9.78    260      -50.9
   07/02/2019 04:40      59.2      58.4       83     53.8      0.00      0.00      77.0     0.34      1014.2     0.6       S   179   1.5       S   180   9.78    252      -53.4
   07/02/2019 04:30      59.0      58.5       83     53.5      0.00      0.00      77.1     0.34      1014.1     0.8     SSE   158   1.4     SSE   154   9.78    239      -55.8
   07/02/2019 04:20      59.4      58.6       82     53.3      0.00      0.00      77.2     0.34      1014.0     0.9     SSE   152   1.4     SSE   149   9.78    237      -56.1
   07/02/2019 04:10      60.2      59.2       81     53.9      0.00      0.00      77.2     0.34      1014.0     0.3       S   169   1.0       S   176   9.78    231      -55.9
   07/02/2019 04:00      60.5      59.8       80     53.9      0.00      0.00      77.3     0.34      1014.0     0.1     SSE   167   0.6       S   179   9.78    224      -57.4
   07/02/2019 03:50      60.6      60.2       80     54.1      0.00      0.00      77.3     0.34      1013.9     0.3       S   176   1.0       S   187   9.78    217      -58.2
   07/02/2019 03:40      60.8      60.1       79     53.8      0.00      0.00      77.3     0.34      1013.9     0.2     SSE   167   0.8       S   170   9.79    216      -59.2
   07/02/2019 03:30      61.1      60.4       78     53.7      0.00      0.00      77.3     0.34      1014.0     0.3     SSE   166   0.8       S   176   9.79    225      -59.9
   07/02/2019 03:20      61.6      60.8       76     53.7      0.00      0.00      77.3     0.34      1014.0     0.4     SSE   168   1.0       S   176   9.79    240      -60.5
   07/02/2019 03:10      61.5      61.1       76     53.7      0.00      0.00      77.4     0.34      1014.1     0.2       S   171   0.6       S   169   9.79    249      -61.0
   07/02/2019 03:00      62.0      61.1       75     53.4      0.00      0.00      77.4     0.34      1014.0     0.0       N     0   0.0     SSE   168   9.79    258      -61.9
   07/02/2019 02:50      62.2      61.6       74     53.5      0.00      0.00      77.4     0.34      1013.9     0.0      SE   136   0.8      SE   130   9.79    264      -63.0
   07/02/2019 02:40      62.5      61.9       73     53.5      0.00      0.00      77.4     0.34      1013.8     0.0      SE   138   0.6     SSE   154   9.79    266      -63.8
   07/02/2019 02:30      62.8      62.0       73     53.5      0.00      0.00      77.5     0.34      1013.9     0.0     SSE   153   1.2     SSE   147   9.79    269      -64.7
   07/02/2019 02:20      62.8      62.4       73     53.7      0.00      0.00      77.5     0.34      1013.8     0.1     ESE   117   1.0       E    99   9.80    270      -65.0
   07/02/2019 02:10      62.8      62.4       73     53.9      0.00      0.00      77.6     0.34      1013.8     0.2       E    82   1.0       E    96   9.80    270      -65.6
   07/02/2019 02:00      62.9      62.4       73     53.9      0.00      0.00      77.5     0.34      1013.7     0.0       E   100   0.7      SE   131   9.80    270      -64.2
   07/02/2019 01:50      63.2      62.6       73     54.2      0.00      0.00      77.5     0.34      1013.8     0.1     ESE   124   1.4      SE   142   9.80    266      -63.1
   07/02/2019 01:40      63.1      62.7       73     54.2      0.00      0.00      77.5     0.34      1013.8     0.2     SSE   150   1.2      SE   126   9.80    268      -62.7
   07/02/2019 01:30      63.8      62.9       72     54.0      0.00      0.00      77.5     0.34      1013.8     0.2     SSE   146   1.3      SE   141   9.80    269      -63.7
   07/02/2019 01:20      64.4      63.6       70     54.2      0.00      0.00      77.6     0.34      1013.9     0.2     SSE   147   1.2     SSE   158   9.80    270      -64.8
   07/02/2019 01:10      64.6      64.0       69     54.1      0.00      0.00      77.6     0.34      1013.9     0.0     SSW   197   1.2     SSW   198   9.81    270      -66.1
   07/02/2019 01:00      64.8      64.3       69     54.0      0.00      0.00      77.7     0.34      1013.9     0.0     ESE   103   0.6      SE   135   9.81    270      -68.0
   07/02/2019 00:50      65.1      64.6       68     54.0      0.00      0.00      77.7     0.34      1013.8     0.3       E    83   1.8       E    82   9.81    270      -67.9
   07/02/2019 00:40      65.3      64.8       68     54.0      0.00      0.00      77.7     0.34      1013.7     0.0       E   100   0.8     ESE   111   9.81    269      -68.7
   07/02/2019 00:30      65.5      65.0       67     54.0      0.00      0.00      77.7     0.34      1013.8     0.2     ESE   108   1.3     NNE    23   9.81    269      -69.4
   07/02/2019 00:20      65.7      65.2       66     53.7      0.00      0.00      77.7     0.35      1013.8     0.3       E    91   2.3      SE   139   9.81    269      -70.3
   07/02/2019 00:10      66.6      65.4       64     53.5      0.00      0.00      77.7     0.34      1013.7     0.2     ESE   102   1.0     ESE   113   9.81    269      -68.7
   07/02/2019 00:00      66.8      66.1       62     53.2      0.00      0.00      77.7     0.34      1013.8     0.3     ESE   102   3.4      NE    56   9.81    268      -68.7
   07/01/2019 23:50      67.2      66.4       61     53.0      0.00      0.00      77.7     0.35      1013.8     0.2       E    99   1.5     ESE   112   9.82    268      -68.5
   07/01/2019 23:40      67.9      66.9       59     52.8      0.00      0.00      77.8     0.34      1013.7     0.1       E    95   1.1     ESE   118   9.82    268      -67.6
   07/01/2019 23:30      68.2      67.6       59     52.9      0.00      0.00      77.8     0.34      1013.6     0.0     ENE    64   1.1     ESE   113   9.82    268      -67.3
   07/01/2019 23:20      68.3      67.6       58     52.7      0.00      0.00      77.8     0.34      1013.7     0.4     ESE   120   2.1     ENE    78   9.82    268      -66.9
   07/01/2019 23:10      68.2      67.3       58     52.5      0.00      0.00      77.8     0.35      1013.7     0.8     ESE   118   1.8      SE   133   9.82    267      -67.4
   07/01/2019 23:00      69.0      67.8       56     52.2      0.00      0.00      77.8     0.35      1013.7     0.4      SE   141   1.2      SE   137   9.83    267      -67.2
   07/01/2019 22:50      69.0      68.4       56     52.2      0.00      0.00      77.8     0.34      1013.8     0.6     SSE   154   1.6      SE   136   9.83    267      -67.5
   07/01/2019 22:40      70.0      68.5       54     51.8      0.00      0.00      77.8     0.34      1013.8     0.3      SE   132   1.2      SE   136   9.83    267      -67.6
   07/01/2019 22:30      70.7      69.7       52     51.7      0.00      0.00      77.8     0.35      1013.9     0.0     SSE   148   0.4     SSE   148   9.83    267      -67.8
   07/01/2019 22:20      71.3      70.5       50     51.3      0.00      0.00      77.8     0.35      1013.8     0.0       N     0   0.0      SE   124   9.84    267      -67.6
   07/01/2019 22:10      71.4      70.8       49     51.1      0.00      0.00      77.8     0.34      1013.8     0.6     ESE   107   2.1       E    97   9.84    266      -69.4
   07/01/2019 22:00      71.2      70.7       49     50.8      0.00      0.00      77.8     0.35      1013.8     0.7     ESE   122   2.1     ENE    72   9.84    266      -68.9
   07/01/2019 21:50      72.1      70.8       48     50.8      0.00      0.00      77.8     0.34      1013.7     0.4      SE   143   1.2     ESE   123   9.84    266      -69.5
   07/01/2019 21:40      72.6      71.6       48     51.2      0.00      0.00      77.8     0.34      1013.6     0.8      SE   127   1.5       E    86   9.85    266      -70.5
   07/01/2019 21:30      73.2      72.4       48     51.8      0.00      0.00      77.8     0.34      1013.6     0.3     SSE   167   1.1       S   188   9.85    266      -70.9
   07/01/2019 21:20      74.3      72.9       46     51.5      0.00      0.00      77.7     0.34      1013.5     0.4     ESE   122   1.5      SE   136   9.85    266      -73.0
   07/01/2019 21:10      74.6      73.9       45     51.7      0.00      0.00      77.7     0.34      1013.4     0.5     ESE   112   2.2     ENE    57   9.86    266      -73.8
   07/01/2019 21:00      75.0      74.3       45     51.8      0.00      0.00      77.7     0.34      1013.2     0.6     ESE   117   1.8       E    91   9.86    266      -75.0
   07/01/2019 20:50      74.9      74.4       45     51.9      0.00      0.00      77.7     0.34      1013.2     0.1       E    98   1.0     ENE    71   9.86    266      -75.5
   07/01/2019 20:40      75.7      74.7       44     51.3      0.00      0.00      77.7     0.34      1013.1     0.3     SSE   156   1.2     SSE   147   9.87    265      -77.3
   07/01/2019 20:30      78.3      75.5       40     50.4      0.00      0.00      77.6     0.34      1013.0     1.1     SSW   199   2.8      SW   219   9.87    265      -79.0
   07/01/2019 20:20      79.9      78.0       38     51.0      0.00      0.00      77.6     0.34      1012.9     0.6     ESE   119   2.0      SE   130   9.87    264      -82.2
   07/01/2019 20:10      81.3      79.6       34     49.7      0.00      0.00      77.7     0.34      1012.9     0.2     NNE    30   0.9       N   355   9.88    264      -82.9
   07/01/2019 20:00      82.4      81.1       31     47.9      0.00      0.00      77.6     0.34      1012.8     0.3     NNW   329   2.1     NNW   349   9.88    264      -82.2
   07/01/2019 19:50      83.3      82.1       30     47.7      0.00      0.00      77.6     0.34      1012.9     0.9     WNW   298   2.9       W   276   9.88    264      -78.8
   07/01/2019 19:40      83.9      83.0       29     47.7      0.00      0.00      77.5     0.34      1012.9     1.8      NW   307   4.1     WNW   301   9.89    264      -66.2
   07/01/2019 19:30      84.8      83.6       28     47.8      0.00      0.00      77.5     0.34      1012.8     2.0     NNW   333   4.0      NW   306   9.89    264      -47.6
   07/01/2019 19:20      84.7      84.0       28     47.6      0.00      0.00      77.5     0.34      1012.8     2.0      NW   316   4.2     WNW   290   9.89    264      -28.7
   07/01/2019 19:10      85.3      84.5       27     47.6      0.00      0.00      77.4     0.34      1012.8     2.2     NNW   329   5.0      NW   313   9.90    264       -8.3
   07/01/2019 19:00      86.2      85.1       27     47.4      0.00      0.00      77.4     0.34      1012.8     2.3      NW   304   5.3      NW   323   9.90    264       14.7
   07/01/2019 18:50      86.3      85.7       27     48.0      0.00      0.00      77.3     0.34      1012.8     2.0      NW   320   4.9      NW   317   9.91    263       37.8
   07/01/2019 18:40      86.7      86.0       27     48.4      0.00      0.00      77.3     0.34      1012.7     2.6      NW   306   6.3     WSW   249   9.92    263       61.4
   07/01/2019 18:30      87.3      86.2       26     48.0      0.00      0.00      77.3     0.34      1012.7     2.6      NW   315   7.3       N   353   9.92    263       84.9
   07/01/2019 18:20      87.2      86.5       26     47.9      0.00      0.00      77.2     0.34      1012.7     2.6      NW   323   5.0     NNW   327   9.93    263      109.8
   07/01/2019 18:10      87.9      86.5       25     47.3      0.00      0.00      77.2     0.34      1012.7     3.8      NW   322   9.0      NW   311   9.93    263      135.4
   07/01/2019 18:00      88.4      87.2       25     47.8      0.00      0.00      77.2     0.34      1012.7     3.2      NW   318   7.3     WNW   299   9.94    263      160.8
   07/01/2019 17:50      88.9      88.0       25     48.4      0.00      0.00      77.1     0.34      1012.7     3.4      NW   306   7.5       W   268   9.94    264      187.1
   07/01/2019 17:40      89.7      88.4       25     48.6      0.00      0.00      77.1     0.34      1012.8     4.0      NW   313   8.3     WNW   286   9.95    263      211.9
   07/01/2019 17:30      89.9      89.1       25     49.1      0.00      0.00      77.0     0.34      1012.8     3.0      NW   319   7.7      NW   317   9.96    263      235.6
   07/01/2019 17:20      90.1      89.4       25     49.1      0.00      0.00      77.0     0.34      1012.8     3.3      NW   312   7.4     NNW   329   9.96    263      258.4
   07/01/2019 17:10      90.3      89.7       25     49.4      0.00      0.00      76.9     0.34      1012.8     3.8      NW   317   8.6     NNW   338   9.97    263      282.9
   07/01/2019 17:00      91.4      89.8       24     48.8      0.00      0.00      76.9     0.34      1012.9     3.8      NW   312   8.5     WNW   295   9.97    263      305.9
   07/01/2019 16:50      91.3      90.6       23     47.8      0.00      0.00      76.9     0.34      1012.9     4.0       W   263   8.4     WSW   254   9.98    263      329.9
   07/01/2019 16:40      91.6      90.6       23     48.0      0.00      0.00      76.8     0.34      1012.9     3.7       W   277   8.5     WNW   296   9.98    263      353.7
   07/01/2019 16:30      91.4      90.3       23     47.7      0.00      0.00      76.8     0.34      1013.0     4.1       W   278   9.2     WSW   255   9.99    263      376.0
   07/01/2019 16:20      92.0      90.6       23     48.2      0.00      0.00      76.7     0.34      1013.0     4.4     WNW   284   9.7      NW   315   9.99    263      398.4
   07/01/2019 16:10      92.0      89.8       23     47.4      0.00      0.00      76.6     0.34      1013.2     3.9       W   262   8.6     WSW   239  10.00    263      420.0
   07/01/2019 16:00      91.0      89.7       24     48.5      0.00      0.00      76.6     0.34      1013.3     5.8      SW   226   9.5      SW   230  10.01    263      444.0
   07/01/2019 15:50      91.4      90.5       24     48.8      0.00      0.00      76.5     0.34      1013.3     5.1     WSW   239   8.1      SW   235  10.01    264      459.8
   07/01/2019 15:40      92.1      90.6       23     48.2      0.00      0.00      76.5     0.34      1013.3     5.0     WSW   259   8.5     WNW   288  10.02    263      477.3
   07/01/2019 15:30      92.1      90.8       24     49.3      0.00      0.00      76.4     0.34      1013.4     4.1       W   273   8.5     WSW   254  10.03    263      492.0
   07/01/2019 15:20      91.6      90.9       24     49.8      0.00      0.00      76.3     0.34      1013.4     3.3      SW   233   6.3     WSW   254  10.03    263      510.6
   07/01/2019 15:10      91.4      90.3       25     50.1      0.00      0.00      76.3     0.34      1013.4     4.9     SSW   209   9.6      SW   229  10.04    264      528.7
   07/01/2019 15:00      91.1      89.8       25     50.0      0.00      0.00      76.2     0.34      1013.4     4.4     SSE   161   9.7      SE   143  10.05    264      543.3
   07/01/2019 14:50      90.9      89.2       25     49.7      0.00      0.00      76.2     0.34      1013.5     5.8     SSE   156  11.1     SSE   152  10.05    264      559.2
   07/01/2019 14:40      90.9      90.0       25     49.5      0.00      0.00      76.1     0.34      1013.7     5.0     SSE   169   8.3     WSW   239  10.06    264      569.3
   07/01/2019 14:30      92.0      90.4       24     50.0      0.00      0.00      76.0     0.34      1013.7     4.5       S   177   9.5       S   172  10.07    264      578.0
   07/01/2019 14:20      91.5      90.2       25     50.0      0.00      0.00      76.0     0.34      1013.7     4.0       S   181   8.0       S   182  10.08    264      588.7
   07/01/2019 14:10      90.9      89.8       26     50.4      0.00      0.00      75.9     0.34      1013.8     5.2       S   191   9.3     SSW   197  10.08    264      598.3
   07/01/2019 14:00      90.5      89.8       27     52.0      0.00      0.00      75.8     0.34      1013.8     4.1       S   171   8.9     SSW   203  10.09    264      605.4
   07/01/2019 13:50      91.3      89.9       28     53.1      0.00      0.00      75.8     0.34      1013.8     3.7      SW   220   7.3      SW   220  10.10    264      610.7
   07/01/2019 13:40      91.3      90.2       29     54.3      0.00      0.00      75.7     0.34      1014.0     2.4     ESE   115   5.4       S   184  10.10    263      613.1
   07/01/2019 13:30      90.6      89.8       30     54.2      0.00      0.00      75.6     0.34      1014.0     2.0     ENE    78   4.5       N   354  10.10    264      617.6
   07/01/2019 13:20      90.0      89.2       30     53.7      0.00      0.00      75.5     0.34      1014.2     2.7       E    95   8.0     ESE   104  10.11    263      621.1
   07/01/2019 13:10      89.7      89.0       30     53.7      0.00      0.00      75.5     0.34      1014.3     3.0       E    88   8.3       E    93  10.11    263      625.2
   07/01/2019 13:00      90.2      89.1       28     52.0      0.00      0.00      75.3     0.34      1014.3     3.5     ESE   102   7.3     SSE   148  10.11    263      625.6
   07/01/2019 12:50      90.5      88.9       26     49.8      0.00      0.00      75.4     0.34      1014.4     2.1      SE   133   5.5      SE   136  10.12    263      623.3
   07/01/2019 12:40      90.6      89.3       26     50.4      0.00      0.00      75.4     0.34      1014.5     1.9       E    88   4.2     SSE   147  10.12    263      620.7
   07/01/2019 12:30      89.5      88.4       26     49.8      0.00      0.00      75.3     0.34      1014.6     1.9     NNE    12   5.1     NNE    13  10.12    263      619.0
   07/01/2019 12:20      89.0      88.1       29     52.1      0.00      0.00      75.3     0.34      1014.7     2.8     NNE    13   5.5     NNE    30  10.13    263      616.7
   07/01/2019 12:10      88.9      87.7       29     51.8      0.00      0.00      75.2     0.34      1014.7     2.1     ENE    69   4.8      NE    44  10.13    263      616.4
   07/01/2019 12:00      88.3      86.8       29     51.9      0.00      0.00      75.3     0.34      1014.8     1.9      NE    55   5.2     NNW   338  10.13    263      603.0
   07/01/2019 11:50      87.3      86.6       30     51.4      0.00      0.00      75.2     0.34      1014.8     2.0     NNE    15   4.7      NW   319  10.13    263      596.0
   07/01/2019 11:40      87.0      85.7       31     52.0      0.00      0.00      75.2     0.34      1014.9     1.6       N    11   4.2     NNE    25  10.13    263      593.6
   07/01/2019 11:30      85.9      84.9       31     51.2      0.00      0.00      75.2     0.34      1015.0     2.0       E    96   3.8     ENE    56  10.13    263      584.7
   07/01/2019 11:20      85.9      85.2       30     50.7      0.00      0.00      75.2     0.34      1015.0     1.6       N   359   3.5     WSW   237  10.14    263      571.0
   07/01/2019 11:10      85.7      84.0       31     50.7      0.00      0.00      75.2     0.34      1015.0     1.3      NE    36   4.2     ESE   102  10.16    263      562.3
   07/01/2019 11:00      84.1      83.4       32     50.4      0.00      0.00      75.2     0.34      1015.2     1.4     ENE    78   2.9     ENE    58  10.18    264      553.7
   07/01/2019 10:50      83.5      83.2       32     50.3      0.00      0.00      75.2     0.34      1015.3     2.1     NNE    32   3.4       N     4  10.21    263      540.8
   07/01/2019 10:40      82.9      81.4       33     50.3      0.00      0.00      75.2     0.34      1015.2     2.2     NNE    24   4.7       N     7   9.63    263      523.5
   07/01/2019 10:30      83.0      80.7       34     51.0      0.00      0.00      75.2     0.34      1015.3     1.3       N   352   4.3      NE    47   9.63    263      509.2
   07/01/2019 10:20      81.3      80.6       34     50.0      0.00      0.00      75.3     0.34      1015.3     1.7      NE    42   3.9       E    88   9.63    263      494.9
   07/01/2019 10:10      81.1      79.5       36     51.2      0.00      0.00      75.3     0.34      1015.4     1.2      NE    50   2.8     NNE    20   9.63    264      478.4
   07/01/2019 10:00      79.9      78.8       39     52.6      0.00      0.00      75.2     0.34      1015.4     1.3       N   351   3.5     NNE    19   9.63    263      466.7
   07/01/2019 09:50      78.9      77.9       42     52.9      0.00      0.00      75.3     0.34      1015.5     1.0       N   349   3.5     NNE    14   9.63    264      441.0
   07/01/2019 09:40      78.5      77.0       43     53.5      0.00      0.00      75.4     0.34      1015.5     0.8     NNW   349   2.9       N     0   9.63    264      424.0
   07/01/2019 09:30      77.1      75.2       46     53.6      0.00      0.00      75.4     0.34      1015.6     1.2       N     5   4.1     NNE    16   9.63    264      407.0
   07/01/2019 09:20      75.5      73.6       48     53.6      0.00      0.00      75.4     0.34      1015.7     1.3      NW   316   2.8     NNE    20   9.63    264      389.3
   07/01/2019 09:10      73.8      72.3       50     53.5      0.00      0.00      75.5     0.34      1015.8     1.2      NW   326   3.7       N     1   9.63    265      373.7
   07/01/2019 09:00      72.3      70.6       53     53.6      0.00      0.00      75.5     0.34      1015.9     1.2     NNW   348   2.7       N     9   9.64    266      370.6
   07/01/2019 08:50      70.8      69.2       55     53.1      0.00      0.00      75.6     0.34      1015.9     0.8     ESE   112   2.6     WSW   246   9.64    267      203.4
   07/01/2019 08:40      69.5      68.4       57     53.0      0.00      0.00      75.6     0.34      1015.9     1.5     ESE   102   2.9       E    91   9.64    268       -2.7
   07/01/2019 08:30      68.6      67.7       58     53.0      0.00      0.00      75.6     0.34      1015.9     1.3      SE   127   2.6       S   179   9.64    269      -32.4
   07/01/2019 08:20      68.0      67.1       60     53.0      0.00      0.00      75.7     0.34      1015.9     0.7      NE    52   3.1     ESE   107   9.64    269      -34.3
   07/01/2019 08:10      67.3      66.3       62     53.2      0.00      0.00      75.7     0.34      1016.0     0.8     SSE   162   2.2      SW   218   9.64    269      -30.0
   07/01/2019 08:00      66.5      65.4       64     53.3      0.00      0.00      75.7     0.34      1016.1     0.6      SW   229   2.5      SW   217   9.64    269      -33.4
   07/01/2019 07:50      65.8      65.1       65     53.3      0.00      0.00      75.8     0.34      1016.2     0.7     WNW   285   2.1       N     9   9.64    270      -21.0
   07/01/2019 07:40      65.2      64.2       66     53.3      0.00      0.00      75.8     0.34      1016.1     0.7     NNW   345   2.0     NNW   345   9.64    270       -6.0
   07/01/2019 07:30      64.4      63.4       68     53.0      0.00      0.00      75.9     0.34      1016.1     0.0     WNW   299   0.0     WNW   299   9.64    270      -30.6
   07/01/2019 07:20      63.6      62.6       69     52.9      0.00      0.00      75.9     0.34      1016.0     0.4      NW   324   1.8      NW   323   9.64    270      -40.4
   07/01/2019 07:10      62.8      61.7       72     53.1      0.00      0.00      75.9     0.34      1015.9     0.6     WNW   301   1.5      NW   312   9.64    271      -29.9
   07/01/2019 07:00      61.9      60.6       75     53.4      0.00      0.00      76.0     0.34      1015.8     0.0     SSW   206   0.7     SSW   206   9.64    271      -23.6
   07/01/2019 06:50      60.7      59.0       79     53.1      0.00      0.00      76.0     0.34      1015.8     0.0     SSW   201   0.5     SSW   197   9.64    258      -19.6
   07/01/2019 06:40      59.2      58.4       81     52.9      0.00      0.00      76.0     0.34      1015.7     0.5      SE   141   1.0      SE   140   9.64    260      -20.4
   07/01/2019 06:30      58.6      58.0       84     53.3      0.00      0.00      76.1     0.34      1015.7     0.0       N     0   0.0     SSE   156   9.64    273      -24.4
   07/01/2019 06:20      58.2      57.5       85     53.1      0.00      0.00      76.1     0.34      1015.5     0.0       N     0   0.0     SSE   153   9.64    285      -19.2
   07/01/2019 06:10      57.8      57.4       84     52.7      0.00      0.00      76.2     0.34      1015.4     0.5     SSE   153   1.0     SSE   149   9.64    309      -27.0
   07/01/2019 06:00      57.7      57.1       84     52.5      0.00      0.00      76.2     0.34      1015.4     0.4     SSE   163   1.0     SSE   160   9.64    318      -33.8
   07/01/2019 05:50      57.4      57.0       84     52.5      0.00      0.00      76.2     0.34      1015.3     0.1       S   190   0.8       S   191   9.64    311      -38.3
   07/01/2019 05:40      57.9      57.0       84     52.5      0.00      0.00      76.3     0.34      1015.2     0.6     SSE   158   1.0      SE   143   9.64    303      -43.1
   07/01/2019 05:30      58.1      57.5       84     52.8      0.00      0.00      76.3     0.34      1015.2     0.6     SSE   160   1.4       S   175   9.64    296      -46.3
   07/01/2019 05:20      58.2      57.6       84     52.9      0.00      0.00      76.4     0.34      1015.1     0.9     SSE   155   1.8      SE   140   9.64    287      -49.7
   07/01/2019 05:10      58.2      57.8       83     52.8      0.00      0.00      76.4     0.34      1015.1     0.5     SSE   152   1.1     SSE   149   9.64    279      -53.9
   07/01/2019 05:00      58.6      57.9       81     52.5      0.00      0.00      76.4     0.34      1015.0     0.3     SSE   157   1.6       S   178   9.65    266      -58.9
   07/01/2019 04:50      58.7      58.2       81     52.5      0.00      0.00      76.4     0.34      1015.0     0.9       S   184   1.7       S   187   9.65    254      -59.5
   07/01/2019 04:40      58.9      58.4       80     52.4      0.00      0.00      76.5     0.34      1015.0     0.9       S   183   1.7       S   183   9.65    252      -60.4
   07/01/2019 04:30      59.0      58.4       80     52.5      0.00      0.00      76.5     0.34      1015.0     1.2     SSW   195   1.5     SSW   192   9.65    241      -59.5
   07/01/2019 04:20      59.3      58.6       80     52.6      0.00      0.00      76.5     0.34      1015.0     0.3     SSE   169   1.1       S   175   9.65    240      -59.5
   07/01/2019 04:10      59.8      59.1       78     52.7      0.00      0.00      76.6     0.34      1015.0     0.4     SSE   159   0.9      SE   133   9.65    228      -60.2
   07/01/2019 04:00      59.8      59.5       78     52.8      0.00      0.00      76.6     0.34      1015.0     0.4       S   185   1.1     SSE   166   9.65    222      -59.9
   07/01/2019 03:50      60.0      59.6       79     53.3      0.00      0.00      76.6     0.34      1015.0     0.2       S   172   0.9       S   178   9.65    217      -59.9
   07/01/2019 03:40      59.9      59.3       79     53.2      0.00      0.00      76.7     0.34      1015.0     0.8     SSE   164   1.1     SSE   164   9.65    217      -60.7
   07/01/2019 03:30      59.7      59.3       79     53.1      0.00      0.00      76.7     0.34      1015.1     0.7     SSE   160   1.4     SSE   162   9.65    226      -61.3
   07/01/2019 03:20      60.6      59.3       77     52.7      0.00      0.00      76.7     0.34      1015.1     0.6     SSE   165   1.2     SSE   167   9.65    230      -61.6
   07/01/2019 03:10      60.6      60.0       77     53.1      0.00      0.00      76.8     0.34      1015.1     0.3     SSE   161   0.9       S   179   9.65    244      -61.2
   07/01/2019 03:00      61.2      60.1       74     52.4      0.00      0.00      76.8     0.34      1015.1     0.6     SSE   163   1.1     SSE   165   9.66    245      -62.2
   07/01/2019 02:50      61.4      60.8       74     52.6      0.00      0.00      76.8     0.34      1015.0     0.2       S   177   1.3       S   186   9.66    258      -61.7
   07/01/2019 02:40      61.5      60.4       75     53.0      0.00      0.00      76.8     0.34      1015.0     0.4       S   170   1.4      SE   143   9.66    255      -61.7
   07/01/2019 02:30      60.7      59.8       77     52.8      0.00      0.00      76.9     0.34      1015.0     0.9     SSE   168   1.5     SSE   163   9.66    268      -63.4
   07/01/2019 02:20      61.2      60.2       77     53.2      0.00      0.00      76.9     0.34      1015.1     0.8     SSE   167   1.2     SSE   158   9.66    264      -62.3
   07/01/2019 02:10      61.5      60.9       76     53.8      0.00      0.00      76.9     0.34      1015.2     0.4     SSE   160   1.2       S   169   9.66    253      -61.8
   07/01/2019 02:00      61.9      61.1       76     53.8      0.00      0.00      76.9     0.34      1015.2     0.9     SSE   156   1.4      SE   141   9.66    262      -62.2
   07/01/2019 01:50      62.1      61.6       75     53.9      0.00      0.00      77.0     0.34      1015.2     0.7     SSE   161   1.1     SSE   147   9.66    264      -62.0
   07/01/2019 01:40      62.0      61.6       76     54.0      0.00      0.00      77.0     0.34      1015.4     0.6     SSE   164   1.2     SSE   159   9.66    266      -62.0
   07/01/2019 01:30      62.6      61.5       75     53.7      0.00      0.00      77.0     0.34      1015.5     0.2     SSE   157   1.1      SE   146   9.67    260      -63.3
   07/01/2019 01:20      63.3      62.3       73     53.8      0.00      0.00      77.0     0.34      1015.5     0.9       S   181   1.4       S   182   9.67    268      -63.6
   07/01/2019 01:10      64.0      63.0       71     54.1      0.00      0.00      77.0     0.34      1015.6     0.5       S   190   2.0     SSW   191   9.67    269      -63.6
   07/01/2019 01:00      63.8      63.3       71     53.9      0.00      0.00      77.0     0.34      1015.6     0.5       S   174   0.9       S   174   9.67    270      -64.1
   07/01/2019 00:50      64.0      63.3       70     53.9      0.00      0.00      77.1     0.34      1015.6     0.0     SSE   166   0.5       S   176   9.67    270      -64.7
   07/01/2019 00:40      63.9      63.3       71     53.9      0.00      0.00      77.1     0.34      1015.7     0.0       S   189   0.6     SSW   193   9.67    270      -64.7
   07/01/2019 00:30      64.3      63.4       69     53.5      0.00      0.00      77.1     0.34      1015.7     0.0      SE   143   0.8      SE   146   9.67    270      -65.3
   07/01/2019 00:20      65.2      64.1       68     53.6      0.00      0.00      77.1     0.34      1015.7     0.3       S   172   1.2       S   182   9.68    269      -65.9
   07/01/2019 00:10      65.6      64.7       67     53.6      0.00      0.00      77.1     0.34      1015.7     0.2       S   174   1.0       S   174   9.68    269      -67.0
   07/01/2019 00:00      66.2      65.3       65     53.5      0.00      0.00      77.1     0.34      1015.7     0.2       S   176   1.1     SSE   151   9.68    268      -68.9


Back to data home page